<?xml version='1.0' encoding='UTF-8'?><gpx version="1.1" creator="JPX - https://github.com/jenetics/jpx" xmlns="http://www.topografix.com/GPX/1/1"><trk><trkseg><trkpt lat="44.88773088494154" lon="8.979006017013388"><ele>177.0</ele><time>2026-05-03T08:31:08.999Z</time></trkpt><trkpt lat="44.887794365138475" lon="8.978900447253109"><ele>177.0</ele><time>2026-05-03T08:31:11.999Z</time></trkpt><trkpt lat="44.887874148965096" lon="8.978855586321057"><ele>177.0</ele><time>2026-05-03T08:31:13.999Z</time></trkpt><trkpt lat="44.887955490957566" lon="8.97889651832543"><ele>177.0</ele><time>2026-05-03T08:31:16.999Z</time></trkpt><trkpt lat="44.88802588724763" lon="8.978990185464687"><ele>177.0</ele><time>2026-05-03T08:31:18.999Z</time></trkpt><trkpt lat="44.88801364023163" lon="8.979109166927726"><ele>176.6</ele><time>2026-05-03T08:31:20.999Z</time></trkpt><trkpt lat="44.88793956760954" lon="8.979212083115584"><ele>176.2</ele><time>2026-05-03T08:31:22.999Z</time></trkpt><trkpt lat="44.88787310202592" lon="8.979343850003556"><ele>175.8</ele><time>2026-05-03T08:31:24.999Z</time></trkpt><trkpt lat="44.88781593861876" lon="8.979464901839414"><ele>175.4</ele><time>2026-05-03T08:31:26.999Z</time></trkpt><trkpt lat="44.88775461134133" lon="8.979606798494766"><ele>175.0</ele><time>2026-05-03T08:31:28.999Z</time></trkpt><trkpt lat="44.88768708614871" lon="8.979740063551851"><ele>175.0</ele><time>2026-05-03T08:31:30.999Z</time></trkpt><trkpt lat="44.88763177640551" lon="8.979846182240367"><ele>175.0</ele><time>2026-05-03T08:31:32.999Z</time></trkpt><trkpt lat="44.887581891987146" lon="8.979939203151996"><ele>175.0</ele><time>2026-05-03T08:31:34.999Z</time></trkpt><trkpt lat="44.88753903875752" lon="8.980015493173756"><ele>175.0</ele><time>2026-05-03T08:31:37.999Z</time></trkpt><trkpt lat="44.88746683723218" lon="8.980049569106997"><ele>175.0</ele><time>2026-05-03T08:35:29Z</time></trkpt><trkpt lat="44.88744243645189" lon="8.979949778337293"><ele>175.0</ele><time>2026-05-03T08:35:30Z</time></trkpt><trkpt lat="44.88738123776039" lon="8.979857069610297"><ele>175.6</ele><time>2026-05-03T08:35:31Z</time></trkpt><trkpt lat="44.887319399717455" lon="8.979761025535485"><ele>176.2</ele><time>2026-05-03T08:35:32Z</time></trkpt><trkpt lat="44.887245953604996" lon="8.97964695195154"><ele>176.8</ele><time>2026-05-03T08:35:33Z</time></trkpt><trkpt lat="44.88715755433729" lon="8.9795363603604"><ele>177.4</ele><time>2026-05-03T08:35:34Z</time></trkpt><trkpt lat="44.88708629243997" lon="8.979397710074355"><ele>178.0</ele><time>2026-05-03T08:35:35Z</time></trkpt><trkpt lat="44.88699918524168" lon="8.979261171653281"><ele>177.60000000000002</ele><time>2026-05-03T08:35:36Z</time></trkpt><trkpt lat="44.886923700495586" lon="8.979141977695667"><ele>177.20000000000002</ele><time>2026-05-03T08:35:37Z</time></trkpt><trkpt lat="44.88685310726453" lon="8.97903050758778"><ele>176.8</ele><time>2026-05-03T08:35:37.999Z</time></trkpt><trkpt lat="44.88677365903731" lon="8.978939949896214"><ele>176.4</ele><time>2026-05-03T08:35:38.999Z</time></trkpt><trkpt lat="44.88672794450379" lon="8.978835317236204"><ele>176.0</ele><time>2026-05-03T08:35:39.999Z</time></trkpt><trkpt lat="44.886682485562545" lon="8.978764788141744"><ele>176.0</ele><time>2026-05-03T08:35:40.999Z</time></trkpt><trkpt lat="44.886629601748496" lon="8.978681754137908"><ele>176.0</ele><time>2026-05-03T08:35:42.999Z</time></trkpt><trkpt lat="44.88673695212381" lon="8.978411229489547"><ele>176.0</ele><time>2026-05-03T08:35:45.999Z</time></trkpt><trkpt lat="44.88673745028966" lon="8.978308380301208"><ele>176.0</ele><time>2026-05-03T08:35:46.999Z</time></trkpt><trkpt lat="44.88673372057102" lon="8.978192100156539"><ele>176.0</ele><time>2026-05-03T08:35:47.999Z</time></trkpt><trkpt lat="44.88674970342418" lon="8.978074541932868"><ele>176.0</ele><time>2026-05-03T08:35:48.999Z</time></trkpt><trkpt lat="44.8867717908643" lon="8.977974324170766"><ele>176.0</ele><time>2026-05-03T08:35:49.999Z</time></trkpt><trkpt lat="44.88673635787347" lon="8.977896008508031"><ele>176.0</ele><time>2026-05-03T08:35:52.999Z</time></trkpt><trkpt lat="44.8866201093275" lon="8.97800102073662"><ele>176.0</ele><time>2026-05-03T08:35:54.999Z</time></trkpt><trkpt lat="44.88652659981533" lon="8.978093819910965"><ele>178.0</ele><time>2026-05-03T08:35:55.999Z</time></trkpt><trkpt lat="44.88642720595552" lon="8.978181661420097"><ele>180.0</ele><time>2026-05-03T08:35:56.999Z</time></trkpt><trkpt lat="44.88634104819637" lon="8.978246259462214"><ele>182.0</ele><time>2026-05-03T08:35:57.999Z</time></trkpt><trkpt lat="44.8862363638332" lon="8.978255437024018"><ele>184.0</ele><time>2026-05-03T08:35:59.999Z</time></trkpt><trkpt lat="44.88621570914849" lon="8.978134823581943"><ele>186.0</ele><time>2026-05-03T08:36:01.999Z</time></trkpt><trkpt lat="44.886270428974505" lon="8.977977396740831"><ele>186.0</ele><time>2026-05-03T08:36:03.999Z</time></trkpt><trkpt lat="44.88629169639435" lon="8.977795230125695"><ele>186.0</ele><time>2026-05-03T08:36:05.999Z</time></trkpt><trkpt lat="44.88632387441781" lon="8.977703139305294"><ele>186.0</ele><time>2026-05-03T08:36:06.999Z</time></trkpt><trkpt lat="44.88636757318655" lon="8.977619919436828"><ele>186.0</ele><time>2026-05-03T08:36:07.999Z</time></trkpt><trkpt lat="44.886423516891476" lon="8.977528848847621"><ele>186.0</ele><time>2026-05-03T08:36:08.999Z</time></trkpt><trkpt lat="44.88646694186121" lon="8.977451542999685"><ele>186.0</ele><time>2026-05-03T08:36:09.999Z</time></trkpt><trkpt lat="44.88653147287504" lon="8.977396238157013"><ele>191.0</ele><time>2026-05-03T08:36:10.999Z</time></trkpt><trkpt lat="44.88662170669074" lon="8.977293175973923"><ele>196.0</ele><time>2026-05-03T08:36:12.998Z</time></trkpt><trkpt lat="44.88666221251646" lon="8.977212231029206"><ele>201.0</ele><time>2026-05-03T08:36:13.998Z</time></trkpt><trkpt lat="44.88669161143897" lon="8.977112683623401"><ele>206.0</ele><time>2026-05-03T08:36:14.998Z</time></trkpt><trkpt lat="44.886690095823404" lon="8.977002030863199"><ele>211.0</ele><time>2026-05-03T08:36:15.998Z</time></trkpt><trkpt lat="44.88672556572397" lon="8.976834559691726"><ele>210.66666666666666</ele><time>2026-05-03T08:36:17.998Z</time></trkpt><trkpt lat="44.88676812777209" lon="8.97675560828985"><ele>210.33333333333331</ele><time>2026-05-03T08:36:18.998Z</time></trkpt><trkpt lat="44.88677958358891" lon="8.976657178064622"><ele>210.0</ele><time>2026-05-03T08:36:19.998Z</time></trkpt><trkpt lat="44.8867618037603" lon="8.97654799623475"><ele>209.66666666666669</ele><time>2026-05-03T08:36:20.998Z</time></trkpt><trkpt lat="44.88674871193443" lon="8.97644891387451"><ele>209.33333333333334</ele><time>2026-05-03T08:36:21.998Z</time></trkpt><trkpt lat="44.8867742914671" lon="8.976346264299142"><ele>209.0</ele><time>2026-05-03T08:36:22.998Z</time></trkpt><trkpt lat="44.88683650884015" lon="8.976245406514268"><ele>209.0</ele><time>2026-05-03T08:36:23.998Z</time></trkpt><trkpt lat="44.88688058983081" lon="8.97610474528679"><ele>209.0</ele><time>2026-05-03T08:36:24.998Z</time></trkpt><trkpt lat="44.88690427864157" lon="8.97601280858687"><ele>209.0</ele><time>2026-05-03T08:36:25.998Z</time></trkpt><trkpt lat="44.886985477109704" lon="8.975922640510856"><ele>209.0</ele><time>2026-05-03T08:36:27.998Z</time></trkpt><trkpt lat="44.88706834685663" lon="8.975847778077146"><ele>209.0</ele><time>2026-05-03T08:36:29.998Z</time></trkpt><trkpt lat="44.8870753698629" lon="8.975741913250172"><ele>210.83333333333334</ele><time>2026-05-03T08:36:30.998Z</time></trkpt><trkpt lat="44.887053980081" lon="8.975637721212387"><ele>212.66666666666669</ele><time>2026-05-03T08:36:31.998Z</time></trkpt><trkpt lat="44.887018243979675" lon="8.97555410883889"><ele>214.5</ele><time>2026-05-03T08:36:32.998Z</time></trkpt><trkpt lat="44.886897697611914" lon="8.975497923014492"><ele>216.33333333333331</ele><time>2026-05-03T08:36:34.998Z</time></trkpt><trkpt lat="44.88680747635773" lon="8.975483735906863"><ele>218.16666666666666</ele><time>2026-05-03T08:36:36.998Z</time></trkpt><trkpt lat="44.88681626993159" lon="8.975383463572964"><ele>220.0</ele><time>2026-05-03T08:36:37.998Z</time></trkpt><trkpt lat="44.88685063217959" lon="8.975287741359455"><ele>220.0</ele><time>2026-05-03T08:36:38.998Z</time></trkpt><trkpt lat="44.88690032750083" lon="8.975143876396393"><ele>220.0</ele><time>2026-05-03T08:36:39.998Z</time></trkpt><trkpt lat="44.88694223721268" lon="8.974986100217517"><ele>220.0</ele><time>2026-05-03T08:36:40.998Z</time></trkpt><trkpt lat="44.88700944305149" lon="8.974843588252117"><ele>220.0</ele><time>2026-05-03T08:36:41.998Z</time></trkpt><trkpt lat="44.88706185013059" lon="8.97470944867367"><ele>221.83333333333331</ele><time>2026-05-03T08:36:42.998Z</time></trkpt><trkpt lat="44.88711787213236" lon="8.974589345299147"><ele>223.66666666666666</ele><time>2026-05-03T08:36:43.998Z</time></trkpt><trkpt lat="44.8871701074812" lon="8.97450734697217"><ele>225.5</ele><time>2026-05-03T08:36:44.998Z</time></trkpt><trkpt lat="44.88728950150049" lon="8.974482233613957"><ele>227.33333333333331</ele><time>2026-05-03T08:36:46.997Z</time></trkpt><trkpt lat="44.88736475819212" lon="8.974450776407604"><ele>229.16666666666666</ele><time>2026-05-03T08:36:47.997Z</time></trkpt><trkpt lat="44.887403773708876" lon="8.974372177414113"><ele>231.0</ele><time>2026-05-03T08:36:48.997Z</time></trkpt><trkpt lat="44.88745832017349" lon="8.974264138489026"><ele>230.4</ele><time>2026-05-03T08:36:49.997Z</time></trkpt><trkpt lat="44.887526281549874" lon="8.974146834498118"><ele>229.8</ele><time>2026-05-03T08:36:50.997Z</time></trkpt><trkpt lat="44.88761750904782" lon="8.974037651751216"><ele>229.20000000000002</ele><time>2026-05-03T08:36:51.997Z</time></trkpt><trkpt lat="44.887684094475155" lon="8.97393794808731"><ele>228.60000000000002</ele><time>2026-05-03T08:36:52.997Z</time></trkpt><trkpt lat="44.8877142751677" lon="8.973836125440204"><ele>228.0</ele><time>2026-05-03T08:36:54.997Z</time></trkpt><trkpt lat="44.88779228745393" lon="8.973792793664725"><ele>228.0</ele><time>2026-05-03T08:36:56.997Z</time></trkpt><trkpt lat="44.88787783198491" lon="8.973812484128615"><ele>228.0</ele><time>2026-05-03T08:36:57.997Z</time></trkpt><trkpt lat="44.88798090807929" lon="8.973827088780512"><ele>228.0</ele><time>2026-05-03T08:36:58.997Z</time></trkpt><trkpt lat="44.888078179050574" lon="8.973798528649784"><ele>228.0</ele><time>2026-05-03T08:36:59.997Z</time></trkpt><trkpt lat="44.888191782876014" lon="8.973778204259952"><ele>228.0</ele><time>2026-05-03T08:37:00.997Z</time></trkpt><trkpt lat="44.88830045706794" lon="8.97373459350173"><ele>228.0</ele><time>2026-05-03T08:37:01.997Z</time></trkpt><trkpt lat="44.888394253263805" lon="8.973695528898498"><ele>228.0</ele><time>2026-05-03T08:37:02.997Z</time></trkpt><trkpt lat="44.88849162993053" lon="8.973668782588296"><ele>228.0</ele><time>2026-05-03T08:37:03.997Z</time></trkpt><trkpt lat="44.88858261559064" lon="8.973663556164432"><ele>228.0</ele><time>2026-05-03T08:37:04.997Z</time></trkpt><trkpt lat="44.88866523480198" lon="8.973639426193246"><ele>228.0</ele><time>2026-05-03T08:37:05.997Z</time></trkpt><trkpt lat="44.88876443061233" lon="8.973593700270872"><ele>226.2</ele><time>2026-05-03T08:37:06.997Z</time></trkpt><trkpt lat="44.888870365837846" lon="8.973537068033208"><ele>224.4</ele><time>2026-05-03T08:37:07.997Z</time></trkpt><trkpt lat="44.88894776473919" lon="8.9734699504641"><ele>222.59999999999997</ele><time>2026-05-03T08:37:08.997Z</time></trkpt><trkpt lat="44.889013700533546" lon="8.9733921133829"><ele>220.79999999999998</ele><time>2026-05-03T08:37:09.997Z</time></trkpt><trkpt lat="44.88906641611825" lon="8.973317012263381"><ele>219.0</ele><time>2026-05-03T08:37:10.997Z</time></trkpt><trkpt lat="44.889153844480454" lon="8.973216996158934"><ele>219.0</ele><time>2026-05-03T08:37:12.997Z</time></trkpt><trkpt lat="44.88924130605223" lon="8.973152503386773"><ele>219.0</ele><time>2026-05-03T08:37:14.997Z</time></trkpt><trkpt lat="44.889257055926805" lon="8.973017782740454"><ele>219.0</ele><time>2026-05-03T08:37:16.997Z</time></trkpt><trkpt lat="44.88925515324903" lon="8.972926357484864"><ele>219.0</ele><time>2026-05-03T08:37:17.997Z</time></trkpt><trkpt lat="44.889245403041954" lon="8.972833373011577"><ele>219.0</ele><time>2026-05-03T08:37:19Z</time></trkpt><trkpt lat="44.88921677086012" lon="8.972734869283837"><ele>219.0</ele><time>2026-05-03T08:37:20Z</time></trkpt><trkpt lat="44.889179394445385" lon="8.972619095104639"><ele>219.0</ele><time>2026-05-03T08:37:21Z</time></trkpt><trkpt lat="44.88914307859333" lon="8.972532847319856"><ele>219.0</ele><time>2026-05-03T08:37:22Z</time></trkpt><trkpt lat="44.8891023763015" lon="8.972455313326858"><ele>219.0</ele><time>2026-05-03T08:37:23Z</time></trkpt><trkpt lat="44.88906862338126" lon="8.97234848678888"><ele>219.0</ele><time>2026-05-03T08:37:24Z</time></trkpt><trkpt lat="44.88902855898808" lon="8.972248812155785"><ele>219.0</ele><time>2026-05-03T08:37:25Z</time></trkpt><trkpt lat="44.888982503811285" lon="8.97215041913651"><ele>219.0</ele><time>2026-05-03T08:37:26Z</time></trkpt><trkpt lat="44.88890724208211" lon="8.972047621907553"><ele>217.5</ele><time>2026-05-03T08:37:28Z</time></trkpt><trkpt lat="44.888850322432134" lon="8.972003419491383"><ele>216.0</ele><time>2026-05-03T08:37:29Z</time></trkpt><trkpt lat="44.88876699157728" lon="8.971963365327413"><ele>214.5</ele><time>2026-05-03T08:37:30Z</time></trkpt><trkpt lat="44.88868989366322" lon="8.97194787589508"><ele>213.0</ele><time>2026-05-03T08:37:31Z</time></trkpt><trkpt lat="44.8886064769456" lon="8.971918946421738"><ele>211.5</ele><time>2026-05-03T08:37:32Z</time></trkpt><trkpt lat="44.88859477329314" lon="8.971809803985938"><ele>210.0</ele><time>2026-05-03T08:37:34Z</time></trkpt><trkpt lat="44.88863264788545" lon="8.971667320445043"><ele>209.0</ele><time>2026-05-03T08:37:36Z</time></trkpt><trkpt lat="44.88866861593403" lon="8.971546346044995"><ele>208.0</ele><time>2026-05-03T08:37:44Z</time></trkpt><trkpt lat="44.88866718173491" lon="8.971448066715194"><ele>207.0</ele><time>2026-05-03T08:37:47Z</time></trkpt><trkpt lat="44.88874121222508" lon="8.971376719201544"><ele>206.0</ele><time>2026-05-03T08:37:49.999Z</time></trkpt><trkpt lat="44.88882281641784" lon="8.971364371498913"><ele>205.0</ele><time>2026-05-03T08:37:51.999Z</time></trkpt><trkpt lat="44.88896370409971" lon="8.971415430067474"><ele>205.0</ele><time>2026-05-03T08:37:53.999Z</time></trkpt><trkpt lat="44.889053024847684" lon="8.971457337354764"><ele>205.0</ele><time>2026-05-03T08:37:54.999Z</time></trkpt><trkpt lat="44.889163054094794" lon="8.971520726540284"><ele>205.0</ele><time>2026-05-03T08:37:55.999Z</time></trkpt><trkpt lat="44.88929618108279" lon="8.971586557306189"><ele>205.0</ele><time>2026-05-03T08:37:56.999Z</time></trkpt><trkpt lat="44.88939681760684" lon="8.971633144982343"><ele>203.83333333333331</ele><time>2026-05-03T08:37:57.999Z</time></trkpt><trkpt lat="44.88947316634347" lon="8.971650066128944"><ele>202.66666666666666</ele><time>2026-05-03T08:37:58.999Z</time></trkpt><trkpt lat="44.889559051360436" lon="8.971617187759039"><ele>201.5</ele><time>2026-05-03T08:38:00.999Z</time></trkpt><trkpt lat="44.88953241490812" lon="8.971490170083287"><ele>200.33333333333331</ele><time>2026-05-03T08:38:04.999Z</time></trkpt><trkpt lat="44.88947959899872" lon="8.971424886887272"><ele>199.16666666666666</ele><time>2026-05-03T08:38:05.999Z</time></trkpt><trkpt lat="44.88940989980683" lon="8.971335422436486"><ele>198.0</ele><time>2026-05-03T08:38:06.999Z</time></trkpt><trkpt lat="44.88935074699666" lon="8.971258615981448"><ele>198.0</ele><time>2026-05-03T08:38:07.999Z</time></trkpt><trkpt lat="44.8892643975396" lon="8.97113692684685"><ele>198.0</ele><time>2026-05-03T08:38:09.999Z</time></trkpt><trkpt lat="44.889229235358485" lon="8.971024273154297"><ele>198.0</ele><time>2026-05-03T08:38:11.999Z</time></trkpt><trkpt lat="44.88922284468117" lon="8.970933416047874"><ele>198.0</ele><time>2026-05-03T08:38:12.999Z</time></trkpt><trkpt lat="44.88929499859386" lon="8.970824061265908"><ele>198.0</ele><time>2026-05-03T08:38:14.999Z</time></trkpt><trkpt lat="44.88936942287034" lon="8.970722707674588"><ele>201.4</ele><time>2026-05-03T08:38:16.999Z</time></trkpt><trkpt lat="44.88941276080542" lon="8.970586938080084"><ele>204.8</ele><time>2026-05-03T08:38:18.999Z</time></trkpt><trkpt lat="44.88936144272736" lon="8.970432462595367"><ele>208.2</ele><time>2026-05-03T08:38:20.998Z</time></trkpt><trkpt lat="44.88931071090981" lon="8.970328404735671"><ele>211.6</ele><time>2026-05-03T08:38:21.998Z</time></trkpt><trkpt lat="44.88928442451007" lon="8.970245790539424"><ele>215.0</ele><time>2026-05-03T08:38:22.998Z</time></trkpt><trkpt lat="44.889256900287215" lon="8.970123132175527"><ele>216.2</ele><time>2026-05-03T08:38:23.998Z</time></trkpt><trkpt lat="44.889238142342556" lon="8.970027888687705"><ele>217.4</ele><time>2026-05-03T08:38:24.998Z</time></trkpt><trkpt lat="44.88916159628257" lon="8.96979574650729"><ele>218.60000000000002</ele><time>2026-05-03T08:38:25.998Z</time></trkpt><trkpt lat="44.8891265219124" lon="8.969664049976812"><ele>219.8</ele><time>2026-05-03T08:38:26.998Z</time></trkpt><trkpt lat="44.8890952625311" lon="8.969553750994606"><ele>221.0</ele><time>2026-05-03T08:38:27.998Z</time></trkpt><trkpt lat="44.8890705066268" lon="8.969445650327778"><ele>224.66666666666669</ele><time>2026-05-03T08:38:28.998Z</time></trkpt><trkpt lat="44.8890405577228" lon="8.969331710834838"><ele>228.33333333333334</ele><time>2026-05-03T08:38:29.998Z</time></trkpt><trkpt lat="44.88899989501977" lon="8.96922456440967"><ele>232.0</ele><time>2026-05-03T08:38:30.998Z</time></trkpt><trkpt lat="44.888971970193175" lon="8.969112983832423"><ele>235.66666666666669</ele><time>2026-05-03T08:38:31.998Z</time></trkpt><trkpt lat="44.88894760346636" lon="8.969017941879263"><ele>239.33333333333334</ele><time>2026-05-03T08:38:32.998Z</time></trkpt><trkpt lat="44.8889223089557" lon="8.968925126227697"><ele>243.0</ele><time>2026-05-03T08:38:33.998Z</time></trkpt><trkpt lat="44.88892053066235" lon="8.968834523081638"><ele>245.2</ele><time>2026-05-03T08:38:34.998Z</time></trkpt><trkpt lat="44.888938738151666" lon="8.968745066246855"><ele>247.4</ele><time>2026-05-03T08:38:35.998Z</time></trkpt><trkpt lat="44.888956221010254" lon="8.9686002425056"><ele>249.59999999999997</ele><time>2026-05-03T08:38:37.998Z</time></trkpt><trkpt lat="44.88888154383897" lon="8.968500831304532"><ele>251.79999999999998</ele><time>2026-05-03T08:38:40.998Z</time></trkpt><trkpt lat="44.88880484297573" lon="8.9684746676613"><ele>254.0</ele><time>2026-05-03T08:38:41.998Z</time></trkpt><trkpt lat="44.88870645130542" lon="8.968464725145818"><ele>254.00000000000003</ele><time>2026-05-03T08:38:42.998Z</time></trkpt><trkpt lat="44.88860818125259" lon="8.968463075528705"><ele>254.0</ele><time>2026-05-03T08:38:43.998Z</time></trkpt><trkpt lat="44.888545133601276" lon="8.968457567331551"><ele>254.0</ele><time>2026-05-03T08:38:44.998Z</time></trkpt><trkpt lat="44.888509187211454" lon="8.968366390173733"><ele>254.0</ele><time>2026-05-03T08:38:46.998Z</time></trkpt><trkpt lat="44.88847410018973" lon="8.968213406627026"><ele>254.00000000000003</ele><time>2026-05-03T08:38:48.998Z</time></trkpt><trkpt lat="44.8883979257505" lon="8.968134821277348"><ele>254.0</ele><time>2026-05-03T08:38:49.998Z</time></trkpt><trkpt lat="44.88828410410918" lon="8.9680281702161"><ele>256.4</ele><time>2026-05-03T08:38:50.998Z</time></trkpt><trkpt lat="44.88817296288375" lon="8.967907449324706"><ele>258.79999999999995</ele><time>2026-05-03T08:38:51.998Z</time></trkpt><trkpt lat="44.888103537084156" lon="8.967832033956467"><ele>261.20000000000005</ele><time>2026-05-03T08:38:52.998Z</time></trkpt><trkpt lat="44.88802703132537" lon="8.967721933876488"><ele>263.6</ele><time>2026-05-03T08:38:54.997Z</time></trkpt><trkpt lat="44.888062404629416" lon="8.967594963708276"><ele>266.0</ele><time>2026-05-03T08:38:56.997Z</time></trkpt><trkpt lat="44.88809902771652" lon="8.96752125437779"><ele>266.0</ele><time>2026-05-03T08:38:57.997Z</time></trkpt><trkpt lat="44.88814162918134" lon="8.967433682686067"><ele>266.0</ele><time>2026-05-03T08:38:58.997Z</time></trkpt><trkpt lat="44.88818813629037" lon="8.967338703546394"><ele>266.0</ele><time>2026-05-03T08:38:59.997Z</time></trkpt><trkpt lat="44.88823399251199" lon="8.967250598370477"><ele>266.0</ele><time>2026-05-03T08:39:00.997Z</time></trkpt><trkpt lat="44.88827973377077" lon="8.967163917898748"><ele>266.0</ele><time>2026-05-03T08:39:01.997Z</time></trkpt><trkpt lat="44.88832922055515" lon="8.967070081249073"><ele>266.0</ele><time>2026-05-03T08:39:02.997Z</time></trkpt><trkpt lat="44.88838166466632" lon="8.966978371795374"><ele>263.6666666666667</ele><time>2026-05-03T08:39:03.997Z</time></trkpt><trkpt lat="44.88843228379831" lon="8.96689092870359"><ele>261.33333333333337</ele><time>2026-05-03T08:39:04.997Z</time></trkpt><trkpt lat="44.88847720649213" lon="8.966811422778463"><ele>259.0</ele><time>2026-05-03T08:39:05.997Z</time></trkpt><trkpt lat="44.88851502087825" lon="8.966737431112449"><ele>256.6666666666667</ele><time>2026-05-03T08:39:06.997Z</time></trkpt><trkpt lat="44.88856531368343" lon="8.966619361064755"><ele>254.33333333333334</ele><time>2026-05-03T08:39:08.997Z</time></trkpt><trkpt lat="44.888465200977414" lon="8.966524500717211"><ele>252.0</ele><time>2026-05-03T08:39:11.997Z</time></trkpt><trkpt lat="44.888365677199076" lon="8.966482468292787"><ele>252.0</ele><time>2026-05-03T08:39:12.997Z</time></trkpt><trkpt lat="44.88826516859348" lon="8.966419618944396"><ele>252.0</ele><time>2026-05-03T08:39:13.997Z</time></trkpt><trkpt lat="44.88815210970039" lon="8.966328797836463"><ele>252.0</ele><time>2026-05-03T08:39:14.997Z</time></trkpt><trkpt lat="44.88802707855388" lon="8.966241579176616"><ele>252.0</ele><time>2026-05-03T08:39:15.997Z</time></trkpt><trkpt lat="44.887918531454375" lon="8.96616305312874"><ele>252.0</ele><time>2026-05-03T08:39:16.997Z</time></trkpt><trkpt lat="44.887812947235275" lon="8.966085979527112"><ele>252.0</ele><time>2026-05-03T08:39:17.997Z</time></trkpt><trkpt lat="44.88771023520827" lon="8.966009787269375"><ele>252.0</ele><time>2026-05-03T08:39:18.997Z</time></trkpt><trkpt lat="44.887613451822965" lon="8.965926491884847"><ele>252.0</ele><time>2026-05-03T08:39:19.997Z</time></trkpt><trkpt lat="44.88752641708196" lon="8.965859354134393"><ele>252.0</ele><time>2026-05-03T08:39:20.997Z</time></trkpt><trkpt lat="44.887448932822785" lon="8.965790798203647"><ele>251.5</ele><time>2026-05-03T08:39:21.997Z</time></trkpt><trkpt lat="44.887364359653944" lon="8.965735883440196"><ele>251.0</ele><time>2026-05-03T08:39:22.997Z</time></trkpt><trkpt lat="44.88728128532323" lon="8.965692400328269"><ele>250.5</ele><time>2026-05-03T08:39:23.997Z</time></trkpt><trkpt lat="44.88720411840113" lon="8.96565700364562"><ele>250.0</ele><time>2026-05-03T08:39:25Z</time></trkpt><trkpt lat="44.88711639390358" lon="8.965634417306687"><ele>249.5</ele><time>2026-05-03T08:39:26Z</time></trkpt><trkpt lat="44.887027677255" lon="8.965626878696824"><ele>249.0</ele><time>2026-05-03T08:39:27Z</time></trkpt><trkpt lat="44.88694828431855" lon="8.965622799956629"><ele>249.0</ele><time>2026-05-03T08:39:28Z</time></trkpt><trkpt lat="44.88682679808019" lon="8.96567063122825"><ele>248.99999999999997</ele><time>2026-05-03T08:39:30Z</time></trkpt><trkpt lat="44.88673010215964" lon="8.96574554673359"><ele>248.99999999999997</ele><time>2026-05-03T08:39:32Z</time></trkpt><trkpt lat="44.88669235733095" lon="8.965827721529529"><ele>249.0</ele><time>2026-05-03T08:39:33Z</time></trkpt><trkpt lat="44.886647895375724" lon="8.965913324917866"><ele>249.0</ele><time>2026-05-03T08:39:34Z</time></trkpt><trkpt lat="44.88655526841268" lon="8.966030719831355"><ele>249.79999999999998</ele><time>2026-05-03T08:39:36Z</time></trkpt><trkpt lat="44.886480382064484" lon="8.966057722373035"><ele>250.59999999999997</ele><time>2026-05-03T08:39:37Z</time></trkpt><trkpt lat="44.8864191893709" lon="8.966096991504395"><ele>251.4</ele><time>2026-05-03T08:39:38Z</time></trkpt><trkpt lat="44.88632853606104" lon="8.966221135646002"><ele>252.2</ele><time>2026-05-03T08:39:40Z</time></trkpt><trkpt lat="44.88628793433738" lon="8.96632332867848"><ele>253.0</ele><time>2026-05-03T08:39:41Z</time></trkpt><trkpt lat="44.88624438960954" lon="8.966471343223043"><ele>252.99999999999997</ele><time>2026-05-03T08:39:42Z</time></trkpt><trkpt lat="44.88620697221164" lon="8.966604744292523"><ele>253.0</ele><time>2026-05-03T08:39:43Z</time></trkpt><trkpt lat="44.88615007411334" lon="8.966679799203535"><ele>253.0</ele><time>2026-05-03T08:39:44Z</time></trkpt><trkpt lat="44.88608210904068" lon="8.96670318153426"><ele>253.0</ele><time>2026-05-03T08:39:45Z</time></trkpt><trkpt lat="44.88600137484944" lon="8.96669582986066"><ele>252.99999999999997</ele><time>2026-05-03T08:39:46Z</time></trkpt><trkpt lat="44.88592123781744" lon="8.966686224052607"><ele>253.0</ele><time>2026-05-03T08:39:47Z</time></trkpt><trkpt lat="44.88584424670589" lon="8.966737460784314"><ele>256.4</ele><time>2026-05-03T08:39:48Z</time></trkpt><trkpt lat="44.88573738219072" lon="8.966765168312836"><ele>259.8</ele><time>2026-05-03T08:39:49Z</time></trkpt><trkpt lat="44.88560651055009" lon="8.96674267333582"><ele>263.2</ele><time>2026-05-03T08:39:50Z</time></trkpt><trkpt lat="44.88552308104531" lon="8.966736343671046"><ele>266.6</ele><time>2026-05-03T08:39:51Z</time></trkpt><trkpt lat="44.88543885376342" lon="8.966729751114677"><ele>270.0</ele><time>2026-05-03T08:39:52Z</time></trkpt><trkpt lat="44.885341091607984" lon="8.96678935749646"><ele>270.0</ele><time>2026-05-03T08:39:54Z</time></trkpt><trkpt lat="44.885272347340845" lon="8.966832156708776"><ele>270.0</ele><time>2026-05-03T08:39:55Z</time></trkpt><trkpt lat="44.8851697392102" lon="8.966849192187436"><ele>270.0</ele><time>2026-05-03T08:39:56Z</time></trkpt><trkpt lat="44.88510164565795" lon="8.966836580155165"><ele>270.0</ele><time>2026-05-03T08:39:57Z</time></trkpt><trkpt lat="44.8850289058247" lon="8.966896130676572"><ele>270.0</ele><time>2026-05-03T08:39:59.999Z</time></trkpt><trkpt lat="44.88500332549815" lon="8.967003506129053"><ele>270.0</ele><time>2026-05-03T08:40:01.999Z</time></trkpt><trkpt lat="44.88485510994214" lon="8.967005343465905"><ele>272.2</ele><time>2026-05-03T08:40:03.999Z</time></trkpt><trkpt lat="44.88475607331895" lon="8.966980985485135"><ele>274.4</ele><time>2026-05-03T08:40:04.999Z</time></trkpt><trkpt lat="44.88466837654206" lon="8.96697130001515"><ele>276.6</ele><time>2026-05-03T08:40:05.999Z</time></trkpt><trkpt lat="44.884582627557926" lon="8.96695342890959"><ele>278.8</ele><time>2026-05-03T08:40:06.999Z</time></trkpt><trkpt lat="44.884494483614006" lon="8.966903274891255"><ele>281.0</ele><time>2026-05-03T08:40:07.999Z</time></trkpt><trkpt lat="44.88446128274974" lon="8.966797901617124"><ele>281.0</ele><time>2026-05-03T08:40:09.999Z</time></trkpt><trkpt lat="44.8843744294444" lon="8.966772603348307"><ele>281.0</ele><time>2026-05-03T08:40:12.999Z</time></trkpt><trkpt lat="44.884341280232846" lon="8.966917491551547"><ele>281.0</ele><time>2026-05-03T08:40:14.999Z</time></trkpt><trkpt lat="44.884340593586266" lon="8.967028619499144"><ele>281.0</ele><time>2026-05-03T08:40:15.999Z</time></trkpt><trkpt lat="44.88432798095625" lon="8.9671320968965"><ele>281.0</ele><time>2026-05-03T08:40:16.999Z</time></trkpt><trkpt lat="44.884375735081335" lon="8.967397733817377"><ele>281.0</ele><time>2026-05-03T08:40:17.999Z</time></trkpt><trkpt lat="44.884386264953704" lon="8.967575570854981"><ele>281.0</ele><time>2026-05-03T08:40:18.999Z</time></trkpt><trkpt lat="44.884393955525944" lon="8.967672740892398"><ele>281.0</ele><time>2026-05-03T08:40:19.999Z</time></trkpt><trkpt lat="44.884324047071054" lon="8.967636961883056"><ele>281.0</ele><time>2026-05-03T08:40:25.999Z</time></trkpt><trkpt lat="44.88429596891213" lon="8.9674364739844"><ele>281.0</ele><time>2026-05-03T08:40:29.999Z</time></trkpt><trkpt lat="44.884264820316965" lon="8.967294190720528"><ele>283.6</ele><time>2026-05-03T08:40:30.998Z</time></trkpt><trkpt lat="44.88421984880483" lon="8.967113847691566"><ele>286.20000000000005</ele><time>2026-05-03T08:40:31.998Z</time></trkpt><trkpt lat="44.8841796133243" lon="8.966939952949978"><ele>288.79999999999995</ele><time>2026-05-03T08:40:32.998Z</time></trkpt><trkpt lat="44.884161987830986" lon="8.966802627242483"><ele>291.4</ele><time>2026-05-03T08:40:33.998Z</time></trkpt><trkpt lat="44.88414233872586" lon="8.966711526411974"><ele>294.0</ele><time>2026-05-03T08:40:34.998Z</time></trkpt><trkpt lat="44.884062589906115" lon="8.966605324138797"><ele>294.0</ele><time>2026-05-03T08:40:36.998Z</time></trkpt><trkpt lat="44.8839971160929" lon="8.96649743060866"><ele>294.0</ele><time>2026-05-03T08:40:37.998Z</time></trkpt><trkpt lat="44.8839842386611" lon="8.96634727962216"><ele>294.0</ele><time>2026-05-03T08:40:38.998Z</time></trkpt><trkpt lat="44.88399978207499" lon="8.966156063960184"><ele>294.0</ele><time>2026-05-03T08:40:39.998Z</time></trkpt><trkpt lat="44.88403940915734" lon="8.96598511936272"><ele>294.0</ele><time>2026-05-03T08:40:40.998Z</time></trkpt><trkpt lat="44.884067886374794" lon="8.965852813342412"><ele>294.0</ele><time>2026-05-03T08:40:41.998Z</time></trkpt><trkpt lat="44.88397523548487" lon="8.965843479806072"><ele>294.0</ele><time>2026-05-03T08:40:44.998Z</time></trkpt><trkpt lat="44.883875473623796" lon="8.965966958257729"><ele>294.0</ele><time>2026-05-03T08:40:46.998Z</time></trkpt><trkpt lat="44.88380978895682" lon="8.966025034604787"><ele>294.0</ele><time>2026-05-03T08:40:47.998Z</time></trkpt><trkpt lat="44.88375677570014" lon="8.966080777320776"><ele>294.0</ele><time>2026-05-03T08:40:48.998Z</time></trkpt><trkpt lat="44.883713919053314" lon="8.966003119826134"><ele>294.0</ele><time>2026-05-03T08:40:51.998Z</time></trkpt><trkpt lat="44.8837595507676" lon="8.965832909339156"><ele>294.0</ele><time>2026-05-03T08:40:53.998Z</time></trkpt><trkpt lat="44.883803097310214" lon="8.965690886879772"><ele>294.0</ele><time>2026-05-03T08:40:54.998Z</time></trkpt><trkpt lat="44.88382106319898" lon="8.965569094780243"><ele>294.0</ele><time>2026-05-03T08:40:55.998Z</time></trkpt><trkpt lat="44.88380096731834" lon="8.965413601037705"><ele>292.59999999999997</ele><time>2026-05-03T08:40:57.998Z</time></trkpt><trkpt lat="44.88374750256219" lon="8.965269958419345"><ele>291.2</ele><time>2026-05-03T08:40:59.998Z</time></trkpt><trkpt lat="44.88365100643301" lon="8.965186635742404"><ele>289.79999999999995</ele><time>2026-05-03T08:41:01.998Z</time></trkpt><trkpt lat="44.88356473764104" lon="8.965105164975226"><ele>288.4</ele><time>2026-05-03T08:41:03.997Z</time></trkpt><trkpt lat="44.883526474213845" lon="8.96498524795228"><ele>287.0</ele><time>2026-05-03T08:41:05.997Z</time></trkpt><trkpt lat="44.883553055077044" lon="8.964841285659636"><ele>285.0</ele><time>2026-05-03T08:41:07.997Z</time></trkpt><trkpt lat="44.883549532589875" lon="8.964684620412065"><ele>283.0</ele><time>2026-05-03T08:41:09.997Z</time></trkpt><trkpt lat="44.88352337902708" lon="8.964579045462953"><ele>281.0</ele><time>2026-05-03T08:41:11.997Z</time></trkpt><trkpt lat="44.88354009181446" lon="8.964475570656676"><ele>279.0</ele><time>2026-05-03T08:41:14.997Z</time></trkpt><trkpt lat="44.88359164050617" lon="8.96439731501387"><ele>277.0</ele><time>2026-05-03T08:41:16.997Z</time></trkpt><trkpt lat="44.88364419957244" lon="8.964336773271834"><ele>275.0</ele><time>2026-05-03T08:41:18.997Z</time></trkpt><trkpt lat="44.883599025449406" lon="8.96420368542521"><ele>272.5</ele><time>2026-05-03T08:41:22.997Z</time></trkpt><trkpt lat="44.88358644136312" lon="8.964056817270857"><ele>270.0</ele><time>2026-05-03T08:41:24.997Z</time></trkpt><trkpt lat="44.88359072754879" lon="8.963962976427021"><ele>267.5</ele><time>2026-05-03T08:41:25.997Z</time></trkpt><trkpt lat="44.883595846205324" lon="8.963847483048411"><ele>265.0</ele><time>2026-05-03T08:41:35Z</time></trkpt><trkpt lat="44.883639977006624" lon="8.963738192314503"><ele>262.5</ele><time>2026-05-03T08:41:39Z</time></trkpt><trkpt lat="44.88370485683769" lon="8.963691763117101"><ele>260.0</ele><time>2026-05-03T08:41:41Z</time></trkpt><trkpt lat="44.88376711277765" lon="8.963533524970854"><ele>260.0</ele><time>2026-05-03T08:41:43Z</time></trkpt><trkpt lat="44.88378313138295" lon="8.96340103341614"><ele>260.0</ele><time>2026-05-03T08:41:45Z</time></trkpt><trkpt lat="44.883719280361916" lon="8.963325539566986"><ele>260.0</ele><time>2026-05-03T08:41:47Z</time></trkpt><trkpt lat="44.88363236009848" lon="8.963280735727698"><ele>260.0</ele><time>2026-05-03T08:41:48Z</time></trkpt><trkpt lat="44.88356094351071" lon="8.963285787620496"><ele>260.0</ele><time>2026-05-03T08:41:49Z</time></trkpt><trkpt lat="44.883490429642734" lon="8.963293286368728"><ele>260.0</ele><time>2026-05-03T08:41:50Z</time></trkpt><trkpt lat="44.88340012150352" lon="8.96331205500271"><ele>261.2</ele><time>2026-05-03T08:41:51Z</time></trkpt><trkpt lat="44.883342295689495" lon="8.963348844323344"><ele>262.4</ele><time>2026-05-03T08:41:52Z</time></trkpt><trkpt lat="44.88324060946752" lon="8.963464226805163"><ele>263.6</ele><time>2026-05-03T08:41:54Z</time></trkpt><trkpt lat="44.883257073664275" lon="8.96356603991329"><ele>264.8</ele><time>2026-05-03T08:41:56Z</time></trkpt><trkpt lat="44.883314019176446" lon="8.963671510743202"><ele>266.0</ele><time>2026-05-03T08:41:57Z</time></trkpt><trkpt lat="44.883370380760276" lon="8.963777936212633"><ele>266.0</ele><time>2026-05-03T08:41:58Z</time></trkpt><trkpt lat="44.88334274817533" lon="8.963866196306057"><ele>266.0</ele><time>2026-05-03T08:42:00Z</time></trkpt><trkpt lat="44.883277736389665" lon="8.96386759684613"><ele>266.0</ele><time>2026-05-03T08:42:01Z</time></trkpt><trkpt lat="44.88318487488347" lon="8.963840494099342"><ele>266.0</ele><time>2026-05-03T08:42:02Z</time></trkpt><trkpt lat="44.883067875544384" lon="8.963806038531285"><ele>266.0</ele><time>2026-05-03T08:42:03Z</time></trkpt><trkpt lat="44.8829395362333" lon="8.963803407569344"><ele>266.0</ele><time>2026-05-03T08:42:04Z</time></trkpt><trkpt lat="44.882819222642446" lon="8.963823453384691"><ele>266.0</ele><time>2026-05-03T08:42:05Z</time></trkpt><trkpt lat="44.88271617230923" lon="8.963838046319314"><ele>266.0</ele><time>2026-05-03T08:42:05.999Z</time></trkpt><trkpt lat="44.88261872201729" lon="8.963857010864531"><ele>266.0</ele><time>2026-05-03T08:42:06.999Z</time></trkpt><trkpt lat="44.88252173914077" lon="8.963870823554188"><ele>266.0</ele><time>2026-05-03T08:42:07.999Z</time></trkpt><trkpt lat="44.88241774463836" lon="8.963896290972924"><ele>266.6666666666667</ele><time>2026-05-03T08:42:08.999Z</time></trkpt><trkpt lat="44.88231921152439" lon="8.963923995142059"><ele>267.33333333333337</ele><time>2026-05-03T08:42:09.999Z</time></trkpt><trkpt lat="44.882223945628695" lon="8.96394929254796"><ele>268.0</ele><time>2026-05-03T08:42:10.999Z</time></trkpt><trkpt lat="44.88215423666372" lon="8.963951303858574"><ele>268.6666666666667</ele><time>2026-05-03T08:42:11.999Z</time></trkpt><trkpt lat="44.882088680814405" lon="8.96396238494899"><ele>269.3333333333333</ele><time>2026-05-03T08:42:12.999Z</time></trkpt><trkpt lat="44.88199360152222" lon="8.96405035864222"><ele>270.0</ele><time>2026-05-03T08:42:14.999Z</time></trkpt><trkpt lat="44.88196490058894" lon="8.964203587194953"><ele>270.0</ele><time>2026-05-03T08:42:16.999Z</time></trkpt><trkpt lat="44.8819522314633" lon="8.96435209080909"><ele>270.0</ele><time>2026-05-03T08:42:17.999Z</time></trkpt><trkpt lat="44.88192742535314" lon="8.964545256576843"><ele>270.0</ele><time>2026-05-03T08:42:18.999Z</time></trkpt><trkpt lat="44.88188932360269" lon="8.964739866037078"><ele>270.0</ele><time>2026-05-03T08:42:19.999Z</time></trkpt><trkpt lat="44.88182947103477" lon="8.964957539497648"><ele>270.75</ele><time>2026-05-03T08:42:20.999Z</time></trkpt><trkpt lat="44.88176160168136" lon="8.965134961095538"><ele>271.5</ele><time>2026-05-03T08:42:21.999Z</time></trkpt><trkpt lat="44.881684764150556" lon="8.965303669506085"><ele>272.25</ele><time>2026-05-03T08:42:22.999Z</time></trkpt><trkpt lat="44.881671939622656" lon="8.965480245372353"><ele>273.0</ele><time>2026-05-03T08:42:23.999Z</time></trkpt><trkpt lat="44.881690868819895" lon="8.965712074479828"><ele>275.25</ele><time>2026-05-03T08:42:24.999Z</time></trkpt><trkpt lat="44.88169074564605" lon="8.965885589841292"><ele>277.5</ele><time>2026-05-03T08:42:25.999Z</time></trkpt><trkpt lat="44.881702480653765" lon="8.966074809173515"><ele>279.75</ele><time>2026-05-03T08:42:26.999Z</time></trkpt><trkpt lat="44.88170858249574" lon="8.966245590242833"><ele>282.0</ele><time>2026-05-03T08:42:27.999Z</time></trkpt><trkpt lat="44.881710086155195" lon="8.966424002302219"><ele>282.0</ele><time>2026-05-03T08:42:28.999Z</time></trkpt><trkpt lat="44.881692420455025" lon="8.966607632785493"><ele>282.0</ele><time>2026-05-03T08:42:29.999Z</time></trkpt><trkpt lat="44.8816618901092" lon="8.966797563916906"><ele>282.0</ele><time>2026-05-03T08:42:30.999Z</time></trkpt><trkpt lat="44.88161138638845" lon="8.966971854017132"><ele>282.0</ele><time>2026-05-03T08:42:31.999Z</time></trkpt><trkpt lat="44.88155640181929" lon="8.967143400476694"><ele>283.25</ele><time>2026-05-03T08:42:32.999Z</time></trkpt><trkpt lat="44.881521375180476" lon="8.96733998169203"><ele>284.5</ele><time>2026-05-03T08:42:33.999Z</time></trkpt><trkpt lat="44.8815112447495" lon="8.967523436446413"><ele>285.75</ele><time>2026-05-03T08:42:34.999Z</time></trkpt><trkpt lat="44.88149462682576" lon="8.967693376184416"><ele>287.0</ele><time>2026-05-03T08:42:35.999Z</time></trkpt><trkpt lat="44.88149425564839" lon="8.967860013429265"><ele>288.75</ele><time>2026-05-03T08:42:36.999Z</time></trkpt><trkpt lat="44.88151156120341" lon="8.968025563671453"><ele>290.5</ele><time>2026-05-03T08:42:37.998Z</time></trkpt><trkpt lat="44.881545358099046" lon="8.96819247099427"><ele>292.25</ele><time>2026-05-03T08:42:38.998Z</time></trkpt><trkpt lat="44.881586211444514" lon="8.96834644352521"><ele>294.0</ele><time>2026-05-03T08:42:39.998Z</time></trkpt><trkpt lat="44.88162493157273" lon="8.968489378004191"><ele>294.0</ele><time>2026-05-03T08:42:40.998Z</time></trkpt><trkpt lat="44.88165447564188" lon="8.968626349817757"><ele>294.0</ele><time>2026-05-03T08:42:41.998Z</time></trkpt><trkpt lat="44.88168593597767" lon="8.968748225604822"><ele>294.0</ele><time>2026-05-03T08:42:42.998Z</time></trkpt><trkpt lat="44.881711645731954" lon="8.968852112597395"><ele>294.0</ele><time>2026-05-03T08:42:43.998Z</time></trkpt><trkpt lat="44.88173196983316" lon="8.968998490516055"><ele>294.0</ele><time>2026-05-03T08:42:45.998Z</time></trkpt><trkpt lat="44.881742435788816" lon="8.969091950740852"><ele>294.0</ele><time>2026-05-03T08:42:47.998Z</time></trkpt><trkpt lat="44.8817257268888" lon="8.969205832180842"><ele>294.0</ele><time>2026-05-03T08:43:32.997Z</time></trkpt><trkpt lat="44.88168944951916" lon="8.969284748399028"><ele>294.0</ele><time>2026-05-03T08:43:34.997Z</time></trkpt><trkpt lat="44.88161299931664" lon="8.969413902328126"><ele>294.0</ele><time>2026-05-03T08:43:37Z</time></trkpt><trkpt lat="44.88154714158433" lon="8.969479561978927"><ele>294.0</ele><time>2026-05-03T08:43:38Z</time></trkpt><trkpt lat="44.88146777048004" lon="8.969564643505757"><ele>294.0</ele><time>2026-05-03T08:43:39Z</time></trkpt><trkpt lat="44.88139724354368" lon="8.969645231033287"><ele>294.0</ele><time>2026-05-03T08:43:40Z</time></trkpt><trkpt lat="44.88133873915097" lon="8.969745113936618"><ele>294.0</ele><time>2026-05-03T08:43:41Z</time></trkpt><trkpt lat="44.88128995625027" lon="8.969884313651736"><ele>294.0</ele><time>2026-05-03T08:43:42Z</time></trkpt><trkpt lat="44.881261302333854" lon="8.970017860357437"><ele>294.0</ele><time>2026-05-03T08:43:43Z</time></trkpt><trkpt lat="44.881234271691696" lon="8.970120977719272"><ele>294.0</ele><time>2026-05-03T08:43:44Z</time></trkpt><trkpt lat="44.88122841643367" lon="8.970244793329247"><ele>294.5</ele><time>2026-05-03T08:43:45Z</time></trkpt><trkpt lat="44.88123649987556" lon="8.97036744060694"><ele>295.0</ele><time>2026-05-03T08:43:46Z</time></trkpt><trkpt lat="44.88125638044108" lon="8.970501935686414"><ele>295.5</ele><time>2026-05-03T08:43:47Z</time></trkpt><trkpt lat="44.88128242113755" lon="8.970619861365567"><ele>296.0</ele><time>2026-05-03T08:43:48Z</time></trkpt><trkpt lat="44.88132007507707" lon="8.970745889448525"><ele>296.5</ele><time>2026-05-03T08:43:49Z</time></trkpt><trkpt lat="44.88135135734086" lon="8.970842011349026"><ele>297.0</ele><time>2026-05-03T08:43:50Z</time></trkpt><trkpt lat="44.88137777658648" lon="8.970927274631821"><ele>298.4</ele><time>2026-05-03T08:43:51Z</time></trkpt><trkpt lat="44.8814326893164" lon="8.971042986378675"><ele>299.79999999999995</ele><time>2026-05-03T08:43:52Z</time></trkpt><trkpt lat="44.88150376945701" lon="8.971142030968263"><ele>301.2</ele><time>2026-05-03T08:43:53Z</time></trkpt><trkpt lat="44.881531964040136" lon="8.971253732946991"><ele>302.59999999999997</ele><time>2026-05-03T08:43:54Z</time></trkpt><trkpt lat="44.881584737489426" lon="8.971376881127243"><ele>304.0</ele><time>2026-05-03T08:43:55Z</time></trkpt><trkpt lat="44.88162110382188" lon="8.971505902499457"><ele>304.0</ele><time>2026-05-03T08:43:56Z</time></trkpt><trkpt lat="44.88165498064712" lon="8.971629063351799"><ele>304.0</ele><time>2026-05-03T08:43:57Z</time></trkpt><trkpt lat="44.88168201005903" lon="8.971757439124755"><ele>304.0</ele><time>2026-05-03T08:43:58Z</time></trkpt><trkpt lat="44.881712560620024" lon="8.971889226246786"><ele>304.0</ele><time>2026-05-03T08:43:59Z</time></trkpt><trkpt lat="44.88173392911039" lon="8.972016524869705"><ele>304.0</ele><time>2026-05-03T08:44:00Z</time></trkpt><trkpt lat="44.88176725815724" lon="8.972161272149371"><ele>301.59999999999997</ele><time>2026-05-03T08:44:01Z</time></trkpt><trkpt lat="44.88178901106143" lon="8.972317048540203"><ele>299.2</ele><time>2026-05-03T08:44:02Z</time></trkpt><trkpt lat="44.881791980553125" lon="8.97241807211009"><ele>296.79999999999995</ele><time>2026-05-03T08:44:03Z</time></trkpt><trkpt lat="44.881806503209994" lon="8.972556367192716"><ele>294.4</ele><time>2026-05-03T08:44:04Z</time></trkpt><trkpt lat="44.88182968630446" lon="8.972689586155278"><ele>292.0</ele><time>2026-05-03T08:44:05Z</time></trkpt><trkpt lat="44.881859850391336" lon="8.972824680565052"><ele>292.0</ele><time>2026-05-03T08:44:06Z</time></trkpt><trkpt lat="44.881890849117546" lon="8.972953632950825"><ele>292.0</ele><time>2026-05-03T08:44:07Z</time></trkpt><trkpt lat="44.88192059529994" lon="8.9730527132679"><ele>292.0</ele><time>2026-05-03T08:44:08Z</time></trkpt><trkpt lat="44.88195388897997" lon="8.973144909347353"><ele>292.0</ele><time>2026-05-03T08:44:09Z</time></trkpt><trkpt lat="44.881983176648234" lon="8.973227472513843"><ele>292.0</ele><time>2026-05-03T08:44:10Z</time></trkpt><trkpt lat="44.882022663015334" lon="8.973333997836955"><ele>292.0</ele><time>2026-05-03T08:44:11Z</time></trkpt><trkpt lat="44.88205887813866" lon="8.973443729769816"><ele>292.16666666666663</ele><time>2026-05-03T08:44:11.999Z</time></trkpt><trkpt lat="44.88209116740147" lon="8.973537564519164"><ele>292.3333333333333</ele><time>2026-05-03T08:44:12.999Z</time></trkpt><trkpt lat="44.8821176485182" lon="8.973647525770117"><ele>292.5</ele><time>2026-05-03T08:44:14.999Z</time></trkpt><trkpt lat="44.88217987969959" lon="8.973739174994394"><ele>292.6666666666667</ele><time>2026-05-03T08:44:17.999Z</time></trkpt><trkpt lat="44.88223197456874" lon="8.973830417288271"><ele>292.83333333333337</ele><time>2026-05-03T08:44:18.999Z</time></trkpt><trkpt lat="44.88229954921383" lon="8.973884104618442"><ele>293.0</ele><time>2026-05-03T08:44:19.999Z</time></trkpt><trkpt lat="44.88239136192022" lon="8.973946462793126"><ele>293.0</ele><time>2026-05-03T08:44:20.999Z</time></trkpt><trkpt lat="44.88248310989096" lon="8.974005734649484"><ele>293.0</ele><time>2026-05-03T08:44:21.999Z</time></trkpt><trkpt lat="44.88260550202237" lon="8.974068915182025"><ele>293.0</ele><time>2026-05-03T08:44:23.999Z</time></trkpt><trkpt lat="44.88267152241315" lon="8.974078192696114"><ele>293.0</ele><time>2026-05-03T08:44:24.999Z</time></trkpt><trkpt lat="44.882786083416676" lon="8.974067024292"><ele>293.0</ele><time>2026-05-03T08:44:26.999Z</time></trkpt><trkpt lat="44.8828805315379" lon="8.974041318906469"><ele>292.71428571428567</ele><time>2026-05-03T08:44:28.999Z</time></trkpt><trkpt lat="44.88294127982937" lon="8.973984098790586"><ele>292.42857142857144</ele><time>2026-05-03T08:44:30.999Z</time></trkpt><trkpt lat="44.883001823180976" lon="8.973921051382383"><ele>292.1428571428571</ele><time>2026-05-03T08:44:33.999Z</time></trkpt><trkpt lat="44.88305801592406" lon="8.97386649692063"><ele>291.85714285714283</ele><time>2026-05-03T08:44:44.998Z</time></trkpt><trkpt lat="44.88311890342682" lon="8.973900251385514"><ele>291.57142857142856</ele><time>2026-05-03T08:44:53.998Z</time></trkpt><trkpt lat="44.883131718860646" lon="8.973993568980246"><ele>291.2857142857143</ele><time>2026-05-03T08:44:59.998Z</time></trkpt><trkpt lat="44.8830699012067" lon="8.974013553265056"><ele>291.0</ele><time>2026-05-03T08:45:01.998Z</time></trkpt><trkpt lat="44.882975267336555" lon="8.974011710881868"><ele>291.0</ele><time>2026-05-03T08:50:51.999Z</time></trkpt><trkpt lat="44.88288590300923" lon="8.974036314905826"><ele>291.0</ele><time>2026-05-03T08:50:52.999Z</time></trkpt><trkpt lat="44.88276680529722" lon="8.97405626207766"><ele>291.0</ele><time>2026-05-03T08:50:53.999Z</time></trkpt><trkpt lat="44.88263855879398" lon="8.974052459460731"><ele>291.0</ele><time>2026-05-03T08:50:54.999Z</time></trkpt><trkpt lat="44.88251147813402" lon="8.973960250432066"><ele>291.6666666666667</ele><time>2026-05-03T08:50:55.999Z</time></trkpt><trkpt lat="44.8823597686348" lon="8.973867589970054"><ele>292.33333333333337</ele><time>2026-05-03T08:50:56.999Z</time></trkpt><trkpt lat="44.882209051810705" lon="8.97375070233238"><ele>293.0</ele><time>2026-05-03T08:50:57.999Z</time></trkpt><trkpt lat="44.88207228793157" lon="8.97359831367682"><ele>293.0</ele><time>2026-05-03T08:50:58.999Z</time></trkpt><trkpt lat="44.88189351246094" lon="8.973464653192002"><ele>293.0</ele><time>2026-05-03T08:50:59.999Z</time></trkpt><trkpt lat="44.88173375648468" lon="8.97329886114402"><ele>293.0</ele><time>2026-05-03T08:51:00.998Z</time></trkpt><trkpt lat="44.88158737209798" lon="8.973117914884382"><ele>295.6666666666667</ele><time>2026-05-03T08:51:01.998Z</time></trkpt><trkpt lat="44.88144411404125" lon="8.972984055213013"><ele>298.3333333333333</ele><time>2026-05-03T08:51:02.998Z</time></trkpt><trkpt lat="44.88132000942818" lon="8.972851681881082"><ele>301.0</ele><time>2026-05-03T08:51:03.998Z</time></trkpt><trkpt lat="44.88118640092675" lon="8.972748232513808"><ele>301.0</ele><time>2026-05-03T08:51:04.998Z</time></trkpt><trkpt lat="44.881062297366284" lon="8.972693877637195"><ele>301.0</ele><time>2026-05-03T08:51:05.998Z</time></trkpt><trkpt lat="44.88092644982212" lon="8.972644472533903"><ele>301.0</ele><time>2026-05-03T08:51:06.998Z</time></trkpt><trkpt lat="44.88079152529234" lon="8.972638594411556"><ele>301.0</ele><time>2026-05-03T08:51:07.998Z</time></trkpt><trkpt lat="44.880655493739575" lon="8.972666091943049"><ele>301.5</ele><time>2026-05-03T08:51:08.998Z</time></trkpt><trkpt lat="44.88051005880766" lon="8.972704430125642"><ele>302.0</ele><time>2026-05-03T08:51:09.998Z</time></trkpt><trkpt lat="44.8803734930315" lon="8.972753025247941"><ele>302.5</ele><time>2026-05-03T08:51:10.998Z</time></trkpt><trkpt lat="44.88021751420129" lon="8.97277603258587"><ele>303.0</ele><time>2026-05-03T08:51:11.998Z</time></trkpt><trkpt lat="44.88007620514094" lon="8.972770166309758"><ele>305.0</ele><time>2026-05-03T08:51:12.998Z</time></trkpt><trkpt lat="44.8799297373194" lon="8.97273593660908"><ele>307.0</ele><time>2026-05-03T08:51:13.998Z</time></trkpt><trkpt lat="44.879789666836736" lon="8.972684135522877"><ele>309.0</ele><time>2026-05-03T08:51:14.998Z</time></trkpt><trkpt lat="44.87964442485419" lon="8.972629860538934"><ele>311.0</ele><time>2026-05-03T08:51:15.998Z</time></trkpt><trkpt lat="44.879495529514536" lon="8.972599344016476"><ele>311.0</ele><time>2026-05-03T08:51:16.998Z</time></trkpt><trkpt lat="44.87934901212049" lon="8.97252644492092"><ele>311.0</ele><time>2026-05-03T08:51:17.998Z</time></trkpt><trkpt lat="44.87921480924487" lon="8.972475884115358"><ele>311.0</ele><time>2026-05-03T08:51:18.998Z</time></trkpt><trkpt lat="44.87908795528789" lon="8.972412320543759"><ele>311.0</ele><time>2026-05-03T08:51:19.998Z</time></trkpt><trkpt lat="44.878962433141226" lon="8.972342227605521"><ele>312.75</ele><time>2026-05-03T08:51:20.998Z</time></trkpt><trkpt lat="44.87883779709336" lon="8.97226951985726"><ele>314.5</ele><time>2026-05-03T08:51:21.998Z</time></trkpt><trkpt lat="44.878722476568655" lon="8.972189521550606"><ele>316.25</ele><time>2026-05-03T08:51:22.998Z</time></trkpt><trkpt lat="44.878614422596485" lon="8.97209789905687"><ele>318.0</ele><time>2026-05-03T08:51:23.998Z</time></trkpt><trkpt lat="44.878496585167" lon="8.972003687666309"><ele>316.5</ele><time>2026-05-03T08:51:24.998Z</time></trkpt><trkpt lat="44.87836384278462" lon="8.971898478090903"><ele>315.0</ele><time>2026-05-03T08:51:25.998Z</time></trkpt><trkpt lat="44.87824223076958" lon="8.971808703832838"><ele>313.5</ele><time>2026-05-03T08:51:26.998Z</time></trkpt><trkpt lat="44.87810600401743" lon="8.971719148346336"><ele>312.0</ele><time>2026-05-03T08:51:27.998Z</time></trkpt><trkpt lat="44.877965878636275" lon="8.971642307930468"><ele>311.75</ele><time>2026-05-03T08:51:28.998Z</time></trkpt><trkpt lat="44.87782591344668" lon="8.971570401720351"><ele>311.5</ele><time>2026-05-03T08:51:29.998Z</time></trkpt><trkpt lat="44.87770251739339" lon="8.971507650973132"><ele>311.25</ele><time>2026-05-03T08:51:30.998Z</time></trkpt><trkpt lat="44.877561448179236" lon="8.971427549684368"><ele>311.0</ele><time>2026-05-03T08:51:31.998Z</time></trkpt><trkpt lat="44.87744973517292" lon="8.971355196599664"><ele>310.25</ele><time>2026-05-03T08:51:32.998Z</time></trkpt><trkpt lat="44.87731848837527" lon="8.971289613167036"><ele>309.5</ele><time>2026-05-03T08:51:33.998Z</time></trkpt><trkpt lat="44.87719383737485" lon="8.971191943031178"><ele>308.75</ele><time>2026-05-03T08:51:34.997Z</time></trkpt><trkpt lat="44.87707444914428" lon="8.97109825857787"><ele>308.0</ele><time>2026-05-03T08:51:35.997Z</time></trkpt><trkpt lat="44.876950067223426" lon="8.970981068206514"><ele>308.0</ele><time>2026-05-03T08:51:36.997Z</time></trkpt><trkpt lat="44.87682440919412" lon="8.970870667358575"><ele>308.0</ele><time>2026-05-03T08:51:37.997Z</time></trkpt><trkpt lat="44.87670773587781" lon="8.970763689173198"><ele>308.0</ele><time>2026-05-03T08:51:38.997Z</time></trkpt><trkpt lat="44.876586400861505" lon="8.97066386017397"><ele>308.0</ele><time>2026-05-03T08:51:39.997Z</time></trkpt><trkpt lat="44.87644838285795" lon="8.970585837542469"><ele>306.5</ele><time>2026-05-03T08:51:40.997Z</time></trkpt><trkpt lat="44.876314990179" lon="8.970542238977394"><ele>305.0</ele><time>2026-05-03T08:51:41.997Z</time></trkpt><trkpt lat="44.87617378743787" lon="8.970508998490956"><ele>303.5</ele><time>2026-05-03T08:51:42.997Z</time></trkpt><trkpt lat="44.87602043315737" lon="8.970507287642835"><ele>302.0</ele><time>2026-05-03T08:51:43.997Z</time></trkpt><trkpt lat="44.875865343249274" lon="8.970506055579182"><ele>301.75</ele><time>2026-05-03T08:51:44.997Z</time></trkpt><trkpt lat="44.875722069939876" lon="8.97048511676029"><ele>301.5</ele><time>2026-05-03T08:51:45.997Z</time></trkpt><trkpt lat="44.87557947561827" lon="8.970451612283613"><ele>301.25</ele><time>2026-05-03T08:51:46.997Z</time></trkpt><trkpt lat="44.87542957062076" lon="8.970411372036729"><ele>301.0</ele><time>2026-05-03T08:51:47.997Z</time></trkpt><trkpt lat="44.87529797325471" lon="8.970375078668296"><ele>301.0</ele><time>2026-05-03T08:51:48.997Z</time></trkpt><trkpt lat="44.875145798888006" lon="8.97035349551322"><ele>301.0</ele><time>2026-05-03T08:51:49.997Z</time></trkpt><trkpt lat="44.87498450092658" lon="8.970291714286649"><ele>301.0</ele><time>2026-05-03T08:51:50.997Z</time></trkpt><trkpt lat="44.874816993455134" lon="8.970251827553414"><ele>300.66666666666663</ele><time>2026-05-03T08:51:51.997Z</time></trkpt><trkpt lat="44.874671751047536" lon="8.970221696196974"><ele>300.3333333333333</ele><time>2026-05-03T08:51:52.997Z</time></trkpt><trkpt lat="44.874509011905936" lon="8.970218443288836"><ele>300.0</ele><time>2026-05-03T08:51:53.997Z</time></trkpt><trkpt lat="44.874351667281985" lon="8.970269928145683"><ele>301.3333333333333</ele><time>2026-05-03T08:51:54.997Z</time></trkpt><trkpt lat="44.87421284603389" lon="8.970373233031067"><ele>302.66666666666663</ele><time>2026-05-03T08:51:55.997Z</time></trkpt><trkpt lat="44.87406547961096" lon="8.970467522028768"><ele>304.0</ele><time>2026-05-03T08:51:56.997Z</time></trkpt><trkpt lat="44.87391766159841" lon="8.970597335832238"><ele>304.0</ele><time>2026-05-03T08:51:57.997Z</time></trkpt><trkpt lat="44.87376497936995" lon="8.970710424802007"><ele>304.0</ele><time>2026-05-03T08:51:58.997Z</time></trkpt><trkpt lat="44.8736249964143" lon="8.970780956492"><ele>304.0</ele><time>2026-05-03T08:52:00Z</time></trkpt><trkpt lat="44.87347273754918" lon="8.970822935725232"><ele>304.3333333333333</ele><time>2026-05-03T08:52:01Z</time></trkpt><trkpt lat="44.87331503067301" lon="8.970861977723617"><ele>304.6666666666667</ele><time>2026-05-03T08:52:02Z</time></trkpt><trkpt lat="44.87315377470753" lon="8.970901900214"><ele>305.0</ele><time>2026-05-03T08:52:03Z</time></trkpt><trkpt lat="44.8729966977006" lon="8.970942429297946"><ele>305.0</ele><time>2026-05-03T08:52:04Z</time></trkpt><trkpt lat="44.87283830926217" lon="8.970984322246832"><ele>305.0</ele><time>2026-05-03T08:52:05Z</time></trkpt><trkpt lat="44.87268038133547" lon="8.971042249890306"><ele>305.0</ele><time>2026-05-03T08:52:06Z</time></trkpt><trkpt lat="44.872520960198" lon="8.971084802765384"><ele>307.0</ele><time>2026-05-03T08:52:07Z</time></trkpt><trkpt lat="44.87236250737509" lon="8.971125911279163"><ele>309.0</ele><time>2026-05-03T08:52:08Z</time></trkpt><trkpt lat="44.87220230535076" lon="8.97114102662117"><ele>311.0</ele><time>2026-05-03T08:52:09Z</time></trkpt><trkpt lat="44.872043543859235" lon="8.971182451649197"><ele>311.0</ele><time>2026-05-03T08:52:10Z</time></trkpt><trkpt lat="44.871889535089664" lon="8.971233272932379"><ele>311.0</ele><time>2026-05-03T08:52:11Z</time></trkpt><trkpt lat="44.87173789332688" lon="8.971272172624042"><ele>311.0</ele><time>2026-05-03T08:52:12Z</time></trkpt><trkpt lat="44.8715883487317" lon="8.971285289660354"><ele>313.33333333333337</ele><time>2026-05-03T08:52:13Z</time></trkpt><trkpt lat="44.87143135241149" lon="8.971277622245315"><ele>315.6666666666667</ele><time>2026-05-03T08:52:14Z</time></trkpt><trkpt lat="44.87127837526013" lon="8.971237443439524"><ele>318.0</ele><time>2026-05-03T08:52:15Z</time></trkpt><trkpt lat="44.871122690620105" lon="8.97117744598388"><ele>318.0</ele><time>2026-05-03T08:52:16Z</time></trkpt><trkpt lat="44.87096772898604" lon="8.971089755468638"><ele>318.0</ele><time>2026-05-03T08:52:17Z</time></trkpt><trkpt lat="44.87080739242958" lon="8.97098537093357"><ele>318.0</ele><time>2026-05-03T08:52:18Z</time></trkpt><trkpt lat="44.87064220895708" lon="8.970908721670396"><ele>320.3333333333333</ele><time>2026-05-03T08:52:19Z</time></trkpt><trkpt lat="44.87048941518947" lon="8.970850210651196"><ele>322.66666666666663</ele><time>2026-05-03T08:52:20Z</time></trkpt><trkpt lat="44.870341671965555" lon="8.970858984755676"><ele>325.0</ele><time>2026-05-03T08:52:21Z</time></trkpt><trkpt lat="44.87019035347136" lon="8.970921015316675"><ele>327.0</ele><time>2026-05-03T08:52:22Z</time></trkpt><trkpt lat="44.87003524004158" lon="8.971019291110288"><ele>329.0</ele><time>2026-05-03T08:52:23Z</time></trkpt><trkpt lat="44.869878030581" lon="8.971132554725132"><ele>331.0</ele><time>2026-05-03T08:52:24Z</time></trkpt><trkpt lat="44.86970514740006" lon="8.971185479399626"><ele>331.0</ele><time>2026-05-03T08:52:25Z</time></trkpt><trkpt lat="44.86953447478103" lon="8.971257530070279"><ele>331.0</ele><time>2026-05-03T08:52:26Z</time></trkpt><trkpt lat="44.86936319663049" lon="8.971326103144717"><ele>331.0</ele><time>2026-05-03T08:52:27Z</time></trkpt><trkpt lat="44.86918622126741" lon="8.971385307100636"><ele>334.0</ele><time>2026-05-03T08:52:28Z</time></trkpt><trkpt lat="44.86899937737115" lon="8.971437726574562"><ele>337.0</ele><time>2026-05-03T08:52:29Z</time></trkpt><trkpt lat="44.86882575813601" lon="8.97153470924548"><ele>340.0</ele><time>2026-05-03T08:52:30Z</time></trkpt><trkpt lat="44.86864699515219" lon="8.971607877361256"><ele>338.66666666666663</ele><time>2026-05-03T08:52:31Z</time></trkpt><trkpt lat="44.86847228181656" lon="8.971700411956213"><ele>337.3333333333333</ele><time>2026-05-03T08:52:32Z</time></trkpt><trkpt lat="44.868303298317834" lon="8.97179904083429"><ele>336.0</ele><time>2026-05-03T08:52:33Z</time></trkpt><trkpt lat="44.868135476776345" lon="8.971884647912487"><ele>338.6666666666667</ele><time>2026-05-03T08:52:34Z</time></trkpt><trkpt lat="44.86797332883716" lon="8.971999736104303"><ele>341.33333333333337</ele><time>2026-05-03T08:52:35Z</time></trkpt><trkpt lat="44.86783229910045" lon="8.972153336479249"><ele>344.0</ele><time>2026-05-03T08:52:35.999Z</time></trkpt><trkpt lat="44.86770836689649" lon="8.972267482540085"><ele>347.0</ele><time>2026-05-03T08:52:36.999Z</time></trkpt><trkpt lat="44.86757280885448" lon="8.972331793757121"><ele>350.0</ele><time>2026-05-03T08:52:37.999Z</time></trkpt><trkpt lat="44.867427373929424" lon="8.972368233235947"><ele>353.0</ele><time>2026-05-03T08:52:38.999Z</time></trkpt><trkpt lat="44.86726677756162" lon="8.972389263737018"><ele>353.0</ele><time>2026-05-03T08:52:39.999Z</time></trkpt><trkpt lat="44.867101806587584" lon="8.972390025713326"><ele>353.0</ele><time>2026-05-03T08:52:40.999Z</time></trkpt><trkpt lat="44.86694684279249" lon="8.972409129692819"><ele>353.0</ele><time>2026-05-03T08:52:41.999Z</time></trkpt><trkpt lat="44.86679588982654" lon="8.972444129657696"><ele>354.4</ele><time>2026-05-03T08:52:42.999Z</time></trkpt><trkpt lat="44.86665380758134" lon="8.972458564696465"><ele>355.79999999999995</ele><time>2026-05-03T08:52:43.999Z</time></trkpt><trkpt lat="44.86654763548348" lon="8.9724493237073"><ele>357.2</ele><time>2026-05-03T08:52:44.999Z</time></trkpt><trkpt lat="44.86647838620033" lon="8.972393180281717"><ele>358.6</ele><time>2026-05-03T08:52:45.999Z</time></trkpt><trkpt lat="44.86643533913051" lon="8.972306210549121"><ele>360.0</ele><time>2026-05-03T08:52:46.999Z</time></trkpt><trkpt lat="44.86641302112574" lon="8.972198191858297"><ele>360.0</ele><time>2026-05-03T08:52:47.999Z</time></trkpt><trkpt lat="44.86641359754627" lon="8.972056989086742"><ele>360.0</ele><time>2026-05-03T08:52:48.999Z</time></trkpt><trkpt lat="44.86643576387954" lon="8.97188764601707"><ele>360.0</ele><time>2026-05-03T08:52:49.999Z</time></trkpt><trkpt lat="44.86647724261989" lon="8.971698123984961"><ele>360.0</ele><time>2026-05-03T08:52:50.999Z</time></trkpt><trkpt lat="44.8665019643671" lon="8.971530298450984"><ele>360.8</ele><time>2026-05-03T08:52:51.999Z</time></trkpt><trkpt lat="44.86648330609915" lon="8.971374849685182"><ele>361.6</ele><time>2026-05-03T08:52:52.999Z</time></trkpt><trkpt lat="44.86644440860174" lon="8.971233536318763"><ele>362.4</ele><time>2026-05-03T08:52:53.999Z</time></trkpt><trkpt lat="44.866366272479986" lon="8.971126719287398"><ele>363.2</ele><time>2026-05-03T08:52:54.999Z</time></trkpt><trkpt lat="44.866264162504486" lon="8.971077233074885"><ele>364.0</ele><time>2026-05-03T08:52:55.999Z</time></trkpt><trkpt lat="44.86613939682459" lon="8.971082906257575"><ele>364.0</ele><time>2026-05-03T08:52:56.999Z</time></trkpt><trkpt lat="44.86600813538128" lon="8.971140990762787"><ele>364.0</ele><time>2026-05-03T08:52:57.999Z</time></trkpt><trkpt lat="44.865861259800376" lon="8.971236474402414"><ele>364.0</ele><time>2026-05-03T08:52:58.999Z</time></trkpt><trkpt lat="44.86570721347856" lon="8.971338993262988"><ele>366.0</ele><time>2026-05-03T08:52:59.999Z</time></trkpt><trkpt lat="44.8655788224537" lon="8.971384394861513"><ele>368.0</ele><time>2026-05-03T08:53:00.999Z</time></trkpt><trkpt lat="44.86547495304347" lon="8.971436329590723"><ele>370.0</ele><time>2026-05-03T08:53:01.999Z</time></trkpt><trkpt lat="44.86537732408987" lon="8.971485144062909"><ele>372.0</ele><time>2026-05-03T08:53:02.999Z</time></trkpt><trkpt lat="44.86528062774554" lon="8.971533492051892"><ele>374.0</ele><time>2026-05-03T08:53:03.999Z</time></trkpt><trkpt lat="44.86520434628782" lon="8.971578825848866"><ele>374.0</ele><time>2026-05-03T08:53:04.999Z</time></trkpt><trkpt lat="44.86514609895184" lon="8.97161732279903"><ele>374.0</ele><time>2026-05-03T08:53:05.999Z</time></trkpt><trkpt lat="44.86505871556528" lon="8.971694722408703"><ele>374.0</ele><time>2026-05-03T08:53:07.999Z</time></trkpt><trkpt lat="44.86512739685514" lon="8.971604413036095"><ele>374.0</ele><time>2026-05-03T08:53:11.998Z</time></trkpt><trkpt lat="44.865158829711824" lon="8.971480827392321"><ele>374.0</ele><time>2026-05-03T08:53:12.998Z</time></trkpt><trkpt lat="44.865217670684174" lon="8.971386718401689"><ele>374.0</ele><time>2026-05-03T08:53:13.998Z</time></trkpt><trkpt lat="44.86528900826951" lon="8.971256380423673"><ele>374.0</ele><time>2026-05-03T08:53:14.998Z</time></trkpt><trkpt lat="44.86538111867762" lon="8.971099018108797"><ele>374.0</ele><time>2026-05-03T08:53:15.998Z</time></trkpt><trkpt lat="44.86547481771145" lon="8.970943550798358"><ele>374.0</ele><time>2026-05-03T08:53:16.998Z</time></trkpt><trkpt lat="44.865562065274844" lon="8.970826684035638"><ele>374.0</ele><time>2026-05-03T08:53:17.998Z</time></trkpt><trkpt lat="44.86563266543458" lon="8.970737346664272"><ele>373.5</ele><time>2026-05-03T08:53:18.998Z</time></trkpt><trkpt lat="44.865698915445726" lon="8.970644621758046"><ele>373.0</ele><time>2026-05-03T08:53:19.998Z</time></trkpt><trkpt lat="44.8657705186059" lon="8.970546889270818"><ele>372.5</ele><time>2026-05-03T08:53:20.998Z</time></trkpt><trkpt lat="44.865839392127825" lon="8.97046099019388"><ele>372.0</ele><time>2026-05-03T08:53:21.998Z</time></trkpt><trkpt lat="44.86590904134284" lon="8.97041211697039"><ele>371.5</ele><time>2026-05-03T08:53:22.998Z</time></trkpt><trkpt lat="44.86597051042833" lon="8.970378211078872"><ele>371.0</ele><time>2026-05-03T08:53:23.998Z</time></trkpt><trkpt lat="44.86606496248842" lon="8.97024091294234"><ele>371.0</ele><time>2026-05-03T08:53:24.998Z</time></trkpt><trkpt lat="44.86614555195086" lon="8.970149512173181"><ele>371.0</ele><time>2026-05-03T08:53:25.998Z</time></trkpt><trkpt lat="44.866205279197544" lon="8.970038843183199"><ele>371.0</ele><time>2026-05-03T08:53:26.998Z</time></trkpt><trkpt lat="44.86625692098813" lon="8.969892687766645"><ele>371.0</ele><time>2026-05-03T08:53:27.998Z</time></trkpt><trkpt lat="44.86630047883732" lon="8.96974128337046"><ele>371.0</ele><time>2026-05-03T08:53:28.998Z</time></trkpt><trkpt lat="44.86629835121045" lon="8.969566101890438"><ele>372.0</ele><time>2026-05-03T08:53:29.998Z</time></trkpt><trkpt lat="44.866287667188665" lon="8.969404617926147"><ele>373.0</ele><time>2026-05-03T08:53:30.998Z</time></trkpt><trkpt lat="44.866273645811965" lon="8.969279749833865"><ele>374.0</ele><time>2026-05-03T08:53:31.998Z</time></trkpt><trkpt lat="44.86626410612824" lon="8.969141553370404"><ele>375.0</ele><time>2026-05-03T08:53:32.998Z</time></trkpt><trkpt lat="44.866227930590775" lon="8.968960551842263"><ele>376.0</ele><time>2026-05-03T08:53:33.998Z</time></trkpt><trkpt lat="44.86617425213354" lon="8.968831237036973"><ele>376.0</ele><time>2026-05-03T08:53:34.998Z</time></trkpt><trkpt lat="44.86619966598871" lon="8.968646481681429"><ele>376.0</ele><time>2026-05-03T08:53:35.998Z</time></trkpt><trkpt lat="44.866197771751445" lon="8.968471311028805"><ele>376.0</ele><time>2026-05-03T08:53:36.998Z</time></trkpt><trkpt lat="44.866194505705266" lon="8.968301188083078"><ele>376.0</ele><time>2026-05-03T08:53:37.998Z</time></trkpt><trkpt lat="44.86618566276719" lon="8.968140617116656"><ele>374.75</ele><time>2026-05-03T08:53:38.998Z</time></trkpt><trkpt lat="44.86617952568177" lon="8.967937303516424"><ele>373.5</ele><time>2026-05-03T08:53:39.998Z</time></trkpt><trkpt lat="44.86618459730217" lon="8.967789555068508"><ele>372.25</ele><time>2026-05-03T08:53:40.998Z</time></trkpt><trkpt lat="44.86618549351675" lon="8.96763876375592"><ele>371.0</ele><time>2026-05-03T08:53:41.998Z</time></trkpt><trkpt lat="44.86615818555011" lon="8.96749923069374"><ele>370.0</ele><time>2026-05-03T08:53:42.998Z</time></trkpt><trkpt lat="44.866116534409" lon="8.967357378146042"><ele>369.0</ele><time>2026-05-03T08:53:43.997Z</time></trkpt><trkpt lat="44.86604545736713" lon="8.967215435861503"><ele>368.0</ele><time>2026-05-03T08:53:44.997Z</time></trkpt><trkpt lat="44.8659766528036" lon="8.967108658499"><ele>367.0</ele><time>2026-05-03T08:53:45.997Z</time></trkpt><trkpt lat="44.865899509192076" lon="8.967035679539686"><ele>366.0</ele><time>2026-05-03T08:53:46.997Z</time></trkpt><trkpt lat="44.86580291307207" lon="8.967001792653564"><ele>371.0</ele><time>2026-05-03T08:53:47.997Z</time></trkpt><trkpt lat="44.86568313079922" lon="8.966982306816256"><ele>376.0</ele><time>2026-05-03T08:53:48.997Z</time></trkpt><trkpt lat="44.86555036686343" lon="8.966921211532249"><ele>381.0</ele><time>2026-05-03T08:53:49.997Z</time></trkpt><trkpt lat="44.86542730319981" lon="8.96683430167861"><ele>386.0</ele><time>2026-05-03T08:53:50.997Z</time></trkpt><trkpt lat="44.865316195879814" lon="8.966748415389947"><ele>383.8</ele><time>2026-05-03T08:53:51.997Z</time></trkpt><trkpt lat="44.865214511016205" lon="8.966678411883077"><ele>381.6</ele><time>2026-05-03T08:53:52.997Z</time></trkpt><trkpt lat="44.86511934646755" lon="8.966625306360424"><ele>379.4</ele><time>2026-05-03T08:53:53.997Z</time></trkpt><trkpt lat="44.865048649868285" lon="8.966608499868705"><ele>377.2</ele><time>2026-05-03T08:53:54.997Z</time></trkpt><trkpt lat="44.86496740137833" lon="8.966607894411327"><ele>375.0</ele><time>2026-05-03T08:53:55.997Z</time></trkpt><trkpt lat="44.86486209709197" lon="8.966607750453694"><ele>375.0</ele><time>2026-05-03T08:53:56.997Z</time></trkpt><trkpt lat="44.86476521571297" lon="8.966623280501747"><ele>375.0</ele><time>2026-05-03T08:53:57.997Z</time></trkpt><trkpt lat="44.86466670208726" lon="8.966620776052048"><ele>375.0</ele><time>2026-05-03T08:53:58.997Z</time></trkpt><trkpt lat="44.864558754567284" lon="8.966615035487134"><ele>375.0</ele><time>2026-05-03T08:53:59.997Z</time></trkpt><trkpt lat="44.864437515851336" lon="8.966657533401323"><ele>375.0</ele><time>2026-05-03T08:54:00.997Z</time></trkpt><trkpt lat="44.86430900642371" lon="8.966699404628113"><ele>375.2</ele><time>2026-05-03T08:54:01.997Z</time></trkpt><trkpt lat="44.86420865224473" lon="8.966738051700355"><ele>375.4</ele><time>2026-05-03T08:54:02.997Z</time></trkpt><trkpt lat="44.864116046921154" lon="8.966755478710915"><ele>375.6</ele><time>2026-05-03T08:54:03.997Z</time></trkpt><trkpt lat="44.86401446595727" lon="8.9667305351157"><ele>375.8</ele><time>2026-05-03T08:54:05Z</time></trkpt><trkpt lat="44.86392227113578" lon="8.96666388728878"><ele>376.0</ele><time>2026-05-03T08:54:06Z</time></trkpt><trkpt lat="44.86381489665161" lon="8.966623761863389"><ele>376.0</ele><time>2026-05-03T08:54:07Z</time></trkpt><trkpt lat="44.863705610262635" lon="8.966619736354028"><ele>376.0</ele><time>2026-05-03T08:54:08Z</time></trkpt><trkpt lat="44.863610287634614" lon="8.966630022848978"><ele>376.0</ele><time>2026-05-03T08:54:09Z</time></trkpt><trkpt lat="44.86354574931501" lon="8.966643665262707"><ele>376.0</ele><time>2026-05-03T08:54:10Z</time></trkpt><trkpt lat="44.863552568569375" lon="8.966555017061124"><ele>376.0</ele><time>2026-05-03T08:54:12Z</time></trkpt><trkpt lat="44.86362059917574" lon="8.966423349551906"><ele>376.0</ele><time>2026-05-03T08:54:14Z</time></trkpt><trkpt lat="44.86363747485483" lon="8.966288380348782"><ele>376.0</ele><time>2026-05-03T08:54:16Z</time></trkpt><trkpt lat="44.86365736739216" lon="8.966179995979477"><ele>376.0</ele><time>2026-05-03T08:54:17Z</time></trkpt><trkpt lat="44.863652937773566" lon="8.966013566276857"><ele>376.0</ele><time>2026-05-03T08:54:18Z</time></trkpt><trkpt lat="44.86366411677729" lon="8.965903887438602"><ele>376.0</ele><time>2026-05-03T08:54:19Z</time></trkpt><trkpt lat="44.863719172577525" lon="8.965797219863907"><ele>376.0</ele><time>2026-05-03T08:54:20Z</time></trkpt><trkpt lat="44.86376307759028" lon="8.96570453417113"><ele>376.0</ele><time>2026-05-03T08:54:21Z</time></trkpt><trkpt lat="44.86381926663782" lon="8.965634415753483"><ele>376.5</ele><time>2026-05-03T08:54:22Z</time></trkpt><trkpt lat="44.86390790190991" lon="8.965591697082434"><ele>377.0</ele><time>2026-05-03T08:54:23Z</time></trkpt><trkpt lat="44.86397218838294" lon="8.965524625515101"><ele>377.5</ele><time>2026-05-03T08:54:24Z</time></trkpt><trkpt lat="44.864025236306965" lon="8.965431461315514"><ele>378.0</ele><time>2026-05-03T08:54:25Z</time></trkpt><trkpt lat="44.864116377185375" lon="8.96533450504641"><ele>378.5</ele><time>2026-05-03T08:54:27Z</time></trkpt><trkpt lat="44.864190093317056" lon="8.965313052020445"><ele>379.0</ele><time>2026-05-03T08:54:28Z</time></trkpt><trkpt lat="44.864245494305955" lon="8.965182384986091"><ele>379.79999999999995</ele><time>2026-05-03T08:54:30Z</time></trkpt><trkpt lat="44.86428161984068" lon="8.965102430951855"><ele>380.59999999999997</ele><time>2026-05-03T08:54:31Z</time></trkpt><trkpt lat="44.86438714742577" lon="8.964897206343927"><ele>381.4</ele><time>2026-05-03T08:54:33Z</time></trkpt><trkpt lat="44.86438244550333" lon="8.964796219196467"><ele>382.2</ele><time>2026-05-03T08:54:34Z</time></trkpt><trkpt lat="44.86438498143181" lon="8.964662192598004"><ele>383.0</ele><time>2026-05-03T08:54:35Z</time></trkpt><trkpt lat="44.86439374287299" lon="8.96452191804563"><ele>383.0</ele><time>2026-05-03T08:54:36Z</time></trkpt><trkpt lat="44.86439794146194" lon="8.964381235741717"><ele>383.0</ele><time>2026-05-03T08:54:37Z</time></trkpt><trkpt lat="44.86435054790712" lon="8.964269458126411"><ele>383.0</ele><time>2026-05-03T08:54:39Z</time></trkpt><trkpt lat="44.864211026410146" lon="8.964291767159937"><ele>383.0</ele><time>2026-05-03T08:54:41Z</time></trkpt><trkpt lat="44.86409713735087" lon="8.96435250377284"><ele>386.6666666666667</ele><time>2026-05-03T08:54:42Z</time></trkpt><trkpt lat="44.863964902553" lon="8.96444392809464"><ele>390.33333333333337</ele><time>2026-05-03T08:54:43Z</time></trkpt><trkpt lat="44.86381911606446" lon="8.96454929643441"><ele>394.0</ele><time>2026-05-03T08:54:43.999Z</time></trkpt><trkpt lat="44.86366439089743" lon="8.964652335845548"><ele>394.0</ele><time>2026-05-03T08:54:44.999Z</time></trkpt><trkpt lat="44.86350971556482" lon="8.96478503734012"><ele>394.0</ele><time>2026-05-03T08:54:45.999Z</time></trkpt><trkpt lat="44.8633724235557" lon="8.964964209492386"><ele>394.0</ele><time>2026-05-03T08:54:46.999Z</time></trkpt><trkpt lat="44.863256824072245" lon="8.96517770650423"><ele>394.33333333333337</ele><time>2026-05-03T08:54:47.999Z</time></trkpt><trkpt lat="44.863162997252864" lon="8.965409726790696"><ele>394.66666666666663</ele><time>2026-05-03T08:54:48.999Z</time></trkpt><trkpt lat="44.86307044444611" lon="8.96563983634264"><ele>395.0</ele><time>2026-05-03T08:54:49.999Z</time></trkpt><trkpt lat="44.86295408268868" lon="8.965850569725779"><ele>393.3333333333333</ele><time>2026-05-03T08:54:50.999Z</time></trkpt><trkpt lat="44.86284791407595" lon="8.966059502914316"><ele>391.66666666666663</ele><time>2026-05-03T08:54:51.999Z</time></trkpt><trkpt lat="44.86276321375367" lon="8.966264067079523"><ele>390.0</ele><time>2026-05-03T08:54:52.999Z</time></trkpt><trkpt lat="44.86265719832491" lon="8.966422256437282"><ele>391.8</ele><time>2026-05-03T08:54:53.999Z</time></trkpt><trkpt lat="44.86255354546727" lon="8.966525776492638"><ele>393.6</ele><time>2026-05-03T08:54:54.999Z</time></trkpt><trkpt lat="44.862463899175275" lon="8.966607037983152"><ele>395.4</ele><time>2026-05-03T08:54:55.999Z</time></trkpt><trkpt lat="44.862405463488855" lon="8.96672635733181"><ele>397.2</ele><time>2026-05-03T08:54:56.999Z</time></trkpt><trkpt lat="44.86236201488244" lon="8.966824841297223"><ele>399.0</ele><time>2026-05-03T08:54:57.999Z</time></trkpt><trkpt lat="44.862315903039935" lon="8.966931419918243"><ele>399.0</ele><time>2026-05-03T08:54:58.999Z</time></trkpt><trkpt lat="44.86226015362238" lon="8.967087328787104"><ele>399.0</ele><time>2026-05-03T08:55:00.999Z</time></trkpt><trkpt lat="44.86219658979765" lon="8.967213344675288"><ele>399.0</ele><time>2026-05-03T08:55:02.999Z</time></trkpt><trkpt lat="44.861824378592885" lon="8.967011764119077"><ele>401.25</ele><time>2026-05-03T08:55:03.999Z</time></trkpt><trkpt lat="44.86170418905713" lon="8.967015084860225"><ele>403.5</ele><time>2026-05-03T08:55:04.999Z</time></trkpt><trkpt lat="44.86161324932195" lon="8.967031835625864"><ele>405.75</ele><time>2026-05-03T08:55:05.999Z</time></trkpt><trkpt lat="44.86148982124155" lon="8.96707356701962"><ele>408.0</ele><time>2026-05-03T08:55:06.999Z</time></trkpt><trkpt lat="44.861374924685755" lon="8.967128579675474"><ele>408.0</ele><time>2026-05-03T08:55:07.999Z</time></trkpt><trkpt lat="44.86125675906801" lon="8.967186478825733"><ele>408.0</ele><time>2026-05-03T08:55:08.999Z</time></trkpt><trkpt lat="44.86113726957359" lon="8.967260478473321"><ele>408.0</ele><time>2026-05-03T08:55:09.999Z</time></trkpt><trkpt lat="44.86103578790216" lon="8.967341963774759"><ele>408.0</ele><time>2026-05-03T08:55:10.999Z</time></trkpt><trkpt lat="44.86093295828359" lon="8.967452148051342"><ele>408.25</ele><time>2026-05-03T08:55:11.999Z</time></trkpt><trkpt lat="44.86084358188851" lon="8.96754005013776"><ele>408.5</ele><time>2026-05-03T08:55:12.999Z</time></trkpt><trkpt lat="44.8607558343464" lon="8.967663147108182"><ele>408.75</ele><time>2026-05-03T08:55:13.999Z</time></trkpt><trkpt lat="44.86066798785245" lon="8.967773799889487"><ele>409.0</ele><time>2026-05-03T08:55:14.999Z</time></trkpt><trkpt lat="44.860596408233555" lon="8.967889452990864"><ele>409.0</ele><time>2026-05-03T08:55:15.999Z</time></trkpt><trkpt lat="44.86049699732214" lon="8.967985192611721"><ele>409.0</ele><time>2026-05-03T08:55:17.998Z</time></trkpt><trkpt lat="44.86040350433912" lon="8.967934296686412"><ele>409.0</ele><time>2026-05-03T08:55:19.998Z</time></trkpt><trkpt lat="44.86034719252168" lon="8.967861835678649"><ele>409.0</ele><time>2026-05-03T08:55:20.998Z</time></trkpt><trkpt lat="44.860273692932736" lon="8.967770585432282"><ele>409.0</ele><time>2026-05-03T08:55:21.998Z</time></trkpt><trkpt lat="44.86021353945062" lon="8.967684043450971"><ele>409.0</ele><time>2026-05-03T08:55:22.998Z</time></trkpt><trkpt lat="44.86015222590041" lon="8.967577214843368"><ele>409.0</ele><time>2026-05-03T08:55:23.998Z</time></trkpt><trkpt lat="44.86009715586671" lon="8.967463889516141"><ele>409.0</ele><time>2026-05-03T08:55:24.998Z</time></trkpt><trkpt lat="44.86005087854875" lon="8.9673535810339"><ele>409.0</ele><time>2026-05-03T08:55:25.998Z</time></trkpt><trkpt lat="44.85999307759051" lon="8.967238912246895"><ele>409.0</ele><time>2026-05-03T08:55:26.998Z</time></trkpt><trkpt lat="44.859944683637316" lon="8.967142613060307"><ele>409.6</ele><time>2026-05-03T08:55:27.998Z</time></trkpt><trkpt lat="44.859898312347475" lon="8.96704165234884"><ele>410.2</ele><time>2026-05-03T08:55:28.998Z</time></trkpt><trkpt lat="44.85982949975885" lon="8.966905691125937"><ele>410.8</ele><time>2026-05-03T08:55:29.998Z</time></trkpt><trkpt lat="44.85978528368372" lon="8.966765085387523"><ele>411.40000000000003</ele><time>2026-05-03T08:55:30.998Z</time></trkpt><trkpt lat="44.85976039999425" lon="8.966631679840553"><ele>412.0</ele><time>2026-05-03T08:55:31.998Z</time></trkpt><trkpt lat="44.85974603462285" lon="8.966518233189765"><ele>412.0</ele><time>2026-05-03T08:55:32.998Z</time></trkpt><trkpt lat="44.85975372971872" lon="8.966429766446272"><ele>412.0</ele><time>2026-05-03T08:55:33.998Z</time></trkpt><trkpt lat="44.85976654379941" lon="8.96629579170937"><ele>412.0</ele><time>2026-05-03T08:55:34.998Z</time></trkpt><trkpt lat="44.85975709028919" lon="8.96615400629221"><ele>412.0</ele><time>2026-05-03T08:55:35.998Z</time></trkpt><trkpt lat="44.859735608316754" lon="8.965974182015005"><ele>412.0</ele><time>2026-05-03T08:55:36.998Z</time></trkpt><trkpt lat="44.85972343355652" lon="8.965784471789748"><ele>411.25</ele><time>2026-05-03T08:55:37.998Z</time></trkpt><trkpt lat="44.859709564522475" lon="8.965634790680161"><ele>410.5</ele><time>2026-05-03T08:55:38.998Z</time></trkpt><trkpt lat="44.8596933179607" lon="8.965488241908139"><ele>409.75</ele><time>2026-05-03T08:55:39.998Z</time></trkpt><trkpt lat="44.8596627720151" lon="8.965334235351637"><ele>409.0</ele><time>2026-05-03T08:55:40.998Z</time></trkpt><trkpt lat="44.85961649165677" lon="8.965168005858365"><ele>408.2</ele><time>2026-05-03T08:55:41.998Z</time></trkpt><trkpt lat="44.85957013537158" lon="8.965017628870616"><ele>407.4</ele><time>2026-05-03T08:55:42.998Z</time></trkpt><trkpt lat="44.85953306222409" lon="8.964885086540146"><ele>406.6</ele><time>2026-05-03T08:55:43.998Z</time></trkpt><trkpt lat="44.85951282010828" lon="8.964738081384848"><ele>405.8</ele><time>2026-05-03T08:55:44.998Z</time></trkpt><trkpt lat="44.85948091358366" lon="8.964650567994392"><ele>405.0</ele><time>2026-05-03T08:55:45.998Z</time></trkpt><trkpt lat="44.85943167189798" lon="8.964544736950415"><ele>405.0</ele><time>2026-05-03T08:55:46.998Z</time></trkpt><trkpt lat="44.85938736878018" lon="8.964456363226642"><ele>405.0</ele><time>2026-05-03T08:55:47.998Z</time></trkpt><trkpt lat="44.859363173125175" lon="8.964368985094866"><ele>405.0</ele><time>2026-05-03T08:55:48.998Z</time></trkpt><trkpt lat="44.859412820702445" lon="8.964278980994663"><ele>405.0</ele><time>2026-05-03T08:55:50.997Z</time></trkpt><trkpt lat="44.859461294281715" lon="8.964168506554262"><ele>405.0</ele><time>2026-05-03T08:55:52.997Z</time></trkpt><trkpt lat="44.85946533982397" lon="8.964066795150147"><ele>405.0</ele><time>2026-05-03T08:55:53.997Z</time></trkpt><trkpt lat="44.85945570378072" lon="8.963971051216099"><ele>403.4</ele><time>2026-05-03T08:55:54.997Z</time></trkpt><trkpt lat="44.85943113568131" lon="8.963862205708224"><ele>401.8</ele><time>2026-05-03T08:55:55.997Z</time></trkpt><trkpt lat="44.85937916048429" lon="8.963732753234849"><ele>400.20000000000005</ele><time>2026-05-03T08:55:56.997Z</time></trkpt><trkpt lat="44.85933180851322" lon="8.963606565838697"><ele>398.6</ele><time>2026-05-03T08:55:57.997Z</time></trkpt><trkpt lat="44.85930034749342" lon="8.963473233631523"><ele>397.0</ele><time>2026-05-03T08:55:58.997Z</time></trkpt><trkpt lat="44.8592738007824" lon="8.963318073655177"><ele>395.8</ele><time>2026-05-03T08:55:59.997Z</time></trkpt><trkpt lat="44.859266751670795" lon="8.963181621677546"><ele>394.6</ele><time>2026-05-03T08:56:00.997Z</time></trkpt><trkpt lat="44.85927024955358" lon="8.963037917740948"><ele>393.40000000000003</ele><time>2026-05-03T08:56:01.997Z</time></trkpt><trkpt lat="44.85928821087333" lon="8.962893189817434"><ele>392.20000000000005</ele><time>2026-05-03T08:56:02.997Z</time></trkpt><trkpt lat="44.8593041630488" lon="8.962778586724697"><ele>391.0</ele><time>2026-05-03T08:56:03.997Z</time></trkpt><trkpt lat="44.85927339086083" lon="8.96261230923301"><ele>391.0</ele><time>2026-05-03T08:56:05.997Z</time></trkpt><trkpt lat="44.859200000581495" lon="8.962536251426503"><ele>391.0</ele><time>2026-05-03T08:56:07.997Z</time></trkpt><trkpt lat="44.85912293705582" lon="8.962611558729828"><ele>391.0</ele><time>2026-05-03T08:56:09.997Z</time></trkpt><trkpt lat="44.85905896263595" lon="8.962677696220547"><ele>391.0</ele><time>2026-05-03T08:56:11Z</time></trkpt><trkpt lat="44.85897039346679" lon="8.962757490708281"><ele>391.0</ele><time>2026-05-03T08:56:12Z</time></trkpt><trkpt lat="44.85885354972014" lon="8.962817696214518"><ele>391.00000000000006</ele><time>2026-05-03T08:56:13Z</time></trkpt><trkpt lat="44.85874078826641" lon="8.962854475529996"><ele>391.0</ele><time>2026-05-03T08:56:14Z</time></trkpt><trkpt lat="44.85867553177037" lon="8.962922213639017"><ele>391.0</ele><time>2026-05-03T08:56:15Z</time></trkpt><trkpt lat="44.85858961228041" lon="8.962979817813476"><ele>391.0</ele><time>2026-05-03T08:56:16Z</time></trkpt><trkpt lat="44.85851789625408" lon="8.963007236407778"><ele>391.00000000000006</ele><time>2026-05-03T08:56:17Z</time></trkpt><trkpt lat="44.858454103354845" lon="8.963007275586152"><ele>391.0</ele><time>2026-05-03T08:56:18Z</time></trkpt><trkpt lat="44.8583561309869" lon="8.963065419067187"><ele>389.6</ele><time>2026-05-03T08:56:19Z</time></trkpt><trkpt lat="44.85827673465327" lon="8.963135425356578"><ele>388.20000000000005</ele><time>2026-05-03T08:56:20Z</time></trkpt><trkpt lat="44.858197430703655" lon="8.963178723812755"><ele>386.79999999999995</ele><time>2026-05-03T08:56:21Z</time></trkpt><trkpt lat="44.85813185840892" lon="8.96321616948254"><ele>385.4</ele><time>2026-05-03T08:56:22Z</time></trkpt><trkpt lat="44.85803295156838" lon="8.963285644989691"><ele>384.0</ele><time>2026-05-03T08:56:24Z</time></trkpt><trkpt lat="44.85792969858695" lon="8.963341597227624"><ele>382.0</ele><time>2026-05-03T08:56:26Z</time></trkpt><trkpt lat="44.85792946782299" lon="8.963448361005847"><ele>380.0</ele><time>2026-05-03T08:56:29Z</time></trkpt><trkpt lat="44.85806891725531" lon="8.96357835798654"><ele>378.0</ele><time>2026-05-03T08:56:31Z</time></trkpt><trkpt lat="44.85818640615247" lon="8.963673813080824"><ele>376.0</ele><time>2026-05-03T08:56:32Z</time></trkpt><trkpt lat="44.85830524095757" lon="8.963791706838599"><ele>376.0</ele><time>2026-05-03T08:56:33Z</time></trkpt><trkpt lat="44.858406209120986" lon="8.963907369378164"><ele>376.0</ele><time>2026-05-03T08:56:34Z</time></trkpt><trkpt lat="44.85846875144172" lon="8.964043740830636"><ele>376.0</ele><time>2026-05-03T08:56:35Z</time></trkpt><trkpt lat="44.858491216890954" lon="8.964222394881254"><ele>376.0</ele><time>2026-05-03T08:56:36Z</time></trkpt><trkpt lat="44.85854412068688" lon="8.964435928929863"><ele>382.66666666666663</ele><time>2026-05-03T08:56:37Z</time></trkpt><trkpt lat="44.85858390253678" lon="8.964665073314853"><ele>389.3333333333333</ele><time>2026-05-03T08:56:38Z</time></trkpt><trkpt lat="44.858591081261544" lon="8.964865583753406"><ele>396.0</ele><time>2026-05-03T08:56:39Z</time></trkpt><trkpt lat="44.858583668888954" lon="8.965070676852317"><ele>396.0</ele><time>2026-05-03T08:56:40Z</time></trkpt><trkpt lat="44.858595465509964" lon="8.965267813980288"><ele>396.0</ele><time>2026-05-03T08:56:41Z</time></trkpt><trkpt lat="44.858583466011424" lon="8.965451235654184"><ele>396.0</ele><time>2026-05-03T08:56:42Z</time></trkpt><trkpt lat="44.85859480777742" lon="8.965612440766469"><ele>396.0</ele><time>2026-05-03T08:56:43Z</time></trkpt><trkpt lat="44.85864944914898" lon="8.965777272590094"><ele>395.0</ele><time>2026-05-03T08:56:44Z</time></trkpt><trkpt lat="44.85874038335256" lon="8.9659483577168"><ele>394.0</ele><time>2026-05-03T08:56:45Z</time></trkpt><trkpt lat="44.85885128077469" lon="8.966131700686928"><ele>393.0</ele><time>2026-05-03T08:56:46Z</time></trkpt><trkpt lat="44.85890542713134" lon="8.966354612020986"><ele>393.0</ele><time>2026-05-03T08:56:47Z</time></trkpt><trkpt lat="44.8589385466516" lon="8.966558259872397"><ele>393.0</ele><time>2026-05-03T08:56:48Z</time></trkpt><trkpt lat="44.858947862114356" lon="8.966750007274307"><ele>393.0</ele><time>2026-05-03T08:56:49Z</time></trkpt><trkpt lat="44.858969583391946" lon="8.966878077072163"><ele>393.0</ele><time>2026-05-03T08:56:50Z</time></trkpt><trkpt lat="44.85894877174638" lon="8.966962472024312"><ele>393.0</ele><time>2026-05-03T08:56:50.999Z</time></trkpt><trkpt lat="44.85883271728707" lon="8.96704685680648"><ele>393.0</ele><time>2026-05-03T08:56:53.999Z</time></trkpt><trkpt lat="44.85876727445416" lon="8.967011188448414"><ele>393.0</ele><time>2026-05-03T08:56:54.999Z</time></trkpt><trkpt lat="44.85871320268564" lon="8.966922425289841"><ele>393.0</ele><time>2026-05-03T08:56:55.999Z</time></trkpt><trkpt lat="44.8586634033236" lon="8.966787522694485"><ele>393.0</ele><time>2026-05-03T08:56:56.999Z</time></trkpt><trkpt lat="44.85868167997026" lon="8.966648758606132"><ele>393.0</ele><time>2026-05-03T08:56:58.999Z</time></trkpt><trkpt lat="44.85868368890691" lon="8.966558479761435"><ele>393.0</ele><time>2026-05-03T08:57:01.999Z</time></trkpt><trkpt lat="44.85863044862574" lon="8.966489412101835"><ele>393.0</ele><time>2026-05-03T08:57:02.999Z</time></trkpt><trkpt lat="44.85857962331981" lon="8.966435669276455"><ele>393.0</ele><time>2026-05-03T08:57:03.999Z</time></trkpt><trkpt lat="44.85845742712835" lon="8.966405590760955"><ele>393.0</ele><time>2026-05-03T08:57:04.999Z</time></trkpt><trkpt lat="44.858358046432" lon="8.966400355248709"><ele>393.0</ele><time>2026-05-03T08:57:06.999Z</time></trkpt><trkpt lat="44.85833471655864" lon="8.966596694689864"><ele>393.0</ele><time>2026-05-03T08:57:08.999Z</time></trkpt><trkpt lat="44.85835890327254" lon="8.966762139977265"><ele>392.2</ele><time>2026-05-03T08:57:09.999Z</time></trkpt><trkpt lat="44.85838449230227" lon="8.966928096450525"><ele>391.4</ele><time>2026-05-03T08:57:10.999Z</time></trkpt><trkpt lat="44.85841325282026" lon="8.967069784850885"><ele>390.59999999999997</ele><time>2026-05-03T08:57:11.999Z</time></trkpt><trkpt lat="44.858440607743475" lon="8.967195114547375"><ele>389.79999999999995</ele><time>2026-05-03T08:57:12.999Z</time></trkpt><trkpt lat="44.85847035806571" lon="8.967324171792827"><ele>389.0</ele><time>2026-05-03T08:57:13.999Z</time></trkpt><trkpt lat="44.85850052426622" lon="8.967456844317432"><ele>386.6</ele><time>2026-05-03T08:57:14.999Z</time></trkpt><trkpt lat="44.8585226362346" lon="8.967592143343483"><ele>384.2</ele><time>2026-05-03T08:57:15.999Z</time></trkpt><trkpt lat="44.858540554710835" lon="8.967738399290642"><ele>381.8</ele><time>2026-05-03T08:57:16.999Z</time></trkpt><trkpt lat="44.8585470363985" lon="8.967894266060275"><ele>379.40000000000003</ele><time>2026-05-03T08:57:17.999Z</time></trkpt><trkpt lat="44.85855388029708" lon="8.968030403901196"><ele>377.0</ele><time>2026-05-03T08:57:18.999Z</time></trkpt><trkpt lat="44.858579451347175" lon="8.968162140325385"><ele>377.0</ele><time>2026-05-03T08:57:19.999Z</time></trkpt><trkpt lat="44.85861066026738" lon="8.96829387152047"><ele>377.0</ele><time>2026-05-03T08:57:20.999Z</time></trkpt><trkpt lat="44.85864023630358" lon="8.968421222291731"><ele>377.0</ele><time>2026-05-03T08:57:21.999Z</time></trkpt><trkpt lat="44.85868390455688" lon="8.968572406400096"><ele>377.0</ele><time>2026-05-03T08:57:22.998Z</time></trkpt><trkpt lat="44.858729930048725" lon="8.968735295927235"><ele>377.0</ele><time>2026-05-03T08:57:23.998Z</time></trkpt><trkpt lat="44.85876670054439" lon="8.968878704238078"><ele>375.0</ele><time>2026-05-03T08:57:24.998Z</time></trkpt><trkpt lat="44.858798430551836" lon="8.968996503046155"><ele>373.0</ele><time>2026-05-03T08:57:25.998Z</time></trkpt><trkpt lat="44.85882811384894" lon="8.969078018626107"><ele>371.0</ele><time>2026-05-03T08:57:26.998Z</time></trkpt><trkpt lat="44.85886419394041" lon="8.96918685434858"><ele>369.0</ele><time>2026-05-03T08:57:27.998Z</time></trkpt><trkpt lat="44.85888509507602" lon="8.969326589314283"><ele>367.0</ele><time>2026-05-03T08:57:28.998Z</time></trkpt><trkpt lat="44.85889376289742" lon="8.969479203202264"><ele>365.0</ele><time>2026-05-03T08:57:29.998Z</time></trkpt><trkpt lat="44.85889529136739" lon="8.969594147119514"><ele>363.4</ele><time>2026-05-03T08:57:30.998Z</time></trkpt><trkpt lat="44.858872800880015" lon="8.96977014688504"><ele>361.8</ele><time>2026-05-03T08:57:32.998Z</time></trkpt><trkpt lat="44.85885881579385" lon="8.969872768569866"><ele>360.20000000000005</ele><time>2026-05-03T08:57:33.998Z</time></trkpt><trkpt lat="44.85884325855825" lon="8.969987294609925"><ele>358.6</ele><time>2026-05-03T08:57:34.998Z</time></trkpt><trkpt lat="44.85882943237635" lon="8.970114574443409"><ele>357.0</ele><time>2026-05-03T08:57:35.998Z</time></trkpt><trkpt lat="44.85884126817424" lon="8.970241521387258"><ele>356.8333333333333</ele><time>2026-05-03T08:57:36.998Z</time></trkpt><trkpt lat="44.858859356948955" lon="8.970357883909015"><ele>356.6666666666667</ele><time>2026-05-03T08:57:37.998Z</time></trkpt><trkpt lat="44.8588818276035" lon="8.970458880396524"><ele>356.5</ele><time>2026-05-03T08:57:38.998Z</time></trkpt><trkpt lat="44.85887687772982" lon="8.970591361972287"><ele>356.33333333333337</ele><time>2026-05-03T08:57:39.998Z</time></trkpt><trkpt lat="44.85886769362741" lon="8.970700545079115"><ele>356.1666666666667</ele><time>2026-05-03T08:57:40.998Z</time></trkpt><trkpt lat="44.85884529845687" lon="8.970795040253337"><ele>356.0</ele><time>2026-05-03T08:57:42.998Z</time></trkpt><trkpt lat="44.85871815427715" lon="8.970785561004357"><ele>356.0</ele><time>2026-05-03T08:57:44.998Z</time></trkpt><trkpt lat="44.85863937386123" lon="8.970756996238515"><ele>356.0</ele><time>2026-05-03T08:57:45.998Z</time></trkpt><trkpt lat="44.85854730453772" lon="8.970672732132016"><ele>356.0</ele><time>2026-05-03T08:57:47.998Z</time></trkpt><trkpt lat="44.85847523936341" lon="8.970570388474464"><ele>356.0</ele><time>2026-05-03T08:57:48.998Z</time></trkpt><trkpt lat="44.85842823237508" lon="8.97049778404294"><ele>356.0</ele><time>2026-05-03T08:57:49.998Z</time></trkpt><trkpt lat="44.85834794098591" lon="8.970460262492475"><ele>356.0</ele><time>2026-05-03T08:57:50.998Z</time></trkpt><trkpt lat="44.85826305184956" lon="8.970446815971604"><ele>353.4</ele><time>2026-05-03T08:57:51.998Z</time></trkpt><trkpt lat="44.85818436099155" lon="8.970394560801935"><ele>350.8</ele><time>2026-05-03T08:57:52.998Z</time></trkpt><trkpt lat="44.858077948775716" lon="8.970316566833782"><ele>348.2</ele><time>2026-05-03T08:57:53.998Z</time></trkpt><trkpt lat="44.85800723346085" lon="8.970241303212559"><ele>345.59999999999997</ele><time>2026-05-03T08:57:54.998Z</time></trkpt><trkpt lat="44.85793921728698" lon="8.970170940573128"><ele>343.0</ele><time>2026-05-03T08:57:56.997Z</time></trkpt><trkpt lat="44.857842747734786" lon="8.970230818022353"><ele>343.0</ele><time>2026-05-03T08:57:58.997Z</time></trkpt><trkpt lat="44.857783039332055" lon="8.9702849778628"><ele>343.0</ele><time>2026-05-03T08:57:59.997Z</time></trkpt><trkpt lat="44.85773554291111" lon="8.970386641466215"><ele>343.0</ele><time>2026-05-03T08:58:00.997Z</time></trkpt><trkpt lat="44.85767742720129" lon="8.970466826049828"><ele>343.0</ele><time>2026-05-03T08:58:01.997Z</time></trkpt><trkpt lat="44.85762726392944" lon="8.970528354795391"><ele>343.0</ele><time>2026-05-03T08:58:02.997Z</time></trkpt><trkpt lat="44.8575610333151" lon="8.970607040276322"><ele>343.0</ele><time>2026-05-03T08:58:03.997Z</time></trkpt><trkpt lat="44.85750890169373" lon="8.970660518153197"><ele>345.4</ele><time>2026-05-03T08:58:04.997Z</time></trkpt><trkpt lat="44.85744512983106" lon="8.970739035152492"><ele>347.79999999999995</ele><time>2026-05-03T08:58:05.997Z</time></trkpt><trkpt lat="44.85740124670711" lon="8.97082148225774"><ele>350.2</ele><time>2026-05-03T08:58:06.997Z</time></trkpt><trkpt lat="44.857327455399385" lon="8.970987801759854"><ele>352.6</ele><time>2026-05-03T08:58:08.997Z</time></trkpt><trkpt lat="44.85727792802633" lon="8.971089766748051"><ele>355.0</ele><time>2026-05-03T08:58:09.997Z</time></trkpt><trkpt lat="44.85722137512771" lon="8.971194499026515"><ele>358.3333333333333</ele><time>2026-05-03T08:58:10.997Z</time></trkpt><trkpt lat="44.857176975155674" lon="8.97128308220265"><ele>361.66666666666663</ele><time>2026-05-03T08:58:11.997Z</time></trkpt><trkpt lat="44.85712546198605" lon="8.971355488545873"><ele>365.0</ele><time>2026-05-03T08:58:12.997Z</time></trkpt><trkpt lat="44.85705880440545" lon="8.971457682417979"><ele>368.3333333333333</ele><time>2026-05-03T08:58:14.997Z</time></trkpt><trkpt lat="44.85703567195679" lon="8.971561716241158"><ele>371.6666666666667</ele><time>2026-05-03T08:58:15.997Z</time></trkpt><trkpt lat="44.85700652530713" lon="8.971664215330454"><ele>375.0</ele><time>2026-05-03T08:58:17Z</time></trkpt><trkpt lat="44.85699237735526" lon="8.971767820443393"><ele>377.0</ele><time>2026-05-03T08:58:18Z</time></trkpt><trkpt lat="44.856980796566305" lon="8.971902458732592"><ele>379.0</ele><time>2026-05-03T08:58:20Z</time></trkpt><trkpt lat="44.857006915908" lon="8.972002766507476"><ele>381.0</ele><time>2026-05-03T08:58:21Z</time></trkpt><trkpt lat="44.85706569061356" lon="8.972092636559605"><ele>383.0</ele><time>2026-05-03T08:58:22Z</time></trkpt><trkpt lat="44.8571226374313" lon="8.972202222045505"><ele>385.0</ele><time>2026-05-03T08:58:23Z</time></trkpt><trkpt lat="44.85717312476475" lon="8.972304790444767"><ele>387.0</ele><time>2026-05-03T08:58:24Z</time></trkpt><trkpt lat="44.857212828546615" lon="8.972396837347548"><ele>387.0</ele><time>2026-05-03T08:58:25Z</time></trkpt><trkpt lat="44.85727806202644" lon="8.972503819905262"><ele>387.0</ele><time>2026-05-03T08:58:27Z</time></trkpt><trkpt lat="44.85734958607737" lon="8.972573528561243"><ele>387.0</ele><time>2026-05-03T08:58:29Z</time></trkpt><trkpt lat="44.85729843993322" lon="8.972631667903684"><ele>387.0</ele><time>2026-05-03T08:58:34Z</time></trkpt><trkpt lat="44.85716730805458" lon="8.972627494880655"><ele>387.0</ele><time>2026-05-03T08:58:36Z</time></trkpt><trkpt lat="44.85706975113006" lon="8.972681293806742"><ele>388.0</ele><time>2026-05-03T08:58:37Z</time></trkpt><trkpt lat="44.856954841620556" lon="8.972755587795572"><ele>389.0</ele><time>2026-05-03T08:58:38Z</time></trkpt><trkpt lat="44.85685211141765" lon="8.972825932146925"><ele>390.0</ele><time>2026-05-03T08:58:39Z</time></trkpt><trkpt lat="44.85676483093762" lon="8.972867528939918"><ele>391.0</ele><time>2026-05-03T08:58:40Z</time></trkpt><trkpt lat="44.85665756303312" lon="8.97289270286044"><ele>392.0</ele><time>2026-05-03T08:58:41Z</time></trkpt><trkpt lat="44.8565245666401" lon="8.972901962769681"><ele>394.0</ele><time>2026-05-03T08:58:42Z</time></trkpt><trkpt lat="44.85640164552419" lon="8.972887616987437"><ele>396.0</ele><time>2026-05-03T08:58:43Z</time></trkpt><trkpt lat="44.85628366651064" lon="8.972855017122187"><ele>398.0</ele><time>2026-05-03T08:58:44Z</time></trkpt><trkpt lat="44.85618785101835" lon="8.97281781267639"><ele>400.0</ele><time>2026-05-03T08:58:45Z</time></trkpt><trkpt lat="44.856101013069654" lon="8.972805168862685"><ele>402.0</ele><time>2026-05-03T08:58:46Z</time></trkpt><trkpt lat="44.8560030506435" lon="8.972805076333119"><ele>402.40000000000003</ele><time>2026-05-03T08:58:47Z</time></trkpt><trkpt lat="44.855903024196046" lon="8.972809293026206"><ele>402.8</ele><time>2026-05-03T08:58:48Z</time></trkpt><trkpt lat="44.85582397811443" lon="8.972812948239529"><ele>403.2</ele><time>2026-05-03T08:58:49Z</time></trkpt><trkpt lat="44.85570277229463" lon="8.972749135148863"><ele>403.6</ele><time>2026-05-03T08:58:51Z</time></trkpt><trkpt lat="44.85560776229341" lon="8.972679215155575"><ele>404.0</ele><time>2026-05-03T08:58:52Z</time></trkpt><trkpt lat="44.855504057136656" lon="8.972607983290594"><ele>404.0</ele><time>2026-05-03T08:58:53Z</time></trkpt><trkpt lat="44.855393424885754" lon="8.972531467537165"><ele>404.0</ele><time>2026-05-03T08:58:54Z</time></trkpt><trkpt lat="44.8552888849735" lon="8.97245362811689"><ele>404.0</ele><time>2026-05-03T08:58:55Z</time></trkpt><trkpt lat="44.85519849172216" lon="8.972392803330925"><ele>404.0</ele><time>2026-05-03T08:58:56Z</time></trkpt><trkpt lat="44.8551123770679" lon="8.972359390925368"><ele>404.0</ele><time>2026-05-03T08:58:57Z</time></trkpt><trkpt lat="44.855032904406215" lon="8.97234683243584"><ele>402.49999999999994</ele><time>2026-05-03T08:58:57.999Z</time></trkpt><trkpt lat="44.854967059158334" lon="8.97235913708278"><ele>401.0</ele><time>2026-05-03T08:58:58.999Z</time></trkpt><trkpt lat="44.85489397757097" lon="8.972394635593293"><ele>399.5</ele><time>2026-05-03T08:58:59.999Z</time></trkpt><trkpt lat="44.85480811498648" lon="8.97244517768834"><ele>398.0</ele><time>2026-05-03T08:59:00.999Z</time></trkpt><trkpt lat="44.854729508128536" lon="8.97250431942138"><ele>396.49999999999994</ele><time>2026-05-03T08:59:01.999Z</time></trkpt><trkpt lat="44.85465388947265" lon="8.972580232019467"><ele>395.0</ele><time>2026-05-03T08:59:02.999Z</time></trkpt><trkpt lat="44.85458331124204" lon="8.972677564015394"><ele>394.8333333333333</ele><time>2026-05-03T08:59:03.999Z</time></trkpt><trkpt lat="44.85450108188455" lon="8.972721560316492"><ele>394.66666666666663</ele><time>2026-05-03T08:59:04.999Z</time></trkpt><trkpt lat="44.854412432595915" lon="8.97270800126956"><ele>394.5</ele><time>2026-05-03T08:59:05.999Z</time></trkpt><trkpt lat="44.85433854714112" lon="8.97262498390673"><ele>394.33333333333337</ele><time>2026-05-03T08:59:06.999Z</time></trkpt><trkpt lat="44.85427755572246" lon="8.972576242319061"><ele>394.1666666666667</ele><time>2026-05-03T08:59:07.999Z</time></trkpt><trkpt lat="44.854214240758" lon="8.972616535733838"><ele>394.0</ele><time>2026-05-03T08:59:10.999Z</time></trkpt><trkpt lat="44.85428329302038" lon="8.972740213917527"><ele>394.00000000000006</ele><time>2026-05-03T08:59:12.999Z</time></trkpt><trkpt lat="44.854351164652726" lon="8.972858832348468"><ele>394.0</ele><time>2026-05-03T08:59:13.999Z</time></trkpt><trkpt lat="44.85442561017499" lon="8.97294425249978"><ele>394.0</ele><time>2026-05-03T08:59:14.999Z</time></trkpt><trkpt lat="44.85448844028146" lon="8.97298923827865"><ele>394.0</ele><time>2026-05-03T08:59:15.999Z</time></trkpt><trkpt lat="44.854561439645046" lon="8.973049123531506"><ele>394.00000000000006</ele><time>2026-05-03T08:59:16.999Z</time></trkpt><trkpt lat="44.854643161984086" lon="8.973091458378711"><ele>394.0</ele><time>2026-05-03T08:59:17.999Z</time></trkpt><trkpt lat="44.85472779682226" lon="8.973133854555254"><ele>394.0</ele><time>2026-05-03T08:59:18.999Z</time></trkpt><trkpt lat="44.85478130050241" lon="8.973232434502064"><ele>394.0</ele><time>2026-05-03T08:59:19.999Z</time></trkpt><trkpt lat="44.85483669982596" lon="8.973364258334668"><ele>394.0</ele><time>2026-05-03T08:59:20.999Z</time></trkpt><trkpt lat="44.85489569631968" lon="8.97350713188145"><ele>394.0</ele><time>2026-05-03T08:59:21.999Z</time></trkpt><trkpt lat="44.854928019851876" lon="8.973600703270913"><ele>394.0</ele><time>2026-05-03T08:59:22.999Z</time></trkpt><trkpt lat="44.85497741013848" lon="8.973691732833178"><ele>393.6</ele><time>2026-05-03T08:59:24.999Z</time></trkpt><trkpt lat="44.855027168925076" lon="8.973772115681054"><ele>393.2</ele><time>2026-05-03T08:59:25.999Z</time></trkpt><trkpt lat="44.85509547786263" lon="8.973835364032569"><ele>392.8</ele><time>2026-05-03T08:59:26.999Z</time></trkpt><trkpt lat="44.85517307668541" lon="8.973923848838952"><ele>392.40000000000003</ele><time>2026-05-03T08:59:27.999Z</time></trkpt><trkpt lat="44.8551822055244" lon="8.974074770534497"><ele>392.0</ele><time>2026-05-03T08:59:29.999Z</time></trkpt><trkpt lat="44.85513341185906" lon="8.974186490857479"><ele>391.8</ele><time>2026-05-03T08:59:30.998Z</time></trkpt><trkpt lat="44.85509533268228" lon="8.974348020312423"><ele>391.6</ele><time>2026-05-03T08:59:31.998Z</time></trkpt><trkpt lat="44.85508052678558" lon="8.974535212766618"><ele>391.40000000000003</ele><time>2026-05-03T08:59:32.998Z</time></trkpt><trkpt lat="44.8550747481717" lon="8.974677222483137"><ele>391.20000000000005</ele><time>2026-05-03T08:59:33.998Z</time></trkpt><trkpt lat="44.855079179338965" lon="8.974807353850462"><ele>391.0</ele><time>2026-05-03T08:59:34.998Z</time></trkpt><trkpt lat="44.85510418065568" lon="8.974916200352283"><ele>389.8</ele><time>2026-05-03T08:59:35.998Z</time></trkpt><trkpt lat="44.85512752766257" lon="8.975040614054127"><ele>388.6</ele><time>2026-05-03T08:59:36.998Z</time></trkpt><trkpt lat="44.85512816503561" lon="8.975196622852721"><ele>387.4</ele><time>2026-05-03T08:59:37.998Z</time></trkpt><trkpt lat="44.85510646729293" lon="8.975333987699647"><ele>386.2</ele><time>2026-05-03T08:59:38.998Z</time></trkpt><trkpt lat="44.855059646014304" lon="8.97545729796447"><ele>385.0</ele><time>2026-05-03T08:59:39.998Z</time></trkpt><trkpt lat="44.855001453555126" lon="8.975580437880401"><ele>385.0</ele><time>2026-05-03T08:59:40.998Z</time></trkpt><trkpt lat="44.854933929008226" lon="8.975706072240705"><ele>385.0</ele><time>2026-05-03T08:59:41.998Z</time></trkpt><trkpt lat="44.85486055725073" lon="8.97584048540257"><ele>385.0</ele><time>2026-05-03T08:59:42.998Z</time></trkpt><trkpt lat="44.854790939920996" lon="8.975985854775454"><ele>385.0</ele><time>2026-05-03T08:59:43.998Z</time></trkpt><trkpt lat="44.854723264827356" lon="8.976105393558312"><ele>382.2</ele><time>2026-05-03T08:59:44.998Z</time></trkpt><trkpt lat="44.854654108522965" lon="8.976201328582617"><ele>379.4</ele><time>2026-05-03T08:59:45.998Z</time></trkpt><trkpt lat="44.85457733177066" lon="8.976290265433162"><ele>376.6</ele><time>2026-05-03T08:59:46.998Z</time></trkpt><trkpt lat="44.85450480785034" lon="8.97641337901767"><ele>373.8</ele><time>2026-05-03T08:59:47.998Z</time></trkpt><trkpt lat="44.85443417194587" lon="8.976503384612116"><ele>371.0</ele><time>2026-05-03T08:59:48.998Z</time></trkpt><trkpt lat="44.85435505051545" lon="8.976537805218028"><ele>373.0</ele><time>2026-05-03T08:59:49.998Z</time></trkpt><trkpt lat="44.85427029870346" lon="8.976569386222874"><ele>375.0</ele><time>2026-05-03T08:59:50.998Z</time></trkpt><trkpt lat="44.85418224927411" lon="8.976583085089722"><ele>377.0</ele><time>2026-05-03T08:59:51.998Z</time></trkpt><trkpt lat="44.854075481342484" lon="8.976589667177775"><ele>379.0</ele><time>2026-05-03T08:59:52.998Z</time></trkpt><trkpt lat="44.853972025051746" lon="8.976586416642691"><ele>381.0</ele><time>2026-05-03T08:59:53.998Z</time></trkpt><trkpt lat="44.85386400741025" lon="8.976570139871994"><ele>381.0</ele><time>2026-05-03T08:59:54.998Z</time></trkpt><trkpt lat="44.85375777130189" lon="8.976565245134513"><ele>381.0</ele><time>2026-05-03T08:59:55.998Z</time></trkpt><trkpt lat="44.853681116564" lon="8.976557113738455"><ele>381.0</ele><time>2026-05-03T08:59:57.998Z</time></trkpt><trkpt lat="44.85372352209209" lon="8.976688137781139"><ele>381.0</ele><time>2026-05-03T09:00:00.998Z</time></trkpt><trkpt lat="44.85382338488084" lon="8.976772692444554"><ele>381.0</ele><time>2026-05-03T09:00:01.998Z</time></trkpt><trkpt lat="44.85393911590354" lon="8.976872496781377"><ele>377.3333333333333</ele><time>2026-05-03T09:00:02.998Z</time></trkpt><trkpt lat="44.854051998745916" lon="8.977013030721459"><ele>373.66666666666663</ele><time>2026-05-03T09:00:03.997Z</time></trkpt><trkpt lat="44.85416140508291" lon="8.977183777839992"><ele>370.0</ele><time>2026-05-03T09:00:04.997Z</time></trkpt><trkpt lat="44.85426225245236" lon="8.977359592903845"><ele>369.0</ele><time>2026-05-03T09:00:05.997Z</time></trkpt><trkpt lat="44.85434909650733" lon="8.977524416277424"><ele>368.0</ele><time>2026-05-03T09:00:06.997Z</time></trkpt><trkpt lat="44.8544171784789" lon="8.97766867368563"><ele>367.0</ele><time>2026-05-03T09:00:07.997Z</time></trkpt><trkpt lat="44.85446172712738" lon="8.977802821485323"><ele>366.0</ele><time>2026-05-03T09:00:08.997Z</time></trkpt><trkpt lat="44.85450637422506" lon="8.97792723058926"><ele>366.0</ele><time>2026-05-03T09:00:09.997Z</time></trkpt><trkpt lat="44.854543849302544" lon="8.978003047985501"><ele>366.0</ele><time>2026-05-03T09:00:10.997Z</time></trkpt><trkpt lat="44.85460710068579" lon="8.978118630131616"><ele>366.0</ele><time>2026-05-03T09:00:12.997Z</time></trkpt><trkpt lat="44.854558648581886" lon="8.978294675065767"><ele>366.0</ele><time>2026-05-03T09:00:13.997Z</time></trkpt><trkpt lat="44.85452901069535" lon="8.978461369298705"><ele>366.0</ele><time>2026-05-03T09:00:14.997Z</time></trkpt><trkpt lat="44.854495928682574" lon="8.978657032477603"><ele>367.3333333333333</ele><time>2026-05-03T09:00:15.997Z</time></trkpt><trkpt lat="44.85446624567208" lon="8.978885912777319"><ele>368.66666666666663</ele><time>2026-05-03T09:00:16.997Z</time></trkpt><trkpt lat="44.8544461956176" lon="8.979132631167275"><ele>370.0</ele><time>2026-05-03T09:00:17.997Z</time></trkpt><trkpt lat="44.85444876047548" lon="8.979380823308816"><ele>372.66666666666663</ele><time>2026-05-03T09:00:18.997Z</time></trkpt><trkpt lat="44.85445925690858" lon="8.97962540904193"><ele>375.3333333333333</ele><time>2026-05-03T09:00:19.997Z</time></trkpt><trkpt lat="44.85446650580974" lon="8.979883088223533"><ele>378.0</ele><time>2026-05-03T09:00:20.997Z</time></trkpt><trkpt lat="44.854440467933784" lon="8.980108137201134"><ele>379.5</ele><time>2026-05-03T09:00:22Z</time></trkpt><trkpt lat="44.85438925263464" lon="8.980301732442005"><ele>381.0</ele><time>2026-05-03T09:00:23Z</time></trkpt><trkpt lat="44.85431920282147" lon="8.980476899296635"><ele>382.5</ele><time>2026-05-03T09:00:24Z</time></trkpt><trkpt lat="44.8542352231851" lon="8.980665326949266"><ele>384.0</ele><time>2026-05-03T09:00:25Z</time></trkpt><trkpt lat="44.85415887920778" lon="8.98082406220848"><ele>384.4</ele><time>2026-05-03T09:00:26Z</time></trkpt><trkpt lat="44.85409797668379" lon="8.980971785768343"><ele>384.79999999999995</ele><time>2026-05-03T09:00:27Z</time></trkpt><trkpt lat="44.85405326731558" lon="8.98110850883357"><ele>385.20000000000005</ele><time>2026-05-03T09:00:28Z</time></trkpt><trkpt lat="44.854023221097776" lon="8.981250382309543"><ele>385.6</ele><time>2026-05-03T09:00:29Z</time></trkpt><trkpt lat="44.85401067572758" lon="8.981403515164036"><ele>386.0</ele><time>2026-05-03T09:00:30Z</time></trkpt><trkpt lat="44.85401563416902" lon="8.981586935374505"><ele>387.66666666666663</ele><time>2026-05-03T09:00:31Z</time></trkpt><trkpt lat="44.85402907092632" lon="8.98180614059776"><ele>389.33333333333337</ele><time>2026-05-03T09:00:32Z</time></trkpt><trkpt lat="44.85403368172387" lon="8.982019534500033"><ele>391.0</ele><time>2026-05-03T09:00:33Z</time></trkpt><trkpt lat="44.85401160008386" lon="8.98225780386691"><ele>391.0</ele><time>2026-05-03T09:00:34Z</time></trkpt><trkpt lat="44.85396479819708" lon="8.982458963795377"><ele>391.0</ele><time>2026-05-03T09:00:35Z</time></trkpt><trkpt lat="44.85388425924572" lon="8.982626115267353"><ele>391.0</ele><time>2026-05-03T09:00:36Z</time></trkpt><trkpt lat="44.8537682741621" lon="8.982735026797327"><ele>391.0</ele><time>2026-05-03T09:00:37Z</time></trkpt><trkpt lat="44.85364275236155" lon="8.982823733035497"><ele>392.6666666666667</ele><time>2026-05-03T09:00:38Z</time></trkpt><trkpt lat="44.85351050659458" lon="8.982923916874512"><ele>394.33333333333337</ele><time>2026-05-03T09:00:39Z</time></trkpt><trkpt lat="44.85338852057151" lon="8.983030356060924"><ele>396.0</ele><time>2026-05-03T09:00:40Z</time></trkpt><trkpt lat="44.85326565090731" lon="8.983168504697208"><ele>396.0</ele><time>2026-05-03T09:00:41Z</time></trkpt><trkpt lat="44.85315450025756" lon="8.983300668197899"><ele>396.0</ele><time>2026-05-03T09:00:42Z</time></trkpt><trkpt lat="44.85303836045467" lon="8.983440023340581"><ele>396.0</ele><time>2026-05-03T09:00:43Z</time></trkpt><trkpt lat="44.85292195093818" lon="8.983551742178665"><ele>396.0</ele><time>2026-05-03T09:00:44Z</time></trkpt><trkpt lat="44.852793322913264" lon="8.983656210170702"><ele>396.25</ele><time>2026-05-03T09:00:45Z</time></trkpt><trkpt lat="44.8526579594817" lon="8.983767636950367"><ele>396.5</ele><time>2026-05-03T09:00:46Z</time></trkpt><trkpt lat="44.85253505392891" lon="8.983878047468645"><ele>396.75</ele><time>2026-05-03T09:00:47Z</time></trkpt><trkpt lat="44.85242438865741" lon="8.984014589799186"><ele>397.0</ele><time>2026-05-03T09:00:48Z</time></trkpt><trkpt lat="44.85234145704842" lon="8.98417691622227"><ele>400.25</ele><time>2026-05-03T09:00:49Z</time></trkpt><trkpt lat="44.85226961200718" lon="8.984375026128602"><ele>403.5</ele><time>2026-05-03T09:00:50Z</time></trkpt><trkpt lat="44.852217885712214" lon="8.984564368404026"><ele>406.75</ele><time>2026-05-03T09:00:51Z</time></trkpt><trkpt lat="44.852184162301825" lon="8.98474711062503"><ele>410.0</ele><time>2026-05-03T09:00:52Z</time></trkpt><trkpt lat="44.85219111555291" lon="8.98493979917652"><ele>412.75</ele><time>2026-05-03T09:00:53Z</time></trkpt><trkpt lat="44.85219517037762" lon="8.985133563327748"><ele>415.5</ele><time>2026-05-03T09:00:54Z</time></trkpt><trkpt lat="44.85217185598889" lon="8.985317524165337"><ele>418.25</ele><time>2026-05-03T09:00:55Z</time></trkpt><trkpt lat="44.852109747291394" lon="8.985478654746933"><ele>421.0</ele><time>2026-05-03T09:00:56Z</time></trkpt><trkpt lat="44.85202103571261" lon="8.985625276062056"><ele>421.0</ele><time>2026-05-03T09:00:57Z</time></trkpt><trkpt lat="44.851908948640876" lon="8.985768995474855"><ele>421.0</ele><time>2026-05-03T09:00:58Z</time></trkpt><trkpt lat="44.851805795171074" lon="8.985905717534301"><ele>421.0</ele><time>2026-05-03T09:00:59Z</time></trkpt><trkpt lat="44.85171418409884" lon="8.98607762792908"><ele>421.0</ele><time>2026-05-03T09:01:00Z</time></trkpt><trkpt lat="44.85163996129515" lon="8.98625479371763"><ele>419.6666666666667</ele><time>2026-05-03T09:01:01Z</time></trkpt><trkpt lat="44.85156603194635" lon="8.986453308402714"><ele>418.33333333333337</ele><time>2026-05-03T09:01:02Z</time></trkpt><trkpt lat="44.851485806461945" lon="8.986679717740211"><ele>417.0</ele><time>2026-05-03T09:01:03Z</time></trkpt><trkpt lat="44.85142150927187" lon="8.986891131915872"><ele>416.5</ele><time>2026-05-03T09:01:04Z</time></trkpt><trkpt lat="44.85137747163685" lon="8.987066614335488"><ele>416.0</ele><time>2026-05-03T09:01:04.999Z</time></trkpt><trkpt lat="44.85132201373981" lon="8.987224828386672"><ele>415.5</ele><time>2026-05-03T09:01:05.999Z</time></trkpt><trkpt lat="44.85126268861157" lon="8.987348946794794"><ele>415.0</ele><time>2026-05-03T09:01:06.999Z</time></trkpt><trkpt lat="44.851184963792946" lon="8.987447757843084"><ele>413.25</ele><time>2026-05-03T09:01:07.999Z</time></trkpt><trkpt lat="44.851080735537224" lon="8.987526692607831"><ele>411.5</ele><time>2026-05-03T09:01:08.999Z</time></trkpt><trkpt lat="44.85095701142219" lon="8.98761166024463"><ele>409.75</ele><time>2026-05-03T09:01:09.999Z</time></trkpt><trkpt lat="44.8508155423108" lon="8.987699703231918"><ele>408.0</ele><time>2026-05-03T09:01:10.999Z</time></trkpt><trkpt lat="44.850679862662126" lon="8.987828177509513"><ele>408.0</ele><time>2026-05-03T09:01:11.999Z</time></trkpt><trkpt lat="44.85054603173497" lon="8.987988363610217"><ele>408.0</ele><time>2026-05-03T09:01:12.999Z</time></trkpt><trkpt lat="44.85043721679938" lon="8.98815870662817"><ele>408.0</ele><time>2026-05-03T09:01:13.999Z</time></trkpt><trkpt lat="44.85034946706166" lon="8.988321073502258"><ele>407.0</ele><time>2026-05-03T09:01:14.999Z</time></trkpt><trkpt lat="44.850307273143166" lon="8.988484927890855"><ele>406.0</ele><time>2026-05-03T09:01:15.999Z</time></trkpt><trkpt lat="44.85029357060667" lon="8.988673154571641"><ele>405.0</ele><time>2026-05-03T09:01:16.999Z</time></trkpt><trkpt lat="44.850310987763244" lon="8.988856037801694"><ele>404.0</ele><time>2026-05-03T09:01:17.999Z</time></trkpt><trkpt lat="44.85035723599167" lon="8.989009495962813"><ele>404.0</ele><time>2026-05-03T09:01:18.999Z</time></trkpt><trkpt lat="44.85035134319835" lon="8.989158747687632"><ele>404.0</ele><time>2026-05-03T09:01:19.999Z</time></trkpt><trkpt lat="44.850301688961935" lon="8.989280415544874"><ele>404.0</ele><time>2026-05-03T09:01:20.999Z</time></trkpt><trkpt lat="44.850213326037355" lon="8.989374277176443"><ele>404.0</ele><time>2026-05-03T09:01:21.999Z</time></trkpt><trkpt lat="44.85009687730538" lon="8.989425954943412"><ele>404.0</ele><time>2026-05-03T09:01:22.999Z</time></trkpt><trkpt lat="44.84995398759053" lon="8.989444495816777"><ele>405.75</ele><time>2026-05-03T09:01:23.999Z</time></trkpt><trkpt lat="44.84979318867234" lon="8.989442986356387"><ele>407.5</ele><time>2026-05-03T09:01:24.999Z</time></trkpt><trkpt lat="44.849635837031435" lon="8.989464502111966"><ele>409.25</ele><time>2026-05-03T09:01:25.999Z</time></trkpt><trkpt lat="44.84952152650518" lon="8.98952843590038"><ele>411.0</ele><time>2026-05-03T09:01:26.999Z</time></trkpt><trkpt lat="44.84943991673412" lon="8.989638976195863"><ele>411.0</ele><time>2026-05-03T09:01:27.999Z</time></trkpt><trkpt lat="44.84938310624826" lon="8.989786336055982"><ele>411.0</ele><time>2026-05-03T09:01:28.999Z</time></trkpt><trkpt lat="44.849352092646626" lon="8.989970583860309"><ele>411.0</ele><time>2026-05-03T09:01:29.999Z</time></trkpt><trkpt lat="44.84934171248219" lon="8.99017298188672"><ele>411.0</ele><time>2026-05-03T09:01:30.999Z</time></trkpt><trkpt lat="44.84933113370735" lon="8.990381018385166"><ele>409.25</ele><time>2026-05-03T09:01:31.999Z</time></trkpt><trkpt lat="44.84931284803724" lon="8.990593510806155"><ele>407.5</ele><time>2026-05-03T09:01:32.999Z</time></trkpt><trkpt lat="44.84928976144722" lon="8.99076436286799"><ele>405.75</ele><time>2026-05-03T09:01:33.999Z</time></trkpt><trkpt lat="44.84926246027156" lon="8.990939750510298"><ele>404.0</ele><time>2026-05-03T09:01:34.999Z</time></trkpt><trkpt lat="44.84921614795051" lon="8.991109053717663"><ele>408.3333333333333</ele><time>2026-05-03T09:01:35.999Z</time></trkpt><trkpt lat="44.8491567999672" lon="8.991245616796773"><ele>412.66666666666663</ele><time>2026-05-03T09:01:36.999Z</time></trkpt><trkpt lat="44.84910204760258" lon="8.991362497363673"><ele>417.0</ele><time>2026-05-03T09:01:37.998Z</time></trkpt><trkpt lat="44.849063729067865" lon="8.991450350944817"><ele>421.33333333333337</ele><time>2026-05-03T09:01:38.998Z</time></trkpt><trkpt lat="44.84905116472984" lon="8.991565426210991"><ele>425.6666666666667</ele><time>2026-05-03T09:01:40.998Z</time></trkpt><trkpt lat="44.849131134052605" lon="8.991567797903702"><ele>430.0</ele><time>2026-05-03T09:01:42.998Z</time></trkpt><trkpt lat="44.84917308412649" lon="8.991500828194715"><ele>430.00000000000006</ele><time>2026-05-03T09:01:43.998Z</time></trkpt><trkpt lat="44.84921051986383" lon="8.991396319567151"><ele>430.0</ele><time>2026-05-03T09:01:44.998Z</time></trkpt><trkpt lat="44.84929982888999" lon="8.99131711025396"><ele>430.0</ele><time>2026-05-03T09:01:46.998Z</time></trkpt><trkpt lat="44.84935994888695" lon="8.991417513888539"><ele>430.0</ele><time>2026-05-03T09:01:48.998Z</time></trkpt><trkpt lat="44.84934843354749" lon="8.991517038480689"><ele>430.00000000000006</ele><time>2026-05-03T09:01:49.998Z</time></trkpt><trkpt lat="44.84931042030473" lon="8.991631631728854"><ele>430.0</ele><time>2026-05-03T09:01:50.998Z</time></trkpt><trkpt lat="44.84927456808768" lon="8.991772290633348"><ele>425.0</ele><time>2026-05-03T09:01:52.998Z</time></trkpt><trkpt lat="44.84940038923459" lon="8.991895350648722"><ele>420.0</ele><time>2026-05-03T09:01:54.998Z</time></trkpt><trkpt lat="44.84947106752504" lon="8.991953863874791"><ele>415.0</ele><time>2026-05-03T09:01:55.998Z</time></trkpt><trkpt lat="44.84964714436581" lon="8.991959364399811"><ele>410.0</ele><time>2026-05-03T09:01:56.998Z</time></trkpt><trkpt lat="44.84972359724354" lon="8.99199757541662"><ele>410.0</ele><time>2026-05-03T09:01:57.998Z</time></trkpt><trkpt lat="44.849800012371986" lon="8.992086978093566"><ele>410.0</ele><time>2026-05-03T09:01:59.998Z</time></trkpt><trkpt lat="44.84985049381828" lon="8.992218626692035"><ele>410.0</ele><time>2026-05-03T09:02:01.998Z</time></trkpt><trkpt lat="44.84990236279478" lon="8.992370083354153"><ele>410.0</ele><time>2026-05-03T09:02:03.998Z</time></trkpt><trkpt lat="44.84994658220632" lon="8.99255315335935"><ele>408.66666666666663</ele><time>2026-05-03T09:02:05.998Z</time></trkpt><trkpt lat="44.84996873333815" lon="8.99265991964695"><ele>407.3333333333333</ele><time>2026-05-03T09:02:06.998Z</time></trkpt><trkpt lat="44.849995526424514" lon="8.992804146192146"><ele>406.0</ele><time>2026-05-03T09:02:07.998Z</time></trkpt><trkpt lat="44.84995440847161" lon="8.992932364804844"><ele>404.66666666666663</ele><time>2026-05-03T09:02:08.998Z</time></trkpt><trkpt lat="44.84996783178929" lon="8.993032536257884"><ele>403.3333333333333</ele><time>2026-05-03T09:02:09.998Z</time></trkpt><trkpt lat="44.85000418581071" lon="8.993132353824471"><ele>402.0</ele><time>2026-05-03T09:02:10.997Z</time></trkpt><trkpt lat="44.85003334187948" lon="8.993238403524677"><ele>398.8333333333333</ele><time>2026-05-03T09:02:11.997Z</time></trkpt><trkpt lat="44.85004989536776" lon="8.993360818783183"><ele>395.6666666666667</ele><time>2026-05-03T09:02:12.997Z</time></trkpt><trkpt lat="44.85005462218231" lon="8.993480442602298"><ele>392.5</ele><time>2026-05-03T09:02:13.997Z</time></trkpt><trkpt lat="44.85004367763205" lon="8.993605471599814"><ele>389.33333333333337</ele><time>2026-05-03T09:02:14.997Z</time></trkpt><trkpt lat="44.85004291317507" lon="8.993728108835283"><ele>386.1666666666667</ele><time>2026-05-03T09:02:15.997Z</time></trkpt><trkpt lat="44.85004042851397" lon="8.993844114384778"><ele>383.0</ele><time>2026-05-03T09:02:16.997Z</time></trkpt><trkpt lat="44.85003751483245" lon="8.99396521006755"><ele>383.0</ele><time>2026-05-03T09:02:17.997Z</time></trkpt><trkpt lat="44.850000174742064" lon="8.994092510169358"><ele>383.0</ele><time>2026-05-03T09:02:18.997Z</time></trkpt><trkpt lat="44.84995967592374" lon="8.99421796006575"><ele>383.0</ele><time>2026-05-03T09:02:19.997Z</time></trkpt><trkpt lat="44.849932744907704" lon="8.994347131270075"><ele>383.0</ele><time>2026-05-03T09:02:20.997Z</time></trkpt><trkpt lat="44.8499241901252" lon="8.994474408407616"><ele>383.0</ele><time>2026-05-03T09:02:21.997Z</time></trkpt><trkpt lat="44.84992054184996" lon="8.994580940498391"><ele>380.79999999999995</ele><time>2026-05-03T09:02:22.997Z</time></trkpt><trkpt lat="44.849929048890104" lon="8.994694613236485"><ele>378.6</ele><time>2026-05-03T09:02:23.997Z</time></trkpt><trkpt lat="44.849938405999666" lon="8.994857684642614"><ele>376.4</ele><time>2026-05-03T09:02:24.997Z</time></trkpt><trkpt lat="44.8499422961481" lon="8.995044527018148"><ele>374.20000000000005</ele><time>2026-05-03T09:02:25.997Z</time></trkpt><trkpt lat="44.84992049917487" lon="8.995188026950993"><ele>372.0</ele><time>2026-05-03T09:02:26.997Z</time></trkpt><trkpt lat="44.849904955009315" lon="8.995301517144679"><ele>370.3333333333333</ele><time>2026-05-03T09:02:28Z</time></trkpt><trkpt lat="44.84988388640658" lon="8.99542062450747"><ele>368.6666666666667</ele><time>2026-05-03T09:02:29Z</time></trkpt><trkpt lat="44.849858825616046" lon="8.995529817845055"><ele>367.0</ele><time>2026-05-03T09:02:30Z</time></trkpt><trkpt lat="44.84984145329483" lon="8.995629963411677"><ele>365.33333333333337</ele><time>2026-05-03T09:02:31Z</time></trkpt><trkpt lat="44.84982813960399" lon="8.995720623586303"><ele>363.6666666666667</ele><time>2026-05-03T09:02:32Z</time></trkpt><trkpt lat="44.84979401021618" lon="8.995803667047596"><ele>362.0</ele><time>2026-05-03T09:02:33Z</time></trkpt><trkpt lat="44.84971888487106" lon="8.9959058320124"><ele>357.75</ele><time>2026-05-03T09:02:35Z</time></trkpt><trkpt lat="44.84962002238576" lon="8.995958200256693"><ele>353.5</ele><time>2026-05-03T09:02:36Z</time></trkpt><trkpt lat="44.84949794245481" lon="8.996028806149608"><ele>349.25</ele><time>2026-05-03T09:02:37Z</time></trkpt><trkpt lat="44.849384689744625" lon="8.996104338144999"><ele>345.0</ele><time>2026-05-03T09:02:38Z</time></trkpt><trkpt lat="44.84930927628388" lon="8.996177809576462"><ele>344.6</ele><time>2026-05-03T09:02:39Z</time></trkpt><trkpt lat="44.84926163889876" lon="8.996269158984063"><ele>344.2</ele><time>2026-05-03T09:02:40Z</time></trkpt><trkpt lat="44.8492407560858" lon="8.996381653421743"><ele>343.79999999999995</ele><time>2026-05-03T09:02:41Z</time></trkpt><trkpt lat="44.849146336483585" lon="8.996537572694228"><ele>343.4</ele><time>2026-05-03T09:02:43Z</time></trkpt><trkpt lat="44.849102207030775" lon="8.996611238235714"><ele>343.0</ele><time>2026-05-03T09:02:44Z</time></trkpt><trkpt lat="44.84905272311634" lon="8.996735043283117"><ele>343.0</ele><time>2026-05-03T09:02:45Z</time></trkpt><trkpt lat="44.84897958276919" lon="8.996831055903705"><ele>343.0</ele><time>2026-05-03T09:02:46Z</time></trkpt><trkpt lat="44.848931637512365" lon="8.99694569025713"><ele>343.0</ele><time>2026-05-03T09:02:47Z</time></trkpt><trkpt lat="44.848888457837226" lon="8.997065350051805"><ele>343.0</ele><time>2026-05-03T09:02:48Z</time></trkpt><trkpt lat="44.8488754077833" lon="8.997178374227953"><ele>343.0</ele><time>2026-05-03T09:02:49Z</time></trkpt><trkpt lat="44.84884921838134" lon="8.997283399245072"><ele>343.0</ele><time>2026-05-03T09:02:50Z</time></trkpt><trkpt lat="44.8488419489374" lon="8.997422282175451"><ele>343.0</ele><time>2026-05-03T09:02:51Z</time></trkpt><trkpt lat="44.84882214040515" lon="8.997538155137123"><ele>343.0</ele><time>2026-05-03T09:02:52Z</time></trkpt><trkpt lat="44.848819526659184" lon="8.997663388625229"><ele>343.0</ele><time>2026-05-03T09:02:53Z</time></trkpt><trkpt lat="44.848816800789784" lon="8.997777895522306"><ele>343.0</ele><time>2026-05-03T09:02:54Z</time></trkpt><trkpt lat="44.84880667578623" lon="8.997884400506583"><ele>343.0</ele><time>2026-05-03T09:02:55Z</time></trkpt><trkpt lat="44.848765179385765" lon="8.998009536729437"><ele>340.79999999999995</ele><time>2026-05-03T09:02:57Z</time></trkpt><trkpt lat="44.848819790574254" lon="8.998137425254246"><ele>338.6</ele><time>2026-05-03T09:02:59Z</time></trkpt><trkpt lat="44.84889250861913" lon="8.998192238519627"><ele>336.4</ele><time>2026-05-03T09:03:00Z</time></trkpt><trkpt lat="44.848981451376126" lon="8.998292671187407"><ele>334.20000000000005</ele><time>2026-05-03T09:03:01Z</time></trkpt><trkpt lat="44.84904080262119" lon="8.998368775254917"><ele>332.0</ele><time>2026-05-03T09:03:02Z</time></trkpt><trkpt lat="44.84909347432307" lon="8.99843692951242"><ele>330.8</ele><time>2026-05-03T09:03:03Z</time></trkpt><trkpt lat="44.84913503741396" lon="8.998614863275984"><ele>329.6</ele><time>2026-05-03T09:03:05Z</time></trkpt><trkpt lat="44.84911276639108" lon="8.99872200597344"><ele>328.40000000000003</ele><time>2026-05-03T09:03:06Z</time></trkpt><trkpt lat="44.84912561042827" lon="8.998856473110333"><ele>327.20000000000005</ele><time>2026-05-03T09:03:07Z</time></trkpt><trkpt lat="44.84915321193049" lon="8.998968522922583"><ele>326.0</ele><time>2026-05-03T09:03:08Z</time></trkpt><trkpt lat="44.849200889421695" lon="8.999077626854303"><ele>325.1666666666667</ele><time>2026-05-03T09:03:09Z</time></trkpt><trkpt lat="44.84926836725015" lon="8.99920335674967"><ele>324.33333333333337</ele><time>2026-05-03T09:03:10Z</time></trkpt><trkpt lat="44.84932310560596" lon="8.999307175545347"><ele>323.5</ele><time>2026-05-03T09:03:11Z</time></trkpt><trkpt lat="44.84935019908361" lon="8.999388755999247"><ele>322.6666666666667</ele><time>2026-05-03T09:03:11.999Z</time></trkpt><trkpt lat="44.849386366589904" lon="8.99947448436338"><ele>321.8333333333333</ele><time>2026-05-03T09:03:12.999Z</time></trkpt><trkpt lat="44.84942133560865" lon="8.999571807199628"><ele>321.0</ele><time>2026-05-03T09:03:13.999Z</time></trkpt><trkpt lat="44.84944040577041" lon="8.999677444456319"><ele>321.0</ele><time>2026-05-03T09:03:14.999Z</time></trkpt><trkpt lat="44.849444036012386" lon="8.999789116700217"><ele>321.0</ele><time>2026-05-03T09:03:15.999Z</time></trkpt><trkpt lat="44.84942898991594" lon="8.999901184675005"><ele>321.0</ele><time>2026-05-03T09:03:17.999Z</time></trkpt><trkpt lat="44.849334722428814" lon="8.999987385857406"><ele>321.0</ele><time>2026-05-03T09:03:19.999Z</time></trkpt><trkpt lat="44.84926903050316" lon="9.00005467771365"><ele>321.0</ele><time>2026-05-03T09:03:20.999Z</time></trkpt><trkpt lat="44.849250274193864" lon="9.000155297639493"><ele>321.0</ele><time>2026-05-03T09:03:21.999Z</time></trkpt><trkpt lat="44.84924497459778" lon="9.000252690324732"><ele>321.0</ele><time>2026-05-03T09:03:22.999Z</time></trkpt><trkpt lat="44.84918053223678" lon="9.000284973948673"><ele>321.0</ele><time>2026-05-03T09:03:24.999Z</time></trkpt><trkpt lat="44.84909186264856" lon="9.000258909393743"><ele>321.0</ele><time>2026-05-03T09:03:26.999Z</time></trkpt><trkpt lat="44.84906564450314" lon="9.000133309469124"><ele>321.0</ele><time>2026-05-03T09:03:28.999Z</time></trkpt><trkpt lat="44.849038897901934" lon="9.000026383314728"><ele>321.0</ele><time>2026-05-03T09:03:29.999Z</time></trkpt><trkpt lat="44.84899348068465" lon="8.999963005044249"><ele>321.0</ele><time>2026-05-03T09:03:30.999Z</time></trkpt><trkpt lat="44.84891248645113" lon="8.999910825277418"><ele>321.0</ele><time>2026-05-03T09:03:31.999Z</time></trkpt><trkpt lat="44.84884400287517" lon="8.999856329727793"><ele>321.0</ele><time>2026-05-03T09:03:32.999Z</time></trkpt><trkpt lat="44.84877161724519" lon="8.999820402616436"><ele>321.0</ele><time>2026-05-03T09:03:33.999Z</time></trkpt><trkpt lat="44.848666821512154" lon="8.999879948388058"><ele>321.0</ele><time>2026-05-03T09:03:35.999Z</time></trkpt><trkpt lat="44.848577306409126" lon="8.999951950644219"><ele>321.0</ele><time>2026-05-03T09:03:36.999Z</time></trkpt><trkpt lat="44.848471696585904" lon="8.99999535012414"><ele>324.0</ele><time>2026-05-03T09:03:37.999Z</time></trkpt><trkpt lat="44.84836793916779" lon="9.0000110917695"><ele>327.0</ele><time>2026-05-03T09:03:38.999Z</time></trkpt><trkpt lat="44.84828696043879" lon="8.999996597555503"><ele>330.0</ele><time>2026-05-03T09:03:39.999Z</time></trkpt><trkpt lat="44.84821154891536" lon="9.000083370028166"><ele>333.0</ele><time>2026-05-03T09:03:41.999Z</time></trkpt><trkpt lat="44.84818388641652" lon="9.000220234913291"><ele>336.0</ele><time>2026-05-03T09:03:42.999Z</time></trkpt><trkpt lat="44.84819334834336" lon="9.000397703183962"><ele>336.0</ele><time>2026-05-03T09:03:43.999Z</time></trkpt><trkpt lat="44.84810648696398" lon="9.00051806416156"><ele>336.0</ele><time>2026-05-03T09:03:44.998Z</time></trkpt><trkpt lat="44.848057461952614" lon="9.000589479202922"><ele>336.0</ele><time>2026-05-03T09:03:45.998Z</time></trkpt><trkpt lat="44.84794481957105" lon="9.000610504857391"><ele>336.0</ele><time>2026-05-03T09:03:47.998Z</time></trkpt><trkpt lat="44.847888478470836" lon="9.000532556703764"><ele>336.0</ele><time>2026-05-03T09:03:48.998Z</time></trkpt><trkpt lat="44.84779706826445" lon="9.000669731279794"><ele>336.0</ele><time>2026-05-03T09:03:50.998Z</time></trkpt><trkpt lat="44.84772397790678" lon="9.000727226485534"><ele>336.0</ele><time>2026-05-03T09:03:51.998Z</time></trkpt><trkpt lat="44.847670987187485" lon="9.000805824550207"><ele>336.0</ele><time>2026-05-03T09:03:52.998Z</time></trkpt><trkpt lat="44.847593192694" lon="9.00091948955749"><ele>336.0</ele><time>2026-05-03T09:03:53.998Z</time></trkpt><trkpt lat="44.847550225532785" lon="9.001035109315938"><ele>336.0</ele><time>2026-05-03T09:03:54.998Z</time></trkpt><trkpt lat="44.847479622444425" lon="9.001071182548657"><ele>336.0</ele><time>2026-05-03T09:03:56.998Z</time></trkpt><trkpt lat="44.84740829923202" lon="9.00105580093728"><ele>338.0</ele><time>2026-05-03T09:03:57.998Z</time></trkpt><trkpt lat="44.8473190325087" lon="9.000989708489943"><ele>340.0</ele><time>2026-05-03T09:03:58.998Z</time></trkpt><trkpt lat="44.847235107604256" lon="9.00091635102723"><ele>342.0</ele><time>2026-05-03T09:03:59.998Z</time></trkpt><trkpt lat="44.84724383146689" lon="9.001099691419533"><ele>344.0</ele><time>2026-05-03T09:04:03.998Z</time></trkpt><trkpt lat="44.84729983556636" lon="9.001182711627138"><ele>346.0</ele><time>2026-05-03T09:04:04.998Z</time></trkpt><trkpt lat="44.84732485470319" lon="9.001346358238507"><ele>346.0</ele><time>2026-05-03T09:04:06.998Z</time></trkpt><trkpt lat="44.8472878414939" lon="9.001475269630896"><ele>346.0</ele><time>2026-05-03T09:04:07.998Z</time></trkpt><trkpt lat="44.84726375544391" lon="9.001610216447752"><ele>346.0</ele><time>2026-05-03T09:04:08.998Z</time></trkpt><trkpt lat="44.84724067929295" lon="9.001742863524603"><ele>346.0</ele><time>2026-05-03T09:04:09.998Z</time></trkpt><trkpt lat="44.84721999144729" lon="9.001867676269926"><ele>346.0</ele><time>2026-05-03T09:04:10.998Z</time></trkpt><trkpt lat="44.84719614610931" lon="9.001995935679817"><ele>343.5</ele><time>2026-05-03T09:04:12.998Z</time></trkpt><trkpt lat="44.84712817789489" lon="9.002150760409714"><ele>341.0</ele><time>2026-05-03T09:04:14.998Z</time></trkpt><trkpt lat="44.84707929925673" lon="9.002234058032858"><ele>338.5</ele><time>2026-05-03T09:04:15.998Z</time></trkpt><trkpt lat="44.84702962906217" lon="9.002303031066404"><ele>336.0</ele><time>2026-05-03T09:04:16.997Z</time></trkpt><trkpt lat="44.84698620090669" lon="9.00240930589304"><ele>333.5</ele><time>2026-05-03T09:04:17.997Z</time></trkpt><trkpt lat="44.84696357891185" lon="9.002519120774702"><ele>331.0</ele><time>2026-05-03T09:04:18.997Z</time></trkpt><trkpt lat="44.84696804396257" lon="9.0026735344388"><ele>328.66666666666663</ele><time>2026-05-03T09:04:20.997Z</time></trkpt><trkpt lat="44.84708309975149" lon="9.002764822441533"><ele>326.3333333333333</ele><time>2026-05-03T09:04:22.997Z</time></trkpt><trkpt lat="44.84714430530526" lon="9.0028408170379"><ele>324.0</ele><time>2026-05-03T09:04:23.997Z</time></trkpt><trkpt lat="44.84717551233028" lon="9.002941367257204"><ele>321.6666666666667</ele><time>2026-05-03T09:04:24.997Z</time></trkpt><trkpt lat="44.847173195972424" lon="9.00304324622685"><ele>319.33333333333337</ele><time>2026-05-03T09:04:25.997Z</time></trkpt><trkpt lat="44.8471643610536" lon="9.003144082215238"><ele>317.0</ele><time>2026-05-03T09:04:26.997Z</time></trkpt><trkpt lat="44.84715069852946" lon="9.003256214040388"><ele>315.4</ele><time>2026-05-03T09:04:27.997Z</time></trkpt><trkpt lat="44.84713373907033" lon="9.003350043876539"><ele>313.79999999999995</ele><time>2026-05-03T09:04:28.997Z</time></trkpt><trkpt lat="44.84708146492658" lon="9.00346175606532"><ele>312.2</ele><time>2026-05-03T09:04:32.997Z</time></trkpt><trkpt lat="44.84703456861772" lon="9.003529935675113"><ele>310.59999999999997</ele><time>2026-05-03T09:04:36Z</time></trkpt><trkpt lat="44.846942697239754" lon="9.003592820165478"><ele>309.0</ele><time>2026-05-03T09:04:40.001Z</time></trkpt><trkpt lat="44.84681904518466" lon="9.003613044046787"><ele>309.8333333333333</ele><time>2026-05-03T09:04:43.001Z</time></trkpt><trkpt lat="44.84675006611309" lon="9.003538983945843"><ele>310.6666666666667</ele><time>2026-05-03T09:04:45Z</time></trkpt><trkpt lat="44.8467013815482" lon="9.003463317971477"><ele>311.5</ele><time>2026-05-03T09:04:46.001Z</time></trkpt><trkpt lat="44.84664242191331" lon="9.003391466099856"><ele>312.33333333333337</ele><time>2026-05-03T09:04:47.001Z</time></trkpt><trkpt lat="44.8465804224092" lon="9.003311874106238"><ele>313.1666666666667</ele><time>2026-05-03T09:04:48Z</time></trkpt><trkpt lat="44.84653015977491" lon="9.00324144764861"><ele>314.0</ele><time>2026-05-03T09:04:49Z</time></trkpt><trkpt lat="44.84645544420225" lon="9.00315572274046"><ele>314.0</ele><time>2026-05-03T09:04:51Z</time></trkpt><trkpt lat="44.84643291617003" lon="9.003045683979947"><ele>314.0</ele><time>2026-05-03T09:04:53Z</time></trkpt><trkpt lat="44.846313069918494" lon="9.003074095587555"><ele>314.0</ele><time>2026-05-03T09:04:55Z</time></trkpt><trkpt lat="44.846267120703985" lon="9.003142181374926"><ele>314.0</ele><time>2026-05-03T09:04:56Z</time></trkpt><trkpt lat="44.846189697522895" lon="9.003256593101634"><ele>314.0</ele><time>2026-05-03T09:04:58Z</time></trkpt><trkpt lat="44.84623953671546" lon="9.003371700397851"><ele>313.99999999999994</ele><time>2026-05-03T09:05:00Z</time></trkpt><trkpt lat="44.84628139341128" lon="9.0034736950108"><ele>314.0</ele><time>2026-05-03T09:05:01Z</time></trkpt><trkpt lat="44.84631005951271" lon="9.003565201799669"><ele>314.0</ele><time>2026-05-03T09:05:02Z</time></trkpt><trkpt lat="44.84633973922406" lon="9.00364425020657"><ele>314.0</ele><time>2026-05-03T09:05:03Z</time></trkpt><trkpt lat="44.84633414020334" lon="9.003747046348275"><ele>314.0</ele><time>2026-05-03T09:05:05Z</time></trkpt><trkpt lat="44.8462781475571" lon="9.00379135125073"><ele>313.99999999999994</ele><time>2026-05-03T09:05:06Z</time></trkpt><trkpt lat="44.84621013675496" lon="9.00379229223543"><ele>314.0</ele><time>2026-05-03T09:05:07Z</time></trkpt><trkpt lat="44.84614214700651" lon="9.003811582724458"><ele>314.0</ele><time>2026-05-03T09:05:08Z</time></trkpt><trkpt lat="44.84607637324157" lon="9.00383011224145"><ele>314.0</ele><time>2026-05-03T09:05:09Z</time></trkpt><trkpt lat="44.8459707384542" lon="9.00387253341674"><ele>314.0</ele><time>2026-05-03T09:05:10Z</time></trkpt><trkpt lat="44.84590355652815" lon="9.003979334665258"><ele>314.0</ele><time>2026-05-03T09:05:12Z</time></trkpt><trkpt lat="44.84577841630537" lon="9.004013322804521"><ele>314.0</ele><time>2026-05-03T09:05:14Z</time></trkpt><trkpt lat="44.84571269720314" lon="9.004035657196363"><ele>310.59999999999997</ele><time>2026-05-03T09:05:15Z</time></trkpt><trkpt lat="44.84560714314704" lon="9.004086181382245"><ele>307.2</ele><time>2026-05-03T09:05:17Z</time></trkpt><trkpt lat="44.84553526609285" lon="9.004162109955875"><ele>303.79999999999995</ele><time>2026-05-03T09:05:17.999Z</time></trkpt><trkpt lat="44.84547580930446" lon="9.004237517127555"><ele>300.4</ele><time>2026-05-03T09:05:18.999Z</time></trkpt><trkpt lat="44.84544559462861" lon="9.00436042373693"><ele>297.0</ele><time>2026-05-03T09:05:19.999Z</time></trkpt><trkpt lat="44.84544200362299" lon="9.004492503118003"><ele>296.6666666666667</ele><time>2026-05-03T09:05:20.999Z</time></trkpt><trkpt lat="44.84548171153088" lon="9.004585346468572"><ele>296.3333333333333</ele><time>2026-05-03T09:05:22.999Z</time></trkpt><trkpt lat="44.84553995225279" lon="9.004677413741053"><ele>296.0</ele><time>2026-05-03T09:05:24.999Z</time></trkpt><trkpt lat="44.84561544202261" lon="9.004822698214884"><ele>295.66666666666663</ele><time>2026-05-03T09:05:26.999Z</time></trkpt><trkpt lat="44.845646448692186" lon="9.004908821544422"><ele>295.3333333333333</ele><time>2026-05-03T09:05:27.999Z</time></trkpt><trkpt lat="44.845669700230864" lon="9.0050087714643"><ele>295.0</ele><time>2026-05-03T09:05:28.999Z</time></trkpt><trkpt lat="44.84569980745278" lon="9.005101022489386"><ele>294.8</ele><time>2026-05-03T09:05:29.999Z</time></trkpt><trkpt lat="44.845735617764284" lon="9.005177683554468"><ele>294.6</ele><time>2026-05-03T09:05:30.999Z</time></trkpt><trkpt lat="44.845778513244916" lon="9.005301101384749"><ele>294.4</ele><time>2026-05-03T09:05:32.999Z</time></trkpt><trkpt lat="44.84586243576279" lon="9.005374748818758"><ele>294.2</ele><time>2026-05-03T09:05:34.999Z</time></trkpt><trkpt lat="44.845934476231065" lon="9.005507243970834"><ele>294.0</ele><time>2026-05-03T09:05:36.999Z</time></trkpt><trkpt lat="44.845956309058316" lon="9.0056301447247"><ele>294.8</ele><time>2026-05-03T09:05:37.999Z</time></trkpt><trkpt lat="44.8459895187356" lon="9.00571823306405"><ele>295.59999999999997</ele><time>2026-05-03T09:05:38.999Z</time></trkpt><trkpt lat="44.846022493262744" lon="9.005808557053134"><ele>296.4</ele><time>2026-05-03T09:05:39.999Z</time></trkpt><trkpt lat="44.846081463606275" lon="9.005938287314914"><ele>297.2</ele><time>2026-05-03T09:05:41.999Z</time></trkpt><trkpt lat="44.84614372891641" lon="9.006116668507941"><ele>298.0</ele><time>2026-05-03T09:05:43.999Z</time></trkpt><trkpt lat="44.846165999736996" lon="9.006222402713027"><ele>298.0</ele><time>2026-05-03T09:05:44.999Z</time></trkpt><trkpt lat="44.8461955015533" lon="9.006354513569056"><ele>298.0</ele><time>2026-05-03T09:05:45.999Z</time></trkpt><trkpt lat="44.84621050880839" lon="9.006473365201142"><ele>298.0</ele><time>2026-05-03T09:05:46.999Z</time></trkpt><trkpt lat="44.846217006193676" lon="9.00661204687463"><ele>298.0</ele><time>2026-05-03T09:05:47.999Z</time></trkpt><trkpt lat="44.84624677240706" lon="9.006720787894386"><ele>298.0</ele><time>2026-05-03T09:05:48.999Z</time></trkpt><trkpt lat="44.846265353300936" lon="9.006849905265568"><ele>297.5</ele><time>2026-05-03T09:05:49.998Z</time></trkpt><trkpt lat="44.84628335736067" lon="9.006946544398245"><ele>297.0</ele><time>2026-05-03T09:05:50.998Z</time></trkpt><trkpt lat="44.846319263508335" lon="9.007055097936048"><ele>296.5</ele><time>2026-05-03T09:05:51.998Z</time></trkpt><trkpt lat="44.84633953546416" lon="9.007143767121601"><ele>296.0</ele><time>2026-05-03T09:05:52.998Z</time></trkpt><trkpt lat="44.84639580292249" lon="9.007272934512862"><ele>295.5</ele><time>2026-05-03T09:05:54.998Z</time></trkpt><trkpt lat="44.84637348967796" lon="9.007419474446696"><ele>295.0</ele><time>2026-05-03T09:05:55.998Z</time></trkpt><trkpt lat="44.84640616874091" lon="9.007532441690609"><ele>293.2</ele><time>2026-05-03T09:05:56.998Z</time></trkpt><trkpt lat="44.84647783871705" lon="9.00765908187197"><ele>291.4</ele><time>2026-05-03T09:05:58.998Z</time></trkpt><trkpt lat="44.84650915753418" lon="9.007817459771607"><ele>289.6</ele><time>2026-05-03T09:06:00.998Z</time></trkpt><trkpt lat="44.846563448453296" lon="9.007956885734593"><ele>287.8</ele><time>2026-05-03T09:06:02.998Z</time></trkpt><trkpt lat="44.846604804024345" lon="9.008026483242594"><ele>286.0</ele><time>2026-05-03T09:06:03.998Z</time></trkpt><trkpt lat="44.846666379781546" lon="9.00815380190721"><ele>286.0</ele><time>2026-05-03T09:06:05.998Z</time></trkpt><trkpt lat="44.84671885803205" lon="9.008264204465789"><ele>286.0</ele><time>2026-05-03T09:06:08.998Z</time></trkpt><trkpt lat="44.846791443705705" lon="9.008386018651482"><ele>286.0</ele><time>2026-05-03T09:06:10.998Z</time></trkpt><trkpt lat="44.84687682164577" lon="9.00849999444148"><ele>286.0</ele><time>2026-05-03T09:06:12.998Z</time></trkpt><trkpt lat="44.84693139597228" lon="9.00859375958514"><ele>286.0</ele><time>2026-05-03T09:06:13.998Z</time></trkpt><trkpt lat="44.84695903730822" lon="9.008685606389454"><ele>281.6</ele><time>2026-05-03T09:06:14.998Z</time></trkpt><trkpt lat="44.84702145493639" lon="9.00881315451045"><ele>277.20000000000005</ele><time>2026-05-03T09:06:16.998Z</time></trkpt><trkpt lat="44.84708047934158" lon="9.008851992259123"><ele>272.79999999999995</ele><time>2026-05-03T09:06:17.998Z</time></trkpt><trkpt lat="44.847157169298384" lon="9.008932965523822"><ele>268.4</ele><time>2026-05-03T09:06:18.998Z</time></trkpt><trkpt lat="44.847209395000256" lon="9.009058274471652"><ele>264.0</ele><time>2026-05-03T09:06:19.998Z</time></trkpt><trkpt lat="44.847279452965104" lon="9.00919581115946"><ele>261.2</ele><time>2026-05-03T09:06:20.998Z</time></trkpt><trkpt lat="44.847330042272006" lon="9.009291016755624"><ele>258.4</ele><time>2026-05-03T09:06:21.998Z</time></trkpt><trkpt lat="44.84734469767892" lon="9.009400165797521"><ele>255.6</ele><time>2026-05-03T09:06:22.997Z</time></trkpt><trkpt lat="44.84735051680419" lon="9.009540580453498"><ele>252.8</ele><time>2026-05-03T09:06:23.997Z</time></trkpt><trkpt lat="44.84734592931009" lon="9.009672515725372"><ele>250.0</ele><time>2026-05-03T09:06:24.997Z</time></trkpt><trkpt lat="44.84736109863684" lon="9.009802985558348"><ele>250.0</ele><time>2026-05-03T09:06:25.997Z</time></trkpt><trkpt lat="44.84738968258913" lon="9.009942573694143"><ele>250.0</ele><time>2026-05-03T09:06:26.997Z</time></trkpt><trkpt lat="44.84745059635011" lon="9.01001234606773"><ele>250.0</ele><time>2026-05-03T09:06:27.997Z</time></trkpt><trkpt lat="44.84751876387879" lon="9.010047839032119"><ele>250.0</ele><time>2026-05-03T09:06:28.997Z</time></trkpt><trkpt lat="44.847589026896664" lon="9.01007116082854"><ele>250.0</ele><time>2026-05-03T09:06:29.997Z</time></trkpt><trkpt lat="44.84772663199751" lon="9.01004502523171"><ele>246.25</ele><time>2026-05-03T09:06:31.997Z</time></trkpt><trkpt lat="44.84781587423288" lon="9.010013384932126"><ele>242.5</ele><time>2026-05-03T09:06:32.997Z</time></trkpt><trkpt lat="44.847922029634006" lon="9.010005191672017"><ele>238.75</ele><time>2026-05-03T09:06:33.997Z</time></trkpt><trkpt lat="44.84804146984477" lon="9.010012938510576"><ele>235.0</ele><time>2026-05-03T09:06:34.997Z</time></trkpt><trkpt lat="44.84817685710721" lon="9.010026539046041"><ele>235.0</ele><time>2026-05-03T09:06:35.997Z</time></trkpt><trkpt lat="44.84829979379889" lon="9.010040572453049"><ele>235.0</ele><time>2026-05-03T09:06:36.997Z</time></trkpt><trkpt lat="44.84840434830362" lon="9.010047361753717"><ele>235.0</ele><time>2026-05-03T09:06:37.997Z</time></trkpt><trkpt lat="44.848498485830945" lon="9.010059389008946"><ele>235.0</ele><time>2026-05-03T09:06:38.997Z</time></trkpt><trkpt lat="44.848572367713686" lon="9.010068559898116"><ele>235.0</ele><time>2026-05-03T09:06:40Z</time></trkpt><trkpt lat="44.84867049480913" lon="9.010090838013578"><ele>233.75</ele><time>2026-05-03T09:06:42Z</time></trkpt><trkpt lat="44.84874538032745" lon="9.010035091992627"><ele>232.5</ele><time>2026-05-03T09:06:43Z</time></trkpt><trkpt lat="44.84884530246326" lon="9.009928740422307"><ele>231.25</ele><time>2026-05-03T09:06:44.001Z</time></trkpt><trkpt lat="44.8489612366994" lon="9.009785794692004"><ele>230.0</ele><time>2026-05-03T09:06:45Z</time></trkpt><trkpt lat="44.849086426404035" lon="9.009625786701022"><ele>230.0</ele><time>2026-05-03T09:06:46.001Z</time></trkpt><trkpt lat="44.84923155588732" lon="9.009456980407728"><ele>230.0</ele><time>2026-05-03T09:06:47.001Z</time></trkpt><trkpt lat="44.849376804701876" lon="9.009288957621179"><ele>230.0</ele><time>2026-05-03T09:06:48Z</time></trkpt><trkpt lat="44.849528082553896" lon="9.009110554282776"><ele>230.0</ele><time>2026-05-03T09:06:49.001Z</time></trkpt><trkpt lat="44.849685764781064" lon="9.008930628270564"><ele>230.0</ele><time>2026-05-03T09:06:50.001Z</time></trkpt><trkpt lat="44.8498344162002" lon="9.008764242313744"><ele>230.0</ele><time>2026-05-03T09:06:51Z</time></trkpt><trkpt lat="44.849972250866315" lon="9.008598615240716"><ele>230.0</ele><time>2026-05-03T09:06:52Z</time></trkpt><trkpt lat="44.85010328765019" lon="9.008447921684763"><ele>230.0</ele><time>2026-05-03T09:06:53.001Z</time></trkpt><trkpt lat="44.85024323915994" lon="9.008287745138766"><ele>230.0</ele><time>2026-05-03T09:06:54Z</time></trkpt><trkpt lat="44.850389802888124" lon="9.008126057783537"><ele>230.0</ele><time>2026-05-03T09:06:55Z</time></trkpt><trkpt lat="44.850553841661515" lon="9.00796372022718"><ele>230.0</ele><time>2026-05-03T09:06:56Z</time></trkpt><trkpt lat="44.85071707695193" lon="9.007834698895278"><ele>230.0</ele><time>2026-05-03T09:06:57Z</time></trkpt><trkpt lat="44.85090197654366" lon="9.00771654987185"><ele>231.33333333333334</ele><time>2026-05-03T09:06:58Z</time></trkpt><trkpt lat="44.851061738580846" lon="9.00761592187846"><ele>232.66666666666669</ele><time>2026-05-03T09:06:59Z</time></trkpt><trkpt lat="44.851238454381374" lon="9.007537155774788"><ele>234.0</ele><time>2026-05-03T09:07:00Z</time></trkpt><trkpt lat="44.8514176430241" lon="9.007462211620648"><ele>234.0</ele><time>2026-05-03T09:07:01Z</time></trkpt><trkpt lat="44.851590626956984" lon="9.007387078410748"><ele>234.0</ele><time>2026-05-03T09:07:02Z</time></trkpt><trkpt lat="44.85176344356424" lon="9.00731040207781"><ele>234.0</ele><time>2026-05-03T09:07:03Z</time></trkpt><trkpt lat="44.85192772735282" lon="9.007233659363814"><ele>232.66666666666669</ele><time>2026-05-03T09:07:04Z</time></trkpt><trkpt lat="44.85208999083794" lon="9.007160884022323"><ele>231.33333333333334</ele><time>2026-05-03T09:07:05Z</time></trkpt><trkpt lat="44.85225461730612" lon="9.007090578705519"><ele>230.0</ele><time>2026-05-03T09:07:06Z</time></trkpt><trkpt lat="44.85242605005538" lon="9.00700939205256"><ele>230.0</ele><time>2026-05-03T09:07:07Z</time></trkpt><trkpt lat="44.852602540333805" lon="9.006927581922637"><ele>230.0</ele><time>2026-05-03T09:07:08Z</time></trkpt><trkpt lat="44.85278331811828" lon="9.00684003475214"><ele>230.0</ele><time>2026-05-03T09:07:09Z</time></trkpt><trkpt lat="44.85295960394798" lon="9.006762563798754"><ele>230.0</ele><time>2026-05-03T09:07:10Z</time></trkpt><trkpt lat="44.853110254205724" lon="9.006689694964894"><ele>230.0</ele><time>2026-05-03T09:07:11Z</time></trkpt><trkpt lat="44.85325043732641" lon="9.006622148432111"><ele>230.0</ele><time>2026-05-03T09:07:12Z</time></trkpt><trkpt lat="44.85337934996882" lon="9.006557362055002"><ele>230.0</ele><time>2026-05-03T09:07:13Z</time></trkpt><trkpt lat="44.853501616554894" lon="9.006500568239169"><ele>229.4</ele><time>2026-05-03T09:07:14Z</time></trkpt><trkpt lat="44.853622907400485" lon="9.006447245121755"><ele>228.8</ele><time>2026-05-03T09:07:15Z</time></trkpt><trkpt lat="44.853731092625715" lon="9.006402594538892"><ele>228.2</ele><time>2026-05-03T09:07:16Z</time></trkpt><trkpt lat="44.8538203323132" lon="9.006393872446973"><ele>227.6</ele><time>2026-05-03T09:07:17Z</time></trkpt><trkpt lat="44.853903520006924" lon="9.006441002492084"><ele>227.0</ele><time>2026-05-03T09:07:18Z</time></trkpt><trkpt lat="44.85397508576691" lon="9.006558340742066"><ele>225.5</ele><time>2026-05-03T09:07:19Z</time></trkpt><trkpt lat="44.85403745143459" lon="9.006723109503596"><ele>224.0</ele><time>2026-05-03T09:07:20Z</time></trkpt><trkpt lat="44.85409602497716" lon="9.006916720381048"><ele>222.5</ele><time>2026-05-03T09:07:21Z</time></trkpt><trkpt lat="44.85416716744395" lon="9.007125045741418"><ele>221.0</ele><time>2026-05-03T09:07:22Z</time></trkpt><trkpt lat="44.8542406902807" lon="9.00731690101029"><ele>220.8</ele><time>2026-05-03T09:07:23Z</time></trkpt><trkpt lat="44.85431292529471" lon="9.007475367305755"><ele>220.60000000000002</ele><time>2026-05-03T09:07:24Z</time></trkpt><trkpt lat="44.8543710269258" lon="9.007610188393473"><ele>220.4</ele><time>2026-05-03T09:07:25Z</time></trkpt><trkpt lat="44.85441072676927" lon="9.007716190020627"><ele>220.2</ele><time>2026-05-03T09:07:25.999Z</time></trkpt><trkpt lat="44.85447434679804" lon="9.00784437916775"><ele>220.0</ele><time>2026-05-03T09:07:27.999Z</time></trkpt><trkpt lat="44.85460890572988" lon="9.007821187317086"><ele>220.0</ele><time>2026-05-03T09:07:29.999Z</time></trkpt><trkpt lat="44.85470369440419" lon="9.007713682790948"><ele>220.0</ele><time>2026-05-03T09:07:30.999Z</time></trkpt><trkpt lat="44.85482405398639" lon="9.007595835050779"><ele>220.0</ele><time>2026-05-03T09:07:31.999Z</time></trkpt><trkpt lat="44.85497827227155" lon="9.007484304625196"><ele>220.0</ele><time>2026-05-03T09:07:32.999Z</time></trkpt><trkpt lat="44.85515969586705" lon="9.007397823376012"><ele>219.66666666666666</ele><time>2026-05-03T09:07:33.999Z</time></trkpt><trkpt lat="44.8553391963349" lon="9.007323098624074"><ele>219.33333333333331</ele><time>2026-05-03T09:07:34.999Z</time></trkpt><trkpt lat="44.855491673986755" lon="9.007262767192572"><ele>219.0</ele><time>2026-05-03T09:07:35.999Z</time></trkpt><trkpt lat="44.855626218866085" lon="9.00719474683036"><ele>219.0</ele><time>2026-05-03T09:07:36.999Z</time></trkpt><trkpt lat="44.85573823837843" lon="9.00713619124442"><ele>218.99999999999997</ele><time>2026-05-03T09:07:37.999Z</time></trkpt><trkpt lat="44.85583031094714" lon="9.007094799735555"><ele>218.99999999999997</ele><time>2026-05-03T09:07:38.999Z</time></trkpt><trkpt lat="44.855907473742924" lon="9.007095326930319"><ele>219.0</ele><time>2026-05-03T09:07:39.999Z</time></trkpt><trkpt lat="44.85597142520033" lon="9.007159863801762"><ele>219.0</ele><time>2026-05-03T09:07:40.999Z</time></trkpt><trkpt lat="44.856010307652426" lon="9.007282433437068"><ele>219.25</ele><time>2026-05-03T09:07:41.999Z</time></trkpt><trkpt lat="44.85602016841887" lon="9.007446227438981"><ele>219.5</ele><time>2026-05-03T09:07:42.999Z</time></trkpt><trkpt lat="44.85601882070712" lon="9.007639045752425"><ele>219.75</ele><time>2026-05-03T09:07:43.999Z</time></trkpt><trkpt lat="44.85602407685847" lon="9.007846755811594"><ele>220.0</ele><time>2026-05-03T09:07:44.999Z</time></trkpt><trkpt lat="44.85604190245964" lon="9.008062134088199"><ele>222.0</ele><time>2026-05-03T09:07:45.999Z</time></trkpt><trkpt lat="44.85604977790311" lon="9.008260836133747"><ele>224.0</ele><time>2026-05-03T09:07:46.999Z</time></trkpt><trkpt lat="44.856049885731245" lon="9.008461627079113"><ele>226.0</ele><time>2026-05-03T09:07:47.999Z</time></trkpt><trkpt lat="44.856042070191734" lon="9.008660640770422"><ele>228.0</ele><time>2026-05-03T09:07:48.999Z</time></trkpt><trkpt lat="44.85605442603093" lon="9.008843170946742"><ele>228.66666666666669</ele><time>2026-05-03T09:07:49.999Z</time></trkpt><trkpt lat="44.85608797327446" lon="9.009045267055848"><ele>229.33333333333334</ele><time>2026-05-03T09:07:50.999Z</time></trkpt><trkpt lat="44.85613657880331" lon="9.009248944506037"><ele>230.0</ele><time>2026-05-03T09:07:51.999Z</time></trkpt><trkpt lat="44.85618933022549" lon="9.009462085813144"><ele>230.0</ele><time>2026-05-03T09:07:52.999Z</time></trkpt><trkpt lat="44.85622698049426" lon="9.009650871927672"><ele>230.0</ele><time>2026-05-03T09:07:53.999Z</time></trkpt><trkpt lat="44.856239251178785" lon="9.009821762595331"><ele>230.0</ele><time>2026-05-03T09:07:54.999Z</time></trkpt><trkpt lat="44.85623660636785" lon="9.010007751032862"><ele>230.0</ele><time>2026-05-03T09:07:55.999Z</time></trkpt><trkpt lat="44.85623070243479" lon="9.01023051283975"><ele>229.66666666666669</ele><time>2026-05-03T09:07:56.999Z</time></trkpt><trkpt lat="44.85624416666349" lon="9.010432000724148"><ele>229.33333333333331</ele><time>2026-05-03T09:07:57.998Z</time></trkpt><trkpt lat="44.856266801301004" lon="9.01067587346299"><ele>229.0</ele><time>2026-05-03T09:07:58.998Z</time></trkpt><trkpt lat="44.85629452766216" lon="9.010888301901609"><ele>229.5</ele><time>2026-05-03T09:07:59.998Z</time></trkpt><trkpt lat="44.856317049790725" lon="9.011053267713834"><ele>230.0</ele><time>2026-05-03T09:08:00.998Z</time></trkpt><trkpt lat="44.856312382050824" lon="9.011198333770096"><ele>230.5</ele><time>2026-05-03T09:08:01.998Z</time></trkpt><trkpt lat="44.856289482889764" lon="9.01136211760684"><ele>231.0</ele><time>2026-05-03T09:08:02.998Z</time></trkpt><trkpt lat="44.85628237398864" lon="9.011559820911053"><ele>233.0</ele><time>2026-05-03T09:08:03.998Z</time></trkpt><trkpt lat="44.85629570775901" lon="9.011772294912367"><ele>235.0</ele><time>2026-05-03T09:08:04.998Z</time></trkpt><trkpt lat="44.85629252767293" lon="9.011983851951433"><ele>237.0</ele><time>2026-05-03T09:08:05.998Z</time></trkpt><trkpt lat="44.856258790749436" lon="9.012187638571582"><ele>237.0</ele><time>2026-05-03T09:08:06.997Z</time></trkpt><trkpt lat="44.85621947922841" lon="9.012409887098457"><ele>237.0</ele><time>2026-05-03T09:08:07.997Z</time></trkpt><trkpt lat="44.85617902611163" lon="9.012636093079696"><ele>237.0</ele><time>2026-05-03T09:08:08.997Z</time></trkpt><trkpt lat="44.85614767647176" lon="9.012854048788244"><ele>239.0</ele><time>2026-05-03T09:08:09.997Z</time></trkpt><trkpt lat="44.85612124004644" lon="9.013051685827149"><ele>241.0</ele><time>2026-05-03T09:08:10.997Z</time></trkpt><trkpt lat="44.85609000965843" lon="9.01323389655159"><ele>243.0</ele><time>2026-05-03T09:08:11.997Z</time></trkpt><trkpt lat="44.85604479884778" lon="9.013412341486289"><ele>245.0</ele><time>2026-05-03T09:08:12.997Z</time></trkpt><trkpt lat="44.85600036475996" lon="9.013598821050579"><ele>247.5</ele><time>2026-05-03T09:08:13.997Z</time></trkpt><trkpt lat="44.85595818365043" lon="9.013787422057199"><ele>250.0</ele><time>2026-05-03T09:08:14.997Z</time></trkpt><trkpt lat="44.85591520748441" lon="9.013975250149931"><ele>252.5</ele><time>2026-05-03T09:08:15.997Z</time></trkpt><trkpt lat="44.855866613466006" lon="9.014153570886139"><ele>255.0</ele><time>2026-05-03T09:08:16.997Z</time></trkpt><trkpt lat="44.855811513758" lon="9.014321697053555"><ele>259.4</ele><time>2026-05-03T09:08:17.997Z</time></trkpt><trkpt lat="44.85574517959436" lon="9.014462148756763"><ele>263.8</ele><time>2026-05-03T09:08:18.997Z</time></trkpt><trkpt lat="44.855692764333405" lon="9.014576584570111"><ele>268.2</ele><time>2026-05-03T09:08:19.997Z</time></trkpt><trkpt lat="44.855653894770285" lon="9.014672209182757"><ele>272.6</ele><time>2026-05-03T09:08:20.997Z</time></trkpt><trkpt lat="44.855604357202985" lon="9.01476035393803"><ele>277.0</ele><time>2026-05-03T09:08:21.997Z</time></trkpt><trkpt lat="44.85555763175603" lon="9.014868720014876"><ele>277.0</ele><time>2026-05-03T09:08:22.997Z</time></trkpt><trkpt lat="44.855526228740786" lon="9.014986679691257"><ele>277.0</ele><time>2026-05-03T09:08:23.997Z</time></trkpt><trkpt lat="44.855508664636005" lon="9.01510053001838"><ele>277.0</ele><time>2026-05-03T09:08:24.997Z</time></trkpt><trkpt lat="44.8554871792937" lon="9.015240003078166"><ele>277.0</ele><time>2026-05-03T09:08:26.997Z</time></trkpt><trkpt lat="44.85557790558876" lon="9.015276879783793"><ele>277.0</ele><time>2026-05-03T09:08:28.997Z</time></trkpt><trkpt lat="44.855681741363085" lon="9.015147381502711"><ele>276.2</ele><time>2026-05-03T09:08:30.996Z</time></trkpt><trkpt lat="44.85575241078529" lon="9.01508986492577"><ele>275.4</ele><time>2026-05-03T09:08:31.996Z</time></trkpt><trkpt lat="44.85587151804784" lon="9.015126342528502"><ele>274.6</ele><time>2026-05-03T09:08:33.996Z</time></trkpt><trkpt lat="44.85591311554299" lon="9.015214287436185"><ele>273.8</ele><time>2026-05-03T09:08:34.996Z</time></trkpt><trkpt lat="44.85594019079138" lon="9.015315479131834"><ele>273.0</ele><time>2026-05-03T09:08:35.996Z</time></trkpt><trkpt lat="44.85599198622977" lon="9.015444721131892"><ele>273.0</ele><time>2026-05-03T09:08:36.996Z</time></trkpt><trkpt lat="44.856045158835286" lon="9.015597014846449"><ele>273.0</ele><time>2026-05-03T09:08:37.996Z</time></trkpt><trkpt lat="44.8561019573939" lon="9.015749302340287"><ele>273.0</ele><time>2026-05-03T09:08:38.996Z</time></trkpt><trkpt lat="44.85614636619277" lon="9.015889274363564"><ele>273.0</ele><time>2026-05-03T09:08:39.996Z</time></trkpt><trkpt lat="44.85617462130024" lon="9.016032135989112"><ele>275.2</ele><time>2026-05-03T09:08:40.996Z</time></trkpt><trkpt lat="44.85619507636765" lon="9.016157357361061"><ele>277.4</ele><time>2026-05-03T09:08:41.996Z</time></trkpt><trkpt lat="44.85619423009494" lon="9.016273684820005"><ele>279.59999999999997</ele><time>2026-05-03T09:08:42.996Z</time></trkpt><trkpt lat="44.85618850797461" lon="9.016403635107459"><ele>281.8</ele><time>2026-05-03T09:08:43.996Z</time></trkpt><trkpt lat="44.856195441146404" lon="9.01654396019671"><ele>284.0</ele><time>2026-05-03T09:08:45Z</time></trkpt><trkpt lat="44.85619861855856" lon="9.016688770392989"><ele>285.8</ele><time>2026-05-03T09:08:46Z</time></trkpt><trkpt lat="44.85618755242992" lon="9.016845534989441"><ele>287.59999999999997</ele><time>2026-05-03T09:08:47Z</time></trkpt><trkpt lat="44.85618061135465" lon="9.016996015603004"><ele>289.4</ele><time>2026-05-03T09:08:48Z</time></trkpt><trkpt lat="44.856185543564884" lon="9.017146851480227"><ele>291.2</ele><time>2026-05-03T09:08:49Z</time></trkpt><trkpt lat="44.85619673024705" lon="9.01729216111809"><ele>293.0</ele><time>2026-05-03T09:08:50Z</time></trkpt><trkpt lat="44.85620898252647" lon="9.017387881356136"><ele>295.0</ele><time>2026-05-03T09:08:51Z</time></trkpt><trkpt lat="44.856185317355795" lon="9.017573135557349"><ele>297.0</ele><time>2026-05-03T09:08:53Z</time></trkpt><trkpt lat="44.85615469399919" lon="9.017683289420646"><ele>299.0</ele><time>2026-05-03T09:08:54Z</time></trkpt><trkpt lat="44.85612566652895" lon="9.017804827878782"><ele>301.0</ele><time>2026-05-03T09:08:55Z</time></trkpt><trkpt lat="44.85609619979551" lon="9.017954235265066"><ele>303.0</ele><time>2026-05-03T09:08:56Z</time></trkpt><trkpt lat="44.85606733487569" lon="9.018089076256167"><ele>303.0</ele><time>2026-05-03T09:08:57Z</time></trkpt><trkpt lat="44.85604494355559" lon="9.018215837704517"><ele>303.0</ele><time>2026-05-03T09:08:58Z</time></trkpt><trkpt lat="44.85602759848288" lon="9.018358148188579"><ele>303.0</ele><time>2026-05-03T09:08:59Z</time></trkpt><trkpt lat="44.856023671261205" lon="9.018485668297043"><ele>303.0</ele><time>2026-05-03T09:09:00Z</time></trkpt><trkpt lat="44.85602414609788" lon="9.018591569994031"><ele>303.0</ele><time>2026-05-03T09:09:00.999Z</time></trkpt><trkpt lat="44.85598228623911" lon="9.018733743219226"><ele>307.5</ele><time>2026-05-03T09:09:01.999Z</time></trkpt><trkpt lat="44.85595023852479" lon="9.018847179271612"><ele>312.0</ele><time>2026-05-03T09:09:02.999Z</time></trkpt><trkpt lat="44.8559117624805" lon="9.018994627994614"><ele>316.5</ele><time>2026-05-03T09:09:03.999Z</time></trkpt><trkpt lat="44.85587173961687" lon="9.019097000167246"><ele>321.0</ele><time>2026-05-03T09:09:04.999Z</time></trkpt><trkpt lat="44.85582076667631" lon="9.019183582409042"><ele>325.5</ele><time>2026-05-03T09:09:05.999Z</time></trkpt><trkpt lat="44.85576941893329" lon="9.01927134297209"><ele>330.0</ele><time>2026-05-03T09:09:06.999Z</time></trkpt><trkpt lat="44.85572456690601" lon="9.019388591235389"><ele>331.4</ele><time>2026-05-03T09:09:07.999Z</time></trkpt><trkpt lat="44.8556869461693" lon="9.019516764301667"><ele>332.8</ele><time>2026-05-03T09:09:08.999Z</time></trkpt><trkpt lat="44.85564850708746" lon="9.019621694882222"><ele>334.20000000000005</ele><time>2026-05-03T09:09:09.999Z</time></trkpt><trkpt lat="44.855613715718256" lon="9.019712814892127"><ele>335.6</ele><time>2026-05-03T09:09:10.999Z</time></trkpt><trkpt lat="44.85560985933434" lon="9.019874660433038"><ele>337.0</ele><time>2026-05-03T09:09:12.999Z</time></trkpt><trkpt lat="44.85568263571622" lon="9.020033893788874"><ele>340.25</ele><time>2026-05-03T09:09:14.999Z</time></trkpt><trkpt lat="44.85570908989041" lon="9.020183600419184"><ele>343.5</ele><time>2026-05-03T09:09:15.999Z</time></trkpt><trkpt lat="44.85572987134542" lon="9.02036430563379"><ele>346.75</ele><time>2026-05-03T09:09:16.999Z</time></trkpt><trkpt lat="44.85574881482659" lon="9.020545385736225"><ele>350.0</ele><time>2026-05-03T09:09:17.999Z</time></trkpt><trkpt lat="44.855767138812546" lon="9.020684272223049"><ele>350.0</ele><time>2026-05-03T09:09:18.999Z</time></trkpt><trkpt lat="44.85572909667224" lon="9.020795716003418"><ele>350.0</ele><time>2026-05-03T09:09:19.999Z</time></trkpt><trkpt lat="44.855707989015265" lon="9.020908387739839"><ele>350.0</ele><time>2026-05-03T09:09:20.999Z</time></trkpt><trkpt lat="44.85573257526848" lon="9.02105109574355"><ele>350.0</ele><time>2026-05-03T09:09:22.999Z</time></trkpt><trkpt lat="44.85578496809103" lon="9.021114473267678"><ele>350.0</ele><time>2026-05-03T09:09:23.999Z</time></trkpt><trkpt lat="44.855826831107876" lon="9.021190576689593"><ele>350.0</ele><time>2026-05-03T09:09:24.999Z</time></trkpt><trkpt lat="44.85586404257199" lon="9.02129044783955"><ele>352.83333333333337</ele><time>2026-05-03T09:09:25.999Z</time></trkpt><trkpt lat="44.855869541949794" lon="9.021407844825173"><ele>355.6666666666667</ele><time>2026-05-03T09:09:26.999Z</time></trkpt><trkpt lat="44.855888786179705" lon="9.021510806307587"><ele>358.5</ele><time>2026-05-03T09:09:27.999Z</time></trkpt><trkpt lat="44.855820724651075" lon="9.021632481068902"><ele>361.3333333333333</ele><time>2026-05-03T09:09:29.999Z</time></trkpt><trkpt lat="44.855802384872504" lon="9.021740756612303"><ele>364.16666666666663</ele><time>2026-05-03T09:09:30.999Z</time></trkpt><trkpt lat="44.85576833751968" lon="9.021871191910156"><ele>367.0</ele><time>2026-05-03T09:09:31.999Z</time></trkpt><trkpt lat="44.85574244127573" lon="9.021989929487802"><ele>368.8</ele><time>2026-05-03T09:09:32.998Z</time></trkpt><trkpt lat="44.85571184981208" lon="9.022083304472568"><ele>370.6</ele><time>2026-05-03T09:09:33.998Z</time></trkpt><trkpt lat="44.855649867713154" lon="9.02216108010258"><ele>372.40000000000003</ele><time>2026-05-03T09:09:34.998Z</time></trkpt><trkpt lat="44.85556232052335" lon="9.022234404874618"><ele>374.20000000000005</ele><time>2026-05-03T09:09:35.998Z</time></trkpt><trkpt lat="44.855473122728824" lon="9.022295200667676"><ele>376.0</ele><time>2026-05-03T09:09:36.998Z</time></trkpt><trkpt lat="44.85538064168066" lon="9.022327373731278"><ele>376.0</ele><time>2026-05-03T09:09:37.998Z</time></trkpt><trkpt lat="44.85528662105713" lon="9.02231940396349"><ele>376.0</ele><time>2026-05-03T09:09:38.998Z</time></trkpt><trkpt lat="44.855192302535876" lon="9.02228849367799"><ele>376.0</ele><time>2026-05-03T09:09:39.998Z</time></trkpt><trkpt lat="44.85514552013172" lon="9.022194290848283"><ele>376.0</ele><time>2026-05-03T09:09:41.998Z</time></trkpt><trkpt lat="44.855070428015246" lon="9.022283208772897"><ele>376.0</ele><time>2026-05-03T09:09:45.998Z</time></trkpt><trkpt lat="44.855058185381544" lon="9.022432808661835"><ele>378.20000000000005</ele><time>2026-05-03T09:09:46.998Z</time></trkpt><trkpt lat="44.85503897882042" lon="9.02258435901749"><ele>380.40000000000003</ele><time>2026-05-03T09:09:47.998Z</time></trkpt><trkpt lat="44.8550057446514" lon="9.022761046749485"><ele>382.6</ele><time>2026-05-03T09:09:48.998Z</time></trkpt><trkpt lat="44.8549729911963" lon="9.022904584801436"><ele>384.8</ele><time>2026-05-03T09:09:49.998Z</time></trkpt><trkpt lat="44.854946190480696" lon="9.02303074201308"><ele>387.0</ele><time>2026-05-03T09:09:50.998Z</time></trkpt><trkpt lat="44.85490804554079" lon="9.023163527269086"><ele>387.0</ele><time>2026-05-03T09:09:51.998Z</time></trkpt><trkpt lat="44.85485731441947" lon="9.023243134832912"><ele>387.0</ele><time>2026-05-03T09:09:52.998Z</time></trkpt><trkpt lat="44.85479768645228" lon="9.023297181224624"><ele>387.0</ele><time>2026-05-03T09:09:53.998Z</time></trkpt><trkpt lat="44.854766105759865" lon="9.023406665282304"><ele>387.0</ele><time>2026-05-03T09:09:55.998Z</time></trkpt><trkpt lat="44.85484077033121" lon="9.023502598235886"><ele>387.0</ele><time>2026-05-03T09:09:57.998Z</time></trkpt><trkpt lat="44.85494319921586" lon="9.023573506286128"><ele>387.0</ele><time>2026-05-03T09:09:59.998Z</time></trkpt><trkpt lat="44.85500151959168" lon="9.02363804590179"><ele>389.5</ele><time>2026-05-03T09:10:00.998Z</time></trkpt><trkpt lat="44.855058534465826" lon="9.02371004864342"><ele>392.0</ele><time>2026-05-03T09:10:01.998Z</time></trkpt><trkpt lat="44.85509886028837" lon="9.023783289761523"><ele>394.5</ele><time>2026-05-03T09:10:02.998Z</time></trkpt><trkpt lat="44.85505669992394" lon="9.023910395508505"><ele>397.0</ele><time>2026-05-03T09:10:04.997Z</time></trkpt><trkpt lat="44.85500175184747" lon="9.024012564848954"><ele>399.5</ele><time>2026-05-03T09:10:05.997Z</time></trkpt><trkpt lat="44.854980138572444" lon="9.024105847814841"><ele>402.0</ele><time>2026-05-03T09:10:06.997Z</time></trkpt><trkpt lat="44.85503930897732" lon="9.024294771324328"><ele>400.6</ele><time>2026-05-03T09:10:08.997Z</time></trkpt><trkpt lat="44.855092979864004" lon="9.02445017678099"><ele>399.20000000000005</ele><time>2026-05-03T09:10:09.997Z</time></trkpt><trkpt lat="44.855159928526" lon="9.02459174205148"><ele>397.8</ele><time>2026-05-03T09:10:10.997Z</time></trkpt><trkpt lat="44.8552088930528" lon="9.024726881238465"><ele>396.4</ele><time>2026-05-03T09:10:11.997Z</time></trkpt><trkpt lat="44.85524295859934" lon="9.02485163804057"><ele>395.0</ele><time>2026-05-03T09:10:12.997Z</time></trkpt><trkpt lat="44.85527831788055" lon="9.024928239037514"><ele>398.25</ele><time>2026-05-03T09:10:13.997Z</time></trkpt><trkpt lat="44.85539995214351" lon="9.025025434599451"><ele>401.5</ele><time>2026-05-03T09:10:15.997Z</time></trkpt><trkpt lat="44.8554772130058" lon="9.02507253089319"><ele>404.75</ele><time>2026-05-03T09:10:16.997Z</time></trkpt><trkpt lat="44.85556999962593" lon="9.025145060881831"><ele>408.0</ele><time>2026-05-03T09:10:17.997Z</time></trkpt><trkpt lat="44.85569334458043" lon="9.025106950840769"><ele>408.0</ele><time>2026-05-03T09:10:18.997Z</time></trkpt><trkpt lat="44.8557833625495" lon="9.025128718549242"><ele>408.0</ele><time>2026-05-03T09:10:19.997Z</time></trkpt><trkpt lat="44.85587707181739" lon="9.025171724328281"><ele>408.0</ele><time>2026-05-03T09:10:20.997Z</time></trkpt><trkpt lat="44.85598387081867" lon="9.025249730598395"><ele>408.0</ele><time>2026-05-03T09:10:21.997Z</time></trkpt><trkpt lat="44.85609933109856" lon="9.025327330553527"><ele>408.0</ele><time>2026-05-03T09:10:22.997Z</time></trkpt><trkpt lat="44.85621327468937" lon="9.025408008059665"><ele>403.75</ele><time>2026-05-03T09:10:23.997Z</time></trkpt><trkpt lat="44.85631634810216" lon="9.025495604707897"><ele>399.5</ele><time>2026-05-03T09:10:24.997Z</time></trkpt><trkpt lat="44.8564177819687" lon="9.025584087032787"><ele>395.25</ele><time>2026-05-03T09:10:25.997Z</time></trkpt><trkpt lat="44.85650428362867" lon="9.025659258843488"><ele>391.0</ele><time>2026-05-03T09:10:26.997Z</time></trkpt><trkpt lat="44.856588430654824" lon="9.025764963291028"><ele>388.20000000000005</ele><time>2026-05-03T09:10:27.997Z</time></trkpt><trkpt lat="44.85666380815823" lon="9.025898266139887"><ele>385.40000000000003</ele><time>2026-05-03T09:10:28.997Z</time></trkpt><trkpt lat="44.85673591404743" lon="9.026009718075384"><ele>382.6</ele><time>2026-05-03T09:10:29.997Z</time></trkpt><trkpt lat="44.856816904561384" lon="9.026087112650181"><ele>379.8</ele><time>2026-05-03T09:10:30.997Z</time></trkpt><trkpt lat="44.85687975492817" lon="9.026155895184273"><ele>377.0</ele><time>2026-05-03T09:10:31.997Z</time></trkpt><trkpt lat="44.85694719596605" lon="9.026252387734662"><ele>377.0</ele><time>2026-05-03T09:10:32.997Z</time></trkpt><trkpt lat="44.85701390614818" lon="9.026352809131632"><ele>377.0</ele><time>2026-05-03T09:10:33.997Z</time></trkpt><trkpt lat="44.8570764377733" lon="9.026455572366839"><ele>377.0</ele><time>2026-05-03T09:10:34.997Z</time></trkpt><trkpt lat="44.85714350768309" lon="9.026589314709106"><ele>377.0</ele><time>2026-05-03T09:10:35.997Z</time></trkpt><trkpt lat="44.857195188146946" lon="9.02674236156624"><ele>377.0</ele><time>2026-05-03T09:10:36.996Z</time></trkpt><trkpt lat="44.85724928171916" lon="9.026890483269819"><ele>379.20000000000005</ele><time>2026-05-03T09:10:37.996Z</time></trkpt><trkpt lat="44.85728548766775" lon="9.027037845482965"><ele>381.4</ele><time>2026-05-03T09:10:38.996Z</time></trkpt><trkpt lat="44.857319823471244" lon="9.027154194177093"><ele>383.6</ele><time>2026-05-03T09:10:39.996Z</time></trkpt><trkpt lat="44.85735521436737" lon="9.027291277100103"><ele>385.79999999999995</ele><time>2026-05-03T09:10:40.996Z</time></trkpt><trkpt lat="44.85738216039167" lon="9.027469623300039"><ele>388.0</ele><time>2026-05-03T09:10:41.996Z</time></trkpt><trkpt lat="44.85740732254784" lon="9.027633236024807"><ele>390.4</ele><time>2026-05-03T09:10:42.996Z</time></trkpt><trkpt lat="44.857433397728215" lon="9.027777870010691"><ele>392.79999999999995</ele><time>2026-05-03T09:10:43.996Z</time></trkpt><trkpt lat="44.85745662869314" lon="9.027921731884048"><ele>395.2</ele><time>2026-05-03T09:10:44.996Z</time></trkpt><trkpt lat="44.85748590486589" lon="9.02806106706287"><ele>397.6</ele><time>2026-05-03T09:10:45.996Z</time></trkpt><trkpt lat="44.85753848082647" lon="9.028238048848953"><ele>400.0</ele><time>2026-05-03T09:10:47.996Z</time></trkpt><trkpt lat="44.85757999380947" lon="9.028356977777529"><ele>402.00000000000006</ele><time>2026-05-03T09:10:48.996Z</time></trkpt><trkpt lat="44.85759541006749" lon="9.028472719588839"><ele>404.0</ele><time>2026-05-03T09:10:50Z</time></trkpt><trkpt lat="44.85758152092709" lon="9.028604767557148"><ele>406.0</ele><time>2026-05-03T09:10:51Z</time></trkpt><trkpt lat="44.85756370552471" lon="9.028716311757247"><ele>408.0</ele><time>2026-05-03T09:10:52Z</time></trkpt><trkpt lat="44.85758304006197" lon="9.028815502370914"><ele>410.00000000000006</ele><time>2026-05-03T09:10:53Z</time></trkpt><trkpt lat="44.857609451433966" lon="9.028897993933535"><ele>412.0</ele><time>2026-05-03T09:10:54Z</time></trkpt><trkpt lat="44.85765407992279" lon="9.028969391618736"><ele>408.40000000000003</ele><time>2026-05-03T09:10:55Z</time></trkpt><trkpt lat="44.8577203611915" lon="9.029075161259781"><ele>404.8</ele><time>2026-05-03T09:10:56Z</time></trkpt><trkpt lat="44.85777081092119" lon="9.029169559441113"><ele>401.2</ele><time>2026-05-03T09:10:57Z</time></trkpt><trkpt lat="44.85783701425671" lon="9.029313233367079"><ele>397.6</ele><time>2026-05-03T09:10:58Z</time></trkpt><trkpt lat="44.857879826113255" lon="9.029401469807103"><ele>394.0</ele><time>2026-05-03T09:10:59Z</time></trkpt><trkpt lat="44.857876130865264" lon="9.029544204699526"><ele>394.0</ele><time>2026-05-03T09:11:01Z</time></trkpt><trkpt lat="44.85787279886745" lon="9.029647763374282"><ele>394.0</ele><time>2026-05-03T09:11:02Z</time></trkpt><trkpt lat="44.857858358423385" lon="9.029756999615236"><ele>394.0</ele><time>2026-05-03T09:11:03Z</time></trkpt><trkpt lat="44.85784277285394" lon="9.029905370443789"><ele>394.0</ele><time>2026-05-03T09:11:04Z</time></trkpt><trkpt lat="44.857831952603114" lon="9.030039245398918"><ele>394.0</ele><time>2026-05-03T09:11:05Z</time></trkpt><trkpt lat="44.85787172953639" lon="9.030181455774041"><ele>396.0</ele><time>2026-05-03T09:11:05.999Z</time></trkpt><trkpt lat="44.85790566207724" lon="9.030321890561305"><ele>398.0</ele><time>2026-05-03T09:11:06.999Z</time></trkpt><trkpt lat="44.85793516651446" lon="9.030480630185375"><ele>400.0</ele><time>2026-05-03T09:11:07.999Z</time></trkpt><trkpt lat="44.85797293025844" lon="9.030651456198587"><ele>402.0</ele><time>2026-05-03T09:11:08.999Z</time></trkpt><trkpt lat="44.85800610961417" lon="9.030810138169267"><ele>403.6</ele><time>2026-05-03T09:11:09.999Z</time></trkpt><trkpt lat="44.85804745442764" lon="9.03097022337929"><ele>405.20000000000005</ele><time>2026-05-03T09:11:10.999Z</time></trkpt><trkpt lat="44.8580947046899" lon="9.031095370502602"><ele>406.8</ele><time>2026-05-03T09:11:11.999Z</time></trkpt><trkpt lat="44.85815704931234" lon="9.031146726506293"><ele>408.4</ele><time>2026-05-03T09:11:12.999Z</time></trkpt><trkpt lat="44.85829381495667" lon="9.03124571321619"><ele>410.0</ele><time>2026-05-03T09:11:14.999Z</time></trkpt><trkpt lat="44.85839365244931" lon="9.031313058664672"><ele>409.6</ele><time>2026-05-03T09:11:15.999Z</time></trkpt><trkpt lat="44.858514872261765" lon="9.031395094426319"><ele>409.2</ele><time>2026-05-03T09:11:16.999Z</time></trkpt><trkpt lat="44.85862175396354" lon="9.031447313970073"><ele>408.79999999999995</ele><time>2026-05-03T09:11:17.999Z</time></trkpt><trkpt lat="44.858701268170684" lon="9.031520924996945"><ele>408.4</ele><time>2026-05-03T09:11:18.999Z</time></trkpt><trkpt lat="44.85877125387661" lon="9.031606519174119"><ele>408.0</ele><time>2026-05-03T09:11:19.999Z</time></trkpt><trkpt lat="44.85882449813733" lon="9.031699748916624"><ele>408.0</ele><time>2026-05-03T09:11:20.999Z</time></trkpt><trkpt lat="44.85884609614556" lon="9.031807156165874"><ele>408.0</ele><time>2026-05-03T09:11:21.999Z</time></trkpt><trkpt lat="44.85882473724118" lon="9.031927020950203"><ele>408.0</ele><time>2026-05-03T09:11:22.999Z</time></trkpt><trkpt lat="44.858807037583944" lon="9.03206584861869"><ele>408.0</ele><time>2026-05-03T09:11:23.999Z</time></trkpt><trkpt lat="44.858775359759115" lon="9.032205388185382"><ele>408.0</ele><time>2026-05-03T09:11:24.999Z</time></trkpt><trkpt lat="44.85873450308846" lon="9.032399963837484"><ele>410.4</ele><time>2026-05-03T09:11:25.999Z</time></trkpt><trkpt lat="44.85868386441774" lon="9.03258545545964"><ele>412.79999999999995</ele><time>2026-05-03T09:11:26.999Z</time></trkpt><trkpt lat="44.85863810316646" lon="9.032669685454128"><ele>415.2</ele><time>2026-05-03T09:11:28.999Z</time></trkpt><trkpt lat="44.85864364897427" lon="9.032792542459456"><ele>417.6</ele><time>2026-05-03T09:11:29.999Z</time></trkpt><trkpt lat="44.85867202115851" lon="9.032922472914143"><ele>420.0</ele><time>2026-05-03T09:11:30.999Z</time></trkpt><trkpt lat="44.85871101261994" lon="9.033009886719569"><ele>420.0</ele><time>2026-05-03T09:11:31.999Z</time></trkpt><trkpt lat="44.85878909644639" lon="9.033068712763027"><ele>420.0</ele><time>2026-05-03T09:11:32.999Z</time></trkpt><trkpt lat="44.858872842180645" lon="9.033099783865296"><ele>420.0</ele><time>2026-05-03T09:11:33.999Z</time></trkpt><trkpt lat="44.85896097212239" lon="9.033272644377275"><ele>420.0</ele><time>2026-05-03T09:11:34.999Z</time></trkpt><trkpt lat="44.85907394802997" lon="9.033399966020676"><ele>421.0</ele><time>2026-05-03T09:11:35.999Z</time></trkpt><trkpt lat="44.859153971294994" lon="9.033527629273197"><ele>422.0</ele><time>2026-05-03T09:11:36.998Z</time></trkpt><trkpt lat="44.85924376542478" lon="9.033678174480189"><ele>423.0</ele><time>2026-05-03T09:11:37.998Z</time></trkpt><trkpt lat="44.85932430039818" lon="9.03381012233526"><ele>424.0</ele><time>2026-05-03T09:11:38.998Z</time></trkpt><trkpt lat="44.859372347471115" lon="9.033922740276386"><ele>424.0</ele><time>2026-05-03T09:11:39.998Z</time></trkpt><trkpt lat="44.85937908356708" lon="9.034015312208092"><ele>424.0</ele><time>2026-05-03T09:11:40.998Z</time></trkpt><trkpt lat="44.85930245586176" lon="9.03415059128092"><ele>424.0</ele><time>2026-05-03T09:11:42.998Z</time></trkpt><trkpt lat="44.859257950565876" lon="9.034251588433747"><ele>424.0</ele><time>2026-05-03T09:11:43.998Z</time></trkpt><trkpt lat="44.85922365912971" lon="9.034406770171808"><ele>424.0</ele><time>2026-05-03T09:11:44.998Z</time></trkpt><trkpt lat="44.85920903316877" lon="9.034617505103132"><ele>437.0</ele><time>2026-05-03T09:11:45.998Z</time></trkpt><trkpt lat="44.85921011255122" lon="9.0348388332328"><ele>450.0</ele><time>2026-05-03T09:11:46.998Z</time></trkpt><trkpt lat="44.85921360017278" lon="9.035088725883393"><ele>463.0</ele><time>2026-05-03T09:11:47.998Z</time></trkpt><trkpt lat="44.859238897363745" lon="9.035331944950789"><ele>464.75</ele><time>2026-05-03T09:11:48.998Z</time></trkpt><trkpt lat="44.859201093357946" lon="9.035566823588065"><ele>466.5</ele><time>2026-05-03T09:11:49.998Z</time></trkpt><trkpt lat="44.85918282841912" lon="9.03576709065184"><ele>468.25</ele><time>2026-05-03T09:11:50.998Z</time></trkpt><trkpt lat="44.85918665993403" lon="9.035926688605752"><ele>470.0</ele><time>2026-05-03T09:11:51.998Z</time></trkpt><trkpt lat="44.859182610822046" lon="9.036057543285589"><ele>470.25</ele><time>2026-05-03T09:11:52.998Z</time></trkpt><trkpt lat="44.85917588877955" lon="9.036227529283227"><ele>470.5</ele><time>2026-05-03T09:11:54.998Z</time></trkpt><trkpt lat="44.859193590049074" lon="9.036359656069834"><ele>470.75</ele><time>2026-05-03T09:11:55.998Z</time></trkpt><trkpt lat="44.85923472491688" lon="9.03652854150874"><ele>471.0</ele><time>2026-05-03T09:11:56.998Z</time></trkpt><trkpt lat="44.85926589805744" lon="9.036692476057615"><ele>465.8</ele><time>2026-05-03T09:11:57.998Z</time></trkpt><trkpt lat="44.859293990950434" lon="9.036814935952593"><ele>460.6</ele><time>2026-05-03T09:11:58.998Z</time></trkpt><trkpt lat="44.859315737100715" lon="9.036932170989331"><ele>455.4</ele><time>2026-05-03T09:11:59.998Z</time></trkpt><trkpt lat="44.85930118935451" lon="9.037116559620697"><ele>450.2</ele><time>2026-05-03T09:12:01.998Z</time></trkpt><trkpt lat="44.85930432541588" lon="9.037263064154303"><ele>445.0</ele><time>2026-05-03T09:12:02.998Z</time></trkpt><trkpt lat="44.85929078712926" lon="9.037423828228771"><ele>451.0</ele><time>2026-05-03T09:12:03.998Z</time></trkpt><trkpt lat="44.859267474225554" lon="9.03759308466281"><ele>457.0</ele><time>2026-05-03T09:12:04.998Z</time></trkpt><trkpt lat="44.85922530417783" lon="9.037772718511464"><ele>463.0</ele><time>2026-05-03T09:12:05.998Z</time></trkpt><trkpt lat="44.859188905635555" lon="9.037960148841636"><ele>469.0</ele><time>2026-05-03T09:12:06.998Z</time></trkpt><trkpt lat="44.8591740123086" lon="9.038155116285724"><ele>469.6666666666667</ele><time>2026-05-03T09:12:07.998Z</time></trkpt><trkpt lat="44.85916540418774" lon="9.038305110708846"><ele>470.33333333333337</ele><time>2026-05-03T09:12:08.997Z</time></trkpt><trkpt lat="44.85916510707831" lon="9.03841149026225"><ele>471.0</ele><time>2026-05-03T09:12:09.997Z</time></trkpt><trkpt lat="44.85921635278572" lon="9.038483077239043"><ele>471.66666666666663</ele><time>2026-05-03T09:12:11.997Z</time></trkpt><trkpt lat="44.85926463243725" lon="9.038541310104232"><ele>472.3333333333333</ele><time>2026-05-03T09:12:12.997Z</time></trkpt><trkpt lat="44.85934630596203" lon="9.038582021402291"><ele>473.0</ele><time>2026-05-03T09:12:13.997Z</time></trkpt><trkpt lat="44.85944664728658" lon="9.038647818281317"><ele>470.75</ele><time>2026-05-03T09:12:14.997Z</time></trkpt><trkpt lat="44.859531463635776" lon="9.038713951042968"><ele>468.5</ele><time>2026-05-03T09:12:15.997Z</time></trkpt><trkpt lat="44.859654268268216" lon="9.038753191952209"><ele>466.25</ele><time>2026-05-03T09:12:16.997Z</time></trkpt><trkpt lat="44.85977461046795" lon="9.038763272804708"><ele>464.0</ele><time>2026-05-03T09:12:17.997Z</time></trkpt><trkpt lat="44.859880437470096" lon="9.03880740072847"><ele>464.0</ele><time>2026-05-03T09:12:18.997Z</time></trkpt><trkpt lat="44.859983259533244" lon="9.038884851454858"><ele>464.0</ele><time>2026-05-03T09:12:19.997Z</time></trkpt><trkpt lat="44.860071281819984" lon="9.038994281776226"><ele>464.0</ele><time>2026-05-03T09:12:20.997Z</time></trkpt><trkpt lat="44.86015905128265" lon="9.039133819705334"><ele>464.0</ele><time>2026-05-03T09:12:21.997Z</time></trkpt><trkpt lat="44.86024303986182" lon="9.039280599015076"><ele>463.5</ele><time>2026-05-03T09:12:22.997Z</time></trkpt><trkpt lat="44.86033263061922" lon="9.03943249277378"><ele>463.0</ele><time>2026-05-03T09:12:23.997Z</time></trkpt><trkpt lat="44.86041807580212" lon="9.039581692509426"><ele>462.5</ele><time>2026-05-03T09:12:24.997Z</time></trkpt><trkpt lat="44.86050015577855" lon="9.039722290678611"><ele>462.0</ele><time>2026-05-03T09:12:25.997Z</time></trkpt><trkpt lat="44.86057907364247" lon="9.03984752931391"><ele>466.0</ele><time>2026-05-03T09:12:26.997Z</time></trkpt><trkpt lat="44.8606522593761" lon="9.039976480141384"><ele>470.0</ele><time>2026-05-03T09:12:27.997Z</time></trkpt><trkpt lat="44.86071551348409" lon="9.040105960130953"><ele>474.0</ele><time>2026-05-03T09:12:28.997Z</time></trkpt><trkpt lat="44.860771318415686" lon="9.040249196587224"><ele>478.0</ele><time>2026-05-03T09:12:29.997Z</time></trkpt><trkpt lat="44.86081247617056" lon="9.0404192949708"><ele>478.0</ele><time>2026-05-03T09:12:30.997Z</time></trkpt><trkpt lat="44.86085175284798" lon="9.040602998945308"><ele>478.0</ele><time>2026-05-03T09:12:31.997Z</time></trkpt><trkpt lat="44.86092092693284" lon="9.040759898235722"><ele>478.0</ele><time>2026-05-03T09:12:32.997Z</time></trkpt><trkpt lat="44.86101401340377" lon="9.040888933340664"><ele>478.0</ele><time>2026-05-03T09:12:33.997Z</time></trkpt><trkpt lat="44.86112754012544" lon="9.040981394927774"><ele>476.6666666666667</ele><time>2026-05-03T09:12:34.997Z</time></trkpt><trkpt lat="44.861258697675865" lon="9.041056619563893"><ele>475.33333333333337</ele><time>2026-05-03T09:12:35.997Z</time></trkpt><trkpt lat="44.86140526926829" lon="9.041128167335067"><ele>474.0</ele><time>2026-05-03T09:12:36.997Z</time></trkpt><trkpt lat="44.86155580897217" lon="9.041192786927821"><ele>474.0</ele><time>2026-05-03T09:12:37.997Z</time></trkpt><trkpt lat="44.8616889280163" lon="9.04124077933641"><ele>474.0</ele><time>2026-05-03T09:12:38.997Z</time></trkpt><trkpt lat="44.86180367358107" lon="9.041294652885435"><ele>474.0</ele><time>2026-05-03T09:12:39.997Z</time></trkpt><trkpt lat="44.86188950384149" lon="9.041363409970499"><ele>474.0</ele><time>2026-05-03T09:12:40.997Z</time></trkpt><trkpt lat="44.86194617977173" lon="9.041468561194597"><ele>474.2</ele><time>2026-05-03T09:12:41.996Z</time></trkpt><trkpt lat="44.86198724101835" lon="9.04159860724501"><ele>474.4</ele><time>2026-05-03T09:12:42.996Z</time></trkpt><trkpt lat="44.86204233297946" lon="9.041726704524473"><ele>474.6</ele><time>2026-05-03T09:12:43.996Z</time></trkpt><trkpt lat="44.86212390200748" lon="9.04184664950691"><ele>474.8</ele><time>2026-05-03T09:12:44.996Z</time></trkpt><trkpt lat="44.8622167328335" lon="9.041928794261132"><ele>475.0</ele><time>2026-05-03T09:12:45.996Z</time></trkpt><trkpt lat="44.86231205582137" lon="9.041984769689439"><ele>475.0</ele><time>2026-05-03T09:12:46.996Z</time></trkpt><trkpt lat="44.86241821490407" lon="9.042003845449942"><ele>475.0</ele><time>2026-05-03T09:12:47.996Z</time></trkpt><trkpt lat="44.862538382715435" lon="9.04196637465342"><ele>475.0</ele><time>2026-05-03T09:12:48.996Z</time></trkpt><trkpt lat="44.86266809049019" lon="9.041869771655456"><ele>475.0</ele><time>2026-05-03T09:12:49.996Z</time></trkpt><trkpt lat="44.86280955136051" lon="9.04172812116401"><ele>469.33333333333337</ele><time>2026-05-03T09:12:50.996Z</time></trkpt><trkpt lat="44.86295793180342" lon="9.041591497809332"><ele>463.66666666666663</ele><time>2026-05-03T09:12:51.996Z</time></trkpt><trkpt lat="44.863099196960576" lon="9.041488637141493"><ele>458.0</ele><time>2026-05-03T09:12:52.996Z</time></trkpt><trkpt lat="44.86324961662496" lon="9.041399172361059"><ele>458.0</ele><time>2026-05-03T09:12:53.996Z</time></trkpt><trkpt lat="44.86342621147238" lon="9.041309642995396"><ele>458.0</ele><time>2026-05-03T09:12:55Z</time></trkpt><trkpt lat="44.86359891816835" lon="9.041224012133597"><ele>458.0</ele><time>2026-05-03T09:12:56Z</time></trkpt><trkpt lat="44.863754021379854" lon="9.041122854631679"><ele>456.0</ele><time>2026-05-03T09:12:57Z</time></trkpt><trkpt lat="44.86391569764097" lon="9.040994998015282"><ele>454.0</ele><time>2026-05-03T09:12:58Z</time></trkpt><trkpt lat="44.86405119082457" lon="9.040886702798582"><ele>452.0</ele><time>2026-05-03T09:12:59Z</time></trkpt><trkpt lat="44.86420743276595" lon="9.040768723746504"><ele>449.0</ele><time>2026-05-03T09:13:00Z</time></trkpt><trkpt lat="44.86435063950067" lon="9.04066126542235"><ele>446.0</ele><time>2026-05-03T09:13:01Z</time></trkpt><trkpt lat="44.8644910752566" lon="9.040558645302035"><ele>443.0</ele><time>2026-05-03T09:13:02Z</time></trkpt><trkpt lat="44.86462598647324" lon="9.04045850025567"><ele>443.0</ele><time>2026-05-03T09:13:03Z</time></trkpt><trkpt lat="44.864751239521176" lon="9.040376393547993"><ele>442.99999999999994</ele><time>2026-05-03T09:13:04Z</time></trkpt><trkpt lat="44.86485614720487" lon="9.040304085436153"><ele>442.99999999999994</ele><time>2026-05-03T09:13:05Z</time></trkpt><trkpt lat="44.8649346122675" lon="9.040245240671016"><ele>443.0</ele><time>2026-05-03T09:13:06Z</time></trkpt><trkpt lat="44.864988485545595" lon="9.040199080548069"><ele>443.0</ele><time>2026-05-03T09:13:07Z</time></trkpt><trkpt lat="44.86509979749145" lon="9.040232799890193"><ele>440.75</ele><time>2026-05-03T09:13:09Z</time></trkpt><trkpt lat="44.8651818742313" lon="9.040334191477463"><ele>438.5</ele><time>2026-05-03T09:13:10Z</time></trkpt><trkpt lat="44.865283103805815" lon="9.04047644463134"><ele>436.25</ele><time>2026-05-03T09:13:10.999Z</time></trkpt><trkpt lat="44.86537375492389" lon="9.040643403317953"><ele>434.0</ele><time>2026-05-03T09:13:11.999Z</time></trkpt><trkpt lat="44.86545962307546" lon="9.04084650581995"><ele>433.3333333333333</ele><time>2026-05-03T09:13:12.999Z</time></trkpt><trkpt lat="44.86554073645077" lon="9.04106495833075"><ele>432.66666666666663</ele><time>2026-05-03T09:13:13.999Z</time></trkpt><trkpt lat="44.86562408186338" lon="9.041273116599019"><ele>432.0</ele><time>2026-05-03T09:13:14.999Z</time></trkpt><trkpt lat="44.86571997382133" lon="9.041449145588572"><ele>432.0</ele><time>2026-05-03T09:13:15.999Z</time></trkpt><trkpt lat="44.86581121604595" lon="9.04161453484697"><ele>432.0</ele><time>2026-05-03T09:13:16.999Z</time></trkpt><trkpt lat="44.865898653936405" lon="9.041777214394903"><ele>432.0</ele><time>2026-05-03T09:13:17.999Z</time></trkpt><trkpt lat="44.86598772525317" lon="9.041935701649033"><ele>432.0</ele><time>2026-05-03T09:13:18.999Z</time></trkpt><trkpt lat="44.866093149824174" lon="9.042112394888827"><ele>430.66666666666663</ele><time>2026-05-03T09:13:19.999Z</time></trkpt><trkpt lat="44.8662104049489" lon="9.042283480110925"><ele>429.3333333333333</ele><time>2026-05-03T09:13:20.999Z</time></trkpt><trkpt lat="44.86632909227637" lon="9.042446512935827"><ele>428.0</ele><time>2026-05-03T09:13:21.999Z</time></trkpt><trkpt lat="44.86643603488938" lon="9.042617366209148"><ele>428.0</ele><time>2026-05-03T09:13:22.999Z</time></trkpt><trkpt lat="44.86652031953631" lon="9.042776592864605"><ele>428.0</ele><time>2026-05-03T09:13:23.999Z</time></trkpt><trkpt lat="44.86660567158128" lon="9.042902107447091"><ele>428.0</ele><time>2026-05-03T09:13:24.999Z</time></trkpt><trkpt lat="44.866686762514604" lon="9.042998216845445"><ele>428.0</ele><time>2026-05-03T09:13:25.999Z</time></trkpt><trkpt lat="44.866763186824464" lon="9.043064238712438"><ele>427.2</ele><time>2026-05-03T09:13:26.999Z</time></trkpt><trkpt lat="44.86683030160716" lon="9.043112941738265"><ele>426.4</ele><time>2026-05-03T09:13:27.999Z</time></trkpt><trkpt lat="44.86690639939382" lon="9.043164114151404"><ele>425.59999999999997</ele><time>2026-05-03T09:13:28.999Z</time></trkpt><trkpt lat="44.86701287513449" lon="9.043203335875122"><ele>424.79999999999995</ele><time>2026-05-03T09:13:29.999Z</time></trkpt><trkpt lat="44.86712708664537" lon="9.043218674690829"><ele>424.0</ele><time>2026-05-03T09:13:30.999Z</time></trkpt><trkpt lat="44.86723464907261" lon="9.043207986282678"><ele>424.00000000000006</ele><time>2026-05-03T09:13:31.999Z</time></trkpt><trkpt lat="44.86733375996906" lon="9.043170595427275"><ele>424.0</ele><time>2026-05-03T09:13:32.999Z</time></trkpt><trkpt lat="44.867421804101234" lon="9.043136267431429"><ele>424.0</ele><time>2026-05-03T09:13:33.999Z</time></trkpt><trkpt lat="44.8674891333137" lon="9.043128110345098"><ele>424.0</ele><time>2026-05-03T09:13:34.999Z</time></trkpt><trkpt lat="44.86755980617959" lon="9.043151645963324"><ele>424.00000000000006</ele><time>2026-05-03T09:13:35.999Z</time></trkpt><trkpt lat="44.8676234518616" lon="9.04320895790871"><ele>424.0</ele><time>2026-05-03T09:13:36.999Z</time></trkpt><trkpt lat="44.86769546519298" lon="9.043311296914593"><ele>423.4</ele><time>2026-05-03T09:13:37.999Z</time></trkpt><trkpt lat="44.867783366778994" lon="9.043411443483718"><ele>422.79999999999995</ele><time>2026-05-03T09:13:38.999Z</time></trkpt><trkpt lat="44.867899731776326" lon="9.043501028980659"><ele>422.20000000000005</ele><time>2026-05-03T09:13:39.999Z</time></trkpt><trkpt lat="44.8679938567937" lon="9.043567518357237"><ele>421.6</ele><time>2026-05-03T09:13:40.999Z</time></trkpt><trkpt lat="44.868063046496474" lon="9.04361052632631"><ele>421.0</ele><time>2026-05-03T09:13:41.998Z</time></trkpt><trkpt lat="44.868176729177044" lon="9.043679413389224"><ele>421.0</ele><time>2026-05-03T09:13:43.998Z</time></trkpt><trkpt lat="44.86821798089283" lon="9.04376371836218"><ele>421.0</ele><time>2026-05-03T09:13:44.998Z</time></trkpt><trkpt lat="44.86825493521073" lon="9.043897335928758"><ele>421.0</ele><time>2026-05-03T09:13:45.998Z</time></trkpt><trkpt lat="44.868308119474335" lon="9.044054879975294"><ele>421.0</ele><time>2026-05-03T09:13:46.998Z</time></trkpt><trkpt lat="44.86837372476004" lon="9.044231008581063"><ele>421.0</ele><time>2026-05-03T09:13:47.998Z</time></trkpt><trkpt lat="44.86843071359068" lon="9.044387517350724"><ele>418.25</ele><time>2026-05-03T09:13:48.998Z</time></trkpt><trkpt lat="44.86848681905987" lon="9.044558326554666"><ele>415.5</ele><time>2026-05-03T09:13:49.998Z</time></trkpt><trkpt lat="44.868546201914604" lon="9.044732263223741"><ele>412.75</ele><time>2026-05-03T09:13:50.998Z</time></trkpt><trkpt lat="44.86861231216968" lon="9.044914832756398"><ele>410.0</ele><time>2026-05-03T09:13:51.998Z</time></trkpt><trkpt lat="44.868670397422875" lon="9.045093726935638"><ele>408.2</ele><time>2026-05-03T09:13:52.998Z</time></trkpt><trkpt lat="44.86871274908563" lon="9.04526038557774"><ele>406.4</ele><time>2026-05-03T09:13:53.998Z</time></trkpt><trkpt lat="44.86872614747409" lon="9.04540316474033"><ele>404.6</ele><time>2026-05-03T09:13:54.998Z</time></trkpt><trkpt lat="44.868718322136154" lon="9.045527108862935"><ele>402.8</ele><time>2026-05-03T09:13:55.998Z</time></trkpt><trkpt lat="44.868723717984224" lon="9.045620298976253"><ele>401.0</ele><time>2026-05-03T09:13:56.998Z</time></trkpt><trkpt lat="44.86876033265718" lon="9.045712711995753"><ele>400.0</ele><time>2026-05-03T09:13:57.998Z</time></trkpt><trkpt lat="44.86884185574024" lon="9.04585492388454"><ele>399.0</ele><time>2026-05-03T09:13:58.998Z</time></trkpt><trkpt lat="44.86891600647113" lon="9.04598633303644"><ele>398.0</ele><time>2026-05-03T09:13:59.998Z</time></trkpt><trkpt lat="44.86900675130933" lon="9.046146100773809"><ele>397.0</ele><time>2026-05-03T09:14:00.998Z</time></trkpt><trkpt lat="44.86906841805556" lon="9.046263962934967"><ele>397.0</ele><time>2026-05-03T09:14:01.998Z</time></trkpt><trkpt lat="44.86910998642378" lon="9.046400920337232"><ele>397.0</ele><time>2026-05-03T09:14:02.998Z</time></trkpt><trkpt lat="44.869134435666545" lon="9.046564538016566"><ele>397.0</ele><time>2026-05-03T09:14:03.998Z</time></trkpt><trkpt lat="44.86916169324056" lon="9.046730828797534"><ele>397.0</ele><time>2026-05-03T09:14:04.998Z</time></trkpt><trkpt lat="44.86921014867797" lon="9.04689498588097"><ele>396.0</ele><time>2026-05-03T09:14:05.998Z</time></trkpt><trkpt lat="44.86925894421007" lon="9.047046518152387"><ele>395.0</ele><time>2026-05-03T09:14:06.998Z</time></trkpt><trkpt lat="44.869294301350536" lon="9.047203995252115"><ele>394.0</ele><time>2026-05-03T09:14:07.998Z</time></trkpt><trkpt lat="44.86931889685007" lon="9.04735576889597"><ele>393.0</ele><time>2026-05-03T09:14:08.998Z</time></trkpt><trkpt lat="44.86935519300091" lon="9.047475286780617"><ele>392.0</ele><time>2026-05-03T09:14:09.998Z</time></trkpt><trkpt lat="44.86941484377281" lon="9.047594933891448"><ele>388.25</ele><time>2026-05-03T09:14:10.998Z</time></trkpt><trkpt lat="44.86949881216495" lon="9.047711001206459"><ele>384.5</ele><time>2026-05-03T09:14:11.998Z</time></trkpt><trkpt lat="44.86958605676413" lon="9.047843522320417"><ele>380.75</ele><time>2026-05-03T09:14:12.998Z</time></trkpt><trkpt lat="44.86966695051666" lon="9.047976724403417"><ele>377.0</ele><time>2026-05-03T09:14:13.997Z</time></trkpt><trkpt lat="44.86972817036385" lon="9.048107085961993"><ele>377.0</ele><time>2026-05-03T09:14:14.997Z</time></trkpt><trkpt lat="44.869782347597905" lon="9.048233387047846"><ele>377.0</ele><time>2026-05-03T09:14:15.997Z</time></trkpt><trkpt lat="44.86982635534304" lon="9.048320519034789"><ele>377.0</ele><time>2026-05-03T09:14:16.997Z</time></trkpt><trkpt lat="44.869878159527055" lon="9.048390660380447"><ele>377.0</ele><time>2026-05-03T09:14:17.997Z</time></trkpt><trkpt lat="44.8699304041105" lon="9.048452899554968"><ele>377.0</ele><time>2026-05-03T09:14:18.997Z</time></trkpt><trkpt lat="44.86999076189258" lon="9.048549551511828"><ele>377.0</ele><time>2026-05-03T09:14:20.997Z</time></trkpt><trkpt lat="44.870047442553776" lon="9.048652602512309"><ele>377.0</ele><time>2026-05-03T09:16:17.998Z</time></trkpt><trkpt lat="44.87008266857007" lon="9.048750868667097"><ele>377.0</ele><time>2026-05-03T09:16:18.998Z</time></trkpt><trkpt lat="44.87013090339184" lon="9.048872450377756"><ele>377.0</ele><time>2026-05-03T09:16:19.998Z</time></trkpt><trkpt lat="44.87017726905209" lon="9.04900767454394"><ele>377.0</ele><time>2026-05-03T09:16:20.998Z</time></trkpt><trkpt lat="44.8702196846774" lon="9.049107768016484"><ele>377.0</ele><time>2026-05-03T09:16:21.997Z</time></trkpt><trkpt lat="44.87028364798302" lon="9.049185378225536"><ele>374.83333333333337</ele><time>2026-05-03T09:16:22.997Z</time></trkpt><trkpt lat="44.87036191777386" lon="9.049228720809396"><ele>372.6666666666667</ele><time>2026-05-03T09:16:23.997Z</time></trkpt><trkpt lat="44.87043706815839" lon="9.049253751776634"><ele>370.5</ele><time>2026-05-03T09:16:24.997Z</time></trkpt><trkpt lat="44.87051030182682" lon="9.049294223716315"><ele>368.3333333333333</ele><time>2026-05-03T09:16:25.997Z</time></trkpt><trkpt lat="44.870574025096644" lon="9.049431969094373"><ele>366.16666666666663</ele><time>2026-05-03T09:16:27.997Z</time></trkpt><trkpt lat="44.870557599669006" lon="9.049546362836164"><ele>364.0</ele><time>2026-05-03T09:16:28.997Z</time></trkpt><trkpt lat="44.870516297233934" lon="9.049664349577183"><ele>364.0</ele><time>2026-05-03T09:16:29.997Z</time></trkpt><trkpt lat="44.87046988681587" lon="9.049817067946613"><ele>364.0</ele><time>2026-05-03T09:16:30.997Z</time></trkpt><trkpt lat="44.87043575133278" lon="9.049991485032168"><ele>364.0</ele><time>2026-05-03T09:16:31.997Z</time></trkpt><trkpt lat="44.87040675835078" lon="9.050147253446758"><ele>364.0</ele><time>2026-05-03T09:16:32.997Z</time></trkpt><trkpt lat="44.870371195346415" lon="9.050292119228107"><ele>362.79999999999995</ele><time>2026-05-03T09:16:33.997Z</time></trkpt><trkpt lat="44.870358528326534" lon="9.050410316982406"><ele>361.59999999999997</ele><time>2026-05-03T09:16:34.997Z</time></trkpt><trkpt lat="44.870376172125795" lon="9.050538044531226"><ele>360.4</ele><time>2026-05-03T09:16:35.997Z</time></trkpt><trkpt lat="44.87041161180776" lon="9.050664777639458"><ele>359.2</ele><time>2026-05-03T09:16:36.997Z</time></trkpt><trkpt lat="44.870451670620454" lon="9.050814871803473"><ele>358.0</ele><time>2026-05-03T09:16:37.997Z</time></trkpt><trkpt lat="44.87049737024918" lon="9.05098853502926"><ele>355.75</ele><time>2026-05-03T09:16:38.997Z</time></trkpt><trkpt lat="44.87055807857019" lon="9.051157621477667"><ele>353.5</ele><time>2026-05-03T09:16:39.997Z</time></trkpt><trkpt lat="44.87061517966844" lon="9.051310169888705"><ele>351.25</ele><time>2026-05-03T09:16:40.997Z</time></trkpt><trkpt lat="44.870666019665975" lon="9.051476201999156"><ele>349.0</ele><time>2026-05-03T09:16:41.997Z</time></trkpt><trkpt lat="44.87069718480678" lon="9.051633266507531"><ele>347.5</ele><time>2026-05-03T09:16:42.997Z</time></trkpt><trkpt lat="44.87071552335757" lon="9.05179667493073"><ele>346.0</ele><time>2026-05-03T09:16:43.997Z</time></trkpt><trkpt lat="44.87072215671631" lon="9.051962554628274"><ele>344.5</ele><time>2026-05-03T09:16:44.997Z</time></trkpt><trkpt lat="44.870715664052234" lon="9.052121105470986"><ele>343.0</ele><time>2026-05-03T09:16:45.997Z</time></trkpt><trkpt lat="44.87070484879006" lon="9.052314959825967"><ele>343.0</ele><time>2026-05-03T09:16:46.997Z</time></trkpt><trkpt lat="44.87069249235354" lon="9.052422761487433"><ele>343.0</ele><time>2026-05-03T09:16:47.997Z</time></trkpt><trkpt lat="44.870692993909636" lon="9.052582241087054"><ele>343.0</ele><time>2026-05-03T09:16:48.997Z</time></trkpt><trkpt lat="44.870693809719036" lon="9.052728453455993"><ele>343.0</ele><time>2026-05-03T09:16:49.997Z</time></trkpt><trkpt lat="44.87069012490189" lon="9.052874730640305"><ele>343.0</ele><time>2026-05-03T09:16:50.997Z</time></trkpt><trkpt lat="44.8706978426613" lon="9.052977627437123"><ele>341.4</ele><time>2026-05-03T09:16:52.997Z</time></trkpt><trkpt lat="44.87076017414641" lon="9.052940675001963"><ele>339.79999999999995</ele><time>2026-05-03T09:16:55.996Z</time></trkpt><trkpt lat="44.87080906712501" lon="9.052874411216168"><ele>338.2</ele><time>2026-05-03T09:16:56.996Z</time></trkpt><trkpt lat="44.87088320075202" lon="9.05278532136963"><ele>336.6</ele><time>2026-05-03T09:16:57.996Z</time></trkpt><trkpt lat="44.87097954304808" lon="9.052680206606256"><ele>335.0</ele><time>2026-05-03T09:16:58.996Z</time></trkpt><trkpt lat="44.871079581611326" lon="9.052563072414664"><ele>334.0</ele><time>2026-05-03T09:16:59.996Z</time></trkpt><trkpt lat="44.871173016018666" lon="9.052455934236267"><ele>333.0</ele><time>2026-05-03T09:17:00.996Z</time></trkpt><trkpt lat="44.87125913807042" lon="9.052364610329136"><ele>332.0</ele><time>2026-05-03T09:17:01.996Z</time></trkpt><trkpt lat="44.87134823256516" lon="9.052265794503445"><ele>331.0</ele><time>2026-05-03T09:17:02.996Z</time></trkpt><trkpt lat="44.871420535922695" lon="9.052172440503849"><ele>330.0</ele><time>2026-05-03T09:17:03.996Z</time></trkpt><trkpt lat="44.871504230248355" lon="9.052053091388139"><ele>330.0</ele><time>2026-05-03T09:17:05Z</time></trkpt><trkpt lat="44.871569154129595" lon="9.051946172551645"><ele>330.0</ele><time>2026-05-03T09:17:06Z</time></trkpt><trkpt lat="44.8716101519223" lon="9.05187723800153"><ele>330.0</ele><time>2026-05-03T09:17:07Z</time></trkpt><trkpt lat="44.871721513083266" lon="9.051842733377816"><ele>330.0</ele><time>2026-05-03T09:17:09Z</time></trkpt><trkpt lat="44.87179977440562" lon="9.051898714129832"><ele>330.0</ele><time>2026-05-03T09:17:10Z</time></trkpt><trkpt lat="44.871889189598484" lon="9.051955888849637"><ele>327.0</ele><time>2026-05-03T09:17:11Z</time></trkpt><trkpt lat="44.871974331962384" lon="9.052015988332615"><ele>324.0</ele><time>2026-05-03T09:17:12Z</time></trkpt><trkpt lat="44.872054087589206" lon="9.05206772784228"><ele>321.0</ele><time>2026-05-03T09:17:13Z</time></trkpt><trkpt lat="44.872116657714095" lon="9.052123492075124"><ele>318.0</ele><time>2026-05-03T09:17:14Z</time></trkpt><trkpt lat="44.87215150755008" lon="9.052204627599965"><ele>315.0</ele><time>2026-05-03T09:17:15Z</time></trkpt><trkpt lat="44.872169688274056" lon="9.05230531011294"><ele>312.0</ele><time>2026-05-03T09:17:16Z</time></trkpt><trkpt lat="44.872163893193395" lon="9.052437897472482"><ele>309.0</ele><time>2026-05-03T09:17:17Z</time></trkpt><trkpt lat="44.87214532525834" lon="9.05256380168362"><ele>306.0</ele><time>2026-05-03T09:17:18Z</time></trkpt><trkpt lat="44.87215996486872" lon="9.05269837955045"><ele>303.0</ele><time>2026-05-03T09:17:19Z</time></trkpt><trkpt lat="44.87216872694231" lon="9.052832497044003"><ele>300.0</ele><time>2026-05-03T09:17:20Z</time></trkpt><trkpt lat="44.87219245636866" lon="9.052929396212335"><ele>297.0</ele><time>2026-05-03T09:17:21Z</time></trkpt><trkpt lat="44.872224614305935" lon="9.053091028802179"><ele>297.0</ele><time>2026-05-03T09:17:22.999Z</time></trkpt><trkpt lat="44.872251306940896" lon="9.053219308443738"><ele>297.0</ele><time>2026-05-03T09:17:23.999Z</time></trkpt><trkpt lat="44.87226390031885" lon="9.053336067074738"><ele>297.0</ele><time>2026-05-03T09:17:24.999Z</time></trkpt><trkpt lat="44.87229926337739" lon="9.053415924061511"><ele>297.0</ele><time>2026-05-03T09:17:25.999Z</time></trkpt><trkpt lat="44.87231973038136" lon="9.053515384792059"><ele>297.0</ele><time>2026-05-03T09:17:26.999Z</time></trkpt><trkpt lat="44.872326090441575" lon="9.053621360038669"><ele>297.0</ele><time>2026-05-03T09:17:27.999Z</time></trkpt><trkpt lat="44.872335278033574" lon="9.05370988575946"><ele>296.0</ele><time>2026-05-03T09:17:28.999Z</time></trkpt><trkpt lat="44.87235796819262" lon="9.053829488213657"><ele>295.0</ele><time>2026-05-03T09:17:30.999Z</time></trkpt><trkpt lat="44.87245893809058" lon="9.053879048873862"><ele>294.0</ele><time>2026-05-03T09:17:32.999Z</time></trkpt><trkpt lat="44.872542717228875" lon="9.053874780086256"><ele>293.0</ele><time>2026-05-03T09:17:33.999Z</time></trkpt><trkpt lat="44.87262764125727" lon="9.053901098074286"><ele>292.0</ele><time>2026-05-03T09:17:34.999Z</time></trkpt><trkpt lat="44.87269726514114" lon="9.053972380152493"><ele>289.0</ele><time>2026-05-03T09:17:35.999Z</time></trkpt><trkpt lat="44.8727397665514" lon="9.054057522628424"><ele>286.0</ele><time>2026-05-03T09:17:36.999Z</time></trkpt><trkpt lat="44.872767817476166" lon="9.054148016255915"><ele>283.0</ele><time>2026-05-03T09:17:37.999Z</time></trkpt><trkpt lat="44.87278745576974" lon="9.054237792165672"><ele>280.0</ele><time>2026-05-03T09:17:38.999Z</time></trkpt><trkpt lat="44.87281113372017" lon="9.05439002801164"><ele>277.0</ele><time>2026-05-03T09:17:40.999Z</time></trkpt><trkpt lat="44.8728177321144" lon="9.054487235333914"><ele>274.0</ele><time>2026-05-03T09:17:42.999Z</time></trkpt><trkpt lat="44.872727422314036" lon="9.054596783714615"><ele>273.59999999999997</ele><time>2026-05-03T09:17:44.999Z</time></trkpt><trkpt lat="44.87265875937263" lon="9.054658479927408"><ele>273.2</ele><time>2026-05-03T09:17:45.999Z</time></trkpt><trkpt lat="44.872587135082654" lon="9.054759356053815"><ele>272.79999999999995</ele><time>2026-05-03T09:17:46.999Z</time></trkpt><trkpt lat="44.872530268567125" lon="9.054848859435408"><ele>272.4</ele><time>2026-05-03T09:17:47.999Z</time></trkpt><trkpt lat="44.872437349597924" lon="9.054912535357378"><ele>272.0</ele><time>2026-05-03T09:17:48.999Z</time></trkpt><trkpt lat="44.87236033818306" lon="9.054990574770372"><ele>272.0</ele><time>2026-05-03T09:17:49.999Z</time></trkpt><trkpt lat="44.87232109796661" lon="9.055089535351032"><ele>272.0</ele><time>2026-05-03T09:17:51.999Z</time></trkpt><trkpt lat="44.87234932953145" lon="9.055177814536783"><ele>272.0</ele><time>2026-05-03T09:17:52.999Z</time></trkpt><trkpt lat="44.872395557793745" lon="9.055265470229784"><ele>272.0</ele><time>2026-05-03T09:17:53.999Z</time></trkpt><trkpt lat="44.87242835983274" lon="9.055356985050503"><ele>272.0</ele><time>2026-05-03T09:17:54.999Z</time></trkpt><trkpt lat="44.87247028154053" lon="9.055452750201022"><ele>272.0</ele><time>2026-05-03T09:17:55.999Z</time></trkpt><trkpt lat="44.87253304678592" lon="9.055581972855508"><ele>272.0</ele><time>2026-05-03T09:17:56.998Z</time></trkpt><trkpt lat="44.87259968479281" lon="9.055740079057163"><ele>272.0</ele><time>2026-05-03T09:17:57.998Z</time></trkpt><trkpt lat="44.87268318654341" lon="9.05588812257927"><ele>272.0</ele><time>2026-05-03T09:17:58.998Z</time></trkpt><trkpt lat="44.87276500404696" lon="9.056021979366106"><ele>272.0</ele><time>2026-05-03T09:17:59.998Z</time></trkpt><trkpt lat="44.87283391055324" lon="9.056133022892556"><ele>268.2</ele><time>2026-05-03T09:18:00.998Z</time></trkpt><trkpt lat="44.872894506159014" lon="9.056241547156544"><ele>264.4</ele><time>2026-05-03T09:18:01.998Z</time></trkpt><trkpt lat="44.8729287949631" lon="9.056341651237823"><ele>260.6</ele><time>2026-05-03T09:18:02.998Z</time></trkpt><trkpt lat="44.87294421431359" lon="9.05644884201746"><ele>256.8</ele><time>2026-05-03T09:18:03.998Z</time></trkpt><trkpt lat="44.87293495902725" lon="9.056573738675613"><ele>253.0</ele><time>2026-05-03T09:18:04.998Z</time></trkpt><trkpt lat="44.87291436848638" lon="9.056723557767905"><ele>251.8</ele><time>2026-05-03T09:18:05.998Z</time></trkpt><trkpt lat="44.87288810569201" lon="9.056879299969614"><ele>250.60000000000002</ele><time>2026-05-03T09:18:06.998Z</time></trkpt><trkpt lat="44.87286506831117" lon="9.057024259035785"><ele>249.39999999999998</ele><time>2026-05-03T09:18:07.998Z</time></trkpt><trkpt lat="44.872840683677644" lon="9.057147592405428"><ele>248.2</ele><time>2026-05-03T09:18:08.998Z</time></trkpt><trkpt lat="44.87280781596231" lon="9.057264187855687"><ele>247.0</ele><time>2026-05-03T09:18:09.998Z</time></trkpt><trkpt lat="44.87276635633623" lon="9.057365760763554"><ele>246.99999999999997</ele><time>2026-05-03T09:18:10.998Z</time></trkpt><trkpt lat="44.8727233004886" lon="9.057450006350757"><ele>247.0</ele><time>2026-05-03T09:18:11.998Z</time></trkpt><trkpt lat="44.872716281718326" lon="9.0576080909154"><ele>247.0</ele><time>2026-05-03T09:18:13.998Z</time></trkpt><trkpt lat="44.87277965846531" lon="9.057683815921113"><ele>247.0</ele><time>2026-05-03T09:18:14.998Z</time></trkpt><trkpt lat="44.87285588312338" lon="9.057753384672585"><ele>246.99999999999997</ele><time>2026-05-03T09:18:15.998Z</time></trkpt><trkpt lat="44.872919774599055" lon="9.057804932545116"><ele>247.0</ele><time>2026-05-03T09:18:16.998Z</time></trkpt><trkpt lat="44.87297780566818" lon="9.057854021071567"><ele>245.83333333333331</ele><time>2026-05-03T09:18:17.998Z</time></trkpt><trkpt lat="44.873056779689904" lon="9.057927170120143"><ele>244.66666666666666</ele><time>2026-05-03T09:18:19.998Z</time></trkpt><trkpt lat="44.873121135574905" lon="9.057911023450087"><ele>243.5</ele><time>2026-05-03T09:18:23.998Z</time></trkpt><trkpt lat="44.87318247409976" lon="9.0578808707066"><ele>242.33333333333331</ele><time>2026-05-03T09:18:24.998Z</time></trkpt><trkpt lat="44.873263533327794" lon="9.057807277967365"><ele>241.16666666666666</ele><time>2026-05-03T09:18:25.998Z</time></trkpt><trkpt lat="44.87337073984272" lon="9.05771752509123"><ele>240.0</ele><time>2026-05-03T09:18:26.998Z</time></trkpt><trkpt lat="44.87348147550719" lon="9.057624185051083"><ele>239.66666666666669</ele><time>2026-05-03T09:18:27.998Z</time></trkpt><trkpt lat="44.87362011227627" lon="9.057510777837873"><ele>239.33333333333334</ele><time>2026-05-03T09:18:28.998Z</time></trkpt><trkpt lat="44.87375646768096" lon="9.05740350832601"><ele>239.0</ele><time>2026-05-03T09:18:29.997Z</time></trkpt><trkpt lat="44.87391012774813" lon="9.057277038588072"><ele>239.0</ele><time>2026-05-03T09:18:30.997Z</time></trkpt><trkpt lat="44.87406274204406" lon="9.057150787496052"><ele>239.0</ele><time>2026-05-03T09:18:31.997Z</time></trkpt><trkpt lat="44.874210158728886" lon="9.057021894563102"><ele>239.0</ele><time>2026-05-03T09:18:32.997Z</time></trkpt><trkpt lat="44.87435066668397" lon="9.056896014473748"><ele>238.66666666666669</ele><time>2026-05-03T09:18:33.997Z</time></trkpt><trkpt lat="44.87448670940631" lon="9.05677885983171"><ele>238.33333333333331</ele><time>2026-05-03T09:18:34.997Z</time></trkpt><trkpt lat="44.87461647580223" lon="9.056672564024739"><ele>238.0</ele><time>2026-05-03T09:18:35.997Z</time></trkpt><trkpt lat="44.874749429040904" lon="9.05656493872494"><ele>238.0</ele><time>2026-05-03T09:18:36.997Z</time></trkpt><trkpt lat="44.87488346310296" lon="9.05645142290948"><ele>238.0</ele><time>2026-05-03T09:18:37.997Z</time></trkpt><trkpt lat="44.875027817086384" lon="9.056320925371322"><ele>238.0</ele><time>2026-05-03T09:18:38.997Z</time></trkpt><trkpt lat="44.87515904109334" lon="9.056199562243332"><ele>237.0</ele><time>2026-05-03T09:18:39.997Z</time></trkpt><trkpt lat="44.87530891921322" lon="9.056076170563413"><ele>236.0</ele><time>2026-05-03T09:18:40.997Z</time></trkpt><trkpt lat="44.87546553622388" lon="9.05595312992314"><ele>235.0</ele><time>2026-05-03T09:18:41.997Z</time></trkpt><trkpt lat="44.875615825809554" lon="9.055837179956248"><ele>234.25</ele><time>2026-05-03T09:18:42.997Z</time></trkpt><trkpt lat="44.87574433004014" lon="9.055732376701584"><ele>233.5</ele><time>2026-05-03T09:18:43.997Z</time></trkpt><trkpt lat="44.87588117638097" lon="9.055639028191035"><ele>232.75</ele><time>2026-05-03T09:18:44.997Z</time></trkpt><trkpt lat="44.87599311146063" lon="9.055551444360338"><ele>232.0</ele><time>2026-05-03T09:18:45.997Z</time></trkpt><trkpt lat="44.876104800020336" lon="9.055462870959413"><ele>232.0</ele><time>2026-05-03T09:18:46.997Z</time></trkpt><trkpt lat="44.87619348466901" lon="9.055369156225787"><ele>232.0</ele><time>2026-05-03T09:18:47.997Z</time></trkpt><trkpt lat="44.87629188641334" lon="9.05529604533577"><ele>232.0</ele><time>2026-05-03T09:18:48.997Z</time></trkpt><trkpt lat="44.87639496692443" lon="9.055291627424294"><ele>232.0</ele><time>2026-05-03T09:18:49.997Z</time></trkpt><trkpt lat="44.87650946959198" lon="9.055355653714601"><ele>232.0</ele><time>2026-05-03T09:18:50.997Z</time></trkpt><trkpt lat="44.876639599682136" lon="9.055459618662747"><ele>231.33333333333331</ele><time>2026-05-03T09:18:51.997Z</time></trkpt><trkpt lat="44.876769583203604" lon="9.055554924331876"><ele>230.66666666666669</ele><time>2026-05-03T09:18:52.997Z</time></trkpt><trkpt lat="44.87692864077927" lon="9.055650213866704"><ele>230.0</ele><time>2026-05-03T09:18:53.997Z</time></trkpt><trkpt lat="44.87706451175148" lon="9.055720643184213"><ele>229.0</ele><time>2026-05-03T09:18:54.997Z</time></trkpt><trkpt lat="44.87721572861337" lon="9.055797310095446"><ele>228.0</ele><time>2026-05-03T09:18:55.997Z</time></trkpt><trkpt lat="44.87734919693556" lon="9.055852518645905"><ele>227.0</ele><time>2026-05-03T09:18:56.997Z</time></trkpt><trkpt lat="44.877489858597194" lon="9.055895202346482"><ele>226.0</ele><time>2026-05-03T09:18:57.997Z</time></trkpt><trkpt lat="44.877629789364086" lon="9.055930873185021"><ele>225.5</ele><time>2026-05-03T09:18:58.997Z</time></trkpt><trkpt lat="44.87776144775399" lon="9.055929027723593"><ele>225.0</ele><time>2026-05-03T09:18:59.997Z</time></trkpt><trkpt lat="44.877889303705786" lon="9.055891115304199"><ele>224.5</ele><time>2026-05-03T09:19:00.997Z</time></trkpt><trkpt lat="44.87801966762776" lon="9.055819503376867"><ele>224.0</ele><time>2026-05-03T09:19:01.996Z</time></trkpt><trkpt lat="44.878154582486026" lon="9.055718308987874"><ele>224.0</ele><time>2026-05-03T09:19:02.996Z</time></trkpt><trkpt lat="44.87828992617355" lon="9.055628699671212"><ele>224.0</ele><time>2026-05-03T09:19:03.996Z</time></trkpt><trkpt lat="44.87843345829521" lon="9.055562324907324"><ele>224.0</ele><time>2026-05-03T09:19:04.996Z</time></trkpt><trkpt lat="44.87856239763121" lon="9.055506255773887"><ele>224.0</ele><time>2026-05-03T09:19:05.996Z</time></trkpt><trkpt lat="44.87868481186972" lon="9.055431422700636"><ele>223.39999999999998</ele><time>2026-05-03T09:19:06.996Z</time></trkpt><trkpt lat="44.87878270387586" lon="9.05537022239066"><ele>222.79999999999998</ele><time>2026-05-03T09:19:07.996Z</time></trkpt><trkpt lat="44.878861630142815" lon="9.055367510047356"><ele>222.20000000000002</ele><time>2026-05-03T09:19:08.996Z</time></trkpt><trkpt lat="44.87893655302478" lon="9.055438266512141"><ele>221.60000000000002</ele><time>2026-05-03T09:19:09.996Z</time></trkpt><trkpt lat="44.87900464472969" lon="9.055566489584558"><ele>221.0</ele><time>2026-05-03T09:19:11Z</time></trkpt><trkpt lat="44.87906070973086" lon="9.05571973082643"><ele>221.20000000000002</ele><time>2026-05-03T09:19:12Z</time></trkpt><trkpt lat="44.87911982152391" lon="9.055871921573482"><ele>221.40000000000003</ele><time>2026-05-03T09:19:13Z</time></trkpt><trkpt lat="44.87917758870385" lon="9.055990457806265"><ele>221.6</ele><time>2026-05-03T09:19:14Z</time></trkpt><trkpt lat="44.879251374710044" lon="9.0560684935219"><ele>221.8</ele><time>2026-05-03T09:19:15Z</time></trkpt><trkpt lat="44.87934258521029" lon="9.056081841150856"><ele>222.0</ele><time>2026-05-03T09:19:16Z</time></trkpt><trkpt lat="44.87943407182093" lon="9.056051607068312"><ele>222.0</ele><time>2026-05-03T09:19:17Z</time></trkpt><trkpt lat="44.879537811040514" lon="9.055961459981996"><ele>222.0</ele><time>2026-05-03T09:19:18Z</time></trkpt><trkpt lat="44.87964427247219" lon="9.055861952505238"><ele>222.0</ele><time>2026-05-03T09:19:19Z</time></trkpt><trkpt lat="44.879765995164284" lon="9.055743316307176"><ele>222.0</ele><time>2026-05-03T09:19:20Z</time></trkpt><trkpt lat="44.87990735870959" lon="9.055617406359621"><ele>222.33333333333331</ele><time>2026-05-03T09:19:21Z</time></trkpt><trkpt lat="44.88004742876996" lon="9.0554934505263"><ele>222.66666666666666</ele><time>2026-05-03T09:19:22Z</time></trkpt><trkpt lat="44.88019977809845" lon="9.055353453059672"><ele>223.0</ele><time>2026-05-03T09:19:23Z</time></trkpt><trkpt lat="44.880347228162385" lon="9.055214560634495"><ele>223.0</ele><time>2026-05-03T09:19:24Z</time></trkpt><trkpt lat="44.88047151931881" lon="9.05509679499178"><ele>223.0</ele><time>2026-05-03T09:19:25Z</time></trkpt><trkpt lat="44.88057392787565" lon="9.05499409074803"><ele>223.0</ele><time>2026-05-03T09:19:26Z</time></trkpt><trkpt lat="44.88067846498623" lon="9.054918040912652"><ele>223.0</ele><time>2026-05-03T09:19:27Z</time></trkpt><trkpt lat="44.88077305256619" lon="9.054887708081173"><ele>223.0</ele><time>2026-05-03T09:19:28Z</time></trkpt><trkpt lat="44.88086535473255" lon="9.054969238085167"><ele>223.0</ele><time>2026-05-03T09:19:30Z</time></trkpt><trkpt lat="44.880961354303054" lon="9.055129945200065"><ele>223.0</ele><time>2026-05-03T09:19:30.999Z</time></trkpt><trkpt lat="44.88104675628925" lon="9.05523547244356"><ele>223.0</ele><time>2026-05-03T09:19:31.999Z</time></trkpt><trkpt lat="44.88116606895795" lon="9.05528116520575"><ele>222.5</ele><time>2026-05-03T09:19:32.999Z</time></trkpt><trkpt lat="44.88130071217207" lon="9.055290979459114"><ele>222.0</ele><time>2026-05-03T09:19:33.999Z</time></trkpt><trkpt lat="44.88144102153013" lon="9.055325492399712"><ele>221.5</ele><time>2026-05-03T09:19:34.999Z</time></trkpt><trkpt lat="44.88155908726817" lon="9.05537640376248"><ele>221.0</ele><time>2026-05-03T09:19:35.999Z</time></trkpt><trkpt lat="44.88166136538531" lon="9.055419762844426"><ele>221.0</ele><time>2026-05-03T09:19:36.999Z</time></trkpt><trkpt lat="44.88175749798562" lon="9.05540613811588"><ele>221.00000000000003</ele><time>2026-05-03T09:19:37.999Z</time></trkpt><trkpt lat="44.88184134264864" lon="9.055338058214572"><ele>221.00000000000003</ele><time>2026-05-03T09:19:38.999Z</time></trkpt><trkpt lat="44.88190550694694" lon="9.055220182340888"><ele>221.0</ele><time>2026-05-03T09:19:39.999Z</time></trkpt><trkpt lat="44.881949389809826" lon="9.05507050629103"><ele>221.0</ele><time>2026-05-03T09:19:40.999Z</time></trkpt><trkpt lat="44.88198853389068" lon="9.054903648731932"><ele>220.8</ele><time>2026-05-03T09:19:41.999Z</time></trkpt><trkpt lat="44.88203866803302" lon="9.054762310377264"><ele>220.60000000000002</ele><time>2026-05-03T09:19:42.999Z</time></trkpt><trkpt lat="44.88211988627007" lon="9.05464751473492"><ele>220.4</ele><time>2026-05-03T09:19:43.999Z</time></trkpt><trkpt lat="44.88221788405197" lon="9.054587667745116"><ele>220.2</ele><time>2026-05-03T09:19:44.999Z</time></trkpt><trkpt lat="44.88231379210124" lon="9.054579926751002"><ele>220.0</ele><time>2026-05-03T09:19:45.999Z</time></trkpt><trkpt lat="44.88242708222164" lon="9.054591804103085"><ele>220.0</ele><time>2026-05-03T09:19:46.999Z</time></trkpt><trkpt lat="44.88254688891587" lon="9.054593115468647"><ele>220.0</ele><time>2026-05-03T09:19:47.999Z</time></trkpt><trkpt lat="44.88267846943417" lon="9.054574792986346"><ele>220.0</ele><time>2026-05-03T09:19:48.999Z</time></trkpt><trkpt lat="44.882811031196134" lon="9.054551455489372"><ele>220.0</ele><time>2026-05-03T09:19:49.999Z</time></trkpt><trkpt lat="44.88293457608691" lon="9.054528087444366"><ele>218.5</ele><time>2026-05-03T09:19:50.999Z</time></trkpt><trkpt lat="44.883056460920386" lon="9.054488928455148"><ele>217.0</ele><time>2026-05-03T09:19:51.999Z</time></trkpt><trkpt lat="44.883177577534546" lon="9.05441118400749"><ele>215.5</ele><time>2026-05-03T09:19:52.999Z</time></trkpt><trkpt lat="44.883304822482984" lon="9.054297337725368"><ele>214.0</ele><time>2026-05-03T09:19:53.999Z</time></trkpt><trkpt lat="44.883436283441895" lon="9.054150258056401"><ele>216.66666666666666</ele><time>2026-05-03T09:19:54.999Z</time></trkpt><trkpt lat="44.88358224073955" lon="9.053979413738478"><ele>219.33333333333331</ele><time>2026-05-03T09:19:55.999Z</time></trkpt><trkpt lat="44.88372499508811" lon="9.053806075910371"><ele>222.0</ele><time>2026-05-03T09:19:56.999Z</time></trkpt><trkpt lat="44.883852718954465" lon="9.05365029384573"><ele>222.0</ele><time>2026-05-03T09:19:57.999Z</time></trkpt><trkpt lat="44.88399899912338" lon="9.053483483473116"><ele>222.0</ele><time>2026-05-03T09:19:58.999Z</time></trkpt><trkpt lat="44.88412900699123" lon="9.05333832508392"><ele>222.0</ele><time>2026-05-03T09:19:59.999Z</time></trkpt><trkpt lat="44.88426546838134" lon="9.053209845179747"><ele>221.33333333333331</ele><time>2026-05-03T09:20:00.998Z</time></trkpt><trkpt lat="44.88441461943401" lon="9.053072203470567"><ele>220.66666666666666</ele><time>2026-05-03T09:20:01.998Z</time></trkpt><trkpt lat="44.88454086551101" lon="9.052933109685847"><ele>220.0</ele><time>2026-05-03T09:20:02.998Z</time></trkpt><trkpt lat="44.88464790872636" lon="9.052814092500244"><ele>220.0</ele><time>2026-05-03T09:20:03.998Z</time></trkpt><trkpt lat="44.884774396039504" lon="9.052693952428333"><ele>220.0</ele><time>2026-05-03T09:20:04.998Z</time></trkpt><trkpt lat="44.88490120869839" lon="9.05260822025844"><ele>220.0</ele><time>2026-05-03T09:20:05.998Z</time></trkpt><trkpt lat="44.885040856868024" lon="9.05254614686751"><ele>220.0</ele><time>2026-05-03T09:20:06.998Z</time></trkpt><trkpt lat="44.885203569736646" lon="9.052506797916532"><ele>221.66666666666666</ele><time>2026-05-03T09:20:07.998Z</time></trkpt><trkpt lat="44.88536749720897" lon="9.052476002886062"><ele>223.33333333333331</ele><time>2026-05-03T09:20:08.998Z</time></trkpt><trkpt lat="44.88552746908565" lon="9.052440637994437"><ele>225.0</ele><time>2026-05-03T09:20:09.998Z</time></trkpt><trkpt lat="44.88570037236172" lon="9.05238108682121"><ele>225.0</ele><time>2026-05-03T09:20:10.998Z</time></trkpt><trkpt lat="44.88585174074365" lon="9.052316967389837"><ele>225.0</ele><time>2026-05-03T09:20:11.998Z</time></trkpt><trkpt lat="44.8859941218796" lon="9.052257788871291"><ele>225.0</ele><time>2026-05-03T09:20:12.998Z</time></trkpt><trkpt lat="44.88616040921265" lon="9.052202999248383"><ele>223.25</ele><time>2026-05-03T09:20:13.998Z</time></trkpt><trkpt lat="44.886300512799195" lon="9.052177296497199"><ele>221.5</ele><time>2026-05-03T09:20:14.998Z</time></trkpt><trkpt lat="44.886447561867215" lon="9.052159773714028"><ele>219.75</ele><time>2026-05-03T09:20:15.998Z</time></trkpt><trkpt lat="44.88658581775761" lon="9.05216642177365"><ele>218.0</ele><time>2026-05-03T09:20:16.998Z</time></trkpt><trkpt lat="44.8867316074046" lon="9.052207131957438"><ele>216.0</ele><time>2026-05-03T09:20:17.998Z</time></trkpt><trkpt lat="44.88687375496578" lon="9.052268062211676"><ele>214.0</ele><time>2026-05-03T09:20:18.998Z</time></trkpt><trkpt lat="44.887017090113844" lon="9.052356104030796"><ele>212.0</ele><time>2026-05-03T09:20:19.998Z</time></trkpt><trkpt lat="44.88714908111253" lon="9.05243276311906"><ele>210.0</ele><time>2026-05-03T09:20:20.998Z</time></trkpt><trkpt lat="44.88726463357623" lon="9.052499526342054"><ele>209.25</ele><time>2026-05-03T09:20:21.998Z</time></trkpt><trkpt lat="44.88738050755449" lon="9.052578561370566"><ele>208.5</ele><time>2026-05-03T09:20:22.998Z</time></trkpt><trkpt lat="44.8874854958688" lon="9.052648850229701"><ele>207.75</ele><time>2026-05-03T09:20:23.998Z</time></trkpt><trkpt lat="44.887587421701284" lon="9.052700657466998"><ele>207.0</ele><time>2026-05-03T09:20:24.998Z</time></trkpt><trkpt lat="44.88769002968595" lon="9.052716719068867"><ele>207.0</ele><time>2026-05-03T09:20:25.998Z</time></trkpt><trkpt lat="44.88779964030073" lon="9.05268245086655"><ele>207.0</ele><time>2026-05-03T09:20:26.998Z</time></trkpt><trkpt lat="44.887928483484146" lon="9.05259878717488"><ele>207.0</ele><time>2026-05-03T09:20:27.998Z</time></trkpt><trkpt lat="44.88805555703099" lon="9.052546184453398"><ele>207.0</ele><time>2026-05-03T09:20:28.998Z</time></trkpt><trkpt lat="44.888191176387274" lon="9.052539144359775"><ele>207.0</ele><time>2026-05-03T09:20:29.998Z</time></trkpt><trkpt lat="44.888321509038214" lon="9.052586234009244"><ele>207.0</ele><time>2026-05-03T09:20:30.998Z</time></trkpt><trkpt lat="44.88845693586009" lon="9.052664398500145"><ele>207.0</ele><time>2026-05-03T09:20:31.998Z</time></trkpt><trkpt lat="44.888589757503205" lon="9.052764887032556"><ele>207.0</ele><time>2026-05-03T09:20:32.997Z</time></trkpt><trkpt lat="44.88871886914627" lon="9.052897409317533"><ele>207.25</ele><time>2026-05-03T09:20:33.997Z</time></trkpt><trkpt lat="44.88883575114915" lon="9.053014567854877"><ele>207.5</ele><time>2026-05-03T09:20:34.997Z</time></trkpt><trkpt lat="44.888941743866965" lon="9.053122834139039"><ele>207.75</ele><time>2026-05-03T09:20:35.997Z</time></trkpt><trkpt lat="44.889054570320745" lon="9.053189983568878"><ele>208.0</ele><time>2026-05-03T09:20:36.997Z</time></trkpt><trkpt lat="44.889179704504045" lon="9.053214330251956"><ele>207.33333333333331</ele><time>2026-05-03T09:20:37.997Z</time></trkpt><trkpt lat="44.889320357530366" lon="9.05319620043143"><ele>206.66666666666669</ele><time>2026-05-03T09:20:38.997Z</time></trkpt><trkpt lat="44.88946536227407" lon="9.053137354065957"><ele>206.0</ele><time>2026-05-03T09:20:39.997Z</time></trkpt><trkpt lat="44.889621234740545" lon="9.053058875937507"><ele>206.0</ele><time>2026-05-03T09:20:40.997Z</time></trkpt><trkpt lat="44.889776447862616" lon="9.052990036680141"><ele>206.0</ele><time>2026-05-03T09:20:41.997Z</time></trkpt><trkpt lat="44.88995565867358" lon="9.052911237389807"><ele>206.0</ele><time>2026-05-03T09:20:42.997Z</time></trkpt><trkpt lat="44.890120064939005" lon="9.052837501031956"><ele>205.66666666666669</ele><time>2026-05-03T09:20:43.997Z</time></trkpt><trkpt lat="44.89029963400572" lon="9.052767157352442"><ele>205.33333333333331</ele><time>2026-05-03T09:20:44.997Z</time></trkpt><trkpt lat="44.8904837168925" lon="9.052692516567879"><ele>205.0</ele><time>2026-05-03T09:20:45.997Z</time></trkpt><trkpt lat="44.89067255834495" lon="9.052616972787993"><ele>205.0</ele><time>2026-05-03T09:20:46.997Z</time></trkpt><trkpt lat="44.890853126040064" lon="9.05254517973599"><ele>205.0</ele><time>2026-05-03T09:20:47.997Z</time></trkpt><trkpt lat="44.89104056623485" lon="9.052471576103663"><ele>205.0</ele><time>2026-05-03T09:20:48.997Z</time></trkpt><trkpt lat="44.89124044806075" lon="9.05239490196625"><ele>205.0</ele><time>2026-05-03T09:20:49.997Z</time></trkpt><trkpt lat="44.891399529773615" lon="9.052328860891961"><ele>205.0</ele><time>2026-05-03T09:20:50.997Z</time></trkpt><trkpt lat="44.89158139484748" lon="9.052248639627413"><ele>205.0</ele><time>2026-05-03T09:20:51.997Z</time></trkpt><trkpt lat="44.89176449507706" lon="9.052166287414689"><ele>205.0</ele><time>2026-05-03T09:20:52.997Z</time></trkpt><trkpt lat="44.891945605786674" lon="9.052093122081404"><ele>205.0</ele><time>2026-05-03T09:20:53.997Z</time></trkpt><trkpt lat="44.89212176972614" lon="9.052009591291146"><ele>205.0</ele><time>2026-05-03T09:20:54.997Z</time></trkpt><trkpt lat="44.89228066112971" lon="9.05192757167836"><ele>205.0</ele><time>2026-05-03T09:20:55.997Z</time></trkpt><trkpt lat="44.89242532826836" lon="9.051849830173644"><ele>205.0</ele><time>2026-05-03T09:20:56.997Z</time></trkpt><trkpt lat="44.89255553406351" lon="9.0517686266059"><ele>205.0</ele><time>2026-05-03T09:20:57.997Z</time></trkpt><trkpt lat="44.892669766752846" lon="9.05167814982219"><ele>205.0</ele><time>2026-05-03T09:20:58.997Z</time></trkpt><trkpt lat="44.89277424851211" lon="9.051580365747355"><ele>206.2</ele><time>2026-05-03T09:20:59.997Z</time></trkpt><trkpt lat="44.89287105465353" lon="9.051490428842552"><ele>207.4</ele><time>2026-05-03T09:21:00.997Z</time></trkpt><trkpt lat="44.89294947845865" lon="9.051422829387597"><ele>208.60000000000002</ele><time>2026-05-03T09:21:01.997Z</time></trkpt><trkpt lat="44.89300951180123" lon="9.051379459919808"><ele>209.8</ele><time>2026-05-03T09:21:02.997Z</time></trkpt><trkpt lat="44.893077774405896" lon="9.051254383795207"><ele>211.0</ele><time>2026-05-03T09:21:05.996Z</time></trkpt><trkpt lat="44.893090800667494" lon="9.051119550523829"><ele>211.0</ele><time>2026-05-03T09:21:06.996Z</time></trkpt><trkpt lat="44.893094745359775" lon="9.050963987775491"><ele>211.0</ele><time>2026-05-03T09:21:07.996Z</time></trkpt><trkpt lat="44.893122981620145" lon="9.050807154475164"><ele>211.0</ele><time>2026-05-03T09:21:08.996Z</time></trkpt><trkpt lat="44.89318845258084" lon="9.05068161490477"><ele>211.0</ele><time>2026-05-03T09:21:09.996Z</time></trkpt><trkpt lat="44.89328863019859" lon="9.050600721200981"><ele>212.5</ele><time>2026-05-03T09:21:10.996Z</time></trkpt><trkpt lat="44.89341361589747" lon="9.050554396806683"><ele>214.0</ele><time>2026-05-03T09:21:11.996Z</time></trkpt><trkpt lat="44.893573440496375" lon="9.050542434348035"><ele>215.5</ele><time>2026-05-03T09:21:12.996Z</time></trkpt><trkpt lat="44.89371471814067" lon="9.05050743953834"><ele>217.0</ele><time>2026-05-03T09:21:13.996Z</time></trkpt><trkpt lat="44.893852143337035" lon="9.050462618729851"><ele>217.0</ele><time>2026-05-03T09:21:14.996Z</time></trkpt><trkpt lat="44.894017319286014" lon="9.050408330979364"><ele>217.0</ele><time>2026-05-03T09:21:15.996Z</time></trkpt><trkpt lat="44.89417295611078" lon="9.050394922090831"><ele>217.0</ele><time>2026-05-03T09:21:17Z</time></trkpt><trkpt lat="44.89433855708897" lon="9.05038041774121"><ele>215.0</ele><time>2026-05-03T09:21:18Z</time></trkpt><trkpt lat="44.894495018723525" lon="9.050351064291354"><ele>213.0</ele><time>2026-05-03T09:21:19Z</time></trkpt><trkpt lat="44.89466550503142" lon="9.050304293758098"><ele>211.0</ele><time>2026-05-03T09:21:20Z</time></trkpt><trkpt lat="44.894842212318146" lon="9.050237209890296"><ele>211.0</ele><time>2026-05-03T09:21:21Z</time></trkpt><trkpt lat="44.89501782749997" lon="9.05017737124847"><ele>211.0</ele><time>2026-05-03T09:21:22Z</time></trkpt><trkpt lat="44.89518810671874" lon="9.050132095181379"><ele>211.0</ele><time>2026-05-03T09:21:23Z</time></trkpt><trkpt lat="44.89537907846459" lon="9.050092020391219"><ele>209.66666666666666</ele><time>2026-05-03T09:21:24Z</time></trkpt><trkpt lat="44.89557873652517" lon="9.05006312121916"><ele>208.33333333333331</ele><time>2026-05-03T09:21:25Z</time></trkpt><trkpt lat="44.895794991929236" lon="9.050033732881582"><ele>207.0</ele><time>2026-05-03T09:21:26Z</time></trkpt><trkpt lat="44.8959321386006" lon="9.049990586486688"><ele>209.66666666666669</ele><time>2026-05-03T09:21:27Z</time></trkpt><trkpt lat="44.896117816331596" lon="9.049954250216304"><ele>212.33333333333334</ele><time>2026-05-03T09:21:28Z</time></trkpt><trkpt lat="44.89630372465269" lon="9.049922503825446"><ele>215.0</ele><time>2026-05-03T09:21:29Z</time></trkpt><trkpt lat="44.89648725500625" lon="9.049892137616693"><ele>215.0</ele><time>2026-05-03T09:21:30Z</time></trkpt><trkpt lat="44.896669670547915" lon="9.04986668882267"><ele>215.0</ele><time>2026-05-03T09:21:31Z</time></trkpt><trkpt lat="44.89685023333363" lon="9.04983812921061"><ele>215.0</ele><time>2026-05-03T09:21:32Z</time></trkpt><trkpt lat="44.897035908480234" lon="9.049801502656603"><ele>213.66666666666669</ele><time>2026-05-03T09:21:33Z</time></trkpt><trkpt lat="44.89721006632202" lon="9.049767189555475"><ele>212.33333333333331</ele><time>2026-05-03T09:21:34Z</time></trkpt><trkpt lat="44.89738199230055" lon="9.04973554789516"><ele>211.0</ele><time>2026-05-03T09:21:35Z</time></trkpt><trkpt lat="44.897547810808014" lon="9.049709530780323"><ele>209.33333333333331</ele><time>2026-05-03T09:21:36Z</time></trkpt><trkpt lat="44.8977056829865" lon="9.049676870566625"><ele>207.66666666666669</ele><time>2026-05-03T09:21:36.999Z</time></trkpt><trkpt lat="44.897857782677164" lon="9.049664622459984"><ele>206.0</ele><time>2026-05-03T09:21:37.999Z</time></trkpt><trkpt lat="44.89800425504977" lon="9.049691555592926"><ele>206.0</ele><time>2026-05-03T09:21:38.999Z</time></trkpt><trkpt lat="44.89814233316884" lon="9.049751841291215"><ele>206.0</ele><time>2026-05-03T09:21:39.999Z</time></trkpt><trkpt lat="44.898289337260216" lon="9.049843518550967"><ele>206.0</ele><time>2026-05-03T09:21:40.999Z</time></trkpt><trkpt lat="44.89838922380135" lon="9.049957880473983"><ele>206.0</ele><time>2026-05-03T09:21:41.999Z</time></trkpt><trkpt lat="44.898493759681145" lon="9.050098839208331"><ele>201.0</ele><time>2026-05-03T09:21:42.999Z</time></trkpt><trkpt lat="44.898576330960445" lon="9.050256828577817"><ele>196.0</ele><time>2026-05-03T09:21:43.999Z</time></trkpt><trkpt lat="44.89864034704212" lon="9.050438236309803"><ele>191.0</ele><time>2026-05-03T09:21:44.999Z</time></trkpt><trkpt lat="44.89869065288881" lon="9.05063548985762"><ele>186.0</ele><time>2026-05-03T09:21:45.999Z</time></trkpt><trkpt lat="44.8987437461893" lon="9.050849465860468"><ele>185.0</ele><time>2026-05-03T09:21:46.999Z</time></trkpt><trkpt lat="44.89879070615019" lon="9.051072352704125"><ele>184.0</ele><time>2026-05-03T09:21:47.999Z</time></trkpt><trkpt lat="44.89884666663487" lon="9.05128852192156"><ele>183.0</ele><time>2026-05-03T09:21:48.999Z</time></trkpt><trkpt lat="44.89890902492167" lon="9.051498901429275"><ele>183.33333333333334</ele><time>2026-05-03T09:21:49.999Z</time></trkpt><trkpt lat="44.898966166357305" lon="9.051713160787875"><ele>183.66666666666669</ele><time>2026-05-03T09:21:50.999Z</time></trkpt><trkpt lat="44.89902563420602" lon="9.051928267402909"><ele>184.0</ele><time>2026-05-03T09:21:51.999Z</time></trkpt><trkpt lat="44.89908175551244" lon="9.052119281165973"><ele>184.0</ele><time>2026-05-03T09:21:52.999Z</time></trkpt><trkpt lat="44.899131201148705" lon="9.052295586203178"><ele>184.0</ele><time>2026-05-03T09:21:53.999Z</time></trkpt><trkpt lat="44.8991761307565" lon="9.0524609487891"><ele>184.0</ele><time>2026-05-03T09:21:54.999Z</time></trkpt><trkpt lat="44.89922455708" lon="9.052612830127858"><ele>184.0</ele><time>2026-05-03T09:21:55.999Z</time></trkpt><trkpt lat="44.899266776814315" lon="9.052769096138606"><ele>184.6</ele><time>2026-05-03T09:21:56.999Z</time></trkpt><trkpt lat="44.899303926191905" lon="9.052936397162268"><ele>185.2</ele><time>2026-05-03T09:21:57.999Z</time></trkpt><trkpt lat="44.899322943132915" lon="9.053066789951941"><ele>185.79999999999998</ele><time>2026-05-03T09:21:58.999Z</time></trkpt><trkpt lat="44.899337284869766" lon="9.053192794572299"><ele>186.39999999999998</ele><time>2026-05-03T09:21:59.999Z</time></trkpt><trkpt lat="44.899384389354616" lon="9.053293327746177"><ele>187.0</ele><time>2026-05-03T09:22:00.999Z</time></trkpt><trkpt lat="44.89946164431417" lon="9.053338538853804"><ele>187.0</ele><time>2026-05-03T09:22:01.999Z</time></trkpt><trkpt lat="44.89956070244941" lon="9.053321259258205"><ele>187.0</ele><time>2026-05-03T09:22:02.999Z</time></trkpt><trkpt lat="44.89967376365519" lon="9.05322641614886"><ele>187.0</ele><time>2026-05-03T09:22:03.999Z</time></trkpt><trkpt lat="44.89978474143169" lon="9.053138580744838"><ele>187.0</ele><time>2026-05-03T09:22:04.999Z</time></trkpt><trkpt lat="44.899924895381936" lon="9.053058077198296"><ele>187.0</ele><time>2026-05-03T09:22:05.999Z</time></trkpt><trkpt lat="44.90006936314507" lon="9.052987560965716"><ele>187.0</ele><time>2026-05-03T09:22:06.999Z</time></trkpt><trkpt lat="44.90021639903392" lon="9.052910948537175"><ele>187.0</ele><time>2026-05-03T09:22:07.999Z</time></trkpt><trkpt lat="44.90038168535273" lon="9.05281464233913"><ele>187.0</ele><time>2026-05-03T09:22:08.998Z</time></trkpt><trkpt lat="44.900548539938704" lon="9.052713852784038"><ele>187.0</ele><time>2026-05-03T09:22:09.998Z</time></trkpt><trkpt lat="44.90073109079118" lon="9.052609773978467"><ele>187.0</ele><time>2026-05-03T09:22:10.998Z</time></trkpt><trkpt lat="44.9008938286278" lon="9.052508866212747"><ele>187.33333333333334</ele><time>2026-05-03T09:22:11.998Z</time></trkpt><trkpt lat="44.90107827627179" lon="9.052400004660832"><ele>187.66666666666666</ele><time>2026-05-03T09:22:12.998Z</time></trkpt><trkpt lat="44.901259227184646" lon="9.052298930653016"><ele>188.0</ele><time>2026-05-03T09:22:13.998Z</time></trkpt><trkpt lat="44.90144067528227" lon="9.052194344107358"><ele>188.0</ele><time>2026-05-03T09:22:14.998Z</time></trkpt><trkpt lat="44.90161106482264" lon="9.052088119178777"><ele>188.0</ele><time>2026-05-03T09:22:15.998Z</time></trkpt><trkpt lat="44.901792507619525" lon="9.051980977183103"><ele>188.0</ele><time>2026-05-03T09:22:16.998Z</time></trkpt><trkpt lat="44.901959626045866" lon="9.051881467162353"><ele>187.33333333333331</ele><time>2026-05-03T09:22:17.998Z</time></trkpt><trkpt lat="44.902126247575026" lon="9.051778221754386"><ele>186.66666666666666</ele><time>2026-05-03T09:22:18.998Z</time></trkpt><trkpt lat="44.90228522622548" lon="9.051678873602846"><ele>186.0</ele><time>2026-05-03T09:22:19.998Z</time></trkpt><trkpt lat="44.90246167588543" lon="9.051575214490372"><ele>187.0</ele><time>2026-05-03T09:22:20.998Z</time></trkpt><trkpt lat="44.9026267777009" lon="9.051473540300268"><ele>188.0</ele><time>2026-05-03T09:22:21.998Z</time></trkpt><trkpt lat="44.90279582955928" lon="9.05137087055566"><ele>189.0</ele><time>2026-05-03T09:22:22.998Z</time></trkpt><trkpt lat="44.90296646364447" lon="9.051268506020515"><ele>189.0</ele><time>2026-05-03T09:22:23.998Z</time></trkpt><trkpt lat="44.90313738488178" lon="9.051162386092868"><ele>189.0</ele><time>2026-05-03T09:22:24.998Z</time></trkpt><trkpt lat="44.90330488476429" lon="9.05106081139532"><ele>189.0</ele><time>2026-05-03T09:22:25.998Z</time></trkpt><trkpt lat="44.90347786619374" lon="9.050957939728773"><ele>188.33333333333334</ele><time>2026-05-03T09:22:26.998Z</time></trkpt><trkpt lat="44.90364789930056" lon="9.050855302359775"><ele>187.66666666666669</ele><time>2026-05-03T09:22:27.998Z</time></trkpt><trkpt lat="44.9038138394061" lon="9.050750688668861"><ele>187.0</ele><time>2026-05-03T09:22:28.998Z</time></trkpt><trkpt lat="44.90396953371496" lon="9.0506566132265"><ele>187.0</ele><time>2026-05-03T09:22:29.998Z</time></trkpt><trkpt lat="44.90412308124236" lon="9.050568956915196"><ele>187.0</ele><time>2026-05-03T09:22:30.998Z</time></trkpt><trkpt lat="44.904269236751524" lon="9.050481727612729"><ele>187.0</ele><time>2026-05-03T09:22:31.998Z</time></trkpt><trkpt lat="44.90441260575503" lon="9.050397993783466"><ele>188.0</ele><time>2026-05-03T09:22:32.998Z</time></trkpt><trkpt lat="44.904558418496144" lon="9.050314003259105"><ele>189.0</ele><time>2026-05-03T09:22:33.998Z</time></trkpt><trkpt lat="44.90470037828908" lon="9.050235055444489"><ele>190.0</ele><time>2026-05-03T09:22:34.998Z</time></trkpt><trkpt lat="44.90483809066611" lon="9.050154448073222"><ele>190.0</ele><time>2026-05-03T09:22:35.998Z</time></trkpt><trkpt lat="44.904982511502496" lon="9.050072702393411"><ele>190.0</ele><time>2026-05-03T09:22:36.998Z</time></trkpt><trkpt lat="44.90511249479808" lon="9.04998705431638"><ele>190.0</ele><time>2026-05-03T09:22:37.998Z</time></trkpt><trkpt lat="44.90523246044658" lon="9.049915318495465"><ele>190.0</ele><time>2026-05-03T09:22:38.998Z</time></trkpt><trkpt lat="44.90534693040354" lon="9.049844366122185"><ele>189.2</ele><time>2026-05-03T09:22:39.998Z</time></trkpt><trkpt lat="44.905454404524775" lon="9.049781027176229"><ele>188.4</ele><time>2026-05-03T09:22:40.998Z</time></trkpt><trkpt lat="44.90555960119795" lon="9.049728446086883"><ele>187.60000000000002</ele><time>2026-05-03T09:22:41.997Z</time></trkpt><trkpt lat="44.90565839428273" lon="9.049668689550106"><ele>186.8</ele><time>2026-05-03T09:22:42.997Z</time></trkpt><trkpt lat="44.905746268024856" lon="9.049609543861921"><ele>186.0</ele><time>2026-05-03T09:22:43.997Z</time></trkpt><trkpt lat="44.90581176541853" lon="9.049560109353763"><ele>186.0</ele><time>2026-05-03T09:22:44.997Z</time></trkpt><trkpt lat="44.90589759741099" lon="9.049608838000568"><ele>186.0</ele><time>2026-05-03T09:22:47.997Z</time></trkpt><trkpt lat="44.905951954374316" lon="9.049786932244801"><ele>186.0</ele><time>2026-05-03T09:22:49.997Z</time></trkpt><trkpt lat="44.90598104680164" lon="9.04986778532454"><ele>186.0</ele><time>2026-05-03T09:22:50.997Z</time></trkpt><trkpt lat="44.9060003171727" lon="9.050059723116036"><ele>186.0</ele><time>2026-05-03T09:22:51.997Z</time></trkpt><trkpt lat="44.90604306493032" lon="9.050127861364667"><ele>187.33333333333334</ele><time>2026-05-03T09:22:52.997Z</time></trkpt><trkpt lat="44.90606746668863" lon="9.050225001832972"><ele>188.66666666666669</ele><time>2026-05-03T09:22:53.997Z</time></trkpt><trkpt lat="44.90610384014714" lon="9.05037281845687"><ele>190.0</ele><time>2026-05-03T09:22:55.997Z</time></trkpt><trkpt lat="44.90612320893578" lon="9.050459391689529"><ele>191.33333333333334</ele><time>2026-05-03T09:22:56.997Z</time></trkpt><trkpt lat="44.906140965050874" lon="9.050562288233033"><ele>192.66666666666669</ele><time>2026-05-03T09:22:57.997Z</time></trkpt><trkpt lat="44.90616348204893" lon="9.050663030315924"><ele>194.0</ele><time>2026-05-03T09:22:58.997Z</time></trkpt><trkpt lat="44.9061879243693" lon="9.050808486912736"><ele>195.0</ele><time>2026-05-03T09:23:00.997Z</time></trkpt><trkpt lat="44.90621037677939" lon="9.050921042977441"><ele>196.0</ele><time>2026-05-03T09:23:03.997Z</time></trkpt><trkpt lat="44.90624905464889" lon="9.051031988525954"><ele>197.0</ele><time>2026-05-03T09:23:06.997Z</time></trkpt><trkpt lat="44.90634762183508" lon="9.051081653247902"><ele>198.0</ele><time>2026-05-03T09:23:09.997Z</time></trkpt><trkpt lat="44.906448283628244" lon="9.05111020341743"><ele>199.0</ele><time>2026-05-03T09:23:11.997Z</time></trkpt><trkpt lat="44.90652895608756" lon="9.05118578423587"><ele>198.99999999999997</ele><time>2026-05-03T09:23:13.996Z</time></trkpt><trkpt lat="44.90661095807523" lon="9.051181355722841"><ele>199.0</ele><time>2026-05-03T09:23:15.996Z</time></trkpt><trkpt lat="44.9066901675727" lon="9.05116455099143"><ele>199.0</ele><time>2026-05-03T09:23:18.996Z</time></trkpt><trkpt lat="44.90675382830875" lon="9.051151590451274"><ele>199.0</ele><time>2026-05-03T09:23:21.996Z</time></trkpt><trkpt lat="44.90684283372531" lon="9.051145665090898"><ele>198.99999999999997</ele><time>2026-05-03T09:23:27Z</time></trkpt><trkpt lat="44.9069058734508" lon="9.051109899466386"><ele>199.0</ele><time>2026-05-03T09:26:36.998Z</time></trkpt><trkpt lat="44.906931327890305" lon="9.051006230297828"><ele>199.33333333333331</ele><time>2026-05-03T09:26:39.998Z</time></trkpt><trkpt lat="44.906886621397526" lon="9.050891074012645"><ele>199.66666666666666</ele><time>2026-05-03T09:26:41.998Z</time></trkpt><trkpt lat="44.90686662462366" lon="9.050778639905774"><ele>200.0</ele><time>2026-05-03T09:26:43.998Z</time></trkpt><trkpt lat="44.90684995724905" lon="9.050691827489064"><ele>200.33333333333331</ele><time>2026-05-03T09:26:45.998Z</time></trkpt><trkpt lat="44.90679404410274" lon="9.05063835143773"><ele>200.66666666666666</ele><time>2026-05-03T09:26:49.998Z</time></trkpt><trkpt lat="44.906764388379656" lon="9.050720265385785"><ele>201.0</ele><time>2026-05-03T09:26:51.998Z</time></trkpt><trkpt lat="44.906748326526014" lon="9.05083838795497"><ele>200.66666666666666</ele><time>2026-05-03T09:26:53.998Z</time></trkpt><trkpt lat="44.906723221794934" lon="9.050923300621895"><ele>200.33333333333331</ele><time>2026-05-03T09:26:54.998Z</time></trkpt><trkpt lat="44.90665912627268" lon="9.050958566091781"><ele>200.0</ele><time>2026-05-03T09:26:55.998Z</time></trkpt><trkpt lat="44.906559795797214" lon="9.050967660602861"><ele>199.66666666666666</ele><time>2026-05-03T09:26:56.997Z</time></trkpt><trkpt lat="44.906451524164986" lon="9.050958620085572"><ele>199.33333333333331</ele><time>2026-05-03T09:26:57.997Z</time></trkpt><trkpt lat="44.90635813369955" lon="9.05090155941769"><ele>199.0</ele><time>2026-05-03T09:26:58.997Z</time></trkpt><trkpt lat="44.90629885621755" lon="9.050846789457962"><ele>198.16666666666666</ele><time>2026-05-03T09:26:59.997Z</time></trkpt><trkpt lat="44.90622836120239" lon="9.050782937541475"><ele>197.33333333333331</ele><time>2026-05-03T09:27:00.997Z</time></trkpt><trkpt lat="44.90618456920522" lon="9.050698414872112"><ele>196.5</ele><time>2026-05-03T09:27:01.997Z</time></trkpt><trkpt lat="44.906163110414134" lon="9.050599907757675"><ele>195.66666666666669</ele><time>2026-05-03T09:27:02.997Z</time></trkpt><trkpt lat="44.906158915104506" lon="9.050508580027786"><ele>194.83333333333334</ele><time>2026-05-03T09:27:03.997Z</time></trkpt><trkpt lat="44.90612104361078" lon="9.05036651675753"><ele>194.0</ele><time>2026-05-03T09:27:05.997Z</time></trkpt><trkpt lat="44.90609632731422" lon="9.050284549703541"><ele>194.00000000000003</ele><time>2026-05-03T09:27:06.997Z</time></trkpt><trkpt lat="44.90607261079609" lon="9.050189997422668"><ele>194.0</ele><time>2026-05-03T09:27:11.997Z</time></trkpt><trkpt lat="44.90605359501724" lon="9.05009938733204"><ele>194.0</ele><time>2026-05-03T09:27:15.997Z</time></trkpt><trkpt lat="44.90602411637547" lon="9.049985935421835"><ele>194.0</ele><time>2026-05-03T09:27:16.997Z</time></trkpt><trkpt lat="44.905989731912896" lon="9.049845914867463"><ele>194.00000000000003</ele><time>2026-05-03T09:27:17.997Z</time></trkpt><trkpt lat="44.90595678155423" lon="9.049736868428461"><ele>194.0</ele><time>2026-05-03T09:27:18.997Z</time></trkpt><trkpt lat="44.90593878162277" lon="9.049648055732114"><ele>192.79999999999998</ele><time>2026-05-03T09:27:19.997Z</time></trkpt><trkpt lat="44.90595789380242" lon="9.049513618106795"><ele>191.6</ele><time>2026-05-03T09:27:21.997Z</time></trkpt><trkpt lat="44.906068052723214" lon="9.049402797653691"><ele>190.4</ele><time>2026-05-03T09:27:23.997Z</time></trkpt><trkpt lat="44.90614127372243" lon="9.049347127522278"><ele>189.2</ele><time>2026-05-03T09:27:24.997Z</time></trkpt><trkpt lat="44.90621443201295" lon="9.04928353365857"><ele>188.0</ele><time>2026-05-03T09:27:25.997Z</time></trkpt><trkpt lat="44.906280838464816" lon="9.049218015884687"><ele>188.0</ele><time>2026-05-03T09:27:26.997Z</time></trkpt><trkpt lat="44.90634038008616" lon="9.049154885273612"><ele>188.0</ele><time>2026-05-03T09:27:27.997Z</time></trkpt><trkpt lat="44.906406853197836" lon="9.049086040167007"><ele>188.0</ele><time>2026-05-03T09:27:28.996Z</time></trkpt><trkpt lat="44.90647408341461" lon="9.049020848695642"><ele>188.0</ele><time>2026-05-03T09:27:29.996Z</time></trkpt><trkpt lat="44.90654482937238" lon="9.048949762330235"><ele>188.0</ele><time>2026-05-03T09:27:30.996Z</time></trkpt><trkpt lat="44.906621332977224" lon="9.048884352982276"><ele>188.0</ele><time>2026-05-03T09:27:31.996Z</time></trkpt><trkpt lat="44.90670476166942" lon="9.048810696413666"><ele>188.60000000000002</ele><time>2026-05-03T09:27:32.996Z</time></trkpt><trkpt lat="44.90678758649382" lon="9.048731273149885"><ele>189.20000000000002</ele><time>2026-05-03T09:27:34Z</time></trkpt><trkpt lat="44.90686818305029" lon="9.04866920749665"><ele>189.8</ele><time>2026-05-03T09:27:35Z</time></trkpt><trkpt lat="44.90692849164488" lon="9.048585810186337"><ele>190.4</ele><time>2026-05-03T09:27:36Z</time></trkpt><trkpt lat="44.90700762034336" lon="9.048508043482572"><ele>191.0</ele><time>2026-05-03T09:27:37Z</time></trkpt><trkpt lat="44.90707947938526" lon="9.04843975950442"><ele>191.0</ele><time>2026-05-03T09:27:38Z</time></trkpt><trkpt lat="44.90714419752698" lon="9.048379618164716"><ele>191.0</ele><time>2026-05-03T09:27:39Z</time></trkpt><trkpt lat="44.90722403977478" lon="9.048302762115325"><ele>191.0</ele><time>2026-05-03T09:27:40Z</time></trkpt><trkpt lat="44.9072969108158" lon="9.048226553731885"><ele>191.0</ele><time>2026-05-03T09:27:41Z</time></trkpt><trkpt lat="44.9073650386155" lon="9.048160951780607"><ele>191.0</ele><time>2026-05-03T09:27:42Z</time></trkpt><trkpt lat="44.90742254814425" lon="9.04809186416848"><ele>191.0</ele><time>2026-05-03T09:27:43Z</time></trkpt><trkpt lat="44.90749282412081" lon="9.048020100134659"><ele>191.20000000000002</ele><time>2026-05-03T09:27:44Z</time></trkpt><trkpt lat="44.90757230744437" lon="9.047946901624112"><ele>191.4</ele><time>2026-05-03T09:27:45Z</time></trkpt><trkpt lat="44.90764785074436" lon="9.047872202111884"><ele>191.6</ele><time>2026-05-03T09:27:46Z</time></trkpt><trkpt lat="44.90771945057419" lon="9.047803474622041"><ele>191.8</ele><time>2026-05-03T09:27:47Z</time></trkpt><trkpt lat="44.907815388907" lon="9.04770213538052"><ele>192.0</ele><time>2026-05-03T09:27:48Z</time></trkpt><trkpt lat="44.907905517772456" lon="9.047633551764797"><ele>192.0</ele><time>2026-05-03T09:27:49Z</time></trkpt><trkpt lat="44.90796643942445" lon="9.047565038114634"><ele>192.0</ele><time>2026-05-03T09:27:50Z</time></trkpt><trkpt lat="44.90805459055059" lon="9.047490801500523"><ele>192.0</ele><time>2026-05-03T09:27:51Z</time></trkpt><trkpt lat="44.90813376178843" lon="9.047407058041564"><ele>192.0</ele><time>2026-05-03T09:27:52Z</time></trkpt><trkpt lat="44.90820460056772" lon="9.047331472685645"><ele>192.0</ele><time>2026-05-03T09:27:53Z</time></trkpt><trkpt lat="44.90829623224472" lon="9.047233404739746"><ele>191.66666666666666</ele><time>2026-05-03T09:27:54Z</time></trkpt><trkpt lat="44.90837758926588" lon="9.04716589349628"><ele>191.33333333333334</ele><time>2026-05-03T09:27:56Z</time></trkpt><trkpt lat="44.9084582991999" lon="9.04706115232045"><ele>191.0</ele><time>2026-05-03T09:27:57.999Z</time></trkpt><trkpt lat="44.90851448988858" lon="9.04700634493034"><ele>190.66666666666669</ele><time>2026-05-03T09:27:58.999Z</time></trkpt><trkpt lat="44.90857424644426" lon="9.046948059457998"><ele>190.33333333333334</ele><time>2026-05-03T09:27:59.999Z</time></trkpt><trkpt lat="44.908626057955075" lon="9.046897523446367"><ele>190.0</ele><time>2026-05-03T09:28:00.999Z</time></trkpt><trkpt lat="44.908683025124496" lon="9.046841958693383"><ele>190.0</ele><time>2026-05-03T09:28:01.999Z</time></trkpt><trkpt lat="44.90874832728351" lon="9.04677826416338"><ele>190.0</ele><time>2026-05-03T09:28:02.999Z</time></trkpt><trkpt lat="44.90882847862852" lon="9.04669945014111"><ele>190.0</ele><time>2026-05-03T09:28:03.999Z</time></trkpt><trkpt lat="44.908895551298144" lon="9.046633062084817"><ele>190.0</ele><time>2026-05-03T09:28:04.999Z</time></trkpt><trkpt lat="44.9089569260171" lon="9.046572313817716"><ele>190.0</ele><time>2026-05-03T09:28:05.999Z</time></trkpt><trkpt lat="44.909014665928204" lon="9.04651516325415"><ele>190.0</ele><time>2026-05-03T09:28:06.999Z</time></trkpt><trkpt lat="44.90908022942741" lon="9.04645026898611"><ele>190.0</ele><time>2026-05-03T09:28:07.999Z</time></trkpt><trkpt lat="44.90914167594543" lon="9.046389775486753"><ele>190.0</ele><time>2026-05-03T09:28:08.999Z</time></trkpt><trkpt lat="44.90919424548825" lon="9.046338922842246"><ele>190.0</ele><time>2026-05-03T09:28:09.999Z</time></trkpt><trkpt lat="44.90930199509048" lon="9.046234692309914"><ele>190.0</ele><time>2026-05-03T09:28:11.999Z</time></trkpt><trkpt lat="44.909367497899595" lon="9.04617132880112"><ele>190.0</ele><time>2026-05-03T09:28:13.999Z</time></trkpt><trkpt lat="44.90939978415334" lon="9.046041108750053"><ele>190.0</ele><time>2026-05-03T09:28:25.999Z</time></trkpt><trkpt lat="44.909516859845105" lon="9.045918777944626"><ele>190.0</ele><time>2026-05-03T09:28:27.999Z</time></trkpt><trkpt lat="44.90960668791973" lon="9.045846676177401"><ele>190.0</ele><time>2026-05-03T09:28:28.999Z</time></trkpt><trkpt lat="44.90971171214921" lon="9.045751772836114"><ele>190.0</ele><time>2026-05-03T09:28:29.998Z</time></trkpt><trkpt lat="44.909821981469314" lon="9.045643339443235"><ele>190.0</ele><time>2026-05-03T09:28:30.998Z</time></trkpt><trkpt lat="44.90993298996226" lon="9.045535092161545"><ele>189.8</ele><time>2026-05-03T09:28:31.998Z</time></trkpt><trkpt lat="44.91003641602922" lon="9.045432142196402"><ele>189.6</ele><time>2026-05-03T09:28:32.998Z</time></trkpt><trkpt lat="44.91013544859535" lon="9.045333911084892"><ele>189.39999999999998</ele><time>2026-05-03T09:28:33.998Z</time></trkpt><trkpt lat="44.91021996701915" lon="9.045253153204976"><ele>189.2</ele><time>2026-05-03T09:28:34.998Z</time></trkpt><trkpt lat="44.910296765856614" lon="9.045179239909347"><ele>189.0</ele><time>2026-05-03T09:28:35.998Z</time></trkpt><trkpt lat="44.91039483665211" lon="9.045083814317282"><ele>189.75</ele><time>2026-05-03T09:28:36.998Z</time></trkpt><trkpt lat="44.91050227954128" lon="9.044985830204702"><ele>190.5</ele><time>2026-05-03T09:28:37.998Z</time></trkpt><trkpt lat="44.91060660760335" lon="9.044877746469082"><ele>191.25</ele><time>2026-05-03T09:28:38.998Z</time></trkpt><trkpt lat="44.91071956943864" lon="9.04476909784972"><ele>192.0</ele><time>2026-05-03T09:28:39.998Z</time></trkpt><trkpt lat="44.9108381765967" lon="9.0446570600453"><ele>192.0</ele><time>2026-05-03T09:28:40.998Z</time></trkpt><trkpt lat="44.91095592323235" lon="9.044541160909857"><ele>192.0</ele><time>2026-05-03T09:28:41.998Z</time></trkpt><trkpt lat="44.911072625034144" lon="9.044424407421165"><ele>192.0</ele><time>2026-05-03T09:28:42.998Z</time></trkpt><trkpt lat="44.91119770883057" lon="9.044302800075787"><ele>192.0</ele><time>2026-05-03T09:28:43.998Z</time></trkpt><trkpt lat="44.91131868495481" lon="9.044183977274198"><ele>191.25</ele><time>2026-05-03T09:28:44.998Z</time></trkpt><trkpt lat="44.91144013163157" lon="9.044064651367783"><ele>190.5</ele><time>2026-05-03T09:28:45.998Z</time></trkpt><trkpt lat="44.91155714753463" lon="9.04394488649183"><ele>189.75</ele><time>2026-05-03T09:28:46.998Z</time></trkpt><trkpt lat="44.911667858948775" lon="9.043838055862322"><ele>189.0</ele><time>2026-05-03T09:28:47.998Z</time></trkpt><trkpt lat="44.91178285672755" lon="9.04373095034756"><ele>189.0</ele><time>2026-05-03T09:28:48.998Z</time></trkpt><trkpt lat="44.91190204528973" lon="9.043615449655531"><ele>189.0</ele><time>2026-05-03T09:28:49.998Z</time></trkpt><trkpt lat="44.91201547778239" lon="9.0435008862136"><ele>189.0</ele><time>2026-05-03T09:28:50.998Z</time></trkpt><trkpt lat="44.91213404661209" lon="9.043383031037713"><ele>189.0</ele><time>2026-05-03T09:28:51.998Z</time></trkpt><trkpt lat="44.91225309851675" lon="9.043269778511815"><ele>188.25</ele><time>2026-05-03T09:28:52.998Z</time></trkpt><trkpt lat="44.91236303986431" lon="9.04315470696971"><ele>187.5</ele><time>2026-05-03T09:28:53.998Z</time></trkpt><trkpt lat="44.912488833705794" lon="9.043052400732748"><ele>186.75</ele><time>2026-05-03T09:28:54.998Z</time></trkpt><trkpt lat="44.912601912569066" lon="9.042941930677461"><ele>186.0</ele><time>2026-05-03T09:28:55.998Z</time></trkpt><trkpt lat="44.91272306568123" lon="9.042819194218657"><ele>186.0</ele><time>2026-05-03T09:28:56.998Z</time></trkpt><trkpt lat="44.91282938838955" lon="9.04270416699411"><ele>186.0</ele><time>2026-05-03T09:28:57.998Z</time></trkpt><trkpt lat="44.91293154663582" lon="9.042602648444358"><ele>186.0</ele><time>2026-05-03T09:28:58.998Z</time></trkpt><trkpt lat="44.91304559662184" lon="9.042488670272329"><ele>186.0</ele><time>2026-05-03T09:28:59.998Z</time></trkpt><trkpt lat="44.913157489057795" lon="9.042374246296454"><ele>186.25</ele><time>2026-05-03T09:29:00.998Z</time></trkpt><trkpt lat="44.913275348173734" lon="9.042266831121212"><ele>186.5</ele><time>2026-05-03T09:29:01.997Z</time></trkpt><trkpt lat="44.913397648888775" lon="9.042140220286253"><ele>186.75</ele><time>2026-05-03T09:29:02.997Z</time></trkpt><trkpt lat="44.91350823963923" lon="9.042037791417002"><ele>187.0</ele><time>2026-05-03T09:29:03.997Z</time></trkpt><trkpt lat="44.91361673228892" lon="9.041928064536181"><ele>187.0</ele><time>2026-05-03T09:29:04.997Z</time></trkpt><trkpt lat="44.91373263724218" lon="9.04181320090907"><ele>187.0</ele><time>2026-05-03T09:29:05.997Z</time></trkpt><trkpt lat="44.91384604679975" lon="9.041700087910279"><ele>187.0</ele><time>2026-05-03T09:29:06.997Z</time></trkpt><trkpt lat="44.91396119816577" lon="9.04158633816125"><ele>187.0</ele><time>2026-05-03T09:29:07.997Z</time></trkpt><trkpt lat="44.91407938915225" lon="9.041474680096636"><ele>186.5</ele><time>2026-05-03T09:29:08.997Z</time></trkpt><trkpt lat="44.91419607187411" lon="9.041363958081226"><ele>186.0</ele><time>2026-05-03T09:29:09.997Z</time></trkpt><trkpt lat="44.91431015870463" lon="9.041251124461922"><ele>185.5</ele><time>2026-05-03T09:29:10.997Z</time></trkpt><trkpt lat="44.91442572142295" lon="9.041140636686313"><ele>185.0</ele><time>2026-05-03T09:29:11.997Z</time></trkpt><trkpt lat="44.9145403841513" lon="9.04103181077491"><ele>184.25</ele><time>2026-05-03T09:29:12.997Z</time></trkpt><trkpt lat="44.91465716663505" lon="9.040917150861972"><ele>183.5</ele><time>2026-05-03T09:29:13.997Z</time></trkpt><trkpt lat="44.91477632859483" lon="9.040798907762925"><ele>182.75</ele><time>2026-05-03T09:29:14.997Z</time></trkpt><trkpt lat="44.914891113012935" lon="9.040675547673002"><ele>182.0</ele><time>2026-05-03T09:29:15.997Z</time></trkpt><trkpt lat="44.91501924009527" lon="9.040559252148205"><ele>182.0</ele><time>2026-05-03T09:29:16.997Z</time></trkpt><trkpt lat="44.91515682115352" lon="9.040423465532866"><ele>182.0</ele><time>2026-05-03T09:29:17.997Z</time></trkpt><trkpt lat="44.91528241979013" lon="9.040302208406322"><ele>182.0</ele><time>2026-05-03T09:29:18.997Z</time></trkpt><trkpt lat="44.91541684740007" lon="9.040172042205162"><ele>182.0</ele><time>2026-05-03T09:29:19.997Z</time></trkpt><trkpt lat="44.91554625938426" lon="9.04004105118947"><ele>182.0</ele><time>2026-05-03T09:29:20.997Z</time></trkpt><trkpt lat="44.915692343578506" lon="9.039900311144788"><ele>182.0</ele><time>2026-05-03T09:29:21.997Z</time></trkpt><trkpt lat="44.91582290587136" lon="9.03976588266887"><ele>182.66666666666666</ele><time>2026-05-03T09:29:22.997Z</time></trkpt><trkpt lat="44.91594972255263" lon="9.039641242851186"><ele>183.33333333333334</ele><time>2026-05-03T09:29:23.997Z</time></trkpt><trkpt lat="44.9161028618662" lon="9.039499218198745"><ele>184.0</ele><time>2026-05-03T09:29:24.997Z</time></trkpt><trkpt lat="44.91624231081772" lon="9.039360149415185"><ele>184.0</ele><time>2026-05-03T09:29:25.997Z</time></trkpt><trkpt lat="44.91637456598621" lon="9.039229591158106"><ele>184.0</ele><time>2026-05-03T09:29:26.997Z</time></trkpt><trkpt lat="44.91649899682403" lon="9.03909895677171"><ele>184.0</ele><time>2026-05-03T09:29:27.997Z</time></trkpt><trkpt lat="44.916643941476984" lon="9.038975052831633"><ele>184.33333333333334</ele><time>2026-05-03T09:29:28.997Z</time></trkpt><trkpt lat="44.91677229135838" lon="9.038847426269422"><ele>184.66666666666666</ele><time>2026-05-03T09:29:29.997Z</time></trkpt><trkpt lat="44.91691075884778" lon="9.038720206863406"><ele>185.0</ele><time>2026-05-03T09:29:30.997Z</time></trkpt><trkpt lat="44.9170385252549" lon="9.038593030131512"><ele>185.0</ele><time>2026-05-03T09:29:31.997Z</time></trkpt><trkpt lat="44.91716869575646" lon="9.038476614115599"><ele>185.0</ele><time>2026-05-03T09:29:32.997Z</time></trkpt><trkpt lat="44.917279493784044" lon="9.0383416692769"><ele>185.0</ele><time>2026-05-03T09:29:33.997Z</time></trkpt><trkpt lat="44.917407183589695" lon="9.038210004542885"><ele>184.33333333333331</ele><time>2026-05-03T09:29:34.996Z</time></trkpt><trkpt lat="44.91752088499448" lon="9.038061875143741"><ele>183.66666666666666</ele><time>2026-05-03T09:29:35.996Z</time></trkpt><trkpt lat="44.91762633942175" lon="9.037888446374746"><ele>183.0</ele><time>2026-05-03T09:29:36.996Z</time></trkpt><trkpt lat="44.91770763323919" lon="9.037689932654265"><ele>183.0</ele><time>2026-05-03T09:29:37.996Z</time></trkpt><trkpt lat="44.91779735656879" lon="9.037513859787566"><ele>183.0</ele><time>2026-05-03T09:29:38.996Z</time></trkpt><trkpt lat="44.917879123310975" lon="9.037312766138164"><ele>183.0</ele><time>2026-05-03T09:29:40Z</time></trkpt><trkpt lat="44.91795986190119" lon="9.03711486773278"><ele>183.0</ele><time>2026-05-03T09:29:41Z</time></trkpt><trkpt lat="44.918042881922226" lon="9.036926242203572"><ele>183.0</ele><time>2026-05-03T09:29:42Z</time></trkpt><trkpt lat="44.91814074387405" lon="9.036752154275238"><ele>183.0</ele><time>2026-05-03T09:29:43Z</time></trkpt><trkpt lat="44.91822639995834" lon="9.036562157540837"><ele>181.66666666666666</ele><time>2026-05-03T09:29:44Z</time></trkpt><trkpt lat="44.91831394113263" lon="9.036366036916208"><ele>180.33333333333331</ele><time>2026-05-03T09:29:45Z</time></trkpt><trkpt lat="44.918403874156056" lon="9.0361618636867"><ele>179.0</ele><time>2026-05-03T09:29:46Z</time></trkpt><trkpt lat="44.918492150649804" lon="9.035961451273037"><ele>179.0</ele><time>2026-05-03T09:29:47Z</time></trkpt><trkpt lat="44.91858180895014" lon="9.035759095491521"><ele>179.0</ele><time>2026-05-03T09:29:48Z</time></trkpt><trkpt lat="44.91866981695709" lon="9.03556370582252"><ele>179.0</ele><time>2026-05-03T09:29:49Z</time></trkpt><trkpt lat="44.91875941528289" lon="9.035364785486456"><ele>179.0</ele><time>2026-05-03T09:29:50Z</time></trkpt><trkpt lat="44.91884874572802" lon="9.035166245331054"><ele>179.0</ele><time>2026-05-03T09:29:51Z</time></trkpt><trkpt lat="44.91893909123143" lon="9.034963428889554"><ele>179.0</ele><time>2026-05-03T09:29:52Z</time></trkpt><trkpt lat="44.91901487091217" lon="9.034746939218712"><ele>179.0</ele><time>2026-05-03T09:29:53Z</time></trkpt><trkpt lat="44.919120000792894" lon="9.034551184371583"><ele>179.0</ele><time>2026-05-03T09:29:54Z</time></trkpt><trkpt lat="44.91920817752219" lon="9.034350903808425"><ele>179.0</ele><time>2026-05-03T09:29:55Z</time></trkpt><trkpt lat="44.91929858914234" lon="9.034151137167234"><ele>177.0</ele><time>2026-05-03T09:29:56Z</time></trkpt><trkpt lat="44.91938715896155" lon="9.033955340365162"><ele>175.0</ele><time>2026-05-03T09:29:57Z</time></trkpt><trkpt lat="44.91947219513262" lon="9.033766897305924"><ele>173.0</ele><time>2026-05-03T09:29:58Z</time></trkpt><trkpt lat="44.919544694724785" lon="9.033566224629174"><ele>173.0</ele><time>2026-05-03T09:29:59Z</time></trkpt><trkpt lat="44.919630153844125" lon="9.033384093088536"><ele>173.0</ele><time>2026-05-03T09:30:00Z</time></trkpt><trkpt lat="44.919711676676144" lon="9.033202611182583"><ele>173.0</ele><time>2026-05-03T09:30:01Z</time></trkpt><trkpt lat="44.919802353411136" lon="9.033020134944147"><ele>172.25</ele><time>2026-05-03T09:30:02Z</time></trkpt><trkpt lat="44.9198775065715" lon="9.032835359531058"><ele>171.5</ele><time>2026-05-03T09:30:03Z</time></trkpt><trkpt lat="44.91995975067345" lon="9.03265890459899"><ele>170.75</ele><time>2026-05-03T09:30:03.999Z</time></trkpt><trkpt lat="44.92004221965926" lon="9.03249434244953"><ele>170.0</ele><time>2026-05-03T09:30:04.999Z</time></trkpt><trkpt lat="44.92011534652657" lon="9.032336257406774"><ele>169.75</ele><time>2026-05-03T09:30:05.999Z</time></trkpt><trkpt lat="44.92020141517334" lon="9.032190401383414"><ele>169.5</ele><time>2026-05-03T09:30:06.999Z</time></trkpt><trkpt lat="44.92029124652906" lon="9.032042410170755"><ele>169.25</ele><time>2026-05-03T09:30:07.999Z</time></trkpt><trkpt lat="44.920375281035405" lon="9.031913215685073"><ele>169.0</ele><time>2026-05-03T09:30:08.999Z</time></trkpt><trkpt lat="44.92045008349663" lon="9.031792380970511"><ele>169.0</ele><time>2026-05-03T09:30:09.999Z</time></trkpt><trkpt lat="44.92051170819411" lon="9.0316807085644"><ele>169.0</ele><time>2026-05-03T09:30:10.999Z</time></trkpt><trkpt lat="44.920557261203385" lon="9.03159192399319"><ele>169.0</ele><time>2026-05-03T09:30:11.999Z</time></trkpt><trkpt lat="44.92061710305204" lon="9.03153433982159"><ele>169.0</ele><time>2026-05-03T09:30:12.999Z</time></trkpt><trkpt lat="44.920694863952605" lon="9.031502365613063"><ele>169.0</ele><time>2026-05-03T09:30:13.999Z</time></trkpt><trkpt lat="44.9207522094303" lon="9.031445020376582"><ele>169.0</ele><time>2026-05-03T09:30:14.999Z</time></trkpt><trkpt lat="44.920775708731" lon="9.031347473880684"><ele>168.6</ele><time>2026-05-03T09:30:15.999Z</time></trkpt><trkpt lat="44.92075961289168" lon="9.031246565506766"><ele>168.2</ele><time>2026-05-03T09:30:16.999Z</time></trkpt><trkpt lat="44.92070083250682" lon="9.031160103276173"><ele>167.79999999999998</ele><time>2026-05-03T09:30:17.999Z</time></trkpt><trkpt lat="44.92060145366132" lon="9.031089862758579"><ele>167.39999999999998</ele><time>2026-05-03T09:30:18.999Z</time></trkpt><trkpt lat="44.9204754087792" lon="9.0310280788585"><ele>167.0</ele><time>2026-05-03T09:30:19.999Z</time></trkpt><trkpt lat="44.920337040382414" lon="9.030923074466664"><ele>165.66666666666666</ele><time>2026-05-03T09:30:20.999Z</time></trkpt><trkpt lat="44.92019827582719" lon="9.030793968239808"><ele>164.33333333333334</ele><time>2026-05-03T09:30:21.999Z</time></trkpt><trkpt lat="44.92003925616851" lon="9.03063575330022"><ele>163.0</ele><time>2026-05-03T09:30:22.999Z</time></trkpt><trkpt lat="44.91991487151458" lon="9.030534077935235"><ele>163.0</ele><time>2026-05-03T09:30:23.999Z</time></trkpt><trkpt lat="44.91982938196911" lon="9.030501561031146"><ele>163.0</ele><time>2026-05-03T09:30:24.999Z</time></trkpt><trkpt lat="44.91976937225678" lon="9.030429243556982"><ele>163.0</ele><time>2026-05-03T09:30:26.999Z</time></trkpt><trkpt lat="44.91991397164762" lon="9.030347137080387"><ele>163.0</ele><time>2026-05-03T09:30:30.999Z</time></trkpt><trkpt lat="44.91979657268032" lon="9.030195207242366"><ele>163.0</ele><time>2026-05-03T09:30:32.999Z</time></trkpt><trkpt lat="44.91969742678088" lon="9.030131673501028"><ele>163.0</ele><time>2026-05-03T09:30:34.999Z</time></trkpt><trkpt lat="44.919604634927694" lon="9.030125321793093"><ele>163.0</ele><time>2026-05-03T09:30:36.999Z</time></trkpt><trkpt lat="44.91958134664319" lon="9.030212252121373"><ele>163.0</ele><time>2026-05-03T09:30:38.998Z</time></trkpt><trkpt lat="44.91945001957907" lon="9.03015084339918"><ele>163.0</ele><time>2026-05-03T09:41:18.998Z</time></trkpt><trkpt lat="44.919355319261975" lon="9.03009339348363"><ele>163.0</ele><time>2026-05-03T09:41:19.998Z</time></trkpt><trkpt lat="44.91925013971781" lon="9.030004498896798"><ele>163.0</ele><time>2026-05-03T09:41:20.998Z</time></trkpt><trkpt lat="44.919132797993775" lon="9.02990473112789"><ele>163.0</ele><time>2026-05-03T09:41:21.998Z</time></trkpt><trkpt lat="44.919006616506564" lon="9.029804283952835"><ele>163.0</ele><time>2026-05-03T09:41:22.998Z</time></trkpt><trkpt lat="44.918882333502566" lon="9.029701890084553"><ele>162.5</ele><time>2026-05-03T09:41:23.998Z</time></trkpt><trkpt lat="44.9187508814622" lon="9.029598575622085"><ele>162.0</ele><time>2026-05-03T09:41:24.998Z</time></trkpt><trkpt lat="44.91862197462199" lon="9.029494840559288"><ele>161.5</ele><time>2026-05-03T09:41:25.998Z</time></trkpt><trkpt lat="44.91850477962558" lon="9.029397826412131"><ele>161.0</ele><time>2026-05-03T09:41:26.998Z</time></trkpt><trkpt lat="44.918383561090586" lon="9.029301405264029"><ele>161.0</ele><time>2026-05-03T09:41:27.998Z</time></trkpt><trkpt lat="44.91827171814629" lon="9.029185725759808"><ele>161.0</ele><time>2026-05-03T09:41:28.998Z</time></trkpt><trkpt lat="44.918149006063594" lon="9.029102702466085"><ele>161.0</ele><time>2026-05-03T09:41:29.998Z</time></trkpt><trkpt lat="44.91803401587307" lon="9.029006459420556"><ele>161.0</ele><time>2026-05-03T09:41:30.998Z</time></trkpt><trkpt lat="44.91792015640468" lon="9.028912573935473"><ele>161.5</ele><time>2026-05-03T09:41:31.998Z</time></trkpt><trkpt lat="44.91780447185761" lon="9.028813565383187"><ele>162.0</ele><time>2026-05-03T09:41:32.998Z</time></trkpt><trkpt lat="44.91768481889774" lon="9.028712761928213"><ele>162.5</ele><time>2026-05-03T09:41:33.998Z</time></trkpt><trkpt lat="44.917566565221584" lon="9.028612832019702"><ele>163.0</ele><time>2026-05-03T09:41:34.998Z</time></trkpt><trkpt lat="44.91744306588393" lon="9.028518610305317"><ele>163.75</ele><time>2026-05-03T09:41:35.998Z</time></trkpt><trkpt lat="44.91732741206973" lon="9.028418630309721"><ele>164.5</ele><time>2026-05-03T09:41:36.998Z</time></trkpt><trkpt lat="44.91721135150408" lon="9.028309561263889"><ele>165.25</ele><time>2026-05-03T09:41:37.998Z</time></trkpt><trkpt lat="44.91709302519413" lon="9.028216474789561"><ele>166.0</ele><time>2026-05-03T09:41:38.998Z</time></trkpt><trkpt lat="44.916972146791366" lon="9.028120859235166"><ele>166.0</ele><time>2026-05-03T09:41:39.998Z</time></trkpt><trkpt lat="44.916867217998686" lon="9.028037682609854"><ele>166.0</ele><time>2026-05-03T09:41:40.998Z</time></trkpt><trkpt lat="44.916752156978454" lon="9.027955993526922"><ele>166.0</ele><time>2026-05-03T09:41:41.998Z</time></trkpt><trkpt lat="44.91664594373556" lon="9.02785636923488"><ele>166.0</ele><time>2026-05-03T09:41:42.998Z</time></trkpt><trkpt lat="44.9165408818124" lon="9.027770446714985"><ele>166.0</ele><time>2026-05-03T09:41:43.998Z</time></trkpt><trkpt lat="44.916439051720474" lon="9.027696287946219"><ele>166.0</ele><time>2026-05-03T09:41:44.998Z</time></trkpt><trkpt lat="44.91632973873352" lon="9.027602722097534"><ele>166.0</ele><time>2026-05-03T09:41:45.998Z</time></trkpt><trkpt lat="44.91621267807562" lon="9.027492341371893"><ele>166.0</ele><time>2026-05-03T09:41:46.998Z</time></trkpt><trkpt lat="44.916090608597116" lon="9.027390634847151"><ele>166.4</ele><time>2026-05-03T09:41:47.998Z</time></trkpt><trkpt lat="44.91598210592711" lon="9.027299482175799"><ele>166.8</ele><time>2026-05-03T09:41:48.997Z</time></trkpt><trkpt lat="44.91590670810521" lon="9.027234972159766"><ele>167.20000000000002</ele><time>2026-05-03T09:41:49.997Z</time></trkpt><trkpt lat="44.91579020814669" lon="9.027135295290572"><ele>167.60000000000002</ele><time>2026-05-03T09:41:51.997Z</time></trkpt><trkpt lat="44.91571820212467" lon="9.02707368725203"><ele>168.0</ele><time>2026-05-03T09:41:52.997Z</time></trkpt><trkpt lat="44.915627476732446" lon="9.027022074207943"><ele>168.33333333333334</ele><time>2026-05-03T09:41:53.997Z</time></trkpt><trkpt lat="44.91554895583974" lon="9.02694244971358"><ele>168.66666666666666</ele><time>2026-05-03T09:41:54.997Z</time></trkpt><trkpt lat="44.915476477730174" lon="9.026875161032423"><ele>169.0</ele><time>2026-05-03T09:41:55.997Z</time></trkpt><trkpt lat="44.91541619459298" lon="9.026818357264336"><ele>169.33333333333331</ele><time>2026-05-03T09:41:56.997Z</time></trkpt><trkpt lat="44.91535992081923" lon="9.026776965612036"><ele>169.66666666666666</ele><time>2026-05-03T09:41:57.997Z</time></trkpt><trkpt lat="44.91530437923013" lon="9.026729579612802"><ele>170.0</ele><time>2026-05-03T09:41:58.997Z</time></trkpt><trkpt lat="44.91521305300003" lon="9.02665817128515"><ele>170.0</ele><time>2026-05-03T09:42:00.997Z</time></trkpt><trkpt lat="44.91516041348718" lon="9.026580055564079"><ele>170.0</ele><time>2026-05-03T09:42:02.997Z</time></trkpt><trkpt lat="44.91519140849713" lon="9.026450076535587"><ele>170.0</ele><time>2026-05-03T09:42:04.997Z</time></trkpt><trkpt lat="44.91523880920454" lon="9.02635025424535"><ele>170.0</ele><time>2026-05-03T09:42:05.997Z</time></trkpt><trkpt lat="44.91529903843463" lon="9.026280040784671"><ele>170.0</ele><time>2026-05-03T09:42:06.997Z</time></trkpt><trkpt lat="44.915371475353915" lon="9.026200513760076"><ele>170.0</ele><time>2026-05-03T09:42:07.997Z</time></trkpt><trkpt lat="44.91545092641054" lon="9.026086234753578"><ele>170.0</ele><time>2026-05-03T09:42:08.997Z</time></trkpt><trkpt lat="44.91552070456407" lon="9.025981706512962"><ele>170.0</ele><time>2026-05-03T09:42:09.997Z</time></trkpt><trkpt lat="44.91556502670195" lon="9.025915067106988"><ele>170.0</ele><time>2026-05-03T09:42:10.997Z</time></trkpt><trkpt lat="44.915629185437" lon="9.02582105792513"><ele>170.0</ele><time>2026-05-03T09:42:11.997Z</time></trkpt><trkpt lat="44.915687229038674" lon="9.02573581174118"><ele>170.0</ele><time>2026-05-03T09:42:12.997Z</time></trkpt><trkpt lat="44.915734652718214" lon="9.02565569969487"><ele>170.0</ele><time>2026-05-03T09:42:13.997Z</time></trkpt><trkpt lat="44.915806822491724" lon="9.025558277625837"><ele>170.0</ele><time>2026-05-03T09:42:14.997Z</time></trkpt><trkpt lat="44.91585531741897" lon="9.02548631697022"><ele>170.0</ele><time>2026-05-03T09:42:16Z</time></trkpt><trkpt lat="44.91590004443052" lon="9.025408519534224"><ele>170.0</ele><time>2026-05-03T09:42:17Z</time></trkpt><trkpt lat="44.91595242734891" lon="9.025324096607177"><ele>170.0</ele><time>2026-05-03T09:42:18Z</time></trkpt><trkpt lat="44.916023498888535" lon="9.02523986074571"><ele>170.0</ele><time>2026-05-03T09:42:19Z</time></trkpt><trkpt lat="44.91607546799914" lon="9.025156580219337"><ele>170.0</ele><time>2026-05-03T09:42:20Z</time></trkpt><trkpt lat="44.91613049123269" lon="9.025076878702569"><ele>170.0</ele><time>2026-05-03T09:42:21Z</time></trkpt><trkpt lat="44.91618355024605" lon="9.025007258535714"><ele>170.0</ele><time>2026-05-03T09:42:22Z</time></trkpt><trkpt lat="44.91623386763407" lon="9.024936577088807"><ele>170.0</ele><time>2026-05-03T09:42:23Z</time></trkpt><trkpt lat="44.9162875977663" lon="9.02485843653656"><ele>170.0</ele><time>2026-05-03T09:42:24Z</time></trkpt><trkpt lat="44.91634525231055" lon="9.02477881228001"><ele>170.0</ele><time>2026-05-03T09:42:25Z</time></trkpt><trkpt lat="44.916400843774554" lon="9.024689548133903"><ele>170.0</ele><time>2026-05-03T09:42:26Z</time></trkpt><trkpt lat="44.91646841736981" lon="9.024581816724153"><ele>170.2</ele><time>2026-05-03T09:42:27Z</time></trkpt><trkpt lat="44.916513024351445" lon="9.024462465268316"><ele>170.4</ele><time>2026-05-03T09:42:28Z</time></trkpt><trkpt lat="44.9165582877916" lon="9.024331264073389"><ele>170.60000000000002</ele><time>2026-05-03T09:42:29Z</time></trkpt><trkpt lat="44.91659947056248" lon="9.024200878715062"><ele>170.8</ele><time>2026-05-03T09:42:30Z</time></trkpt><trkpt lat="44.91664776764833" lon="9.024064356433795"><ele>171.0</ele><time>2026-05-03T09:42:31Z</time></trkpt><trkpt lat="44.916695761047805" lon="9.02393924561674"><ele>170.60000000000002</ele><time>2026-05-03T09:42:32Z</time></trkpt><trkpt lat="44.91674501281616" lon="9.023821779747639"><ele>170.2</ele><time>2026-05-03T09:42:33Z</time></trkpt><trkpt lat="44.91678827812355" lon="9.023700013092862"><ele>169.8</ele><time>2026-05-03T09:42:34Z</time></trkpt><trkpt lat="44.91682981645237" lon="9.023583100917019"><ele>169.39999999999998</ele><time>2026-05-03T09:42:35Z</time></trkpt><trkpt lat="44.91687030658054" lon="9.02347452907388"><ele>169.0</ele><time>2026-05-03T09:42:36Z</time></trkpt><trkpt lat="44.916908850662175" lon="9.023379241251899"><ele>168.79999999999998</ele><time>2026-05-03T09:42:37Z</time></trkpt><trkpt lat="44.916938141434976" lon="9.023299131317676"><ele>168.6</ele><time>2026-05-03T09:42:38Z</time></trkpt><trkpt lat="44.91697240224664" lon="9.023208397070785"><ele>168.4</ele><time>2026-05-03T09:42:39Z</time></trkpt><trkpt lat="44.91703240227595" lon="9.023050679966534"><ele>168.2</ele><time>2026-05-03T09:42:41Z</time></trkpt><trkpt lat="44.9170702971968" lon="9.02295044026477"><ele>168.0</ele><time>2026-05-03T09:42:43Z</time></trkpt><trkpt lat="44.9169798436077" lon="9.022861839849881"><ele>168.0</ele><time>2026-05-03T09:42:44Z</time></trkpt><trkpt lat="44.91690159684942" lon="9.022829777429484"><ele>168.0</ele><time>2026-05-03T09:42:45Z</time></trkpt><trkpt lat="44.91682491712708" lon="9.022765474603101"><ele>168.0</ele><time>2026-05-03T09:42:46Z</time></trkpt><trkpt lat="44.91671500493043" lon="9.022703903871095"><ele>168.0</ele><time>2026-05-03T09:42:47Z</time></trkpt><trkpt lat="44.916609200529315" lon="9.022616822314724"><ele>168.0</ele><time>2026-05-03T09:42:48Z</time></trkpt><trkpt lat="44.916502157115424" lon="9.022528974228855"><ele>168.75</ele><time>2026-05-03T09:42:49Z</time></trkpt><trkpt lat="44.91639418016318" lon="9.022441696270695"><ele>169.5</ele><time>2026-05-03T09:42:50Z</time></trkpt><trkpt lat="44.91628911490826" lon="9.022353676559083"><ele>170.25</ele><time>2026-05-03T09:42:51Z</time></trkpt><trkpt lat="44.916179217777334" lon="9.022266273077241"><ele>171.0</ele><time>2026-05-03T09:42:51.999Z</time></trkpt><trkpt lat="44.91606969017095" lon="9.022180033256248"><ele>171.0</ele><time>2026-05-03T09:42:52.999Z</time></trkpt><trkpt lat="44.915976722366004" lon="9.022111582472192"><ele>171.0</ele><time>2026-05-03T09:42:53.999Z</time></trkpt><trkpt lat="44.91588865017623" lon="9.02204802717734"><ele>171.0</ele><time>2026-05-03T09:42:54.999Z</time></trkpt><trkpt lat="44.915807646057395" lon="9.022001283859616"><ele>171.0</ele><time>2026-05-03T09:42:55.999Z</time></trkpt><trkpt lat="44.91571789733594" lon="9.021972801006335"><ele>171.0</ele><time>2026-05-03T09:42:56.999Z</time></trkpt><trkpt lat="44.9156109119021" lon="9.021944031085459"><ele>172.0</ele><time>2026-05-03T09:42:57.999Z</time></trkpt><trkpt lat="44.915523788220945" lon="9.021836922505633"><ele>173.0</ele><time>2026-05-03T09:42:58.999Z</time></trkpt><trkpt lat="44.91542539274449" lon="9.021735567317801"><ele>174.0</ele><time>2026-05-03T09:42:59.999Z</time></trkpt><trkpt lat="44.915311690938935" lon="9.021629041450902"><ele>175.0</ele><time>2026-05-03T09:43:00.999Z</time></trkpt><trkpt lat="44.91520603676593" lon="9.021530055281616"><ele>175.25</ele><time>2026-05-03T09:43:01.999Z</time></trkpt><trkpt lat="44.91508023423098" lon="9.021437769254828"><ele>175.5</ele><time>2026-05-03T09:43:02.999Z</time></trkpt><trkpt lat="44.91498284843932" lon="9.021329487034492"><ele>175.75</ele><time>2026-05-03T09:43:03.999Z</time></trkpt><trkpt lat="44.91486239516103" lon="9.021225680995949"><ele>176.0</ele><time>2026-05-03T09:43:04.999Z</time></trkpt><trkpt lat="44.91475396771587" lon="9.021104299644113"><ele>176.5</ele><time>2026-05-03T09:43:05.999Z</time></trkpt><trkpt lat="44.914633869541554" lon="9.021016806749415"><ele>177.0</ele><time>2026-05-03T09:43:06.999Z</time></trkpt><trkpt lat="44.91452393550818" lon="9.020911484845493"><ele>177.5</ele><time>2026-05-03T09:43:07.999Z</time></trkpt><trkpt lat="44.91441708197481" lon="9.020807055146449"><ele>178.0</ele><time>2026-05-03T09:43:08.999Z</time></trkpt><trkpt lat="44.91432345392881" lon="9.020719004687647"><ele>180.5</ele><time>2026-05-03T09:43:09.999Z</time></trkpt><trkpt lat="44.91422879098765" lon="9.020633110096375"><ele>183.0</ele><time>2026-05-03T09:43:10.999Z</time></trkpt><trkpt lat="44.91412953803571" lon="9.020535927171231"><ele>185.5</ele><time>2026-05-03T09:43:11.999Z</time></trkpt><trkpt lat="44.91403551959936" lon="9.020441262648115"><ele>188.0</ele><time>2026-05-03T09:43:12.999Z</time></trkpt><trkpt lat="44.913928726988544" lon="9.02035240508424"><ele>188.0</ele><time>2026-05-03T09:43:13.999Z</time></trkpt><trkpt lat="44.91382696731607" lon="9.0202709534861"><ele>188.0</ele><time>2026-05-03T09:43:14.999Z</time></trkpt><trkpt lat="44.913722032337006" lon="9.020199167233166"><ele>188.0</ele><time>2026-05-03T09:43:15.999Z</time></trkpt><trkpt lat="44.913603996559985" lon="9.020145953710902"><ele>188.0</ele><time>2026-05-03T09:43:16.999Z</time></trkpt><trkpt lat="44.913490618909094" lon="9.020127925715693"><ele>190.0</ele><time>2026-05-03T09:43:17.999Z</time></trkpt><trkpt lat="44.91337628851716" lon="9.0201591900246"><ele>192.0</ele><time>2026-05-03T09:43:18.999Z</time></trkpt><trkpt lat="44.91326121547275" lon="9.020189723805117"><ele>194.0</ele><time>2026-05-03T09:43:19.999Z</time></trkpt><trkpt lat="44.91311724480403" lon="9.020258143521808"><ele>196.0</ele><time>2026-05-03T09:43:20.999Z</time></trkpt><trkpt lat="44.91297024797054" lon="9.020332081507703"><ele>196.0</ele><time>2026-05-03T09:43:21.999Z</time></trkpt><trkpt lat="44.912847703695384" lon="9.02039563782106"><ele>196.0</ele><time>2026-05-03T09:43:22.999Z</time></trkpt><trkpt lat="44.91277474392205" lon="9.020456008942352"><ele>196.0</ele><time>2026-05-03T09:43:23.999Z</time></trkpt><trkpt lat="44.91264682126237" lon="9.02052389588751"><ele>196.0</ele><time>2026-05-03T09:43:24.999Z</time></trkpt><trkpt lat="44.91252658916985" lon="9.020570731638333"><ele>197.25</ele><time>2026-05-03T09:43:25.998Z</time></trkpt><trkpt lat="44.91240792633005" lon="9.020657645617662"><ele>198.5</ele><time>2026-05-03T09:43:26.998Z</time></trkpt><trkpt lat="44.91227737286837" lon="9.02070773679373"><ele>199.75</ele><time>2026-05-03T09:43:27.998Z</time></trkpt><trkpt lat="44.9121509243336" lon="9.020808427595556"><ele>201.0</ele><time>2026-05-03T09:43:28.998Z</time></trkpt><trkpt lat="44.91205336431657" lon="9.020920752998276"><ele>201.0</ele><time>2026-05-03T09:43:29.998Z</time></trkpt><trkpt lat="44.9119331974537" lon="9.021052152386936"><ele>201.0</ele><time>2026-05-03T09:43:30.998Z</time></trkpt><trkpt lat="44.9118329507817" lon="9.021175444145547"><ele>201.0</ele><time>2026-05-03T09:43:31.998Z</time></trkpt><trkpt lat="44.91171870264677" lon="9.02129114274397"><ele>201.0</ele><time>2026-05-03T09:43:32.998Z</time></trkpt><trkpt lat="44.911609099763" lon="9.021414908134316"><ele>202.0</ele><time>2026-05-03T09:43:33.998Z</time></trkpt><trkpt lat="44.91151271437228" lon="9.02154602351074"><ele>203.0</ele><time>2026-05-03T09:43:34.998Z</time></trkpt><trkpt lat="44.91141760407071" lon="9.02168513500898"><ele>204.0</ele><time>2026-05-03T09:43:35.998Z</time></trkpt><trkpt lat="44.91132154044426" lon="9.021823015074082"><ele>205.0</ele><time>2026-05-03T09:43:36.998Z</time></trkpt><trkpt lat="44.91122080619535" lon="9.02195624609883"><ele>205.0</ele><time>2026-05-03T09:43:37.998Z</time></trkpt><trkpt lat="44.911130050967735" lon="9.022075286926556"><ele>205.0</ele><time>2026-05-03T09:43:38.998Z</time></trkpt><trkpt lat="44.911032671118306" lon="9.022195403504847"><ele>205.0</ele><time>2026-05-03T09:43:39.998Z</time></trkpt><trkpt lat="44.91094491641445" lon="9.022301688341402"><ele>205.0</ele><time>2026-05-03T09:43:40.998Z</time></trkpt><trkpt lat="44.910868266755905" lon="9.022390843864443"><ele>206.2</ele><time>2026-05-03T09:43:41.998Z</time></trkpt><trkpt lat="44.910788190526745" lon="9.02244598024362"><ele>207.4</ele><time>2026-05-03T09:43:42.998Z</time></trkpt><trkpt lat="44.91073880144247" lon="9.022520471789088"><ele>208.60000000000002</ele><time>2026-05-03T09:43:43.998Z</time></trkpt><trkpt lat="44.91066249371039" lon="9.022538265559962"><ele>209.8</ele><time>2026-05-03T09:43:44.998Z</time></trkpt><trkpt lat="44.910605042866024" lon="9.022265990355022"><ele>211.0</ele><time>2026-05-03T09:43:47.998Z</time></trkpt><trkpt lat="44.910611412081735" lon="9.022124880482096"><ele>212.0</ele><time>2026-05-03T09:43:48.998Z</time></trkpt><trkpt lat="44.910629867460905" lon="9.021967094451819"><ele>213.0</ele><time>2026-05-03T09:43:49.998Z</time></trkpt><trkpt lat="44.91061543440274" lon="9.021806559483025"><ele>214.0</ele><time>2026-05-03T09:43:50.998Z</time></trkpt><trkpt lat="44.910597039027145" lon="9.021641661509769"><ele>215.0</ele><time>2026-05-03T09:43:51.998Z</time></trkpt><trkpt lat="44.91058304045872" lon="9.021470180711452"><ele>216.0</ele><time>2026-05-03T09:43:52.998Z</time></trkpt><trkpt lat="44.91058775334817" lon="9.0212844258135"><ele>217.0</ele><time>2026-05-03T09:43:53.998Z</time></trkpt><trkpt lat="44.91060557236187" lon="9.021109311238519"><ele>218.0</ele><time>2026-05-03T09:43:54.998Z</time></trkpt><trkpt lat="44.91062187670195" lon="9.020916415632236"><ele>219.0</ele><time>2026-05-03T09:43:55.998Z</time></trkpt><trkpt lat="44.91063293700698" lon="9.02074360157098"><ele>220.6</ele><time>2026-05-03T09:43:56.998Z</time></trkpt><trkpt lat="44.91064561759002" lon="9.020583667103272"><ele>222.2</ele><time>2026-05-03T09:43:57.998Z</time></trkpt><trkpt lat="44.910650391530126" lon="9.020462820504555"><ele>223.79999999999998</ele><time>2026-05-03T09:43:58.997Z</time></trkpt><trkpt lat="44.91062783812994" lon="9.020353737648461"><ele>225.39999999999998</ele><time>2026-05-03T09:43:59.997Z</time></trkpt><trkpt lat="44.91055792136644" lon="9.020270422361387"><ele>227.0</ele><time>2026-05-03T09:44:00.997Z</time></trkpt><trkpt lat="44.910479898181244" lon="9.02025172180976"><ele>227.0</ele><time>2026-05-03T09:44:01.997Z</time></trkpt><trkpt lat="44.91039307565026" lon="9.020293019460416"><ele>227.0</ele><time>2026-05-03T09:44:02.997Z</time></trkpt><trkpt lat="44.910326243180585" lon="9.020382957460628"><ele>227.0</ele><time>2026-05-03T09:44:03.997Z</time></trkpt><trkpt lat="44.910265966038956" lon="9.020518711758774"><ele>227.0</ele><time>2026-05-03T09:44:04.997Z</time></trkpt><trkpt lat="44.91021564607287" lon="9.020673421527238"><ele>227.0</ele><time>2026-05-03T09:44:05.997Z</time></trkpt><trkpt lat="44.910171523137755" lon="9.020844190620542"><ele>228.75</ele><time>2026-05-03T09:44:06.997Z</time></trkpt><trkpt lat="44.91013049488468" lon="9.021015265834814"><ele>230.5</ele><time>2026-05-03T09:44:07.997Z</time></trkpt><trkpt lat="44.91010280815589" lon="9.021201790786826"><ele>232.25</ele><time>2026-05-03T09:44:08.997Z</time></trkpt><trkpt lat="44.91008887254508" lon="9.02137517707546"><ele>234.0</ele><time>2026-05-03T09:44:09.997Z</time></trkpt><trkpt lat="44.91005736343393" lon="9.021540667460691"><ele>233.75</ele><time>2026-05-03T09:44:10.997Z</time></trkpt><trkpt lat="44.910027391912436" lon="9.021689260384864"><ele>233.5</ele><time>2026-05-03T09:44:11.997Z</time></trkpt><trkpt lat="44.90997866451561" lon="9.02182497875954"><ele>233.25</ele><time>2026-05-03T09:44:12.997Z</time></trkpt><trkpt lat="44.909920536300355" lon="9.021967823622717"><ele>233.0</ele><time>2026-05-03T09:44:13.997Z</time></trkpt><trkpt lat="44.90985230466463" lon="9.022130227505778"><ele>233.0</ele><time>2026-05-03T09:44:14.997Z</time></trkpt><trkpt lat="44.9097971415622" lon="9.022298338855252"><ele>233.0</ele><time>2026-05-03T09:44:15.997Z</time></trkpt><trkpt lat="44.909728929028006" lon="9.02245632683325"><ele>233.0</ele><time>2026-05-03T09:44:16.997Z</time></trkpt><trkpt lat="44.909655106119295" lon="9.022620466787533"><ele>233.0</ele><time>2026-05-03T09:44:17.997Z</time></trkpt><trkpt lat="44.909582877226335" lon="9.02278366461151"><ele>231.75</ele><time>2026-05-03T09:44:18.997Z</time></trkpt><trkpt lat="44.90951179462633" lon="9.022946556663547"><ele>230.5</ele><time>2026-05-03T09:44:19.997Z</time></trkpt><trkpt lat="44.90943933913786" lon="9.02310886829363"><ele>229.25</ele><time>2026-05-03T09:44:20.997Z</time></trkpt><trkpt lat="44.90937085014932" lon="9.023258711909126"><ele>228.0</ele><time>2026-05-03T09:44:22Z</time></trkpt><trkpt lat="44.90930902367639" lon="9.023406593282933"><ele>227.0</ele><time>2026-05-03T09:44:23Z</time></trkpt><trkpt lat="44.909242795806854" lon="9.023550516488912"><ele>226.0</ele><time>2026-05-03T09:44:24Z</time></trkpt><trkpt lat="44.90917685211528" lon="9.023709610518935"><ele>225.0</ele><time>2026-05-03T09:44:25Z</time></trkpt><trkpt lat="44.90911393938313" lon="9.023858828239103"><ele>224.0</ele><time>2026-05-03T09:44:26Z</time></trkpt><trkpt lat="44.90903154714162" lon="9.023988448658056"><ele>226.75</ele><time>2026-05-03T09:44:27Z</time></trkpt><trkpt lat="44.908956402316925" lon="9.024115956465023"><ele>229.5</ele><time>2026-05-03T09:44:28Z</time></trkpt><trkpt lat="44.90887573617519" lon="9.024246101937706"><ele>232.25</ele><time>2026-05-03T09:44:29Z</time></trkpt><trkpt lat="44.90878422043872" lon="9.024354516878581"><ele>235.0</ele><time>2026-05-03T09:44:30Z</time></trkpt><trkpt lat="44.90868256312711" lon="9.024438270737159"><ele>235.0</ele><time>2026-05-03T09:44:31Z</time></trkpt><trkpt lat="44.908568725171506" lon="9.024517187892005"><ele>235.0</ele><time>2026-05-03T09:44:32Z</time></trkpt><trkpt lat="44.908454957068784" lon="9.024585549021394"><ele>235.0</ele><time>2026-05-03T09:44:33Z</time></trkpt><trkpt lat="44.90833998822961" lon="9.024660867340595"><ele>235.0</ele><time>2026-05-03T09:44:34Z</time></trkpt><trkpt lat="44.90823359225062" lon="9.024749040769287"><ele>236.0</ele><time>2026-05-03T09:44:35Z</time></trkpt><trkpt lat="44.908122613893994" lon="9.024818959928584"><ele>237.0</ele><time>2026-05-03T09:44:36Z</time></trkpt><trkpt lat="44.90800420610987" lon="9.024872954448414"><ele>238.0</ele><time>2026-05-03T09:44:37Z</time></trkpt><trkpt lat="44.907886276392865" lon="9.02495121166742"><ele>239.0</ele><time>2026-05-03T09:44:38Z</time></trkpt><trkpt lat="44.90776917194493" lon="9.025034979013183"><ele>239.0</ele><time>2026-05-03T09:44:39Z</time></trkpt><trkpt lat="44.907666263953686" lon="9.025124539844875"><ele>239.0</ele><time>2026-05-03T09:44:40Z</time></trkpt><trkpt lat="44.907579133715565" lon="9.025253704789344"><ele>239.0</ele><time>2026-05-03T09:44:41Z</time></trkpt><trkpt lat="44.90750268677774" lon="9.025410012819044"><ele>239.0</ele><time>2026-05-03T09:44:42Z</time></trkpt><trkpt lat="44.907407224922686" lon="9.025557328154777"><ele>240.75</ele><time>2026-05-03T09:44:43Z</time></trkpt><trkpt lat="44.90731836802398" lon="9.025724459586822"><ele>242.5</ele><time>2026-05-03T09:44:44Z</time></trkpt><trkpt lat="44.90723288113083" lon="9.025885860840981"><ele>244.25</ele><time>2026-05-03T09:44:45Z</time></trkpt><trkpt lat="44.90714534833977" lon="9.026061383573944"><ele>246.0</ele><time>2026-05-03T09:44:46Z</time></trkpt><trkpt lat="44.907061930298006" lon="9.026242410132621"><ele>246.0</ele><time>2026-05-03T09:44:47Z</time></trkpt><trkpt lat="44.90699216886224" lon="9.026395690976774"><ele>246.0</ele><time>2026-05-03T09:44:48Z</time></trkpt><trkpt lat="44.906921715219276" lon="9.026548318125377"><ele>246.0</ele><time>2026-05-03T09:44:49Z</time></trkpt><trkpt lat="44.906857264222424" lon="9.026683083430644"><ele>246.0</ele><time>2026-05-03T09:44:50Z</time></trkpt><trkpt lat="44.90679636578114" lon="9.026807409668244"><ele>247.5</ele><time>2026-05-03T09:44:51Z</time></trkpt><trkpt lat="44.906728863822885" lon="9.02693306288102"><ele>249.0</ele><time>2026-05-03T09:44:52Z</time></trkpt><trkpt lat="44.90665315265482" lon="9.027056043468788"><ele>250.5</ele><time>2026-05-03T09:44:53Z</time></trkpt><trkpt lat="44.90657206339986" lon="9.027174189900897"><ele>252.0</ele><time>2026-05-03T09:44:54Z</time></trkpt><trkpt lat="44.906478167347316" lon="9.027277853744776"><ele>252.0</ele><time>2026-05-03T09:44:55Z</time></trkpt><trkpt lat="44.90636701435597" lon="9.027374743374482"><ele>252.0</ele><time>2026-05-03T09:44:56Z</time></trkpt><trkpt lat="44.90625086168669" lon="9.027459337255753"><ele>252.0</ele><time>2026-05-03T09:44:57Z</time></trkpt><trkpt lat="44.90612697179186" lon="9.027535833192772"><ele>252.0</ele><time>2026-05-03T09:44:57.999Z</time></trkpt><trkpt lat="44.90598663888071" lon="9.02761085679653"><ele>253.66666666666669</ele><time>2026-05-03T09:44:58.999Z</time></trkpt><trkpt lat="44.905847327865395" lon="9.027680844272052"><ele>255.33333333333334</ele><time>2026-05-03T09:44:59.999Z</time></trkpt><trkpt lat="44.90569284200927" lon="9.027756676216345"><ele>257.0</ele><time>2026-05-03T09:45:00.999Z</time></trkpt><trkpt lat="44.9055594493525" lon="9.027837108827622"><ele>257.0</ele><time>2026-05-03T09:45:01.999Z</time></trkpt><trkpt lat="44.90539892384784" lon="9.027908059369699"><ele>257.0</ele><time>2026-05-03T09:45:02.999Z</time></trkpt><trkpt lat="44.90523434787212" lon="9.027960954378463"><ele>257.0</ele><time>2026-05-03T09:45:03.999Z</time></trkpt><trkpt lat="44.90509818683921" lon="9.02803541413179"><ele>258.33333333333337</ele><time>2026-05-03T09:45:04.999Z</time></trkpt><trkpt lat="44.904931151644284" lon="9.028105237457567"><ele>259.6666666666667</ele><time>2026-05-03T09:45:05.999Z</time></trkpt><trkpt lat="44.90479280129978" lon="9.028184371143592"><ele>261.0</ele><time>2026-05-03T09:45:06.999Z</time></trkpt><trkpt lat="44.9046406568327" lon="9.028252326036165"><ele>261.0</ele><time>2026-05-03T09:45:07.999Z</time></trkpt><trkpt lat="44.904496401345504" lon="9.028325530853026"><ele>261.0</ele><time>2026-05-03T09:45:08.999Z</time></trkpt><trkpt lat="44.904358633532006" lon="9.02841122909797"><ele>261.0</ele><time>2026-05-03T09:45:09.999Z</time></trkpt><trkpt lat="44.904215845815074" lon="9.028472360263738"><ele>263.3333333333333</ele><time>2026-05-03T09:45:10.999Z</time></trkpt><trkpt lat="44.90406368652126" lon="9.028518786904463"><ele>265.66666666666663</ele><time>2026-05-03T09:45:11.999Z</time></trkpt><trkpt lat="44.90390564632714" lon="9.028554967545979"><ele>268.0</ele><time>2026-05-03T09:45:12.999Z</time></trkpt><trkpt lat="44.903741933992265" lon="9.02858126639308"><ele>268.0</ele><time>2026-05-03T09:45:13.999Z</time></trkpt><trkpt lat="44.90359080455207" lon="9.02862927075061"><ele>268.0</ele><time>2026-05-03T09:45:14.999Z</time></trkpt><trkpt lat="44.903431585861036" lon="9.028672153861784"><ele>268.0</ele><time>2026-05-03T09:45:15.999Z</time></trkpt><trkpt lat="44.90329158171869" lon="9.02870478947677"><ele>270.0</ele><time>2026-05-03T09:45:16.999Z</time></trkpt><trkpt lat="44.90314529166175" lon="9.028711688697186"><ele>272.0</ele><time>2026-05-03T09:45:17.999Z</time></trkpt><trkpt lat="44.90301804608256" lon="9.028724631292224"><ele>274.0</ele><time>2026-05-03T09:45:18.999Z</time></trkpt><trkpt lat="44.902881457080625" lon="9.028740919824823"><ele>276.0</ele><time>2026-05-03T09:45:19.999Z</time></trkpt><trkpt lat="44.902750938110636" lon="9.028742477320636"><ele>276.0</ele><time>2026-05-03T09:45:20.999Z</time></trkpt><trkpt lat="44.902624659974194" lon="9.028704737624816"><ele>276.0</ele><time>2026-05-03T09:45:21.999Z</time></trkpt><trkpt lat="44.90251966611228" lon="9.028635367983926"><ele>276.0</ele><time>2026-05-03T09:45:22.999Z</time></trkpt><trkpt lat="44.90255243579392" lon="9.028525152053929"><ele>276.0</ele><time>2026-05-03T09:45:23.999Z</time></trkpt><trkpt lat="44.902423535277855" lon="9.028363456449863"><ele>280.2</ele><time>2026-05-03T09:45:25.999Z</time></trkpt><trkpt lat="44.902326792867235" lon="9.028253996698151"><ele>284.40000000000003</ele><time>2026-05-03T09:45:26.999Z</time></trkpt><trkpt lat="44.90222311591717" lon="9.028178585815903"><ele>288.6</ele><time>2026-05-03T09:45:27.999Z</time></trkpt><trkpt lat="44.902123337896676" lon="9.028178835762278"><ele>292.8</ele><time>2026-05-03T09:45:28.999Z</time></trkpt><trkpt lat="44.902034159033064" lon="9.028213346553983"><ele>297.0</ele><time>2026-05-03T09:45:29.999Z</time></trkpt><trkpt lat="44.90197360770289" lon="9.028308618395283"><ele>296.2</ele><time>2026-05-03T09:45:30.998Z</time></trkpt><trkpt lat="44.901992759369065" lon="9.028442873004495"><ele>295.4</ele><time>2026-05-03T09:45:31.998Z</time></trkpt><trkpt lat="44.90202561420101" lon="9.0285350158441"><ele>294.6</ele><time>2026-05-03T09:45:32.998Z</time></trkpt><trkpt lat="44.90209645595387" lon="9.02860997807852"><ele>293.8</ele><time>2026-05-03T09:45:33.998Z</time></trkpt><trkpt lat="44.90216499187406" lon="9.028734392887468"><ele>293.0</ele><time>2026-05-03T09:45:34.998Z</time></trkpt><trkpt lat="44.90222526951531" lon="9.02886118288538"><ele>293.0</ele><time>2026-05-03T09:45:35.998Z</time></trkpt><trkpt lat="44.902277446209105" lon="9.029018540521301"><ele>293.0</ele><time>2026-05-03T09:45:36.998Z</time></trkpt><trkpt lat="44.90232869222613" lon="9.029175054001128"><ele>293.0</ele><time>2026-05-03T09:45:37.998Z</time></trkpt><trkpt lat="44.902365558196486" lon="9.029299704132443"><ele>293.0</ele><time>2026-05-03T09:45:38.998Z</time></trkpt><trkpt lat="44.902385467328315" lon="9.029419177077822"><ele>293.0</ele><time>2026-05-03T09:45:39.998Z</time></trkpt><trkpt lat="44.90233712806792" lon="9.029500065278043"><ele>293.0</ele><time>2026-05-03T09:45:40.998Z</time></trkpt><trkpt lat="44.902274161840005" lon="9.029513636541425"><ele>293.0</ele><time>2026-05-03T09:45:41.998Z</time></trkpt><trkpt lat="44.90217402083109" lon="9.029366380218566"><ele>293.0</ele><time>2026-05-03T09:45:43.998Z</time></trkpt><trkpt lat="44.90210943865029" lon="9.029260962102079"><ele>293.0</ele><time>2026-05-03T09:45:44.998Z</time></trkpt><trkpt lat="44.90202389639788" lon="9.02914076766762"><ele>293.0</ele><time>2026-05-03T09:45:45.998Z</time></trkpt><trkpt lat="44.90191336176391" lon="9.029023329094047"><ele>293.0</ele><time>2026-05-03T09:45:46.998Z</time></trkpt><trkpt lat="44.90178802759581" lon="9.02891275025454"><ele>293.0</ele><time>2026-05-03T09:45:47.998Z</time></trkpt><trkpt lat="44.90167138031728" lon="9.028817822641736"><ele>293.0</ele><time>2026-05-03T09:45:48.998Z</time></trkpt><trkpt lat="44.901579363486114" lon="9.02873102361815"><ele>293.0</ele><time>2026-05-03T09:45:49.998Z</time></trkpt><trkpt lat="44.90150944371413" lon="9.028659082501989"><ele>296.8</ele><time>2026-05-03T09:45:50.998Z</time></trkpt><trkpt lat="44.90143656519433" lon="9.028600136355069"><ele>300.6</ele><time>2026-05-03T09:45:51.998Z</time></trkpt><trkpt lat="44.9013833507546" lon="9.028535967021668"><ele>304.4</ele><time>2026-05-03T09:45:52.998Z</time></trkpt><trkpt lat="44.90133211873074" lon="9.028463135976915"><ele>308.2</ele><time>2026-05-03T09:45:53.998Z</time></trkpt><trkpt lat="44.901259499954314" lon="9.028389308293411"><ele>312.0</ele><time>2026-05-03T09:45:55.998Z</time></trkpt><trkpt lat="44.9012893774339" lon="9.028731095060326"><ele>312.0</ele><time>2026-05-03T09:45:59.998Z</time></trkpt><trkpt lat="44.90137974151376" lon="9.028851025308036"><ele>312.0</ele><time>2026-05-03T09:46:00.998Z</time></trkpt><trkpt lat="44.90147790539286" lon="9.028996057137107"><ele>312.0</ele><time>2026-05-03T09:46:01.998Z</time></trkpt><trkpt lat="44.90154712415839" lon="9.029130911188593"><ele>312.0</ele><time>2026-05-03T09:46:02.998Z</time></trkpt><trkpt lat="44.90160520645996" lon="9.029266446414262"><ele>313.0</ele><time>2026-05-03T09:46:03.997Z</time></trkpt><trkpt lat="44.90163003169201" lon="9.029395188598395"><ele>314.0</ele><time>2026-05-03T09:46:04.997Z</time></trkpt><trkpt lat="44.901593191321375" lon="9.029528500023185"><ele>315.0</ele><time>2026-05-03T09:46:05.997Z</time></trkpt><trkpt lat="44.901558129327135" lon="9.029643262709886"><ele>316.0</ele><time>2026-05-03T09:46:06.997Z</time></trkpt><trkpt lat="44.90144788811184" lon="9.02971563221915"><ele>317.0</ele><time>2026-05-03T09:46:07.997Z</time></trkpt><trkpt lat="44.901344886787804" lon="9.029809975432489"><ele>317.0</ele><time>2026-05-03T09:46:08.997Z</time></trkpt><trkpt lat="44.90123549400274" lon="9.02990646013062"><ele>317.0</ele><time>2026-05-03T09:46:09.997Z</time></trkpt><trkpt lat="44.90113346189578" lon="9.030022714970144"><ele>317.0</ele><time>2026-05-03T09:46:10.997Z</time></trkpt><trkpt lat="44.9010236344099" lon="9.030123491365414"><ele>317.0</ele><time>2026-05-03T09:46:11.997Z</time></trkpt><trkpt lat="44.9009184414507" lon="9.030223547359316"><ele>319.25</ele><time>2026-05-03T09:46:12.997Z</time></trkpt><trkpt lat="44.90081363844354" lon="9.030336244995668"><ele>321.5</ele><time>2026-05-03T09:46:13.997Z</time></trkpt><trkpt lat="44.90071752551512" lon="9.0304631933351"><ele>323.75</ele><time>2026-05-03T09:46:14.997Z</time></trkpt><trkpt lat="44.90062189200097" lon="9.03058510775032"><ele>326.0</ele><time>2026-05-03T09:46:15.997Z</time></trkpt><trkpt lat="44.90052578838144" lon="9.030709244600898"><ele>323.5</ele><time>2026-05-03T09:46:16.997Z</time></trkpt><trkpt lat="44.90043560728589" lon="9.030817510001762"><ele>321.0</ele><time>2026-05-03T09:46:17.997Z</time></trkpt><trkpt lat="44.900337707072715" lon="9.030899434721587"><ele>318.5</ele><time>2026-05-03T09:46:18.997Z</time></trkpt><trkpt lat="44.90022877718212" lon="9.030924913945965"><ele>316.0</ele><time>2026-05-03T09:46:19.997Z</time></trkpt><trkpt lat="44.90011106922363" lon="9.030972535057888"><ele>319.0</ele><time>2026-05-03T09:46:20.997Z</time></trkpt><trkpt lat="44.899982318522845" lon="9.030965630474851"><ele>322.0</ele><time>2026-05-03T09:46:21.997Z</time></trkpt><trkpt lat="44.89983845655573" lon="9.030975801030548"><ele>325.0</ele><time>2026-05-03T09:46:22.997Z</time></trkpt><trkpt lat="44.89967959126674" lon="9.030985734462876"><ele>328.0</ele><time>2026-05-03T09:46:23.997Z</time></trkpt><trkpt lat="44.89952556176803" lon="9.03102404862988"><ele>328.0</ele><time>2026-05-03T09:46:24.997Z</time></trkpt><trkpt lat="44.89936592063677" lon="9.031067019434463"><ele>328.0</ele><time>2026-05-03T09:46:25.997Z</time></trkpt><trkpt lat="44.899232196750646" lon="9.031142493689636"><ele>328.0</ele><time>2026-05-03T09:46:26.997Z</time></trkpt><trkpt lat="44.899102218814264" lon="9.031230492067357"><ele>329.0</ele><time>2026-05-03T09:46:28Z</time></trkpt><trkpt lat="44.898980584673645" lon="9.031296403227941"><ele>330.0</ele><time>2026-05-03T09:46:29Z</time></trkpt><trkpt lat="44.898836087507554" lon="9.031352611583129"><ele>331.0</ele><time>2026-05-03T09:46:30Z</time></trkpt><trkpt lat="44.89870490018296" lon="9.031389423403766"><ele>332.0</ele><time>2026-05-03T09:46:31Z</time></trkpt><trkpt lat="44.898568632596564" lon="9.031426224275148"><ele>332.0</ele><time>2026-05-03T09:46:32Z</time></trkpt><trkpt lat="44.898443628215325" lon="9.031458844952974"><ele>332.0</ele><time>2026-05-03T09:46:33Z</time></trkpt><trkpt lat="44.89831182219744" lon="9.03148845768861"><ele>332.0</ele><time>2026-05-03T09:46:34Z</time></trkpt><trkpt lat="44.89818018454822" lon="9.031512976233982"><ele>332.0</ele><time>2026-05-03T09:46:35Z</time></trkpt><trkpt lat="44.89804967862658" lon="9.031496079439648"><ele>333.0</ele><time>2026-05-03T09:46:36Z</time></trkpt><trkpt lat="44.897906179196" lon="9.031490984691667"><ele>334.0</ele><time>2026-05-03T09:46:37Z</time></trkpt><trkpt lat="44.89776638415349" lon="9.031497518570081"><ele>335.0</ele><time>2026-05-03T09:46:38Z</time></trkpt><trkpt lat="44.897619903749245" lon="9.031490319227201"><ele>336.0</ele><time>2026-05-03T09:46:39Z</time></trkpt><trkpt lat="44.897469573315625" lon="9.03149502867581"><ele>336.0</ele><time>2026-05-03T09:46:40Z</time></trkpt><trkpt lat="44.89732627637478" lon="9.031505183630308"><ele>336.0</ele><time>2026-05-03T09:46:41Z</time></trkpt><trkpt lat="44.89718853100798" lon="9.031522424707468"><ele>336.0</ele><time>2026-05-03T09:46:42Z</time></trkpt><trkpt lat="44.897062512195156" lon="9.031559541716382"><ele>336.0</ele><time>2026-05-03T09:46:43Z</time></trkpt><trkpt lat="44.89692444465521" lon="9.031629478166032"><ele>336.25</ele><time>2026-05-03T09:46:44Z</time></trkpt><trkpt lat="44.89678819679203" lon="9.03167056400866"><ele>336.5</ele><time>2026-05-03T09:46:45Z</time></trkpt><trkpt lat="44.89664376692451" lon="9.031737124512524"><ele>336.75</ele><time>2026-05-03T09:46:46Z</time></trkpt><trkpt lat="44.89655095353991" lon="9.031822401978763"><ele>337.0</ele><time>2026-05-03T09:46:47Z</time></trkpt><trkpt lat="44.89645325664232" lon="9.031904277826408"><ele>337.0</ele><time>2026-05-03T09:46:48Z</time></trkpt><trkpt lat="44.89636257398897" lon="9.03201875748936"><ele>337.0</ele><time>2026-05-03T09:46:49Z</time></trkpt><trkpt lat="44.896290119771805" lon="9.032175432393359"><ele>337.0</ele><time>2026-05-03T09:46:50Z</time></trkpt><trkpt lat="44.89620890043174" lon="9.032331517394637"><ele>337.0</ele><time>2026-05-03T09:46:51Z</time></trkpt><trkpt lat="44.896144862809074" lon="9.032481483135628"><ele>339.0</ele><time>2026-05-03T09:46:52Z</time></trkpt><trkpt lat="44.896072098771555" lon="9.032647762313788"><ele>341.0</ele><time>2026-05-03T09:46:53Z</time></trkpt><trkpt lat="44.89600157670399" lon="9.032795996634825"><ele>343.0</ele><time>2026-05-03T09:46:54Z</time></trkpt><trkpt lat="44.895910453361694" lon="9.032911407057666"><ele>345.0</ele><time>2026-05-03T09:46:55Z</time></trkpt><trkpt lat="44.895799055143414" lon="9.03298937889539"><ele>345.0</ele><time>2026-05-03T09:46:56Z</time></trkpt><trkpt lat="44.895678685147615" lon="9.033064658617851"><ele>345.0</ele><time>2026-05-03T09:46:57Z</time></trkpt><trkpt lat="44.89555770926322" lon="9.033132703005158"><ele>345.0</ele><time>2026-05-03T09:46:58Z</time></trkpt><trkpt lat="44.895443302497554" lon="9.033187035988462"><ele>345.0</ele><time>2026-05-03T09:46:59Z</time></trkpt><trkpt lat="44.895320927273474" lon="9.033247196608208"><ele>345.5</ele><time>2026-05-03T09:47:00Z</time></trkpt><trkpt lat="44.895187456533996" lon="9.033324198772746"><ele>346.0</ele><time>2026-05-03T09:47:01Z</time></trkpt><trkpt lat="44.895078570260324" lon="9.033452916876454"><ele>346.5</ele><time>2026-05-03T09:47:02Z</time></trkpt><trkpt lat="44.89496490204146" lon="9.033535551506741"><ele>347.0</ele><time>2026-05-03T09:47:03Z</time></trkpt><trkpt lat="44.89486275917562" lon="9.033634176150642"><ele>347.0</ele><time>2026-05-03T09:47:04Z</time></trkpt><trkpt lat="44.89476530513536" lon="9.033736597432716"><ele>347.0</ele><time>2026-05-03T09:47:05Z</time></trkpt><trkpt lat="44.89464927158472" lon="9.033813178060225"><ele>347.0</ele><time>2026-05-03T09:47:06Z</time></trkpt><trkpt lat="44.89453211505006" lon="9.03389319898592"><ele>347.0</ele><time>2026-05-03T09:47:06.999Z</time></trkpt><trkpt lat="44.894407743464285" lon="9.03396818900709"><ele>347.0</ele><time>2026-05-03T09:47:07.999Z</time></trkpt><trkpt lat="44.89430397751909" lon="9.034058164791581"><ele>347.0</ele><time>2026-05-03T09:47:08.999Z</time></trkpt><trkpt lat="44.89418575057889" lon="9.034147496992949"><ele>347.0</ele><time>2026-05-03T09:47:09.999Z</time></trkpt><trkpt lat="44.89407262815479" lon="9.03423113386794"><ele>347.0</ele><time>2026-05-03T09:47:10.999Z</time></trkpt><trkpt lat="44.89396010809373" lon="9.03433230110023"><ele>348.5</ele><time>2026-05-03T09:47:11.999Z</time></trkpt><trkpt lat="44.893843714087566" lon="9.034412152247315"><ele>350.0</ele><time>2026-05-03T09:47:12.999Z</time></trkpt><trkpt lat="44.893729226717916" lon="9.034510029173815"><ele>351.5</ele><time>2026-05-03T09:47:13.999Z</time></trkpt><trkpt lat="44.893616780762365" lon="9.034618056614702"><ele>353.0</ele><time>2026-05-03T09:47:14.999Z</time></trkpt><trkpt lat="44.89350724537236" lon="9.03473134885107"><ele>353.5</ele><time>2026-05-03T09:47:15.999Z</time></trkpt><trkpt lat="44.893403157378806" lon="9.034849031257842"><ele>354.0</ele><time>2026-05-03T09:47:16.999Z</time></trkpt><trkpt lat="44.89331821212329" lon="9.034992814383829"><ele>354.5</ele><time>2026-05-03T09:47:17.999Z</time></trkpt><trkpt lat="44.893211404848365" lon="9.03514230818812"><ele>355.0</ele><time>2026-05-03T09:47:18.999Z</time></trkpt><trkpt lat="44.89314810894923" lon="9.035293451472626"><ele>355.0</ele><time>2026-05-03T09:47:19.999Z</time></trkpt><trkpt lat="44.89307484694735" lon="9.035462217139534"><ele>355.0</ele><time>2026-05-03T09:47:20.999Z</time></trkpt><trkpt lat="44.893001166584" lon="9.035663561984762"><ele>355.0</ele><time>2026-05-03T09:47:21.999Z</time></trkpt><trkpt lat="44.89293724652299" lon="9.035859445782927"><ele>353.5</ele><time>2026-05-03T09:47:22.999Z</time></trkpt><trkpt lat="44.89286701812813" lon="9.036030503737424"><ele>352.0</ele><time>2026-05-03T09:47:23.999Z</time></trkpt><trkpt lat="44.89280250756986" lon="9.036190634991401"><ele>350.5</ele><time>2026-05-03T09:47:24.999Z</time></trkpt><trkpt lat="44.892726429151125" lon="9.036360009324433"><ele>349.0</ele><time>2026-05-03T09:47:25.999Z</time></trkpt><trkpt lat="44.89264613749788" lon="9.036522941838216"><ele>354.25</ele><time>2026-05-03T09:47:26.999Z</time></trkpt><trkpt lat="44.892570398729006" lon="9.036655007466116"><ele>359.5</ele><time>2026-05-03T09:47:27.999Z</time></trkpt><trkpt lat="44.89248050414888" lon="9.036773056527592"><ele>364.75</ele><time>2026-05-03T09:47:28.999Z</time></trkpt><trkpt lat="44.89238284252747" lon="9.036886216008016"><ele>370.0</ele><time>2026-05-03T09:47:29.999Z</time></trkpt><trkpt lat="44.89227755935355" lon="9.036996783202676"><ele>370.0</ele><time>2026-05-03T09:47:30.999Z</time></trkpt><trkpt lat="44.892170752640126" lon="9.037096644847422"><ele>370.0</ele><time>2026-05-03T09:47:31.999Z</time></trkpt><trkpt lat="44.892055022714736" lon="9.037160214032923"><ele>370.0</ele><time>2026-05-03T09:47:32.999Z</time></trkpt><trkpt lat="44.8919195026384" lon="9.037210776345106"><ele>370.0</ele><time>2026-05-03T09:47:33.999Z</time></trkpt><trkpt lat="44.891780552966026" lon="9.037251912786997"><ele>371.3333333333333</ele><time>2026-05-03T09:47:34.999Z</time></trkpt><trkpt lat="44.89163140798542" lon="9.037307014820255"><ele>372.6666666666667</ele><time>2026-05-03T09:47:35.999Z</time></trkpt><trkpt lat="44.891488274032476" lon="9.037419325615232"><ele>374.0</ele><time>2026-05-03T09:47:36.999Z</time></trkpt><trkpt lat="44.89135351475064" lon="9.037518549188789"><ele>374.0</ele><time>2026-05-03T09:47:37.999Z</time></trkpt><trkpt lat="44.89121405619301" lon="9.037585930698317"><ele>374.0</ele><time>2026-05-03T09:47:38.999Z</time></trkpt><trkpt lat="44.8910802238017" lon="9.037635571353329"><ele>374.0</ele><time>2026-05-03T09:47:39.998Z</time></trkpt><trkpt lat="44.890947130395304" lon="9.037675605880038"><ele>374.0</ele><time>2026-05-03T09:47:40.998Z</time></trkpt><trkpt lat="44.89079747697772" lon="9.03770991491336"><ele>376.33333333333337</ele><time>2026-05-03T09:47:41.998Z</time></trkpt><trkpt lat="44.89064894208126" lon="9.037725095465497"><ele>378.6666666666667</ele><time>2026-05-03T09:47:42.998Z</time></trkpt><trkpt lat="44.890504749107116" lon="9.037743341531192"><ele>381.0</ele><time>2026-05-03T09:47:43.998Z</time></trkpt><trkpt lat="44.890344315399346" lon="9.03776617958651"><ele>381.0</ele><time>2026-05-03T09:47:44.998Z</time></trkpt><trkpt lat="44.89019718785449" lon="9.037790857376262"><ele>381.0</ele><time>2026-05-03T09:47:45.998Z</time></trkpt><trkpt lat="44.890036876552934" lon="9.0378412084635"><ele>381.0</ele><time>2026-05-03T09:47:46.998Z</time></trkpt><trkpt lat="44.88988584112379" lon="9.037934700300541"><ele>380.0</ele><time>2026-05-03T09:47:47.998Z</time></trkpt><trkpt lat="44.88976012466423" lon="9.038033295578764"><ele>379.0</ele><time>2026-05-03T09:47:48.998Z</time></trkpt><trkpt lat="44.889619561450104" lon="9.03813457741465"><ele>378.0</ele><time>2026-05-03T09:47:49.998Z</time></trkpt><trkpt lat="44.889483929992046" lon="9.038279347902401"><ele>377.0</ele><time>2026-05-03T09:47:50.998Z</time></trkpt><trkpt lat="44.88936419563879" lon="9.038403427111216"><ele>376.0</ele><time>2026-05-03T09:47:51.998Z</time></trkpt><trkpt lat="44.88926174870079" lon="9.038526765885186"><ele>375.0</ele><time>2026-05-03T09:47:52.998Z</time></trkpt><trkpt lat="44.889166771584065" lon="9.038692869251642"><ele>374.0</ele><time>2026-05-03T09:47:53.998Z</time></trkpt><trkpt lat="44.889067652446016" lon="9.038807386395586"><ele>374.0</ele><time>2026-05-03T09:47:54.998Z</time></trkpt><trkpt lat="44.88895549684903" lon="9.038932136119119"><ele>374.0</ele><time>2026-05-03T09:47:55.998Z</time></trkpt><trkpt lat="44.88885340081899" lon="9.039034158670287"><ele>374.0</ele><time>2026-05-03T09:47:56.998Z</time></trkpt><trkpt lat="44.88873410397847" lon="9.039143586901528"><ele>374.0</ele><time>2026-05-03T09:47:57.998Z</time></trkpt><trkpt lat="44.88858840424824" lon="9.039203999837008"><ele>374.0</ele><time>2026-05-03T09:47:58.998Z</time></trkpt><trkpt lat="44.88845649275111" lon="9.039275112097792"><ele>374.0</ele><time>2026-05-03T09:47:59.998Z</time></trkpt><trkpt lat="44.888330545559704" lon="9.039331437534878"><ele>374.0</ele><time>2026-05-03T09:48:00.998Z</time></trkpt><trkpt lat="44.88819473038136" lon="9.039384596478085"><ele>374.0</ele><time>2026-05-03T09:48:01.998Z</time></trkpt><trkpt lat="44.88806079627714" lon="9.039435572258423"><ele>374.0</ele><time>2026-05-03T09:48:02.998Z</time></trkpt><trkpt lat="44.887931418586874" lon="9.039478060022876"><ele>374.0</ele><time>2026-05-03T09:48:03.998Z</time></trkpt><trkpt lat="44.88781492670696" lon="9.039508816990496"><ele>374.0</ele><time>2026-05-03T09:48:04.998Z</time></trkpt><trkpt lat="44.88770622580844" lon="9.039519930666978"><ele>374.0</ele><time>2026-05-03T09:48:05.998Z</time></trkpt><trkpt lat="44.88759431090792" lon="9.039493595076335"><ele>373.5</ele><time>2026-05-03T09:48:06.998Z</time></trkpt><trkpt lat="44.887488720039784" lon="9.03943970404224"><ele>373.0</ele><time>2026-05-03T09:48:07.998Z</time></trkpt><trkpt lat="44.88737107355006" lon="9.039372584864886"><ele>372.5</ele><time>2026-05-03T09:48:08.998Z</time></trkpt><trkpt lat="44.88724034173594" lon="9.039323695656718"><ele>372.0</ele><time>2026-05-03T09:48:09.998Z</time></trkpt><trkpt lat="44.88711229454917" lon="9.03926137921211"><ele>372.0</ele><time>2026-05-03T09:48:10.998Z</time></trkpt><trkpt lat="44.88697720805826" lon="9.039209874777328"><ele>372.0</ele><time>2026-05-03T09:48:11.998Z</time></trkpt><trkpt lat="44.88684501781799" lon="9.039151409464203"><ele>372.0</ele><time>2026-05-03T09:48:12.997Z</time></trkpt><trkpt lat="44.886729445147495" lon="9.039074974697485"><ele>372.0</ele><time>2026-05-03T09:48:13.997Z</time></trkpt><trkpt lat="44.88662172096205" lon="9.039018825961154"><ele>370.0</ele><time>2026-05-03T09:48:14.997Z</time></trkpt><trkpt lat="44.886523764366856" lon="9.038936409341401"><ele>368.0</ele><time>2026-05-03T09:48:15.997Z</time></trkpt><trkpt lat="44.88642624108672" lon="9.038874404819186"><ele>366.0</ele><time>2026-05-03T09:48:16.997Z</time></trkpt><trkpt lat="44.886319244251546" lon="9.038858717604846"><ele>364.0</ele><time>2026-05-03T09:48:17.997Z</time></trkpt><trkpt lat="44.886213442013435" lon="9.03888485276414"><ele>362.0</ele><time>2026-05-03T09:48:18.997Z</time></trkpt><trkpt lat="44.886106989090386" lon="9.038966517332042"><ele>362.0</ele><time>2026-05-03T09:48:19.997Z</time></trkpt><trkpt lat="44.88601053257015" lon="9.039038296932326"><ele>362.0</ele><time>2026-05-03T09:48:20.997Z</time></trkpt><trkpt lat="44.88590697817508" lon="9.039032460653294"><ele>362.0</ele><time>2026-05-03T09:48:21.997Z</time></trkpt><trkpt lat="44.885807857867924" lon="9.039027727264763"><ele>362.0</ele><time>2026-05-03T09:48:22.997Z</time></trkpt><trkpt lat="44.88571234573437" lon="9.038914490652866"><ele>362.0</ele><time>2026-05-03T09:48:23.997Z</time></trkpt><trkpt lat="44.88561089696346" lon="9.038806452777347"><ele>362.75</ele><time>2026-05-03T09:48:24.997Z</time></trkpt><trkpt lat="44.885498121465346" lon="9.038690909050738"><ele>363.5</ele><time>2026-05-03T09:48:25.997Z</time></trkpt><trkpt lat="44.88541139887371" lon="9.03853363018972"><ele>364.25</ele><time>2026-05-03T09:48:26.997Z</time></trkpt><trkpt lat="44.885350255062924" lon="9.038332914406409"><ele>365.0</ele><time>2026-05-03T09:48:27.997Z</time></trkpt><trkpt lat="44.88526903192602" lon="9.038140786015"><ele>363.0</ele><time>2026-05-03T09:48:28.997Z</time></trkpt><trkpt lat="44.885210566107304" lon="9.037960399891832"><ele>361.0</ele><time>2026-05-03T09:48:29.997Z</time></trkpt><trkpt lat="44.885163516478556" lon="9.03775064416501"><ele>359.0</ele><time>2026-05-03T09:48:30.997Z</time></trkpt><trkpt lat="44.8851043253546" lon="9.037539494661734"><ele>363.0</ele><time>2026-05-03T09:48:31.997Z</time></trkpt><trkpt lat="44.88505573724622" lon="9.037344603187607"><ele>367.0</ele><time>2026-05-03T09:48:32.997Z</time></trkpt><trkpt lat="44.88501416446259" lon="9.037167613779332"><ele>371.0</ele><time>2026-05-03T09:48:34Z</time></trkpt><trkpt lat="44.88497414052665" lon="9.036996340462316"><ele>375.0</ele><time>2026-05-03T09:48:35Z</time></trkpt><trkpt lat="44.88492964405213" lon="9.036817106998516"><ele>375.0</ele><time>2026-05-03T09:48:36Z</time></trkpt><trkpt lat="44.884884478577455" lon="9.036643262476797"><ele>375.0</ele><time>2026-05-03T09:48:37Z</time></trkpt><trkpt lat="44.88484634329996" lon="9.036475725250376"><ele>375.0</ele><time>2026-05-03T09:48:38Z</time></trkpt><trkpt lat="44.884824360308365" lon="9.036309469271231"><ele>375.0</ele><time>2026-05-03T09:48:39Z</time></trkpt><trkpt lat="44.884821546244055" lon="9.036137002559327"><ele>374.4</ele><time>2026-05-03T09:48:40Z</time></trkpt><trkpt lat="44.88482824199224" lon="9.035975244832361"><ele>373.8</ele><time>2026-05-03T09:48:41Z</time></trkpt><trkpt lat="44.88482120993806" lon="9.035804800652329"><ele>373.20000000000005</ele><time>2026-05-03T09:48:42Z</time></trkpt><trkpt lat="44.884840776408865" lon="9.03565116995381"><ele>372.6</ele><time>2026-05-03T09:48:43Z</time></trkpt><trkpt lat="44.884842612986894" lon="9.035509146415121"><ele>372.0</ele><time>2026-05-03T09:48:44Z</time></trkpt><trkpt lat="44.88483451747615" lon="9.035383657613933"><ele>372.0</ele><time>2026-05-03T09:48:45Z</time></trkpt><trkpt lat="44.8847978555813" lon="9.035255768153585"><ele>372.0</ele><time>2026-05-03T09:48:46Z</time></trkpt><trkpt lat="44.88473505769325" lon="9.03514682471873"><ele>372.0</ele><time>2026-05-03T09:48:47Z</time></trkpt><trkpt lat="44.88465022398749" lon="9.035064876915413"><ele>372.0</ele><time>2026-05-03T09:48:48Z</time></trkpt><trkpt lat="44.884567438407785" lon="9.034985078377485"><ele>372.0</ele><time>2026-05-03T09:48:49Z</time></trkpt><trkpt lat="44.88448336499041" lon="9.034923753089386"><ele>371.40000000000003</ele><time>2026-05-03T09:48:50Z</time></trkpt><trkpt lat="44.884397946144425" lon="9.034841936625613"><ele>370.8</ele><time>2026-05-03T09:48:51Z</time></trkpt><trkpt lat="44.88432681554549" lon="9.034740807198897"><ele>370.2</ele><time>2026-05-03T09:48:52Z</time></trkpt><trkpt lat="44.884265582169405" lon="9.03462921551496"><ele>369.6</ele><time>2026-05-03T09:48:53Z</time></trkpt><trkpt lat="44.88419418254579" lon="9.03450921783868"><ele>369.0</ele><time>2026-05-03T09:48:54Z</time></trkpt><trkpt lat="44.88413574390308" lon="9.034392510649184"><ele>369.0</ele><time>2026-05-03T09:48:55Z</time></trkpt><trkpt lat="44.88406297263485" lon="9.0342891398194"><ele>369.0</ele><time>2026-05-03T09:48:56Z</time></trkpt><trkpt lat="44.8839705757909" lon="9.034206666776"><ele>369.0</ele><time>2026-05-03T09:48:57Z</time></trkpt><trkpt lat="44.883864147598885" lon="9.034157605117004"><ele>369.0</ele><time>2026-05-03T09:48:58Z</time></trkpt><trkpt lat="44.88374863135148" lon="9.034137215180225"><ele>369.0</ele><time>2026-05-03T09:48:59Z</time></trkpt><trkpt lat="44.88363177120884" lon="9.034129082883908"><ele>369.5</ele><time>2026-05-03T09:49:00Z</time></trkpt><trkpt lat="44.883523543150915" lon="9.034099308791353"><ele>370.0</ele><time>2026-05-03T09:49:01Z</time></trkpt><trkpt lat="44.88341374441218" lon="9.034091133604287"><ele>370.5</ele><time>2026-05-03T09:49:02Z</time></trkpt><trkpt lat="44.88331015588883" lon="9.034020192095381"><ele>371.0</ele><time>2026-05-03T09:49:03Z</time></trkpt><trkpt lat="44.88323998462883" lon="9.033882963801581"><ele>371.0</ele><time>2026-05-03T09:49:04Z</time></trkpt><trkpt lat="44.88318009789974" lon="9.033739860834068"><ele>371.0</ele><time>2026-05-03T09:49:05Z</time></trkpt><trkpt lat="44.88310192694671" lon="9.033590343199343"><ele>371.0</ele><time>2026-05-03T09:49:06Z</time></trkpt><trkpt lat="44.883039128658396" lon="9.033420450196365"><ele>371.0</ele><time>2026-05-03T09:49:07Z</time></trkpt><trkpt lat="44.882964788533734" lon="9.033259003276934"><ele>369.75</ele><time>2026-05-03T09:49:08Z</time></trkpt><trkpt lat="44.88288439311656" lon="9.033098203556627"><ele>368.5</ele><time>2026-05-03T09:49:09Z</time></trkpt><trkpt lat="44.88278851207604" lon="9.0329385543316"><ele>367.25</ele><time>2026-05-03T09:49:10Z</time></trkpt><trkpt lat="44.88269215350752" lon="9.03279464056224"><ele>366.0</ele><time>2026-05-03T09:49:11Z</time></trkpt><trkpt lat="44.88256765835623" lon="9.03260763102418"><ele>373.0</ele><time>2026-05-03T09:49:12Z</time></trkpt><trkpt lat="44.88244885940604" lon="9.03243683620962"><ele>380.0</ele><time>2026-05-03T09:49:12.999Z</time></trkpt><trkpt lat="44.88233346563603" lon="9.032280262912847"><ele>387.0</ele><time>2026-05-03T09:49:13.999Z</time></trkpt><trkpt lat="44.8822229447539" lon="9.03213903300823"><ele>387.0</ele><time>2026-05-03T09:49:14.999Z</time></trkpt><trkpt lat="44.88211869133685" lon="9.03201471250129"><ele>387.0</ele><time>2026-05-03T09:49:15.999Z</time></trkpt><trkpt lat="44.882025143870585" lon="9.031914308378042"><ele>387.0</ele><time>2026-05-03T09:49:16.999Z</time></trkpt><trkpt lat="44.88193937422729" lon="9.031783043473252"><ele>387.0</ele><time>2026-05-03T09:49:17.999Z</time></trkpt><trkpt lat="44.88184547826995" lon="9.031670401287835"><ele>387.8</ele><time>2026-05-03T09:49:18.999Z</time></trkpt><trkpt lat="44.881759940971115" lon="9.031567786449527"><ele>388.6</ele><time>2026-05-03T09:49:19.999Z</time></trkpt><trkpt lat="44.881688057554136" lon="9.031475744056547"><ele>389.40000000000003</ele><time>2026-05-03T09:49:20.999Z</time></trkpt><trkpt lat="44.88162657972489" lon="9.031390733997894"><ele>390.20000000000005</ele><time>2026-05-03T09:49:21.999Z</time></trkpt><trkpt lat="44.881579270246164" lon="9.031313889187228"><ele>391.0</ele><time>2026-05-03T09:49:22.999Z</time></trkpt><trkpt lat="44.881529361582494" lon="9.03121822155918"><ele>391.00000000000006</ele><time>2026-05-03T09:49:23.999Z</time></trkpt><trkpt lat="44.88148763518766" lon="9.03113019035689"><ele>391.0</ele><time>2026-05-03T09:49:24.999Z</time></trkpt><trkpt lat="44.881448363396444" lon="9.031043792273158"><ele>391.0</ele><time>2026-05-03T09:49:25.999Z</time></trkpt><trkpt lat="44.88139725611465" lon="9.030968059802973"><ele>391.0</ele><time>2026-05-03T09:49:26.999Z</time></trkpt><trkpt lat="44.88135618832111" lon="9.030869398660835"><ele>391.00000000000006</ele><time>2026-05-03T09:49:27.999Z</time></trkpt><trkpt lat="44.88130536112304" lon="9.030759965442448"><ele>391.0</ele><time>2026-05-03T09:49:28.999Z</time></trkpt><trkpt lat="44.88127188156123" lon="9.030644033815747"><ele>389.6</ele><time>2026-05-03T09:49:29.999Z</time></trkpt><trkpt lat="44.88121461818851" lon="9.030555186631437"><ele>388.20000000000005</ele><time>2026-05-03T09:49:30.999Z</time></trkpt><trkpt lat="44.881173757667874" lon="9.030458578041062"><ele>386.79999999999995</ele><time>2026-05-03T09:49:31.999Z</time></trkpt><trkpt lat="44.88112375754013" lon="9.030308195793662"><ele>385.4</ele><time>2026-05-03T09:49:33.999Z</time></trkpt><trkpt lat="44.88107091412037" lon="9.03015291178127"><ele>384.0</ele><time>2026-05-03T09:49:35.999Z</time></trkpt><trkpt lat="44.88092818570875" lon="9.030114419793128"><ele>382.5</ele><time>2026-05-03T09:49:36.999Z</time></trkpt><trkpt lat="44.88082473833043" lon="9.03009186820679"><ele>381.0</ele><time>2026-05-03T09:49:37.999Z</time></trkpt><trkpt lat="44.88070694557557" lon="9.030008436709576"><ele>379.5</ele><time>2026-05-03T09:49:38.999Z</time></trkpt><trkpt lat="44.88059469442073" lon="9.029932669643857"><ele>378.0</ele><time>2026-05-03T09:49:39.999Z</time></trkpt><trkpt lat="44.88048511206872" lon="9.029846845447883"><ele>377.25</ele><time>2026-05-03T09:49:40.999Z</time></trkpt><trkpt lat="44.88037620898353" lon="9.029757264733131"><ele>376.5</ele><time>2026-05-03T09:49:41.999Z</time></trkpt><trkpt lat="44.88026678835487" lon="9.029667078525225"><ele>375.75</ele><time>2026-05-03T09:49:42.999Z</time></trkpt><trkpt lat="44.88014968690385" lon="9.02958232766831"><ele>375.0</ele><time>2026-05-03T09:49:43.999Z</time></trkpt><trkpt lat="44.88002752928651" lon="9.029491612813878"><ele>375.0</ele><time>2026-05-03T09:49:44.998Z</time></trkpt><trkpt lat="44.8799056691883" lon="9.029392795343277"><ele>375.0</ele><time>2026-05-03T09:49:45.998Z</time></trkpt><trkpt lat="44.87977850501101" lon="9.029296375725185"><ele>375.0</ele><time>2026-05-03T09:49:46.998Z</time></trkpt><trkpt lat="44.87964916085912" lon="9.029221323362513"><ele>375.0</ele><time>2026-05-03T09:49:47.998Z</time></trkpt><trkpt lat="44.87951730983474" lon="9.02917067870632"><ele>375.0</ele><time>2026-05-03T09:49:48.998Z</time></trkpt><trkpt lat="44.87937589132016" lon="9.029144631782367"><ele>375.0</ele><time>2026-05-03T09:49:49.998Z</time></trkpt><trkpt lat="44.87923604083159" lon="9.029124602895688"><ele>375.0</ele><time>2026-05-03T09:49:50.998Z</time></trkpt><trkpt lat="44.879101396584524" lon="9.02910576125977"><ele>375.0</ele><time>2026-05-03T09:49:51.998Z</time></trkpt><trkpt lat="44.87897412770017" lon="9.029060699899281"><ele>375.0</ele><time>2026-05-03T09:49:52.998Z</time></trkpt><trkpt lat="44.8788365043615" lon="9.029037420338124"><ele>375.0</ele><time>2026-05-03T09:49:53.998Z</time></trkpt><trkpt lat="44.87869796157368" lon="9.029017865000105"><ele>375.0</ele><time>2026-05-03T09:49:54.998Z</time></trkpt><trkpt lat="44.8785597829562" lon="9.029024865885889"><ele>375.0</ele><time>2026-05-03T09:49:55.998Z</time></trkpt><trkpt lat="44.87841315859049" lon="9.029025898117958"><ele>375.0</ele><time>2026-05-03T09:49:56.998Z</time></trkpt><trkpt lat="44.878260228585994" lon="9.029045191696726"><ele>375.0</ele><time>2026-05-03T09:49:57.998Z</time></trkpt><trkpt lat="44.87811241848042" lon="9.029080254788385"><ele>375.0</ele><time>2026-05-03T09:49:58.998Z</time></trkpt><trkpt lat="44.87797511623027" lon="9.029088279268477"><ele>375.0</ele><time>2026-05-03T09:49:59.998Z</time></trkpt><trkpt lat="44.877840645210995" lon="9.029142562521173"><ele>375.0</ele><time>2026-05-03T09:50:00.998Z</time></trkpt><trkpt lat="44.87769650422421" lon="9.029160752273185"><ele>375.0</ele><time>2026-05-03T09:50:01.998Z</time></trkpt><trkpt lat="44.87756710281584" lon="9.029196767381286"><ele>375.0</ele><time>2026-05-03T09:50:02.998Z</time></trkpt><trkpt lat="44.87743505332629" lon="9.029188020411029"><ele>375.0</ele><time>2026-05-03T09:50:03.998Z</time></trkpt><trkpt lat="44.87731617258807" lon="9.02919681829925"><ele>376.25</ele><time>2026-05-03T09:50:04.998Z</time></trkpt><trkpt lat="44.87719214236547" lon="9.02918002580559"><ele>377.5</ele><time>2026-05-03T09:50:05.998Z</time></trkpt><trkpt lat="44.877059472859656" lon="9.029126919705277"><ele>378.75</ele><time>2026-05-03T09:50:06.998Z</time></trkpt><trkpt lat="44.876922712687026" lon="9.029061560738254"><ele>380.0</ele><time>2026-05-03T09:50:07.998Z</time></trkpt><trkpt lat="44.87679409204556" lon="9.028995160651343"><ele>381.0</ele><time>2026-05-03T09:50:08.998Z</time></trkpt><trkpt lat="44.87665179411778" lon="9.028920138040059"><ele>382.0</ele><time>2026-05-03T09:50:09.998Z</time></trkpt><trkpt lat="44.876518164437556" lon="9.02885021087768"><ele>383.0</ele><time>2026-05-03T09:50:10.998Z</time></trkpt><trkpt lat="44.87639811866908" lon="9.028778506422073"><ele>384.0</ele><time>2026-05-03T09:50:11.998Z</time></trkpt><trkpt lat="44.87627212382975" lon="9.02868189652378"><ele>384.0</ele><time>2026-05-03T09:50:12.998Z</time></trkpt><trkpt lat="44.87615465477538" lon="9.028577972212574"><ele>384.0</ele><time>2026-05-03T09:50:13.998Z</time></trkpt><trkpt lat="44.87602641981441" lon="9.02845361047823"><ele>384.0</ele><time>2026-05-03T09:50:14.998Z</time></trkpt><trkpt lat="44.87589306434836" lon="9.028321697387018"><ele>385.0</ele><time>2026-05-03T09:50:15.998Z</time></trkpt><trkpt lat="44.8757439882132" lon="9.028193600747343"><ele>386.0</ele><time>2026-05-03T09:50:16.998Z</time></trkpt><trkpt lat="44.875638891273354" lon="9.028069380486846"><ele>387.0</ele><time>2026-05-03T09:50:17.997Z</time></trkpt><trkpt lat="44.875507050051425" lon="9.027944160880969"><ele>387.0</ele><time>2026-05-03T09:50:18.997Z</time></trkpt><trkpt lat="44.875406599600495" lon="9.027859107895345"><ele>387.0</ele><time>2026-05-03T09:50:19.997Z</time></trkpt><trkpt lat="44.875308646434625" lon="9.027790565444317"><ele>387.0</ele><time>2026-05-03T09:50:20.997Z</time></trkpt><trkpt lat="44.87521026265947" lon="9.027747918176988"><ele>387.0</ele><time>2026-05-03T09:50:21.997Z</time></trkpt><trkpt lat="44.8751378238571" lon="9.027664836308062"><ele>387.0</ele><time>2026-05-03T09:50:22.997Z</time></trkpt><trkpt lat="44.875143651935005" lon="9.027526659897555"><ele>385.75</ele><time>2026-05-03T09:50:23.997Z</time></trkpt><trkpt lat="44.87511768231156" lon="9.027365209567959"><ele>384.5</ele><time>2026-05-03T09:50:24.997Z</time></trkpt><trkpt lat="44.87509405961741" lon="9.027193089065701"><ele>383.25</ele><time>2026-05-03T09:50:25.997Z</time></trkpt><trkpt lat="44.87505371383363" lon="9.027010168038824"><ele>382.0</ele><time>2026-05-03T09:50:26.997Z</time></trkpt><trkpt lat="44.87503230916905" lon="9.026811844744845"><ele>387.5</ele><time>2026-05-03T09:50:27.997Z</time></trkpt><trkpt lat="44.875002456395194" lon="9.026615370723242"><ele>393.0</ele><time>2026-05-03T09:50:28.997Z</time></trkpt><trkpt lat="44.87499814263524" lon="9.026426301222122"><ele>398.5</ele><time>2026-05-03T09:50:29.997Z</time></trkpt><trkpt lat="44.87500919342023" lon="9.026220661777382"><ele>404.0</ele><time>2026-05-03T09:50:30.997Z</time></trkpt><trkpt lat="44.875017193767555" lon="9.026029315871247"><ele>404.0</ele><time>2026-05-03T09:50:31.997Z</time></trkpt><trkpt lat="44.87504451663285" lon="9.025819027713757"><ele>404.0</ele><time>2026-05-03T09:50:32.997Z</time></trkpt><trkpt lat="44.87507020746977" lon="9.02563661492227"><ele>404.0</ele><time>2026-05-03T09:50:33.997Z</time></trkpt><trkpt lat="44.87508905001447" lon="9.025464222478039"><ele>404.0</ele><time>2026-05-03T09:50:34.997Z</time></trkpt><trkpt lat="44.87509025456414" lon="9.025293139422729"><ele>404.0</ele><time>2026-05-03T09:50:35.997Z</time></trkpt><trkpt lat="44.87506518086474" lon="9.025147904602923"><ele>404.0</ele><time>2026-05-03T09:50:36.997Z</time></trkpt><trkpt lat="44.87499753466613" lon="9.025029044636755"><ele>404.0</ele><time>2026-05-03T09:50:37.997Z</time></trkpt><trkpt lat="44.87490066300087" lon="9.024914425641006"><ele>404.0</ele><time>2026-05-03T09:50:39Z</time></trkpt><trkpt lat="44.874832460314664" lon="9.024794246921475"><ele>404.0</ele><time>2026-05-03T09:50:40Z</time></trkpt><trkpt lat="44.874777800072835" lon="9.024699208920593"><ele>404.0</ele><time>2026-05-03T09:50:41Z</time></trkpt><trkpt lat="44.87477742979453" lon="9.024572434736985"><ele>404.0</ele><time>2026-05-03T09:50:42Z</time></trkpt><trkpt lat="44.87485775723025" lon="9.02446535430487"><ele>404.0</ele><time>2026-05-03T09:50:43Z</time></trkpt><trkpt lat="44.874939403583625" lon="9.024349997663466"><ele>404.0</ele><time>2026-05-03T09:50:44Z</time></trkpt><trkpt lat="44.87500975623734" lon="9.024210834019577"><ele>404.0</ele><time>2026-05-03T09:50:45Z</time></trkpt><trkpt lat="44.87508901075453" lon="9.02407024492249"><ele>402.75</ele><time>2026-05-03T09:50:46Z</time></trkpt><trkpt lat="44.87516189143406" lon="9.023917242129817"><ele>401.5</ele><time>2026-05-03T09:50:47Z</time></trkpt><trkpt lat="44.875232501119854" lon="9.023760873569081"><ele>400.25</ele><time>2026-05-03T09:50:48Z</time></trkpt><trkpt lat="44.8753030315872" lon="9.02359688545005"><ele>399.0</ele><time>2026-05-03T09:50:49Z</time></trkpt><trkpt lat="44.87535624349898" lon="9.02345974374692"><ele>399.0</ele><time>2026-05-03T09:50:50Z</time></trkpt><trkpt lat="44.87542424057653" lon="9.023347943309778"><ele>399.0</ele><time>2026-05-03T09:50:51Z</time></trkpt><trkpt lat="44.87552972425356" lon="9.023289424018408"><ele>399.0</ele><time>2026-05-03T09:50:52Z</time></trkpt><trkpt lat="44.8756528875644" lon="9.023197980414144"><ele>399.0</ele><time>2026-05-03T09:50:53Z</time></trkpt><trkpt lat="44.87577212073691" lon="9.02310234757997"><ele>398.5</ele><time>2026-05-03T09:50:54Z</time></trkpt><trkpt lat="44.875879761671" lon="9.022988713127116"><ele>398.0</ele><time>2026-05-03T09:50:55Z</time></trkpt><trkpt lat="44.87599806211746" lon="9.022895624879483"><ele>397.5</ele><time>2026-05-03T09:50:56Z</time></trkpt><trkpt lat="44.876129938686084" lon="9.02284027764429"><ele>397.0</ele><time>2026-05-03T09:50:57Z</time></trkpt><trkpt lat="44.876260654510176" lon="9.02273565925482"><ele>397.0</ele><time>2026-05-03T09:50:58Z</time></trkpt><trkpt lat="44.87637691056317" lon="9.02265223692316"><ele>397.0</ele><time>2026-05-03T09:50:59Z</time></trkpt><trkpt lat="44.876492544648684" lon="9.022536386214476"><ele>397.0</ele><time>2026-05-03T09:51:00Z</time></trkpt><trkpt lat="44.87659118894708" lon="9.022405985073116"><ele>397.0</ele><time>2026-05-03T09:51:01Z</time></trkpt><trkpt lat="44.87667616507079" lon="9.022271003305596"><ele>396.0</ele><time>2026-05-03T09:51:02Z</time></trkpt><trkpt lat="44.876742695063925" lon="9.022126809626624"><ele>395.0</ele><time>2026-05-03T09:51:03Z</time></trkpt><trkpt lat="44.8767874273253" lon="9.02196494183517"><ele>394.0</ele><time>2026-05-03T09:51:04Z</time></trkpt><trkpt lat="44.87684138744748" lon="9.0218259751046"><ele>393.0</ele><time>2026-05-03T09:51:05Z</time></trkpt><trkpt lat="44.87690830732489" lon="9.021682966775264"><ele>391.5</ele><time>2026-05-03T09:51:06Z</time></trkpt><trkpt lat="44.87700939056446" lon="9.021579698202144"><ele>390.0</ele><time>2026-05-03T09:51:07Z</time></trkpt><trkpt lat="44.87712580298793" lon="9.021464846892156"><ele>388.5</ele><time>2026-05-03T09:51:08Z</time></trkpt><trkpt lat="44.87724182163858" lon="9.021319838632792"><ele>387.0</ele><time>2026-05-03T09:51:09Z</time></trkpt><trkpt lat="44.877357240043715" lon="9.021192050378298"><ele>387.0</ele><time>2026-05-03T09:51:10Z</time></trkpt><trkpt lat="44.877485607927795" lon="9.021061443168355"><ele>387.0</ele><time>2026-05-03T09:51:11Z</time></trkpt><trkpt lat="44.87760345476894" lon="9.020911283466305"><ele>387.0</ele><time>2026-05-03T09:51:12Z</time></trkpt><trkpt lat="44.87774247411123" lon="9.020780804757242"><ele>386.75</ele><time>2026-05-03T09:51:13Z</time></trkpt><trkpt lat="44.8778373705942" lon="9.020647241598668"><ele>386.5</ele><time>2026-05-03T09:51:14Z</time></trkpt><trkpt lat="44.87794444641413" lon="9.020508085469507"><ele>386.25</ele><time>2026-05-03T09:51:15Z</time></trkpt><trkpt lat="44.878034954649095" lon="9.020367017260577"><ele>386.0</ele><time>2026-05-03T09:51:16Z</time></trkpt><trkpt lat="44.87812024250537" lon="9.020204403556534"><ele>386.0</ele><time>2026-05-03T09:51:17Z</time></trkpt><trkpt lat="44.8781821891774" lon="9.020048167810382"><ele>386.0</ele><time>2026-05-03T09:51:18Z</time></trkpt><trkpt lat="44.878218152770145" lon="9.019878089587513"><ele>386.0</ele><time>2026-05-03T09:51:19Z</time></trkpt><trkpt lat="44.87824995194221" lon="9.019682543570621"><ele>386.0</ele><time>2026-05-03T09:51:19.999Z</time></trkpt><trkpt lat="44.87829157314236" lon="9.019505816350328"><ele>386.16666666666663</ele><time>2026-05-03T09:51:20.999Z</time></trkpt><trkpt lat="44.87831610077845" lon="9.019361639642755"><ele>386.3333333333333</ele><time>2026-05-03T09:51:21.999Z</time></trkpt><trkpt lat="44.87834345848207" lon="9.019246102823285"><ele>386.5</ele><time>2026-05-03T09:51:22.999Z</time></trkpt><trkpt lat="44.87838510195483" lon="9.019144073911152"><ele>386.66666666666663</ele><time>2026-05-03T09:51:23.999Z</time></trkpt><trkpt lat="44.878380054904376" lon="9.0190454648739"><ele>386.8333333333333</ele><time>2026-05-03T09:51:24.999Z</time></trkpt><trkpt lat="44.87835092180947" lon="9.018932948792157"><ele>387.0</ele><time>2026-05-03T09:51:25.999Z</time></trkpt><trkpt lat="44.878325953552064" lon="9.018828999363155"><ele>386.40000000000003</ele><time>2026-05-03T09:51:26.999Z</time></trkpt><trkpt lat="44.878346502800845" lon="9.018674977083778"><ele>385.8</ele><time>2026-05-03T09:51:27.999Z</time></trkpt><trkpt lat="44.87838014927951" lon="9.01854815969362"><ele>385.2</ele><time>2026-05-03T09:51:28.999Z</time></trkpt><trkpt lat="44.878421078352005" lon="9.018456933238925"><ele>384.6</ele><time>2026-05-03T09:51:29.999Z</time></trkpt><trkpt lat="44.878477357044204" lon="9.018388839879712"><ele>384.0</ele><time>2026-05-03T09:51:30.999Z</time></trkpt><trkpt lat="44.87860885446143" lon="9.0182956206362"><ele>385.3333333333333</ele><time>2026-05-03T09:51:32.999Z</time></trkpt><trkpt lat="44.87866745512686" lon="9.018256553498794"><ele>386.66666666666663</ele><time>2026-05-03T09:51:33.999Z</time></trkpt><trkpt lat="44.87870515057266" lon="9.01817494393872"><ele>388.0</ele><time>2026-05-03T09:51:34.999Z</time></trkpt><trkpt lat="44.87873150755116" lon="9.018064024895791"><ele>389.3333333333333</ele><time>2026-05-03T09:51:35.999Z</time></trkpt><trkpt lat="44.87876132680869" lon="9.017967812008113"><ele>390.66666666666663</ele><time>2026-05-03T09:51:36.999Z</time></trkpt><trkpt lat="44.87879668780381" lon="9.017862643441333"><ele>392.0</ele><time>2026-05-03T09:51:37.999Z</time></trkpt><trkpt lat="44.87882610060781" lon="9.017762248582873"><ele>391.99999999999994</ele><time>2026-05-03T09:51:38.999Z</time></trkpt><trkpt lat="44.87886085034073" lon="9.017655810309414"><ele>392.0</ele><time>2026-05-03T09:51:39.999Z</time></trkpt><trkpt lat="44.878903661444255" lon="9.017541746735784"><ele>392.0</ele><time>2026-05-03T09:51:40.999Z</time></trkpt><trkpt lat="44.87893781879609" lon="9.01745657297746"><ele>392.0</ele><time>2026-05-03T09:51:41.999Z</time></trkpt><trkpt lat="44.87898287705569" lon="9.017362185128496"><ele>391.99999999999994</ele><time>2026-05-03T09:51:42.999Z</time></trkpt><trkpt lat="44.87907935485075" lon="9.017254478046715"><ele>392.0</ele><time>2026-05-03T09:51:44.999Z</time></trkpt><trkpt lat="44.87915016394348" lon="9.017212663773277"><ele>391.16666666666663</ele><time>2026-05-03T09:51:45.999Z</time></trkpt><trkpt lat="44.87922709654074" lon="9.017167784611063"><ele>390.3333333333333</ele><time>2026-05-03T09:51:46.999Z</time></trkpt><trkpt lat="44.879299664390956" lon="9.017125643563794"><ele>389.5</ele><time>2026-05-03T09:51:47.999Z</time></trkpt><trkpt lat="44.879382750963735" lon="9.017086976342693"><ele>388.66666666666663</ele><time>2026-05-03T09:51:48.999Z</time></trkpt><trkpt lat="44.87944998811152" lon="9.01706530370542"><ele>387.8333333333333</ele><time>2026-05-03T09:51:49.999Z</time></trkpt><trkpt lat="44.87953962865621" lon="9.017047592347298"><ele>387.0</ele><time>2026-05-03T09:51:50.999Z</time></trkpt><trkpt lat="44.879613781720785" lon="9.017023345137117"><ele>387.0</ele><time>2026-05-03T09:51:51.999Z</time></trkpt><trkpt lat="44.879678806974916" lon="9.016987919431061"><ele>387.0</ele><time>2026-05-03T09:51:52.998Z</time></trkpt><trkpt lat="44.87975087747443" lon="9.016927472527955"><ele>387.0</ele><time>2026-05-03T09:51:53.998Z</time></trkpt><trkpt lat="44.87981752069769" lon="9.016849670460294"><ele>387.0</ele><time>2026-05-03T09:51:54.998Z</time></trkpt><trkpt lat="44.87987648011304" lon="9.01675859423525"><ele>387.0</ele><time>2026-05-03T09:51:55.998Z</time></trkpt><trkpt lat="44.879920224820545" lon="9.01667551993908"><ele>387.0</ele><time>2026-05-03T09:51:56.998Z</time></trkpt><trkpt lat="44.879969402244825" lon="9.016560304519391"><ele>388.6666666666667</ele><time>2026-05-03T09:51:57.998Z</time></trkpt><trkpt lat="44.88000070985662" lon="9.016449987909846"><ele>390.33333333333337</ele><time>2026-05-03T09:51:58.998Z</time></trkpt><trkpt lat="44.88003101362006" lon="9.016353205638302"><ele>392.0</ele><time>2026-05-03T09:51:59.998Z</time></trkpt><trkpt lat="44.88008467579961" lon="9.016268232825693"><ele>393.6666666666667</ele><time>2026-05-03T09:52:00.998Z</time></trkpt><trkpt lat="44.88013237108423" lon="9.016168610584172"><ele>395.33333333333337</ele><time>2026-05-03T09:52:01.998Z</time></trkpt><trkpt lat="44.88016880175802" lon="9.016093978280772"><ele>397.0</ele><time>2026-05-03T09:52:02.998Z</time></trkpt><trkpt lat="44.880210986685114" lon="9.016010287953039"><ele>397.00000000000006</ele><time>2026-05-03T09:52:03.998Z</time></trkpt><trkpt lat="44.880248547963454" lon="9.015936728077698"><ele>397.0</ele><time>2026-05-03T09:52:04.998Z</time></trkpt><trkpt lat="44.880282064050164" lon="9.015852455921356"><ele>397.0</ele><time>2026-05-03T09:52:05.998Z</time></trkpt><trkpt lat="44.88031772504892" lon="9.01577849475439"><ele>397.0</ele><time>2026-05-03T09:52:06.998Z</time></trkpt><trkpt lat="44.88040211527036" lon="9.015646460346687"><ele>397.00000000000006</ele><time>2026-05-03T09:52:08.998Z</time></trkpt><trkpt lat="44.88042799958787" lon="9.015562888544398"><ele>397.0</ele><time>2026-05-03T09:52:09.998Z</time></trkpt><trkpt lat="44.88045127108082" lon="9.015476226435261"><ele>397.2857142857143</ele><time>2026-05-03T09:52:10.998Z</time></trkpt><trkpt lat="44.88044001978588" lon="9.015386334991117"><ele>397.57142857142856</ele><time>2026-05-03T09:52:11.998Z</time></trkpt><trkpt lat="44.880433877266945" lon="9.015291457884278"><ele>397.8571428571429</ele><time>2026-05-03T09:52:12.998Z</time></trkpt><trkpt lat="44.88042657760129" lon="9.015196639123557"><ele>398.1428571428571</ele><time>2026-05-03T09:52:13.998Z</time></trkpt><trkpt lat="44.88040799049877" lon="9.01511129927395"><ele>398.42857142857144</ele><time>2026-05-03T09:52:14.998Z</time></trkpt><trkpt lat="44.88040304272167" lon="9.015003742378076"><ele>398.7142857142857</ele><time>2026-05-03T09:52:15.998Z</time></trkpt><trkpt lat="44.88040348105186" lon="9.014910889294566"><ele>399.0</ele><time>2026-05-03T09:52:16.998Z</time></trkpt><trkpt lat="44.88039175793029" lon="9.01480639197634"><ele>397.8333333333333</ele><time>2026-05-03T09:52:17.998Z</time></trkpt><trkpt lat="44.88038449968901" lon="9.014710972406018"><ele>396.66666666666663</ele><time>2026-05-03T09:52:18.998Z</time></trkpt><trkpt lat="44.880381269726776" lon="9.014621698637514"><ele>395.5</ele><time>2026-05-03T09:52:19.998Z</time></trkpt><trkpt lat="44.880370577964555" lon="9.014497831186572"><ele>394.3333333333333</ele><time>2026-05-03T09:52:20.998Z</time></trkpt><trkpt lat="44.88036077586805" lon="9.014405836693385"><ele>393.16666666666663</ele><time>2026-05-03T09:52:21.998Z</time></trkpt><trkpt lat="44.880379668742194" lon="9.014291151244068"><ele>392.0</ele><time>2026-05-03T09:52:22.998Z</time></trkpt><trkpt lat="44.88037043856828" lon="9.014171665462111"><ele>387.5</ele><time>2026-05-03T09:52:23.998Z</time></trkpt><trkpt lat="44.88039309793914" lon="9.0140008774642"><ele>383.0</ele><time>2026-05-03T09:52:25.997Z</time></trkpt><trkpt lat="44.880430964384644" lon="9.013901183990951"><ele>378.5</ele><time>2026-05-03T09:52:26.997Z</time></trkpt><trkpt lat="44.880480782724966" lon="9.013720928582158"><ele>374.0</ele><time>2026-05-03T09:52:28.997Z</time></trkpt><trkpt lat="44.88056935871549" lon="9.013598599055701"><ele>374.0</ele><time>2026-05-03T09:52:30.997Z</time></trkpt><trkpt lat="44.88061855279477" lon="9.013540079841848"><ele>374.0</ele><time>2026-05-03T09:52:31.997Z</time></trkpt><trkpt lat="44.88066958443036" lon="9.013477365394255"><ele>374.0</ele><time>2026-05-03T09:52:32.997Z</time></trkpt><trkpt lat="44.88073220167877" lon="9.013329812762624"><ele>374.0</ele><time>2026-05-03T09:52:34.997Z</time></trkpt><trkpt lat="44.88062471613773" lon="9.013209589608476"><ele>374.0</ele><time>2026-05-03T09:52:36.997Z</time></trkpt><trkpt lat="44.88056669643192" lon="9.013126012301742"><ele>371.1666666666667</ele><time>2026-05-03T09:52:37.997Z</time></trkpt><trkpt lat="44.88051301529708" lon="9.013079528202063"><ele>368.33333333333337</ele><time>2026-05-03T09:52:38.997Z</time></trkpt><trkpt lat="44.88045010635928" lon="9.013026409890093"><ele>365.5</ele><time>2026-05-03T09:52:39.997Z</time></trkpt><trkpt lat="44.8803849440566" lon="9.012969513144379"><ele>362.6666666666667</ele><time>2026-05-03T09:52:40.997Z</time></trkpt><trkpt lat="44.88031719660002" lon="9.012908965705014"><ele>359.8333333333333</ele><time>2026-05-03T09:52:41.997Z</time></trkpt><trkpt lat="44.88025860521455" lon="9.012855973305129"><ele>357.0</ele><time>2026-05-03T09:52:42.997Z</time></trkpt><trkpt lat="44.88018422238661" lon="9.012785682985157"><ele>356.8</ele><time>2026-05-03T09:52:45Z</time></trkpt><trkpt lat="44.880096366345974" lon="9.012701194016598"><ele>356.6</ele><time>2026-05-03T09:52:47Z</time></trkpt><trkpt lat="44.880018224835936" lon="9.012625003264588"><ele>356.40000000000003</ele><time>2026-05-03T09:52:49Z</time></trkpt><trkpt lat="44.87993682393875" lon="9.012540394598698"><ele>356.20000000000005</ele><time>2026-05-03T09:52:51Z</time></trkpt><trkpt lat="44.87984232343085" lon="9.012426247001791"><ele>356.0</ele><time>2026-05-03T09:52:53Z</time></trkpt><trkpt lat="44.87975079870755" lon="9.012295945558085"><ele>354.8</ele><time>2026-05-03T09:52:55Z</time></trkpt><trkpt lat="44.8796913452869" lon="9.012236405597283"><ele>353.6</ele><time>2026-05-03T09:52:56Z</time></trkpt><trkpt lat="44.879646861389034" lon="9.012165961631336"><ele>352.4</ele><time>2026-05-03T09:52:57Z</time></trkpt><trkpt lat="44.87957679046303" lon="9.012005069519796"><ele>351.2</ele><time>2026-05-03T09:52:59Z</time></trkpt><trkpt lat="44.87951164924188" lon="9.011854046550233"><ele>350.0</ele><time>2026-05-03T09:53:01Z</time></trkpt><trkpt lat="44.87948303096514" lon="9.011753562347394"><ele>347.83333333333337</ele><time>2026-05-03T09:53:02Z</time></trkpt><trkpt lat="44.87948478292254" lon="9.011645431548718"><ele>345.6666666666667</ele><time>2026-05-03T09:53:03Z</time></trkpt><trkpt lat="44.87948739390123" lon="9.011542449807319"><ele>343.5</ele><time>2026-05-03T09:53:04Z</time></trkpt><trkpt lat="44.87950513784773" lon="9.011438764905613"><ele>341.3333333333333</ele><time>2026-05-03T09:53:05Z</time></trkpt><trkpt lat="44.87951221678407" lon="9.011334226154572"><ele>339.16666666666663</ele><time>2026-05-03T09:53:06Z</time></trkpt><trkpt lat="44.87951911366619" lon="9.01123367980979"><ele>337.0</ele><time>2026-05-03T09:53:07Z</time></trkpt><trkpt lat="44.87952651354349" lon="9.011122554336621"><ele>337.0</ele><time>2026-05-03T09:53:08Z</time></trkpt><trkpt lat="44.87953247721664" lon="9.011033953450898"><ele>337.0</ele><time>2026-05-03T09:53:09Z</time></trkpt><trkpt lat="44.879559073530835" lon="9.010852103762963"><ele>337.0</ele><time>2026-05-03T09:53:11Z</time></trkpt><trkpt lat="44.87956715807844" lon="9.010732747964365"><ele>337.0</ele><time>2026-05-03T09:53:12Z</time></trkpt><trkpt lat="44.879545126023444" lon="9.010637088824645"><ele>337.0</ele><time>2026-05-03T09:53:13Z</time></trkpt><trkpt lat="44.879540884277866" lon="9.01051956219533"><ele>337.0</ele><time>2026-05-03T09:53:14Z</time></trkpt><trkpt lat="44.8795324173255" lon="9.01039473639959"><ele>334.6</ele><time>2026-05-03T09:53:15Z</time></trkpt><trkpt lat="44.87952541087689" lon="9.010283554494515"><ele>332.20000000000005</ele><time>2026-05-03T09:53:16Z</time></trkpt><trkpt lat="44.87952062212033" lon="9.0101584415982"><ele>329.8</ele><time>2026-05-03T09:53:17Z</time></trkpt><trkpt lat="44.879503240760876" lon="9.010049736958091"><ele>327.4</ele><time>2026-05-03T09:53:18Z</time></trkpt><trkpt lat="44.87951319401962" lon="9.009954153135864"><ele>325.0</ele><time>2026-05-03T09:53:19Z</time></trkpt><trkpt lat="44.87945257088003" lon="9.009735763862313"><ele>323.0</ele><time>2026-05-03T09:53:21Z</time></trkpt><trkpt lat="44.87943692431321" lon="9.009633973825268"><ele>321.0</ele><time>2026-05-03T09:53:22Z</time></trkpt><trkpt lat="44.879403541426946" lon="9.009534099406146"><ele>319.0</ele><time>2026-05-03T09:53:23Z</time></trkpt><trkpt lat="44.8793725013772" lon="9.009442052924241"><ele>317.0</ele><time>2026-05-03T09:53:24Z</time></trkpt><trkpt lat="44.87932011344749" lon="9.00934778033741"><ele>315.0</ele><time>2026-05-03T09:53:25.999Z</time></trkpt><trkpt lat="44.87921947448844" lon="9.009536313482377"><ele>315.3333333333333</ele><time>2026-05-03T09:53:33.999Z</time></trkpt><trkpt lat="44.8791921135427" lon="9.009651755942802"><ele>315.6666666666667</ele><time>2026-05-03T09:53:35.999Z</time></trkpt><trkpt lat="44.87918543932365" lon="9.009786589382804"><ele>316.0</ele><time>2026-05-03T09:53:37.999Z</time></trkpt><trkpt lat="44.87920759090637" lon="9.009916372117178"><ele>316.33333333333337</ele><time>2026-05-03T09:53:39.999Z</time></trkpt><trkpt lat="44.87920327503762" lon="9.010035056224762"><ele>316.6666666666667</ele><time>2026-05-03T09:53:41.999Z</time></trkpt><trkpt lat="44.87918886067452" lon="9.010126094790348"><ele>317.0</ele><time>2026-05-03T09:53:46.999Z</time></trkpt><trkpt lat="44.87908489100944" lon="9.010104765095148"><ele>317.0</ele><time>2026-05-03T09:53:49.999Z</time></trkpt><trkpt lat="44.87905377042434" lon="9.01001282939301"><ele>317.0</ele><time>2026-05-03T09:53:51.999Z</time></trkpt><trkpt lat="44.87898029711281" lon="9.010016254646073"><ele>317.0</ele><time>2026-05-03T09:53:54.999Z</time></trkpt><trkpt lat="44.878940843198684" lon="9.010087246736795"><ele>317.0</ele><time>2026-05-03T09:53:56.998Z</time></trkpt><trkpt lat="44.87891073599196" lon="9.010171178577725"><ele>317.0</ele><time>2026-05-03T09:53:58.998Z</time></trkpt><trkpt lat="44.87890022587892" lon="9.010288622620884"><ele>317.0</ele><time>2026-05-03T09:54:00.998Z</time></trkpt><trkpt lat="44.87886570888919" lon="9.010374355684691"><ele>317.0</ele><time>2026-05-03T09:54:02.998Z</time></trkpt><trkpt lat="44.878834443536476" lon="9.010457532786635"><ele>317.0</ele><time>2026-05-03T09:54:04.998Z</time></trkpt><trkpt lat="44.87878616835974" lon="9.010570172954619"><ele>317.0</ele><time>2026-05-03T09:54:06.998Z</time></trkpt><trkpt lat="44.878713764864536" lon="9.010574451618025"><ele>317.0</ele><time>2026-05-03T09:54:08.998Z</time></trkpt><trkpt lat="44.878655723457214" lon="9.010647733932363"><ele>317.0</ele><time>2026-05-03T09:54:10.998Z</time></trkpt><trkpt lat="44.878627779156844" lon="9.010728966169582"><ele>317.0</ele><time>2026-05-03T09:54:11.998Z</time></trkpt><trkpt lat="44.87865155622378" lon="9.010634743112515"><ele>317.0</ele><time>2026-05-03T09:54:13.998Z</time></trkpt><trkpt lat="44.87857348560641" lon="9.010655853587169"><ele>317.0</ele><time>2026-05-03T09:54:44.997Z</time></trkpt><trkpt lat="44.87849809950648" lon="9.010640917666791"><ele>317.0</ele><time>2026-05-03T09:54:47.997Z</time></trkpt><trkpt lat="44.878413931680036" lon="9.010639803472767"><ele>317.0</ele><time>2026-05-03T09:54:51Z</time></trkpt><trkpt lat="44.878359940444916" lon="9.010567761855453"><ele>317.0</ele><time>2026-05-03T09:54:54Z</time></trkpt><trkpt lat="44.87832160161518" lon="9.010456536268439"><ele>317.0</ele><time>2026-05-03T09:54:57Z</time></trkpt><trkpt lat="44.878360415294914" lon="9.010336197686051"><ele>317.0</ele><time>2026-05-03T09:55:00Z</time></trkpt><trkpt lat="44.87836491082383" lon="9.010242305757684"><ele>310.83333333333337</ele><time>2026-05-03T09:55:02Z</time></trkpt><trkpt lat="44.87833532178" lon="9.010099704467883"><ele>304.6666666666667</ele><time>2026-05-03T09:55:04Z</time></trkpt><trkpt lat="44.8782400127763" lon="9.010071084435276"><ele>298.5</ele><time>2026-05-03T09:55:06Z</time></trkpt><trkpt lat="44.87817061046266" lon="9.010052601453843"><ele>292.3333333333333</ele><time>2026-05-03T09:55:08Z</time></trkpt><trkpt lat="44.87808996398709" lon="9.00999070897283"><ele>286.16666666666663</ele><time>2026-05-03T09:55:10Z</time></trkpt><trkpt lat="44.87802049543476" lon="9.009960078128342"><ele>280.0</ele><time>2026-05-03T09:55:12Z</time></trkpt><trkpt lat="44.87796169454531" lon="9.009924478975567"><ele>280.0</ele><time>2026-05-03T09:55:14Z</time></trkpt><trkpt lat="44.87791973562371" lon="9.01000453700517"><ele>280.0</ele><time>2026-05-03T09:55:16Z</time></trkpt><trkpt lat="44.87784837134441" lon="9.010060830872032"><ele>280.0</ele><time>2026-05-03T09:55:19Z</time></trkpt><trkpt lat="44.8777809284258" lon="9.010078444530194"><ele>280.0</ele><time>2026-05-03T09:55:21Z</time></trkpt><trkpt lat="44.877723806751376" lon="9.010143297431283"><ele>280.0</ele><time>2026-05-03T09:55:24Z</time></trkpt><trkpt lat="44.877656622036184" lon="9.010192966959767"><ele>280.0</ele><time>2026-05-03T09:55:28Z</time></trkpt><trkpt lat="44.87753980163598" lon="9.010207119422866"><ele>276.3333333333333</ele><time>2026-05-03T09:55:31Z</time></trkpt><trkpt lat="44.87746718042868" lon="9.010193449995315"><ele>272.66666666666663</ele><time>2026-05-03T09:55:31.999Z</time></trkpt><trkpt lat="44.87740617006969" lon="9.010160822976061"><ele>269.0</ele><time>2026-05-03T09:55:32.999Z</time></trkpt><trkpt lat="44.877328624293305" lon="9.010128705169333"><ele>265.3333333333333</ele><time>2026-05-03T09:55:33.999Z</time></trkpt><trkpt lat="44.87724767637281" lon="9.010095861369336"><ele>261.6666666666667</ele><time>2026-05-03T09:55:34.999Z</time></trkpt><trkpt lat="44.877163796164155" lon="9.010059878653248"><ele>258.0</ele><time>2026-05-03T09:55:35.999Z</time></trkpt><trkpt lat="44.87708830238973" lon="9.010016855693452"><ele>257.2</ele><time>2026-05-03T09:55:36.999Z</time></trkpt><trkpt lat="44.87697456459188" lon="9.00998086453207"><ele>256.4</ele><time>2026-05-03T09:55:38.999Z</time></trkpt><trkpt lat="44.87684994293072" lon="9.00997122866398"><ele>255.59999999999997</ele><time>2026-05-03T09:55:40.999Z</time></trkpt><trkpt lat="44.87676473021401" lon="9.009980152907918"><ele>254.79999999999998</ele><time>2026-05-03T09:55:41.999Z</time></trkpt><trkpt lat="44.876702138822445" lon="9.00996116144801"><ele>254.0</ele><time>2026-05-03T09:55:42.999Z</time></trkpt><trkpt lat="44.876568150357535" lon="9.009941007549017"><ele>255.66666666666669</ele><time>2026-05-03T09:55:44.999Z</time></trkpt><trkpt lat="44.876501050093076" lon="9.009964419361276"><ele>257.33333333333337</ele><time>2026-05-03T09:55:45.999Z</time></trkpt><trkpt lat="44.87636596068643" lon="9.009983926873975"><ele>259.0</ele><time>2026-05-03T09:55:47.999Z</time></trkpt><trkpt lat="44.87628630913629" lon="9.009996205004146"><ele>260.6666666666667</ele><time>2026-05-03T09:55:48.999Z</time></trkpt><trkpt lat="44.876230015139775" lon="9.01004397061676"><ele>262.3333333333333</ele><time>2026-05-03T09:55:49.999Z</time></trkpt><trkpt lat="44.87615317152983" lon="9.010058212978587"><ele>264.0</ele><time>2026-05-03T09:55:50.999Z</time></trkpt><trkpt lat="44.87607844592796" lon="9.010036272732894"><ele>264.57142857142856</ele><time>2026-05-03T09:55:51.999Z</time></trkpt><trkpt lat="44.876006215176574" lon="9.010017121398075"><ele>265.14285714285717</ele><time>2026-05-03T09:55:52.999Z</time></trkpt><trkpt lat="44.87592687437563" lon="9.010009551811088"><ele>265.7142857142857</ele><time>2026-05-03T09:55:53.999Z</time></trkpt><trkpt lat="44.875850306082576" lon="9.010001209767468"><ele>266.2857142857143</ele><time>2026-05-03T09:55:54.999Z</time></trkpt><trkpt lat="44.87578063505993" lon="9.009998501406415"><ele>266.85714285714283</ele><time>2026-05-03T09:55:55.999Z</time></trkpt><trkpt lat="44.875712099529565" lon="9.009984458207226"><ele>267.42857142857144</ele><time>2026-05-03T09:55:56.999Z</time></trkpt><trkpt lat="44.87564866187457" lon="9.009938393757315"><ele>268.0</ele><time>2026-05-03T09:55:57.999Z</time></trkpt><trkpt lat="44.87558918709877" lon="9.009902803955711"><ele>270.66666666666663</ele><time>2026-05-03T09:55:58.999Z</time></trkpt><trkpt lat="44.87552247813429" lon="9.009877273944864"><ele>273.3333333333333</ele><time>2026-05-03T09:55:59.999Z</time></trkpt><trkpt lat="44.87545208003688" lon="9.009855113971309"><ele>276.0</ele><time>2026-05-03T09:56:00.999Z</time></trkpt><trkpt lat="44.87539050450724" lon="9.00981207714092"><ele>278.6666666666667</ele><time>2026-05-03T09:56:01.999Z</time></trkpt><trkpt lat="44.875316360131826" lon="9.0097394482539"><ele>281.33333333333337</ele><time>2026-05-03T09:56:03.998Z</time></trkpt><trkpt lat="44.875251573581814" lon="9.009571603079069"><ele>284.0</ele><time>2026-05-03T09:56:05.998Z</time></trkpt><trkpt lat="44.87521107344074" lon="9.009481016821283"><ele>284.0</ele><time>2026-05-03T09:56:06.998Z</time></trkpt><trkpt lat="44.87516080732872" lon="9.009338433469898"><ele>284.0</ele><time>2026-05-03T09:56:07.998Z</time></trkpt><trkpt lat="44.87510595293569" lon="9.009213642795896"><ele>284.0</ele><time>2026-05-03T09:56:08.998Z</time></trkpt><trkpt lat="44.875047340015755" lon="9.009085957651196"><ele>284.0</ele><time>2026-05-03T09:56:09.998Z</time></trkpt><trkpt lat="44.875005099664065" lon="9.008994855329801"><ele>284.0</ele><time>2026-05-03T09:56:10.998Z</time></trkpt><trkpt lat="44.87495558643651" lon="9.008866637642573"><ele>285.0</ele><time>2026-05-03T09:56:11.998Z</time></trkpt><trkpt lat="44.874901539005286" lon="9.008737203910554"><ele>286.0</ele><time>2026-05-03T09:56:12.998Z</time></trkpt><trkpt lat="44.87481019807074" lon="9.008671081082142"><ele>287.0</ele><time>2026-05-03T09:56:14.998Z</time></trkpt><trkpt lat="44.87477090338567" lon="9.008577797291746"><ele>288.0</ele><time>2026-05-03T09:56:15.998Z</time></trkpt><trkpt lat="44.87474276569551" lon="9.008496295173538"><ele>289.0</ele><time>2026-05-03T09:56:16.998Z</time></trkpt><trkpt lat="44.87468895754237" lon="9.008359840780766"><ele>287.59999999999997</ele><time>2026-05-03T09:56:18.998Z</time></trkpt><trkpt lat="44.874637246898004" lon="9.00825989701388"><ele>286.2</ele><time>2026-05-03T09:56:20.998Z</time></trkpt><trkpt lat="44.87461140018063" lon="9.008165717050089"><ele>284.79999999999995</ele><time>2026-05-03T09:56:24.998Z</time></trkpt><trkpt lat="44.874591300232886" lon="9.007973207823444"><ele>283.4</ele><time>2026-05-03T09:56:26.998Z</time></trkpt><trkpt lat="44.87457606086236" lon="9.007833900380847"><ele>282.0</ele><time>2026-05-03T09:56:27.998Z</time></trkpt><trkpt lat="44.87454923566774" lon="9.007671464877966"><ele>282.0</ele><time>2026-05-03T09:56:28.998Z</time></trkpt><trkpt lat="44.87452687826486" lon="9.007505457310556"><ele>282.0</ele><time>2026-05-03T09:56:29.998Z</time></trkpt><trkpt lat="44.87449895914615" lon="9.007347920546643"><ele>282.0</ele><time>2026-05-03T09:56:30.998Z</time></trkpt><trkpt lat="44.8744731780404" lon="9.0071970205175"><ele>282.0</ele><time>2026-05-03T09:56:31.998Z</time></trkpt><trkpt lat="44.87444873686028" lon="9.007063974656456"><ele>282.0</ele><time>2026-05-03T09:56:32.998Z</time></trkpt><trkpt lat="44.87443180691725" lon="9.006914147489738"><ele>282.4</ele><time>2026-05-03T09:56:33.998Z</time></trkpt><trkpt lat="44.87442452232645" lon="9.006749566753115"><ele>282.79999999999995</ele><time>2026-05-03T09:56:34.998Z</time></trkpt><trkpt lat="44.874412660492" lon="9.006602574029143"><ele>283.2</ele><time>2026-05-03T09:56:35.998Z</time></trkpt><trkpt lat="44.87438270117144" lon="9.006447146963806"><ele>283.59999999999997</ele><time>2026-05-03T09:56:36.997Z</time></trkpt><trkpt lat="44.874360138978275" lon="9.006299661011758"><ele>284.0</ele><time>2026-05-03T09:56:37.997Z</time></trkpt><trkpt lat="44.874356139339575" lon="9.006157311195498"><ele>285.25</ele><time>2026-05-03T09:56:38.997Z</time></trkpt><trkpt lat="44.87433727155866" lon="9.005957799964303"><ele>286.5</ele><time>2026-05-03T09:56:39.997Z</time></trkpt><trkpt lat="44.87432334173422" lon="9.005760915738415"><ele>287.75</ele><time>2026-05-03T09:56:40.997Z</time></trkpt><trkpt lat="44.874310437897186" lon="9.005580706602604"><ele>289.0</ele><time>2026-05-03T09:56:41.997Z</time></trkpt><trkpt lat="44.87430783954392" lon="9.005427055849404"><ele>285.0</ele><time>2026-05-03T09:56:42.997Z</time></trkpt><trkpt lat="44.87426451317905" lon="9.005251477491663"><ele>281.0</ele><time>2026-05-03T09:56:43.997Z</time></trkpt><trkpt lat="44.87424149899643" lon="9.005089910426328"><ele>277.0</ele><time>2026-05-03T09:56:44.997Z</time></trkpt><trkpt lat="44.874231644839824" lon="9.004899290101552"><ele>273.0</ele><time>2026-05-03T09:56:45.997Z</time></trkpt><trkpt lat="44.87421909456219" lon="9.004709197755801"><ele>269.75</ele><time>2026-05-03T09:56:46.997Z</time></trkpt><trkpt lat="44.87421207947273" lon="9.004533107772781"><ele>266.5</ele><time>2026-05-03T09:56:47.997Z</time></trkpt><trkpt lat="44.87422784829204" lon="9.004365166382753"><ele>263.25</ele><time>2026-05-03T09:56:48.997Z</time></trkpt><trkpt lat="44.8742656737707" lon="9.004193558610293"><ele>260.0</ele><time>2026-05-03T09:56:49.997Z</time></trkpt><trkpt lat="44.874295829343936" lon="9.00402350575091"><ele>258.2</ele><time>2026-05-03T09:56:50.997Z</time></trkpt><trkpt lat="44.8743294593172" lon="9.003865346050533"><ele>256.4</ele><time>2026-05-03T09:56:51.997Z</time></trkpt><trkpt lat="44.8743984878348" lon="9.003756799567073"><ele>254.60000000000002</ele><time>2026-05-03T09:56:52.997Z</time></trkpt><trkpt lat="44.87445784730037" lon="9.003640091327426"><ele>252.8</ele><time>2026-05-03T09:56:53.997Z</time></trkpt><trkpt lat="44.87449848518032" lon="9.003504095008658"><ele>251.0</ele><time>2026-05-03T09:56:54.997Z</time></trkpt><trkpt lat="44.874518415425314" lon="9.003344166941492"><ele>247.0</ele><time>2026-05-03T09:56:55.997Z</time></trkpt><trkpt lat="44.87450785711546" lon="9.003172542720275"><ele>243.0</ele><time>2026-05-03T09:56:57Z</time></trkpt><trkpt lat="44.874509221918316" lon="9.003009861141141"><ele>239.0</ele><time>2026-05-03T09:56:58Z</time></trkpt><trkpt lat="44.87452884509592" lon="9.00286478482533"><ele>235.0</ele><time>2026-05-03T09:56:59Z</time></trkpt><trkpt lat="44.874580049544875" lon="9.002722055334637"><ele>235.0</ele><time>2026-05-03T09:57:00Z</time></trkpt><trkpt lat="44.87463095441325" lon="9.002557258738214"><ele>235.0</ele><time>2026-05-03T09:57:01Z</time></trkpt><trkpt lat="44.87468498134826" lon="9.002397806915463"><ele>235.0</ele><time>2026-05-03T09:57:02Z</time></trkpt><trkpt lat="44.874730041160916" lon="9.00223625078382"><ele>235.0</ele><time>2026-05-03T09:57:03Z</time></trkpt><trkpt lat="44.87476572410038" lon="9.002068423148394"><ele>231.5</ele><time>2026-05-03T09:57:04Z</time></trkpt><trkpt lat="44.87478632525793" lon="9.001903544006705"><ele>228.0</ele><time>2026-05-03T09:57:05Z</time></trkpt><trkpt lat="44.87479695306199" lon="9.001733510859205"><ele>224.5</ele><time>2026-05-03T09:57:06Z</time></trkpt><trkpt lat="44.87479797521502" lon="9.001561457234533"><ele>221.0</ele><time>2026-05-03T09:57:07Z</time></trkpt><trkpt lat="44.87477598216532" lon="9.001403399625907"><ele>218.8</ele><time>2026-05-03T09:57:08Z</time></trkpt><trkpt lat="44.874733198792136" lon="9.001254320387877"><ele>216.60000000000002</ele><time>2026-05-03T09:57:09Z</time></trkpt><trkpt lat="44.87470759538561" lon="9.00112471921784"><ele>214.4</ele><time>2026-05-03T09:57:10Z</time></trkpt><trkpt lat="44.87471132809404" lon="9.001011709605468"><ele>212.2</ele><time>2026-05-03T09:57:11Z</time></trkpt><trkpt lat="44.87477986893809" lon="9.000925458952347"><ele>210.0</ele><time>2026-05-03T09:57:12Z</time></trkpt><trkpt lat="44.874838489105244" lon="9.000790442033814"><ele>209.0</ele><time>2026-05-03T09:57:13Z</time></trkpt><trkpt lat="44.8748877946806" lon="9.000644940815345"><ele>208.0</ele><time>2026-05-03T09:57:14Z</time></trkpt><trkpt lat="44.8749378347975" lon="9.00050567738029"><ele>207.0</ele><time>2026-05-03T09:57:15Z</time></trkpt><trkpt lat="44.87496719011408" lon="9.000364768633533"><ele>206.0</ele><time>2026-05-03T09:57:16Z</time></trkpt><trkpt lat="44.874976088564715" lon="9.000228982790277"><ele>205.0</ele><time>2026-05-03T09:57:17Z</time></trkpt><trkpt lat="44.874945280854874" lon="9.00010152616307"><ele>204.99999999999997</ele><time>2026-05-03T09:57:18Z</time></trkpt><trkpt lat="44.874896607958995" lon="9.000004282720262"><ele>205.0</ele><time>2026-05-03T09:57:19Z</time></trkpt><trkpt lat="44.874851054208094" lon="8.999923258466149"><ele>205.0</ele><time>2026-05-03T09:57:20Z</time></trkpt><trkpt lat="44.87479740800925" lon="8.999870569263946"><ele>205.0</ele><time>2026-05-03T09:57:21Z</time></trkpt><trkpt lat="44.874793262504724" lon="8.999748165040176"><ele>204.99999999999997</ele><time>2026-05-03T09:57:22Z</time></trkpt><trkpt lat="44.87476372122109" lon="8.999619665237402"><ele>205.0</ele><time>2026-05-03T09:57:24Z</time></trkpt><trkpt lat="44.87474584350485" lon="8.999453739752624"><ele>205.0</ele><time>2026-05-03T09:57:26Z</time></trkpt><trkpt lat="44.87470603403342" lon="8.999377201356792"><ele>205.0</ele><time>2026-05-03T09:57:28Z</time></trkpt><trkpt lat="44.87468249478496" lon="8.999221837994904"><ele>205.0</ele><time>2026-05-03T09:57:30Z</time></trkpt><trkpt lat="44.87460382064236" lon="8.999152787144139"><ele>205.0</ele><time>2026-05-03T09:57:31Z</time></trkpt><trkpt lat="44.87464097918046" lon="8.998988583582104"><ele>205.0</ele><time>2026-05-03T09:57:32Z</time></trkpt><trkpt lat="44.87461980112567" lon="8.998893219047217"><ele>204.49999999999997</ele><time>2026-05-03T09:57:33Z</time></trkpt><trkpt lat="44.874585586381194" lon="8.998723149848557"><ele>204.0</ele><time>2026-05-03T09:57:35Z</time></trkpt><trkpt lat="44.87456900474562" lon="8.99863681592304"><ele>203.5</ele><time>2026-05-03T09:57:36Z</time></trkpt><trkpt lat="44.87454846231541" lon="8.998551702996563"><ele>203.0</ele><time>2026-05-03T09:57:37Z</time></trkpt><trkpt lat="44.87453663006181" lon="8.998404369040824"><ele>202.49999999999997</ele><time>2026-05-03T09:57:38.999Z</time></trkpt><trkpt lat="44.87452558613086" lon="8.998294053328921"><ele>202.0</ele><time>2026-05-03T09:57:40.999Z</time></trkpt><trkpt lat="44.87445605107316" lon="8.998242138780277"><ele>201.2</ele><time>2026-05-03T09:57:43.999Z</time></trkpt><trkpt lat="44.87439382220326" lon="8.998270553935926"><ele>200.39999999999998</ele><time>2026-05-03T09:57:46.999Z</time></trkpt><trkpt lat="44.874264710363" lon="8.99821845419548"><ele>199.60000000000002</ele><time>2026-05-03T09:57:53.999Z</time></trkpt><trkpt lat="44.87412490772241" lon="8.99815473836516"><ele>198.8</ele><time>2026-05-03T09:57:55.999Z</time></trkpt><trkpt lat="44.8740434961079" lon="8.998122012513797"><ele>198.0</ele><time>2026-05-03T09:57:56.999Z</time></trkpt><trkpt lat="44.873955721375644" lon="8.998113560852941"><ele>197.8</ele><time>2026-05-03T09:57:57.999Z</time></trkpt><trkpt lat="44.873892363949295" lon="8.998099256160975"><ele>197.60000000000002</ele><time>2026-05-03T09:57:58.999Z</time></trkpt><trkpt lat="44.8738110456664" lon="8.998114728461168"><ele>197.39999999999998</ele><time>2026-05-03T09:57:59.999Z</time></trkpt><trkpt lat="44.87370463831603" lon="8.998190181508589"><ele>197.2</ele><time>2026-05-03T09:58:01.999Z</time></trkpt><trkpt lat="44.873572930866274" lon="8.998242078912076"><ele>197.0</ele><time>2026-05-03T09:58:03.999Z</time></trkpt><trkpt lat="44.87350915048664" lon="8.998263996093819"><ele>197.00000000000003</ele><time>2026-05-03T09:58:04.999Z</time></trkpt><trkpt lat="44.873437119965175" lon="8.998304217917408"><ele>197.0</ele><time>2026-05-03T09:58:05.999Z</time></trkpt><trkpt lat="44.873357689374245" lon="8.998359007457678"><ele>197.0</ele><time>2026-05-03T09:58:06.999Z</time></trkpt><trkpt lat="44.87328446100083" lon="8.99839338723282"><ele>197.0</ele><time>2026-05-03T09:58:07.999Z</time></trkpt><trkpt lat="44.873194042910356" lon="8.9984189590976"><ele>197.00000000000003</ele><time>2026-05-03T09:58:08.999Z</time></trkpt><trkpt lat="44.87311006804466" lon="8.99841592079651"><ele>197.0</ele><time>2026-05-03T09:58:09.998Z</time></trkpt><trkpt lat="44.87303832599025" lon="8.998401857294306"><ele>197.16666666666669</ele><time>2026-05-03T09:58:10.998Z</time></trkpt><trkpt lat="44.872956094652615" lon="8.998412580110289"><ele>197.33333333333334</ele><time>2026-05-03T09:58:11.998Z</time></trkpt><trkpt lat="44.87289490719487" lon="8.99843798079082"><ele>197.5</ele><time>2026-05-03T09:58:12.998Z</time></trkpt><trkpt lat="44.87283321667632" lon="8.998488036328874"><ele>197.66666666666669</ele><time>2026-05-03T09:58:13.998Z</time></trkpt><trkpt lat="44.87276000648269" lon="8.998530793445694"><ele>197.83333333333334</ele><time>2026-05-03T09:58:14.998Z</time></trkpt><trkpt lat="44.87268502264493" lon="8.998529567956613"><ele>198.0</ele><time>2026-05-03T09:58:15.998Z</time></trkpt><trkpt lat="44.87259955547011" lon="8.998521515537947"><ele>198.0</ele><time>2026-05-03T09:58:16.998Z</time></trkpt><trkpt lat="44.87249988492117" lon="8.998507865305903"><ele>198.0</ele><time>2026-05-03T09:58:17.998Z</time></trkpt><trkpt lat="44.87242959397341" lon="8.998504713415917"><ele>198.0</ele><time>2026-05-03T09:58:18.998Z</time></trkpt><trkpt lat="44.87234219227477" lon="8.998496740917588"><ele>198.0</ele><time>2026-05-03T09:58:19.998Z</time></trkpt><trkpt lat="44.87226677609316" lon="8.998505229796601"><ele>198.0</ele><time>2026-05-03T09:58:20.998Z</time></trkpt><trkpt lat="44.87217229969133" lon="8.99848855137306"><ele>198.0</ele><time>2026-05-03T09:58:21.998Z</time></trkpt><trkpt lat="44.872089875793954" lon="8.998441650046352"><ele>198.0</ele><time>2026-05-03T09:58:22.998Z</time></trkpt><trkpt lat="44.87202475987152" lon="8.998442427909154"><ele>198.0</ele><time>2026-05-03T09:58:23.998Z</time></trkpt><trkpt lat="44.87192935316767" lon="8.998414579646706"><ele>198.0</ele><time>2026-05-03T09:58:24.998Z</time></trkpt><trkpt lat="44.87184012200044" lon="8.99840345941398"><ele>198.0</ele><time>2026-05-03T09:58:25.998Z</time></trkpt><trkpt lat="44.87174899238129" lon="8.998409210834602"><ele>198.0</ele><time>2026-05-03T09:58:26.998Z</time></trkpt><trkpt lat="44.871663692971545" lon="8.998407589329817"><ele>198.0</ele><time>2026-05-03T09:58:27.998Z</time></trkpt><trkpt lat="44.87158253835908" lon="8.998410862422475"><ele>198.0</ele><time>2026-05-03T09:58:28.998Z</time></trkpt><trkpt lat="44.871507793145334" lon="8.998438677816251"><ele>198.0</ele><time>2026-05-03T09:58:29.998Z</time></trkpt><trkpt lat="44.87141438621079" lon="8.998414212641991"><ele>198.0</ele><time>2026-05-03T09:58:31.998Z</time></trkpt><trkpt lat="44.87131422179796" lon="8.998379209672835"><ele>198.0</ele><time>2026-05-03T09:58:32.998Z</time></trkpt><trkpt lat="44.87123179640135" lon="8.998359451977885"><ele>198.0</ele><time>2026-05-03T09:58:33.998Z</time></trkpt><trkpt lat="44.87113874998917" lon="8.998332648328766"><ele>198.0</ele><time>2026-05-03T09:58:34.998Z</time></trkpt><trkpt lat="44.87105125642476" lon="8.998291900801872"><ele>198.0</ele><time>2026-05-03T09:58:35.998Z</time></trkpt><trkpt lat="44.87096307192479" lon="8.998270574719536"><ele>198.0</ele><time>2026-05-03T09:58:36.998Z</time></trkpt><trkpt lat="44.87087723026083" lon="8.99825504549593"><ele>198.0</ele><time>2026-05-03T09:58:37.998Z</time></trkpt><trkpt lat="44.87079499299569" lon="8.998236770767688"><ele>198.0</ele><time>2026-05-03T09:58:38.998Z</time></trkpt><trkpt lat="44.87071334246869" lon="8.998198056558705"><ele>198.0</ele><time>2026-05-03T09:58:39.998Z</time></trkpt><trkpt lat="44.87064092664521" lon="8.998160096113557"><ele>198.5</ele><time>2026-05-03T09:58:40.998Z</time></trkpt><trkpt lat="44.87056077058009" lon="8.99810487035917"><ele>199.0</ele><time>2026-05-03T09:58:41.998Z</time></trkpt><trkpt lat="44.87047730559122" lon="8.998063610972176"><ele>199.5</ele><time>2026-05-03T09:58:42.997Z</time></trkpt><trkpt lat="44.87038953410442" lon="8.998035182369776"><ele>200.0</ele><time>2026-05-03T09:58:43.997Z</time></trkpt><trkpt lat="44.87030845869067" lon="8.997999447199307"><ele>200.5</ele><time>2026-05-03T09:58:44.997Z</time></trkpt><trkpt lat="44.87023088325416" lon="8.997970727659668"><ele>201.0</ele><time>2026-05-03T09:58:45.997Z</time></trkpt><trkpt lat="44.87015645922689" lon="8.99794358641116"><ele>200.8</ele><time>2026-05-03T09:58:46.997Z</time></trkpt><trkpt lat="44.87005802738659" lon="8.997905104561863"><ele>200.60000000000002</ele><time>2026-05-03T09:58:48.997Z</time></trkpt><trkpt lat="44.87002880755394" lon="8.997734296859715"><ele>200.4</ele><time>2026-05-03T09:58:51.997Z</time></trkpt><trkpt lat="44.870003029120774" lon="8.997637480438282"><ele>200.2</ele><time>2026-05-03T09:58:53.997Z</time></trkpt><trkpt lat="44.87003619243218" lon="8.997556625565824"><ele>200.0</ele><time>2026-05-03T09:58:56.997Z</time></trkpt><trkpt lat="44.87007532650996" lon="8.997432437503006"><ele>200.0</ele><time>2026-05-03T09:58:58.997Z</time></trkpt><trkpt lat="44.87014233712673" lon="8.997321829966554"><ele>200.0</ele><time>2026-05-03T09:59:00.997Z</time></trkpt><trkpt lat="44.87020419732385" lon="8.997252766864282"><ele>200.0</ele><time>2026-05-03T09:59:01.997Z</time></trkpt><trkpt lat="44.8702975417781" lon="8.997203786263048"><ele>200.0</ele><time>2026-05-03T09:59:03Z</time></trkpt><trkpt lat="44.87039189813458" lon="8.997149749704501"><ele>200.0</ele><time>2026-05-03T09:59:04Z</time></trkpt><trkpt lat="44.870479335427696" lon="8.997073854827272"><ele>200.0</ele><time>2026-05-03T09:59:05Z</time></trkpt><trkpt lat="44.87052649431557" lon="8.997002313979126"><ele>200.0</ele><time>2026-05-03T09:59:06Z</time></trkpt><trkpt lat="44.87055627460853" lon="8.996837017744141"><ele>200.0</ele><time>2026-05-03T09:59:08Z</time></trkpt><trkpt lat="44.8705537864172" lon="8.996728585766608"><ele>200.0</ele><time>2026-05-03T09:59:09Z</time></trkpt><trkpt lat="44.87053017375012" lon="8.996581775491261"><ele>200.0</ele><time>2026-05-03T09:59:10Z</time></trkpt><trkpt lat="44.870517271315045" lon="8.996409404789986"><ele>200.5</ele><time>2026-05-03T09:59:11Z</time></trkpt><trkpt lat="44.870510301856385" lon="8.996210500466692"><ele>201.0</ele><time>2026-05-03T09:59:12Z</time></trkpt><trkpt lat="44.870502515198936" lon="8.996007371777106"><ele>201.5</ele><time>2026-05-03T09:59:13Z</time></trkpt><trkpt lat="44.87049085656848" lon="8.995830788961417"><ele>202.0</ele><time>2026-05-03T09:59:14Z</time></trkpt><trkpt lat="44.870480158659845" lon="8.995684138712548"><ele>202.39999999999998</ele><time>2026-05-03T09:59:15Z</time></trkpt><trkpt lat="44.87047158583636" lon="8.995545349871094"><ele>202.79999999999998</ele><time>2026-05-03T09:59:16Z</time></trkpt><trkpt lat="44.870464855488216" lon="8.995399714716966"><ele>203.2</ele><time>2026-05-03T09:59:17Z</time></trkpt><trkpt lat="44.87045457019933" lon="8.995297870452536"><ele>203.6</ele><time>2026-05-03T09:59:18Z</time></trkpt><trkpt lat="44.87044611807695" lon="8.995171693096028"><ele>204.0</ele><time>2026-05-03T09:59:20Z</time></trkpt><trkpt lat="44.87053055925174" lon="8.995109921956187"><ele>204.0</ele><time>2026-05-03T09:59:22Z</time></trkpt><trkpt lat="44.87062067257895" lon="8.995069095861389"><ele>204.0</ele><time>2026-05-03T09:59:23Z</time></trkpt><trkpt lat="44.870736081578414" lon="8.995025913747146"><ele>204.0</ele><time>2026-05-03T09:59:24Z</time></trkpt><trkpt lat="44.87086888687472" lon="8.99497256701256"><ele>204.0</ele><time>2026-05-03T09:59:25Z</time></trkpt><trkpt lat="44.87100833859791" lon="8.994913719801634"><ele>205.0</ele><time>2026-05-03T09:59:26Z</time></trkpt><trkpt lat="44.87116249386598" lon="8.994847425285052"><ele>206.0</ele><time>2026-05-03T09:59:27Z</time></trkpt><trkpt lat="44.87133787427891" lon="8.9947844320338"><ele>207.0</ele><time>2026-05-03T09:59:28Z</time></trkpt><trkpt lat="44.87148397836737" lon="8.99469584696942"><ele>207.0</ele><time>2026-05-03T09:59:29Z</time></trkpt><trkpt lat="44.8716524636187" lon="8.994603622747315"><ele>207.0</ele><time>2026-05-03T09:59:30Z</time></trkpt><trkpt lat="44.87182272691208" lon="8.99450594367924"><ele>207.0</ele><time>2026-05-03T09:59:31Z</time></trkpt><trkpt lat="44.87198548404207" lon="8.994390096696275"><ele>206.66666666666669</ele><time>2026-05-03T09:59:32Z</time></trkpt><trkpt lat="44.8721473886437" lon="8.994273397395206"><ele>206.33333333333334</ele><time>2026-05-03T09:59:33Z</time></trkpt><trkpt lat="44.87230289643898" lon="8.994150437365633"><ele>206.0</ele><time>2026-05-03T09:59:34Z</time></trkpt><trkpt lat="44.87247502095296" lon="8.994055033431646"><ele>204.66666666666669</ele><time>2026-05-03T09:59:35Z</time></trkpt><trkpt lat="44.87263531337931" lon="8.993938221017839"><ele>203.33333333333331</ele><time>2026-05-03T09:59:36Z</time></trkpt><trkpt lat="44.872801822495724" lon="8.993858578811944"><ele>202.0</ele><time>2026-05-03T09:59:37Z</time></trkpt><trkpt lat="44.872963528752024" lon="8.993762198915146"><ele>202.0</ele><time>2026-05-03T09:59:38Z</time></trkpt><trkpt lat="44.873111618886725" lon="8.993665413845038"><ele>202.0</ele><time>2026-05-03T09:59:39Z</time></trkpt><trkpt lat="44.8732796918125" lon="8.993592555034203"><ele>202.0</ele><time>2026-05-03T09:59:40Z</time></trkpt><trkpt lat="44.87345224194849" lon="8.993545461765207"><ele>201.66666666666666</ele><time>2026-05-03T09:59:41Z</time></trkpt><trkpt lat="44.87360437098246" lon="8.993463188926587"><ele>201.33333333333331</ele><time>2026-05-03T09:59:42Z</time></trkpt><trkpt lat="44.87376995192231" lon="8.993396985777569"><ele>201.0</ele><time>2026-05-03T09:59:43Z</time></trkpt><trkpt lat="44.87393134751335" lon="8.993328542549268"><ele>201.0</ele><time>2026-05-03T09:59:44Z</time></trkpt><trkpt lat="44.87410453114684" lon="8.993307332257146"><ele>201.0</ele><time>2026-05-03T09:59:45Z</time></trkpt><trkpt lat="44.87425423074234" lon="8.993261868116932"><ele>201.0</ele><time>2026-05-03T09:59:45.999Z</time></trkpt><trkpt lat="44.87441403307871" lon="8.99327201687235"><ele>200.66666666666669</ele><time>2026-05-03T09:59:46.999Z</time></trkpt><trkpt lat="44.87457142489074" lon="8.993296366293302"><ele>200.33333333333334</ele><time>2026-05-03T09:59:47.999Z</time></trkpt><trkpt lat="44.87473195997075" lon="8.993359148868104"><ele>200.0</ele><time>2026-05-03T09:59:48.999Z</time></trkpt><trkpt lat="44.874899522638536" lon="8.993458586316343"><ele>198.66666666666669</ele><time>2026-05-03T09:59:49.999Z</time></trkpt><trkpt lat="44.87504204553771" lon="8.993507569135236"><ele>197.33333333333331</ele><time>2026-05-03T09:59:50.999Z</time></trkpt><trkpt lat="44.875203769261766" lon="8.993552590960869"><ele>196.0</ele><time>2026-05-03T09:59:51.999Z</time></trkpt><trkpt lat="44.87535807452665" lon="8.993602375168322"><ele>195.33333333333331</ele><time>2026-05-03T09:59:52.999Z</time></trkpt><trkpt lat="44.875520108505725" lon="8.993618022136763"><ele>194.66666666666669</ele><time>2026-05-03T09:59:53.999Z</time></trkpt><trkpt lat="44.875680631476556" lon="8.993564288883649"><ele>194.0</ele><time>2026-05-03T09:59:54.999Z</time></trkpt><trkpt lat="44.87584921739406" lon="8.993542954985655"><ele>194.0</ele><time>2026-05-03T09:59:55.999Z</time></trkpt><trkpt lat="44.876011914678585" lon="8.993496987150207"><ele>194.0</ele><time>2026-05-03T09:59:56.999Z</time></trkpt><trkpt lat="44.87618099213716" lon="8.993448019379013"><ele>194.0</ele><time>2026-05-03T09:59:57.999Z</time></trkpt><trkpt lat="44.87634585220427" lon="8.99341541729957"><ele>194.0</ele><time>2026-05-03T09:59:58.999Z</time></trkpt><trkpt lat="44.876515423795475" lon="8.993369936720159"><ele>194.0</ele><time>2026-05-03T09:59:59.999Z</time></trkpt><trkpt lat="44.87667764749537" lon="8.993323924601352"><ele>194.0</ele><time>2026-05-03T10:00:00.999Z</time></trkpt><trkpt lat="44.87684212968797" lon="8.993273413261772"><ele>194.0</ele><time>2026-05-03T10:00:01.999Z</time></trkpt><trkpt lat="44.87700643873165" lon="8.993198252325435"><ele>194.0</ele><time>2026-05-03T10:00:02.999Z</time></trkpt><trkpt lat="44.87714514024231" lon="8.993131381623217"><ele>194.0</ele><time>2026-05-03T10:00:03.999Z</time></trkpt><trkpt lat="44.87729809146067" lon="8.992996629319574"><ele>194.0</ele><time>2026-05-03T10:00:04.999Z</time></trkpt><trkpt lat="44.877429406651906" lon="8.99288320780459"><ele>194.0</ele><time>2026-05-03T10:00:05.999Z</time></trkpt><trkpt lat="44.87755737689813" lon="8.992736502924936"><ele>194.0</ele><time>2026-05-03T10:00:06.999Z</time></trkpt><trkpt lat="44.87768427356482" lon="8.99256562719126"><ele>193.0</ele><time>2026-05-03T10:00:07.999Z</time></trkpt><trkpt lat="44.877797993118214" lon="8.992390691448216"><ele>192.0</ele><time>2026-05-03T10:00:08.999Z</time></trkpt><trkpt lat="44.87789270808328" lon="8.992214342936212"><ele>191.0</ele><time>2026-05-03T10:00:09.999Z</time></trkpt><trkpt lat="44.87800075137537" lon="8.992014722821084"><ele>191.0</ele><time>2026-05-03T10:00:10.999Z</time></trkpt><trkpt lat="44.878103912998014" lon="8.991816014175669"><ele>191.0</ele><time>2026-05-03T10:00:11.999Z</time></trkpt><trkpt lat="44.87820558692091" lon="8.991614220038388"><ele>191.0</ele><time>2026-05-03T10:00:12.999Z</time></trkpt><trkpt lat="44.87833689276507" lon="8.991408061155076"><ele>190.33333333333331</ele><time>2026-05-03T10:00:13.999Z</time></trkpt><trkpt lat="44.87847966774328" lon="8.991187099299042"><ele>189.66666666666666</ele><time>2026-05-03T10:00:14.999Z</time></trkpt><trkpt lat="44.87860890285846" lon="8.990949061873964"><ele>189.0</ele><time>2026-05-03T10:00:15.999Z</time></trkpt><trkpt lat="44.87865098513459" lon="8.990811469954277"><ele>189.0</ele><time>2026-05-03T10:00:16.999Z</time></trkpt><trkpt lat="44.87876092619412" lon="8.990612292081147"><ele>189.0</ele><time>2026-05-03T10:00:17.999Z</time></trkpt><trkpt lat="44.87887378096723" lon="8.99042691116962"><ele>189.0</ele><time>2026-05-03T10:00:18.998Z</time></trkpt><trkpt lat="44.87899921829923" lon="8.990255420783173"><ele>189.0</ele><time>2026-05-03T10:00:19.998Z</time></trkpt><trkpt lat="44.87914165854364" lon="8.9900972034115"><ele>189.0</ele><time>2026-05-03T10:00:20.998Z</time></trkpt><trkpt lat="44.879287385677756" lon="8.989959231466713"><ele>189.0</ele><time>2026-05-03T10:00:21.998Z</time></trkpt><trkpt lat="44.87944339838311" lon="8.989842311667228"><ele>188.33333333333334</ele><time>2026-05-03T10:00:22.998Z</time></trkpt><trkpt lat="44.879607850918795" lon="8.989736441725375"><ele>187.66666666666669</ele><time>2026-05-03T10:00:23.998Z</time></trkpt><trkpt lat="44.87977851157926" lon="8.989649695312348"><ele>187.0</ele><time>2026-05-03T10:00:24.998Z</time></trkpt><trkpt lat="44.879955108610034" lon="8.989574196271997"><ele>186.66666666666669</ele><time>2026-05-03T10:00:25.998Z</time></trkpt><trkpt lat="44.88013182939468" lon="8.989499535167637"><ele>186.33333333333334</ele><time>2026-05-03T10:00:26.998Z</time></trkpt><trkpt lat="44.88030660616021" lon="8.989411445034529"><ele>186.0</ele><time>2026-05-03T10:00:27.998Z</time></trkpt><trkpt lat="44.880478029984424" lon="8.98932142734334"><ele>186.0</ele><time>2026-05-03T10:00:28.998Z</time></trkpt><trkpt lat="44.88064929139577" lon="8.989239260027256"><ele>186.0</ele><time>2026-05-03T10:00:29.998Z</time></trkpt><trkpt lat="44.880819317322164" lon="8.989157047737395"><ele>186.0</ele><time>2026-05-03T10:00:30.998Z</time></trkpt><trkpt lat="44.880983857325106" lon="8.989071861345009"><ele>185.66666666666666</ele><time>2026-05-03T10:00:31.998Z</time></trkpt><trkpt lat="44.881146524218025" lon="8.988973826808401"><ele>185.33333333333331</ele><time>2026-05-03T10:00:32.998Z</time></trkpt><trkpt lat="44.881298517587325" lon="8.988865599600002"><ele>185.0</ele><time>2026-05-03T10:00:33.998Z</time></trkpt><trkpt lat="44.88143997402282" lon="8.988730325679569"><ele>185.0</ele><time>2026-05-03T10:00:34.998Z</time></trkpt><trkpt lat="44.881567284155594" lon="8.988575757564512"><ele>185.0</ele><time>2026-05-03T10:00:35.998Z</time></trkpt><trkpt lat="44.88168562760212" lon="8.988410321207875"><ele>185.0</ele><time>2026-05-03T10:00:36.998Z</time></trkpt><trkpt lat="44.88179215172259" lon="8.98823406020725"><ele>184.33333333333331</ele><time>2026-05-03T10:00:37.998Z</time></trkpt><trkpt lat="44.88189930222757" lon="8.988039173600122"><ele>183.66666666666666</ele><time>2026-05-03T10:00:38.998Z</time></trkpt><trkpt lat="44.881993056219756" lon="8.987867420875435"><ele>183.0</ele><time>2026-05-03T10:00:39.998Z</time></trkpt><trkpt lat="44.88209737899482" lon="8.98770631407381"><ele>183.0</ele><time>2026-05-03T10:00:40.998Z</time></trkpt><trkpt lat="44.88218010830886" lon="8.98754801990259"><ele>183.0</ele><time>2026-05-03T10:00:41.998Z</time></trkpt><trkpt lat="44.8822674102949" lon="8.987395215093652"><ele>183.0</ele><time>2026-05-03T10:00:42.998Z</time></trkpt><trkpt lat="44.88234737537931" lon="8.987261834661352"><ele>183.0</ele><time>2026-05-03T10:00:43.998Z</time></trkpt><trkpt lat="44.88242203434717" lon="8.98713931543637"><ele>182.83333333333334</ele><time>2026-05-03T10:00:44.998Z</time></trkpt><trkpt lat="44.88248896789808" lon="8.987023861838253"><ele>182.66666666666666</ele><time>2026-05-03T10:00:45.998Z</time></trkpt><trkpt lat="44.88254985376099" lon="8.9869202318573"><ele>182.5</ele><time>2026-05-03T10:00:46.998Z</time></trkpt><trkpt lat="44.88261180618747" lon="8.986826489676938"><ele>182.33333333333331</ele><time>2026-05-03T10:00:47.998Z</time></trkpt><trkpt lat="44.88266417970592" lon="8.98674497261395"><ele>182.16666666666666</ele><time>2026-05-03T10:00:48.998Z</time></trkpt><trkpt lat="44.8827070851517" lon="8.98667748720901"><ele>182.0</ele><time>2026-05-03T10:00:49.998Z</time></trkpt><trkpt lat="44.882755992151814" lon="8.986593190665541"><ele>182.0</ele><time>2026-05-03T10:00:51.997Z</time></trkpt><trkpt lat="44.882789027992935" lon="8.986496632195038"><ele>182.0</ele><time>2026-05-03T10:00:54.997Z</time></trkpt><trkpt lat="44.88284535698895" lon="8.986407941205288"><ele>182.0</ele><time>2026-05-03T10:00:55.997Z</time></trkpt><trkpt lat="44.8829160927786" lon="8.986301216591546"><ele>182.0</ele><time>2026-05-03T10:00:56.997Z</time></trkpt><trkpt lat="44.88299729922517" lon="8.986168875337368"><ele>182.0</ele><time>2026-05-03T10:00:57.997Z</time></trkpt><trkpt lat="44.88309109365918" lon="8.986014508201167"><ele>182.0</ele><time>2026-05-03T10:00:58.997Z</time></trkpt><trkpt lat="44.883184177980176" lon="8.985871909118263"><ele>182.0</ele><time>2026-05-03T10:00:59.997Z</time></trkpt><trkpt lat="44.88328189499678" lon="8.985711150151536"><ele>182.0</ele><time>2026-05-03T10:01:00.997Z</time></trkpt><trkpt lat="44.8833827245181" lon="8.985542910373859"><ele>182.0</ele><time>2026-05-03T10:01:01.997Z</time></trkpt><trkpt lat="44.88349456828452" lon="8.985383912300248"><ele>182.0</ele><time>2026-05-03T10:01:02.997Z</time></trkpt><trkpt lat="44.88362127150799" lon="8.98522540183722"><ele>182.0</ele><time>2026-05-03T10:01:03.997Z</time></trkpt><trkpt lat="44.8837388914648" lon="8.985097130689512"><ele>182.0</ele><time>2026-05-03T10:01:04.997Z</time></trkpt><trkpt lat="44.88384960511268" lon="8.984974561236243"><ele>182.0</ele><time>2026-05-03T10:01:05.997Z</time></trkpt><trkpt lat="44.883978367376294" lon="8.984867606894136"><ele>182.0</ele><time>2026-05-03T10:01:06.997Z</time></trkpt><trkpt lat="44.88410163084849" lon="8.984740325163626"><ele>182.0</ele><time>2026-05-03T10:01:07.997Z</time></trkpt><trkpt lat="44.884227597914204" lon="8.984626616395225"><ele>181.5</ele><time>2026-05-03T10:01:09Z</time></trkpt><trkpt lat="44.88434603024659" lon="8.984517776210641"><ele>181.0</ele><time>2026-05-03T10:01:10Z</time></trkpt><trkpt lat="44.884444507254145" lon="8.984412970601113"><ele>180.5</ele><time>2026-05-03T10:01:11Z</time></trkpt><trkpt lat="44.88454944195747" lon="8.984321203285182"><ele>180.0</ele><time>2026-05-03T10:01:12Z</time></trkpt><trkpt lat="44.8846407157348" lon="8.98422803927051"><ele>180.6</ele><time>2026-05-03T10:01:13Z</time></trkpt><trkpt lat="44.88473181646213" lon="8.984146092250711"><ele>181.2</ele><time>2026-05-03T10:01:14Z</time></trkpt><trkpt lat="44.88481543163486" lon="8.984066285154372"><ele>181.8</ele><time>2026-05-03T10:01:15Z</time></trkpt><trkpt lat="44.884889871289715" lon="8.983994591498412"><ele>182.4</ele><time>2026-05-03T10:01:16Z</time></trkpt><trkpt lat="44.884974380766664" lon="8.983919961638515"><ele>183.0</ele><time>2026-05-03T10:01:17Z</time></trkpt><trkpt lat="44.885053063438455" lon="8.983854700111136"><ele>182.5</ele><time>2026-05-03T10:01:18Z</time></trkpt><trkpt lat="44.88511130073351" lon="8.983791755089289"><ele>182.0</ele><time>2026-05-03T10:01:19Z</time></trkpt><trkpt lat="44.88516807582627" lon="8.983745947319873"><ele>181.5</ele><time>2026-05-03T10:01:20Z</time></trkpt><trkpt lat="44.885271318501886" lon="8.98364914202212"><ele>181.0</ele><time>2026-05-03T10:01:22Z</time></trkpt><trkpt lat="44.88532572135677" lon="8.983590129626661"><ele>180.5</ele><time>2026-05-03T10:01:23Z</time></trkpt><trkpt lat="44.88538353871578" lon="8.983533024447508"><ele>180.0</ele><time>2026-05-03T10:01:24Z</time></trkpt><trkpt lat="44.885445456028066" lon="8.983485898714237"><ele>180.0</ele><time>2026-05-03T10:01:25Z</time></trkpt><trkpt lat="44.88553556857473" lon="8.983411047153023"><ele>180.0</ele><time>2026-05-03T10:01:27Z</time></trkpt><trkpt lat="44.88560782005297" lon="8.983356359700899"><ele>180.0</ele><time>2026-05-03T10:01:29Z</time></trkpt><trkpt lat="44.88567954595788" lon="8.983347709124475"><ele>180.0</ele><time>2026-05-03T10:01:31Z</time></trkpt><trkpt lat="44.88559831246242" lon="8.983353342567993"><ele>180.0</ele><time>2026-05-03T10:01:54.999Z</time></trkpt><trkpt lat="44.88552780878784" lon="8.983429679951602"><ele>180.0</ele><time>2026-05-03T10:01:56.999Z</time></trkpt><trkpt lat="44.88548643170214" lon="8.983520348267108"><ele>180.0</ele><time>2026-05-03T10:01:59.999Z</time></trkpt><trkpt lat="44.88554329383248" lon="8.983615876836163"><ele>180.0</ele><time>2026-05-03T10:02:01.999Z</time></trkpt><trkpt lat="44.88560747711488" lon="8.983701162707858"><ele>180.0</ele><time>2026-05-03T10:02:04.999Z</time></trkpt><trkpt lat="44.88555201395759" lon="8.983644736627802"><ele>180.0</ele><time>2026-05-03T10:02:13.999Z</time></trkpt></trkseg></trk></gpx>